<?xml version="1.0" encoding="UTF-8" standalone="no" ?>
<gpx xmlns="http://www.topografix.com/GPX/1/1" xmlns:xsi="http://www.w3.org/2001/XMLSchema-instance" xsi:schemaLocation="http://www.topografix.com/GPX/1/1 http://www.topografix.com/GPX/1/1/gpx.xsd" version="1.1" creator="VisuGPX - https://www.visugpx.com">
  <metadata>
    <name>St Léger en Yvelines / Magny les hameaux</name>
    <desc><![CDATA[départ de St Léger : 9h00
6h45 pour moi, on prend le van de Tacoignières à St Léger... le temps de préparer ses 2 chevaux pour Claire, nous partons un peu plus tard que prévu...
Pas de difficultés majeures sur ce premier jour de randonnée.
Nous dînerons et coucherons au gite : Maison Prairie Bonheur.]]></desc>
  </metadata>
  <trk>
    <name><![CDATA[Saint-Léger-en-Yvelines Autre]]></name>
    <trkseg>
      <trkpt lat="48.70781" lon="1.75851">
        <ele>173.19999694824</ele>
        <time>2015-12-27T08:09:44.000Z</time>
      </trkpt>
      <trkpt lat="48.70774" lon="1.75842">
        <ele>173</ele>
        <time>2015-12-27T08:09:52.000Z</time>
      </trkpt>
      <trkpt lat="48.70766" lon="1.7583">
        <ele>173</ele>
        <time>2015-12-27T08:10:00.000Z</time>
      </trkpt>
      <trkpt lat="48.70758" lon="1.75817">
        <ele>173</ele>
        <time>2015-12-27T08:10:09.000Z</time>
      </trkpt>
      <trkpt lat="48.70749" lon="1.75805">
        <ele>173.19999694824</ele>
        <time>2015-12-27T08:10:18.000Z</time>
      </trkpt>
      <trkpt lat="48.7074" lon="1.7579">
        <ele>173.39999389648</ele>
        <time>2015-12-27T08:10:28.000Z</time>
      </trkpt>
      <trkpt lat="48.70731" lon="1.75777">
        <ele>173.60000610352</ele>
        <time>2015-12-27T08:10:37.000Z</time>
      </trkpt>
      <trkpt lat="48.70722" lon="1.75764">
        <ele>173.60000610352</ele>
        <time>2015-12-27T08:10:46.000Z</time>
      </trkpt>
      <trkpt lat="48.70714" lon="1.75753">
        <ele>173.80000305176</ele>
        <time>2015-12-27T08:10:54.000Z</time>
      </trkpt>
      <trkpt lat="48.70704" lon="1.7574">
        <ele>174</ele>
        <time>2015-12-27T08:11:03.000Z</time>
      </trkpt>
      <trkpt lat="48.70696" lon="1.75727">
        <ele>174.19999694824</ele>
        <time>2015-12-27T08:11:12.000Z</time>
      </trkpt>
      <trkpt lat="48.70689" lon="1.75716">
        <ele>174.19999694824</ele>
        <time>2015-12-27T08:11:20.000Z</time>
      </trkpt>
      <trkpt lat="48.70679" lon="1.75704">
        <ele>175.19999694824</ele>
        <time>2015-12-27T08:11:29.000Z</time>
      </trkpt>
      <trkpt lat="48.70672" lon="1.75696">
        <ele>176.19999694824</ele>
        <time>2015-12-27T08:11:36.000Z</time>
      </trkpt>
      <trkpt lat="48.70659" lon="1.75683">
        <ele>178</ele>
        <time>2015-12-27T08:11:47.000Z</time>
      </trkpt>
      <trkpt lat="48.7065" lon="1.7568">
        <ele>179</ele>
        <time>2015-12-27T08:11:54.000Z</time>
      </trkpt>
      <trkpt lat="48.70645" lon="1.75686">
        <ele>179.60000610352</ele>
        <time>2015-12-27T08:11:59.000Z</time>
      </trkpt>
      <trkpt lat="48.7064" lon="1.75699">
        <ele>179.60000610352</ele>
        <time>2015-12-27T08:12:07.000Z</time>
      </trkpt>
      <trkpt lat="48.70634" lon="1.75711">
        <ele>179</ele>
        <time>2015-12-27T08:12:15.000Z</time>
      </trkpt>
      <trkpt lat="48.70634" lon="1.75712">
        <ele>179</ele>
        <time>2015-12-27T08:12:16.000Z</time>
      </trkpt>
      <trkpt lat="48.70629" lon="1.75718">
        <ele>178.80000305176</ele>
        <time>2015-12-27T08:12:21.000Z</time>
      </trkpt>
      <trkpt lat="48.70623" lon="1.75728">
        <ele>178.39999389648</ele>
        <time>2015-12-27T08:12:29.000Z</time>
      </trkpt>
      <trkpt lat="48.70618" lon="1.75737">
        <ele>178.19999694824</ele>
        <time>2015-12-27T08:12:35.000Z</time>
      </trkpt>
      <trkpt lat="48.70613" lon="1.75744">
        <ele>178.19999694824</ele>
        <time>2015-12-27T08:12:41.000Z</time>
      </trkpt>
      <trkpt lat="48.70613" lon="1.75745">
        <ele>178.19999694824</ele>
        <time>2015-12-27T08:12:42.000Z</time>
      </trkpt>
      <trkpt lat="48.70612" lon="1.75747">
        <ele>178.19999694824</ele>
        <time>2015-12-27T08:12:45.000Z</time>
      </trkpt>
      <trkpt lat="48.70612" lon="1.75749">
        <ele>178.19999694824</ele>
        <time>2015-12-27T08:12:47.000Z</time>
      </trkpt>
      <trkpt lat="48.70604" lon="1.75762">
        <ele>177.80000305176</ele>
        <time>2015-12-27T08:12:57.000Z</time>
      </trkpt>
      <trkpt lat="48.70599" lon="1.75771">
        <ele>177.80000305176</ele>
        <time>2015-12-27T08:13:04.000Z</time>
      </trkpt>
      <trkpt lat="48.70595" lon="1.7578">
        <ele>177.60000610352</ele>
        <time>2015-12-27T08:13:09.000Z</time>
      </trkpt>
      <trkpt lat="48.70593" lon="1.75786">
        <ele>177.39999389648</ele>
        <time>2015-12-27T08:13:14.000Z</time>
      </trkpt>
      <trkpt lat="48.70589" lon="1.75797">
        <ele>177.19999694824</ele>
        <time>2015-12-27T08:13:21.000Z</time>
      </trkpt>
      <trkpt lat="48.70583" lon="1.7581">
        <ele>177.39999389648</ele>
        <time>2015-12-27T08:13:29.000Z</time>
      </trkpt>
      <trkpt lat="48.70574" lon="1.75825">
        <ele>178.19999694824</ele>
        <time>2015-12-27T08:13:40.000Z</time>
      </trkpt>
      <trkpt lat="48.70572" lon="1.75828">
        <ele>178.60000610352</ele>
        <time>2015-12-27T08:13:43.000Z</time>
      </trkpt>
      <trkpt lat="48.7057" lon="1.75829">
        <ele>178.60000610352</ele>
        <time>2015-12-27T08:13:45.000Z</time>
      </trkpt>
      <trkpt lat="48.70569" lon="1.75833">
        <ele>179</ele>
        <time>2015-12-27T08:13:49.000Z</time>
      </trkpt>
      <trkpt lat="48.70567" lon="1.75836">
        <ele>179</ele>
        <time>2015-12-27T08:13:51.000Z</time>
      </trkpt>
      <trkpt lat="48.70565" lon="1.75843">
        <ele>179.39999389648</ele>
        <time>2015-12-27T08:13:56.000Z</time>
      </trkpt>
      <trkpt lat="48.70561" lon="1.75853">
        <ele>180</ele>
        <time>2015-12-27T08:14:03.000Z</time>
      </trkpt>
      <trkpt lat="48.70558" lon="1.7586">
        <ele>180.39999389648</ele>
        <time>2015-12-27T08:14:09.000Z</time>
      </trkpt>
      <trkpt lat="48.70553" lon="1.75869">
        <ele>180.39999389648</ele>
        <time>2015-12-27T08:14:16.000Z</time>
      </trkpt>
      <trkpt lat="48.70551" lon="1.75872">
        <ele>180.60000610352</ele>
        <time>2015-12-27T08:14:19.000Z</time>
      </trkpt>
      <trkpt lat="48.70549" lon="1.75878">
        <ele>180.60000610352</ele>
        <time>2015-12-27T08:14:23.000Z</time>
      </trkpt>
      <trkpt lat="48.70546" lon="1.75887">
        <ele>180.60000610352</ele>
        <time>2015-12-27T08:14:30.000Z</time>
      </trkpt>
      <trkpt lat="48.70546" lon="1.75887">
        <ele>180.60000610352</ele>
        <time>2015-12-27T08:14:31.000Z</time>
      </trkpt>
      <trkpt lat="48.70525" lon="1.75924">
        <ele>180.80000305176</ele>
        <time>2015-12-27T08:15:12.000Z</time>
      </trkpt>
      <trkpt lat="48.70522" lon="1.75929">
        <ele>180.80000305176</ele>
        <time>2015-12-27T08:15:16.000Z</time>
      </trkpt>
      <trkpt lat="48.70516" lon="1.75936">
        <ele>180.39999389648</ele>
        <time>2015-12-27T08:15:22.000Z</time>
      </trkpt>
      <trkpt lat="48.70511" lon="1.75947">
        <ele>180</ele>
        <time>2015-12-27T08:15:29.000Z</time>
      </trkpt>
      <trkpt lat="48.70505" lon="1.75958">
        <ele>179.39999389648</ele>
        <time>2015-12-27T08:15:36.000Z</time>
      </trkpt>
      <trkpt lat="48.70503" lon="1.75962">
        <ele>179.19999694824</ele>
        <time>2015-12-27T08:15:41.000Z</time>
      </trkpt>
      <trkpt lat="48.70482" lon="1.76052">
        <ele>175.80000305176</ele>
        <time>2015-12-27T08:20:18.000Z</time>
      </trkpt>
      <trkpt lat="48.70482" lon="1.76053">
        <ele>175.60000610352</ele>
        <time>2015-12-27T08:20:19.000Z</time>
      </trkpt>
      <trkpt lat="48.70481" lon="1.76055">
        <ele>175.60000610352</ele>
        <time>2015-12-27T08:20:20.000Z</time>
      </trkpt>
      <trkpt lat="48.70479" lon="1.76062">
        <ele>175.39999389648</ele>
        <time>2015-12-27T08:20:23.000Z</time>
      </trkpt>
      <trkpt lat="48.70477" lon="1.76069">
        <ele>175.19999694824</ele>
        <time>2015-12-27T08:20:27.000Z</time>
      </trkpt>
      <trkpt lat="48.70475" lon="1.76075">
        <ele>175.19999694824</ele>
        <time>2015-12-27T08:20:30.000Z</time>
      </trkpt>
      <trkpt lat="48.70474" lon="1.76077">
        <ele>175.19999694824</ele>
        <time>2015-12-27T08:20:31.000Z</time>
      </trkpt>
      <trkpt lat="48.70473" lon="1.7608">
        <ele>175.19999694824</ele>
        <time>2015-12-27T08:20:33.000Z</time>
      </trkpt>
      <trkpt lat="48.70472" lon="1.76086">
        <ele>175.19999694824</ele>
        <time>2015-12-27T08:20:36.000Z</time>
      </trkpt>
      <trkpt lat="48.70471" lon="1.76088">
        <ele>175.19999694824</ele>
        <time>2015-12-27T08:20:37.000Z</time>
      </trkpt>
      <trkpt lat="48.70468" lon="1.76095">
        <ele>175.19999694824</ele>
        <time>2015-12-27T08:20:41.000Z</time>
      </trkpt>
      <trkpt lat="48.70466" lon="1.76104">
        <ele>175.19999694824</ele>
        <time>2015-12-27T08:20:46.000Z</time>
      </trkpt>
      <trkpt lat="48.70466" lon="1.76104">
        <ele>175.19999694824</ele>
        <time>2015-12-27T08:20:47.000Z</time>
      </trkpt>
      <trkpt lat="48.70463" lon="1.76112">
        <ele>175.19999694824</ele>
        <time>2015-12-27T08:20:52.000Z</time>
      </trkpt>
      <trkpt lat="48.70461" lon="1.76127">
        <ele>175.19999694824</ele>
        <time>2015-12-27T08:20:59.000Z</time>
      </trkpt>
      <trkpt lat="48.7046" lon="1.76138">
        <ele>175.19999694824</ele>
        <time>2015-12-27T08:21:03.000Z</time>
      </trkpt>
      <trkpt lat="48.7046" lon="1.7614">
        <ele>175</ele>
        <time>2015-12-27T08:21:04.000Z</time>
      </trkpt>
      <trkpt lat="48.70459" lon="1.76146">
        <ele>175</ele>
        <time>2015-12-27T08:21:07.000Z</time>
      </trkpt>
      <trkpt lat="48.70459" lon="1.7615">
        <ele>175</ele>
        <time>2015-12-27T08:21:09.000Z</time>
      </trkpt>
      <trkpt lat="48.70459" lon="1.76154">
        <ele>175</ele>
        <time>2015-12-27T08:21:11.000Z</time>
      </trkpt>
      <trkpt lat="48.7046" lon="1.76161">
        <ele>174.60000610352</ele>
        <time>2015-12-27T08:21:15.000Z</time>
      </trkpt>
      <trkpt lat="48.7046" lon="1.76162">
        <ele>174.60000610352</ele>
        <time>2015-12-27T08:21:16.000Z</time>
      </trkpt>
      <trkpt lat="48.70461" lon="1.76178">
        <ele>174</ele>
        <time>2015-12-27T08:21:24.000Z</time>
      </trkpt>
      <trkpt lat="48.7046" lon="1.76186">
        <ele>173.80000305176</ele>
        <time>2015-12-27T08:21:28.000Z</time>
      </trkpt>
      <trkpt lat="48.7046" lon="1.76195">
        <ele>173.60000610352</ele>
        <time>2015-12-27T08:21:33.000Z</time>
      </trkpt>
      <trkpt lat="48.7046" lon="1.76203">
        <ele>173.39999389648</ele>
        <time>2015-12-27T08:21:38.000Z</time>
      </trkpt>
      <trkpt lat="48.7046" lon="1.76207">
        <ele>173.39999389648</ele>
        <time>2015-12-27T08:21:44.000Z</time>
      </trkpt>
      <trkpt lat="48.70449" lon="1.76297">
        <ele>173.60000610352</ele>
        <time>2015-12-27T08:22:57.000Z</time>
      </trkpt>
      <trkpt lat="48.70449" lon="1.76298">
        <ele>173.60000610352</ele>
        <time>2015-12-27T08:22:58.000Z</time>
      </trkpt>
      <trkpt lat="48.7045" lon="1.76301">
        <ele>173.60000610352</ele>
        <time>2015-12-27T08:23:01.000Z</time>
      </trkpt>
      <trkpt lat="48.7045" lon="1.76302">
        <ele>173.60000610352</ele>
        <time>2015-12-27T08:23:02.000Z</time>
      </trkpt>
      <trkpt lat="48.70452" lon="1.76313">
        <ele>173.39999389648</ele>
        <time>2015-12-27T08:23:07.000Z</time>
      </trkpt>
      <trkpt lat="48.70453" lon="1.76319">
        <ele>173.39999389648</ele>
        <time>2015-12-27T08:23:10.000Z</time>
      </trkpt>
      <trkpt lat="48.70455" lon="1.76332">
        <ele>174</ele>
        <time>2015-12-27T08:23:17.000Z</time>
      </trkpt>
      <trkpt lat="48.70455" lon="1.76344">
        <ele>174.39999389648</ele>
        <time>2015-12-27T08:23:23.000Z</time>
      </trkpt>
      <trkpt lat="48.70455" lon="1.76352">
        <ele>174.80000305176</ele>
        <time>2015-12-27T08:23:28.000Z</time>
      </trkpt>
      <trkpt lat="48.70457" lon="1.76362">
        <ele>175.19999694824</ele>
        <time>2015-12-27T08:23:33.000Z</time>
      </trkpt>
      <trkpt lat="48.70459" lon="1.76368">
        <ele>175.39999389648</ele>
        <time>2015-12-27T08:23:37.000Z</time>
      </trkpt>
      <trkpt lat="48.70459" lon="1.7637">
        <ele>175.60000610352</ele>
        <time>2015-12-27T08:23:38.000Z</time>
      </trkpt>
      <trkpt lat="48.70459" lon="1.76377">
        <ele>175.80000305176</ele>
        <time>2015-12-27T08:23:42.000Z</time>
      </trkpt>
      <trkpt lat="48.7046" lon="1.7638">
        <ele>176</ele>
        <time>2015-12-27T08:23:44.000Z</time>
      </trkpt>
      <trkpt lat="48.70461" lon="1.76383">
        <ele>176.19999694824</ele>
        <time>2015-12-27T08:23:47.000Z</time>
      </trkpt>
      <trkpt lat="48.70463" lon="1.76389">
        <ele>176.39999389648</ele>
        <time>2015-12-27T08:23:50.000Z</time>
      </trkpt>
      <trkpt lat="48.70464" lon="1.76397">
        <ele>176.60000610352</ele>
        <time>2015-12-27T08:23:55.000Z</time>
      </trkpt>
      <trkpt lat="48.70464" lon="1.76401">
        <ele>176.80000305176</ele>
        <time>2015-12-27T08:23:57.000Z</time>
      </trkpt>
      <trkpt lat="48.70464" lon="1.76403">
        <ele>177</ele>
        <time>2015-12-27T08:23:58.000Z</time>
      </trkpt>
      <trkpt lat="48.70465" lon="1.76408">
        <ele>177</ele>
        <time>2015-12-27T08:24:01.000Z</time>
      </trkpt>
      <trkpt lat="48.70465" lon="1.76422">
        <ele>177.19999694824</ele>
        <time>2015-12-27T08:24:08.000Z</time>
      </trkpt>
      <trkpt lat="48.70466" lon="1.76424">
        <ele>177.19999694824</ele>
        <time>2015-12-27T08:24:09.000Z</time>
      </trkpt>
      <trkpt lat="48.70467" lon="1.7643">
        <ele>177.19999694824</ele>
        <time>2015-12-27T08:24:12.000Z</time>
      </trkpt>
      <trkpt lat="48.70467" lon="1.76433">
        <ele>177.19999694824</ele>
        <time>2015-12-27T08:24:14.000Z</time>
      </trkpt>
      <trkpt lat="48.70466" lon="1.76437">
        <ele>177.39999389648</ele>
        <time>2015-12-27T08:24:16.000Z</time>
      </trkpt>
      <trkpt lat="48.70465" lon="1.76444">
        <ele>177.80000305176</ele>
        <time>2015-12-27T08:24:20.000Z</time>
      </trkpt>
      <trkpt lat="48.70465" lon="1.76445">
        <ele>178</ele>
        <time>2015-12-27T08:24:21.000Z</time>
      </trkpt>
      <trkpt lat="48.70463" lon="1.76453">
        <ele>178.39999389648</ele>
        <time>2015-12-27T08:24:25.000Z</time>
      </trkpt>
      <trkpt lat="48.70462" lon="1.76458">
        <ele>178.80000305176</ele>
        <time>2015-12-27T08:24:28.000Z</time>
      </trkpt>
      <trkpt lat="48.7046" lon="1.76467">
        <ele>179.39999389648</ele>
        <time>2015-12-27T08:24:33.000Z</time>
      </trkpt>
      <trkpt lat="48.70459" lon="1.7647">
        <ele>179.60000610352</ele>
        <time>2015-12-27T08:24:35.000Z</time>
      </trkpt>
      <trkpt lat="48.70458" lon="1.76476">
        <ele>180</ele>
        <time>2015-12-27T08:24:39.000Z</time>
      </trkpt>
      <trkpt lat="48.70456" lon="1.76483">
        <ele>180.39999389648</ele>
        <time>2015-12-27T08:24:43.000Z</time>
      </trkpt>
      <trkpt lat="48.70455" lon="1.76487">
        <ele>180.60000610352</ele>
        <time>2015-12-27T08:24:46.000Z</time>
      </trkpt>
      <trkpt lat="48.70455" lon="1.76488">
        <ele>180.80000305176</ele>
        <time>2015-12-27T08:24:47.000Z</time>
      </trkpt>
      <trkpt lat="48.70453" lon="1.76495">
        <ele>181</ele>
        <time>2015-12-27T08:24:51.000Z</time>
      </trkpt>
      <trkpt lat="48.70453" lon="1.76497">
        <ele>181</ele>
        <time>2015-12-27T08:24:52.000Z</time>
      </trkpt>
      <trkpt lat="48.70451" lon="1.76508">
        <ele>181</ele>
        <time>2015-12-27T08:24:58.000Z</time>
      </trkpt>
      <trkpt lat="48.70449" lon="1.76516">
        <ele>181</ele>
        <time>2015-12-27T08:25:03.000Z</time>
      </trkpt>
      <trkpt lat="48.70449" lon="1.76516">
        <ele>181</ele>
        <time>2015-12-27T08:25:04.000Z</time>
      </trkpt>
      <trkpt lat="48.70441" lon="1.76549">
        <ele>181</ele>
        <time>2015-12-27T08:25:28.000Z</time>
      </trkpt>
      <trkpt lat="48.7044" lon="1.7655">
        <ele>181</ele>
        <time>2015-12-27T08:25:29.000Z</time>
      </trkpt>
      <trkpt lat="48.7044" lon="1.76551">
        <ele>181</ele>
        <time>2015-12-27T08:25:30.000Z</time>
      </trkpt>
      <trkpt lat="48.7044" lon="1.76553">
        <ele>181</ele>
        <time>2015-12-27T08:25:31.000Z</time>
      </trkpt>
      <trkpt lat="48.7044" lon="1.76557">
        <ele>181</ele>
        <time>2015-12-27T08:25:34.000Z</time>
      </trkpt>
      <trkpt lat="48.7044" lon="1.76562">
        <ele>181</ele>
        <time>2015-12-27T08:25:37.000Z</time>
      </trkpt>
      <trkpt lat="48.70439" lon="1.76567">
        <ele>181</ele>
        <time>2015-12-27T08:25:40.000Z</time>
      </trkpt>
      <trkpt lat="48.70437" lon="1.76569">
        <ele>181</ele>
        <time>2015-12-27T08:25:43.000Z</time>
      </trkpt>
      <trkpt lat="48.70436" lon="1.7657">
        <ele>181</ele>
        <time>2015-12-27T08:25:44.000Z</time>
      </trkpt>
      <trkpt lat="48.70435" lon="1.76571">
        <ele>181</ele>
        <time>2015-12-27T08:25:45.000Z</time>
      </trkpt>
      <trkpt lat="48.70431" lon="1.76576">
        <ele>180.80000305176</ele>
        <time>2015-12-27T08:25:49.000Z</time>
      </trkpt>
      <trkpt lat="48.70426" lon="1.76579">
        <ele>180.60000610352</ele>
        <time>2015-12-27T08:25:53.000Z</time>
      </trkpt>
      <trkpt lat="48.70421" lon="1.76584">
        <ele>180.19999694824</ele>
        <time>2015-12-27T08:25:58.000Z</time>
      </trkpt>
      <trkpt lat="48.70417" lon="1.76586">
        <ele>180.19999694824</ele>
        <time>2015-12-27T08:26:01.000Z</time>
      </trkpt>
      <trkpt lat="48.70413" lon="1.76589">
        <ele>180</ele>
        <time>2015-12-27T08:26:05.000Z</time>
      </trkpt>
      <trkpt lat="48.70407" lon="1.76593">
        <ele>179.60000610352</ele>
        <time>2015-12-27T08:26:10.000Z</time>
      </trkpt>
      <trkpt lat="48.70406" lon="1.76594">
        <ele>179.60000610352</ele>
        <time>2015-12-27T08:26:11.000Z</time>
      </trkpt>
      <trkpt lat="48.704" lon="1.76597">
        <ele>179.39999389648</ele>
        <time>2015-12-27T08:26:16.000Z</time>
      </trkpt>
      <trkpt lat="48.70398" lon="1.76599">
        <ele>179.19999694824</ele>
        <time>2015-12-27T08:26:18.000Z</time>
      </trkpt>
      <trkpt lat="48.70392" lon="1.76604">
        <ele>179</ele>
        <time>2015-12-27T08:26:23.000Z</time>
      </trkpt>
      <trkpt lat="48.70384" lon="1.7661">
        <ele>178.80000305176</ele>
        <time>2015-12-27T08:26:29.000Z</time>
      </trkpt>
      <trkpt lat="48.7038" lon="1.76615">
        <ele>178.60000610352</ele>
        <time>2015-12-27T08:26:32.000Z</time>
      </trkpt>
      <trkpt lat="48.70379" lon="1.76615">
        <ele>178.60000610352</ele>
        <time>2015-12-27T08:26:33.000Z</time>
      </trkpt>
      <trkpt lat="48.70375" lon="1.76618">
        <ele>178.60000610352</ele>
        <time>2015-12-27T08:26:37.000Z</time>
      </trkpt>
      <trkpt lat="48.70373" lon="1.76619">
        <ele>178.39999389648</ele>
        <time>2015-12-27T08:26:38.000Z</time>
      </trkpt>
      <trkpt lat="48.70368" lon="1.76623">
        <ele>178.39999389648</ele>
        <time>2015-12-27T08:26:42.000Z</time>
      </trkpt>
      <trkpt lat="48.70363" lon="1.76629">
        <ele>178.19999694824</ele>
        <time>2015-12-27T08:26:46.000Z</time>
      </trkpt>
      <trkpt lat="48.70361" lon="1.7663">
        <ele>178.19999694824</ele>
        <time>2015-12-27T08:26:47.000Z</time>
      </trkpt>
      <trkpt lat="48.70357" lon="1.76633">
        <ele>178</ele>
        <time>2015-12-27T08:26:52.000Z</time>
      </trkpt>
      <trkpt lat="48.7035" lon="1.76638">
        <ele>178</ele>
        <time>2015-12-27T08:26:57.000Z</time>
      </trkpt>
      <trkpt lat="48.70344" lon="1.76642">
        <ele>178.19999694824</ele>
        <time>2015-12-27T08:27:02.000Z</time>
      </trkpt>
      <trkpt lat="48.7034" lon="1.76644">
        <ele>178.39999389648</ele>
        <time>2015-12-27T08:27:06.000Z</time>
      </trkpt>
      <trkpt lat="48.70339" lon="1.76645">
        <ele>178.39999389648</ele>
        <time>2015-12-27T08:27:07.000Z</time>
      </trkpt>
      <trkpt lat="48.70333" lon="1.76651">
        <ele>178.39999389648</ele>
        <time>2015-12-27T08:27:12.000Z</time>
      </trkpt>
      <trkpt lat="48.70332" lon="1.76661">
        <ele>178.60000610352</ele>
        <time>2015-12-27T08:27:19.000Z</time>
      </trkpt>
      <trkpt lat="48.70331" lon="1.76671">
        <ele>178.60000610352</ele>
        <time>2015-12-27T08:27:25.000Z</time>
      </trkpt>
      <trkpt lat="48.7033" lon="1.76681">
        <ele>178.60000610352</ele>
        <time>2015-12-27T08:27:30.000Z</time>
      </trkpt>
      <trkpt lat="48.7033" lon="1.7669">
        <ele>178.60000610352</ele>
        <time>2015-12-27T08:27:35.000Z</time>
      </trkpt>
      <trkpt lat="48.7033" lon="1.76691">
        <ele>178.60000610352</ele>
        <time>2015-12-27T08:27:36.000Z</time>
      </trkpt>
      <trkpt lat="48.70331" lon="1.76698">
        <ele>178.60000610352</ele>
        <time>2015-12-27T08:27:40.000Z</time>
      </trkpt>
      <trkpt lat="48.70331" lon="1.76702">
        <ele>178.60000610352</ele>
        <time>2015-12-27T08:27:42.000Z</time>
      </trkpt>
      <trkpt lat="48.70331" lon="1.76706">
        <ele>178.60000610352</ele>
        <time>2015-12-27T08:27:44.000Z</time>
      </trkpt>
      <trkpt lat="48.70329" lon="1.7672">
        <ele>178.60000610352</ele>
        <time>2015-12-27T08:27:50.000Z</time>
      </trkpt>
      <trkpt lat="48.70328" lon="1.76734">
        <ele>178.60000610352</ele>
        <time>2015-12-27T08:27:57.000Z</time>
      </trkpt>
      <trkpt lat="48.70328" lon="1.76751">
        <ele>178.80000305176</ele>
        <time>2015-12-27T08:28:05.000Z</time>
      </trkpt>
      <trkpt lat="48.70328" lon="1.76768">
        <ele>179</ele>
        <time>2015-12-27T08:28:14.000Z</time>
      </trkpt>
      <trkpt lat="48.70328" lon="1.76784">
        <ele>179.19999694824</ele>
        <time>2015-12-27T08:28:22.000Z</time>
      </trkpt>
      <trkpt lat="48.70327" lon="1.76798">
        <ele>179.19999694824</ele>
        <time>2015-12-27T08:28:29.000Z</time>
      </trkpt>
      <trkpt lat="48.70327" lon="1.7681">
        <ele>179.19999694824</ele>
        <time>2015-12-27T08:28:36.000Z</time>
      </trkpt>
      <trkpt lat="48.70328" lon="1.76825">
        <ele>179</ele>
        <time>2015-12-27T08:28:45.000Z</time>
      </trkpt>
      <trkpt lat="48.70329" lon="1.76841">
        <ele>179.19999694824</ele>
        <time>2015-12-27T08:28:53.000Z</time>
      </trkpt>
      <trkpt lat="48.7033" lon="1.76862">
        <ele>179.39999389648</ele>
        <time>2015-12-27T08:29:04.000Z</time>
      </trkpt>
      <trkpt lat="48.7033" lon="1.76864">
        <ele>179.60000610352</ele>
        <time>2015-12-27T08:29:05.000Z</time>
      </trkpt>
      <trkpt lat="48.70329" lon="1.7687">
        <ele>179.60000610352</ele>
        <time>2015-12-27T08:29:08.000Z</time>
      </trkpt>
      <trkpt lat="48.70329" lon="1.76874">
        <ele>179.60000610352</ele>
        <time>2015-12-27T08:29:10.000Z</time>
      </trkpt>
      <trkpt lat="48.70329" lon="1.76886">
        <ele>179.80000305176</ele>
        <time>2015-12-27T08:29:16.000Z</time>
      </trkpt>
      <trkpt lat="48.70329" lon="1.76897">
        <ele>180.19999694824</ele>
        <time>2015-12-27T08:29:22.000Z</time>
      </trkpt>
      <trkpt lat="48.7033" lon="1.76912">
        <ele>180.39999389648</ele>
        <time>2015-12-27T08:29:30.000Z</time>
      </trkpt>
      <trkpt lat="48.7033" lon="1.76919">
        <ele>180.60000610352</ele>
        <time>2015-12-27T08:29:34.000Z</time>
      </trkpt>
      <trkpt lat="48.7033" lon="1.76925">
        <ele>180.80000305176</ele>
        <time>2015-12-27T08:29:37.000Z</time>
      </trkpt>
      <trkpt lat="48.70333" lon="1.76942">
        <ele>181.19999694824</ele>
        <time>2015-12-27T08:29:45.000Z</time>
      </trkpt>
      <trkpt lat="48.70333" lon="1.76955">
        <ele>181.39999389648</ele>
        <time>2015-12-27T08:29:52.000Z</time>
      </trkpt>
      <trkpt lat="48.70333" lon="1.76961">
        <ele>181.60000610352</ele>
        <time>2015-12-27T08:29:57.000Z</time>
      </trkpt>
      <trkpt lat="48.70333" lon="1.76967">
        <ele>181.80000305176</ele>
        <time>2015-12-27T08:30:02.000Z</time>
      </trkpt>
      <trkpt lat="48.70335" lon="1.76973">
        <ele>181.80000305176</ele>
        <time>2015-12-27T08:30:07.000Z</time>
      </trkpt>
      <trkpt lat="48.70335" lon="1.76978">
        <ele>182</ele>
        <time>2015-12-27T08:30:10.000Z</time>
      </trkpt>
      <trkpt lat="48.70335" lon="1.76984">
        <ele>182.19999694824</ele>
        <time>2015-12-27T08:30:13.000Z</time>
      </trkpt>
      <trkpt lat="48.70336" lon="1.76985">
        <ele>182.19999694824</ele>
        <time>2015-12-27T08:30:14.000Z</time>
      </trkpt>
      <trkpt lat="48.70337" lon="1.76997">
        <ele>182.19999694824</ele>
        <time>2015-12-27T08:30:22.000Z</time>
      </trkpt>
      <trkpt lat="48.70339" lon="1.77005">
        <ele>182.19999694824</ele>
        <time>2015-12-27T08:30:27.000Z</time>
      </trkpt>
      <trkpt lat="48.70339" lon="1.77009">
        <ele>182.19999694824</ele>
        <time>2015-12-27T08:30:29.000Z</time>
      </trkpt>
      <trkpt lat="48.70341" lon="1.77014">
        <ele>182.19999694824</ele>
        <time>2015-12-27T08:30:32.000Z</time>
      </trkpt>
      <trkpt lat="48.7034" lon="1.77016">
        <ele>182.19999694824</ele>
        <time>2015-12-27T08:30:34.000Z</time>
      </trkpt>
      <trkpt lat="48.70341" lon="1.77023">
        <ele>182.19999694824</ele>
        <time>2015-12-27T08:30:39.000Z</time>
      </trkpt>
      <trkpt lat="48.70341" lon="1.77025">
        <ele>182.19999694824</ele>
        <time>2015-12-27T08:30:40.000Z</time>
      </trkpt>
      <trkpt lat="48.70341" lon="1.77031">
        <ele>182.19999694824</ele>
        <time>2015-12-27T08:30:45.000Z</time>
      </trkpt>
      <trkpt lat="48.70341" lon="1.77033">
        <ele>182.19999694824</ele>
        <time>2015-12-27T08:30:46.000Z</time>
      </trkpt>
      <trkpt lat="48.70341" lon="1.77034">
        <ele>182.19999694824</ele>
        <time>2015-12-27T08:30:47.000Z</time>
      </trkpt>
      <trkpt lat="48.70342" lon="1.77039">
        <ele>182.19999694824</ele>
        <time>2015-12-27T08:30:51.000Z</time>
      </trkpt>
      <trkpt lat="48.70343" lon="1.77041">
        <ele>182.19999694824</ele>
        <time>2015-12-27T08:30:52.000Z</time>
      </trkpt>
      <trkpt lat="48.70344" lon="1.77048">
        <ele>182.19999694824</ele>
        <time>2015-12-27T08:30:57.000Z</time>
      </trkpt>
      <trkpt lat="48.70344" lon="1.77051">
        <ele>182.19999694824</ele>
        <time>2015-12-27T08:30:59.000Z</time>
      </trkpt>
      <trkpt lat="48.70345" lon="1.77062">
        <ele>182</ele>
        <time>2015-12-27T08:31:06.000Z</time>
      </trkpt>
      <trkpt lat="48.70348" lon="1.77071">
        <ele>182.19999694824</ele>
        <time>2015-12-27T08:31:12.000Z</time>
      </trkpt>
      <trkpt lat="48.70348" lon="1.77073">
        <ele>182.19999694824</ele>
        <time>2015-12-27T08:31:13.000Z</time>
      </trkpt>
      <trkpt lat="48.70349" lon="1.77088">
        <ele>182.19999694824</ele>
        <time>2015-12-27T08:31:22.000Z</time>
      </trkpt>
      <trkpt lat="48.70349" lon="1.77089">
        <ele>182</ele>
        <time>2015-12-27T08:31:24.000Z</time>
      </trkpt>
      <trkpt lat="48.70357" lon="1.77149">
        <ele>181.80000305176</ele>
        <time>2015-12-27T08:33:27.000Z</time>
      </trkpt>
      <trkpt lat="48.70358" lon="1.77151">
        <ele>181.80000305176</ele>
        <time>2015-12-27T08:33:28.000Z</time>
      </trkpt>
      <trkpt lat="48.70359" lon="1.77162">
        <ele>181.80000305176</ele>
        <time>2015-12-27T08:33:34.000Z</time>
      </trkpt>
      <trkpt lat="48.7036" lon="1.77167">
        <ele>181.80000305176</ele>
        <time>2015-12-27T08:33:37.000Z</time>
      </trkpt>
      <trkpt lat="48.70359" lon="1.77173">
        <ele>181.60000610352</ele>
        <time>2015-12-27T08:33:40.000Z</time>
      </trkpt>
      <trkpt lat="48.7036" lon="1.77175">
        <ele>181.60000610352</ele>
        <time>2015-12-27T08:33:41.000Z</time>
      </trkpt>
      <trkpt lat="48.70361" lon="1.77182">
        <ele>181.39999389648</ele>
        <time>2015-12-27T08:33:45.000Z</time>
      </trkpt>
      <trkpt lat="48.70361" lon="1.77191">
        <ele>181.19999694824</ele>
        <time>2015-12-27T08:33:50.000Z</time>
      </trkpt>
      <trkpt lat="48.70361" lon="1.77196">
        <ele>181.19999694824</ele>
        <time>2015-12-27T08:33:53.000Z</time>
      </trkpt>
      <trkpt lat="48.70362" lon="1.77205">
        <ele>180.80000305176</ele>
        <time>2015-12-27T08:33:58.000Z</time>
      </trkpt>
      <trkpt lat="48.70364" lon="1.77216">
        <ele>180.60000610352</ele>
        <time>2015-12-27T08:34:05.000Z</time>
      </trkpt>
      <trkpt lat="48.70363" lon="1.77218">
        <ele>180.60000610352</ele>
        <time>2015-12-27T08:34:06.000Z</time>
      </trkpt>
      <trkpt lat="48.70364" lon="1.77224">
        <ele>180.39999389648</ele>
        <time>2015-12-27T08:34:10.000Z</time>
      </trkpt>
      <trkpt lat="48.70365" lon="1.7723">
        <ele>180.39999389648</ele>
        <time>2015-12-27T08:34:13.000Z</time>
      </trkpt>
      <trkpt lat="48.70366" lon="1.77233">
        <ele>180.19999694824</ele>
        <time>2015-12-27T08:34:15.000Z</time>
      </trkpt>
      <trkpt lat="48.70366" lon="1.7724">
        <ele>180.19999694824</ele>
        <time>2015-12-27T08:34:19.000Z</time>
      </trkpt>
      <trkpt lat="48.70367" lon="1.77244">
        <ele>180.39999389648</ele>
        <time>2015-12-27T08:34:21.000Z</time>
      </trkpt>
      <trkpt lat="48.70368" lon="1.77246">
        <ele>180.39999389648</ele>
        <time>2015-12-27T08:34:23.000Z</time>
      </trkpt>
      <trkpt lat="48.70367" lon="1.77246">
        <ele>180.39999389648</ele>
        <time>2015-12-27T08:34:25.000Z</time>
      </trkpt>
      <trkpt lat="48.70375" lon="1.77312">
        <ele>181.39999389648</ele>
        <time>2015-12-27T08:36:10.000Z</time>
      </trkpt>
      <trkpt lat="48.70376" lon="1.77318">
        <ele>181.39999389648</ele>
        <time>2015-12-27T08:36:13.000Z</time>
      </trkpt>
      <trkpt lat="48.70379" lon="1.77335">
        <ele>181.80000305176</ele>
        <time>2015-12-27T08:36:21.000Z</time>
      </trkpt>
      <trkpt lat="48.70379" lon="1.77336">
        <ele>181.80000305176</ele>
        <time>2015-12-27T08:36:22.000Z</time>
      </trkpt>
      <trkpt lat="48.70384" lon="1.77347">
        <ele>182</ele>
        <time>2015-12-27T08:36:29.000Z</time>
      </trkpt>
      <trkpt lat="48.70388" lon="1.77354">
        <ele>182.19999694824</ele>
        <time>2015-12-27T08:36:34.000Z</time>
      </trkpt>
      <trkpt lat="48.70394" lon="1.77372">
        <ele>183</ele>
        <time>2015-12-27T08:36:45.000Z</time>
      </trkpt>
      <trkpt lat="48.70395" lon="1.77373">
        <ele>183.19999694824</ele>
        <time>2015-12-27T08:36:46.000Z</time>
      </trkpt>
      <trkpt lat="48.70395" lon="1.7738">
        <ele>183.39999389648</ele>
        <time>2015-12-27T08:36:49.000Z</time>
      </trkpt>
      <trkpt lat="48.70397" lon="1.77386">
        <ele>183.80000305176</ele>
        <time>2015-12-27T08:36:53.000Z</time>
      </trkpt>
      <trkpt lat="48.70398" lon="1.77387">
        <ele>184</ele>
        <time>2015-12-27T08:36:54.000Z</time>
      </trkpt>
      <trkpt lat="48.704" lon="1.77393">
        <ele>184.19999694824</ele>
        <time>2015-12-27T08:36:57.000Z</time>
      </trkpt>
      <trkpt lat="48.70402" lon="1.77398">
        <ele>184.39999389648</ele>
        <time>2015-12-27T08:37:00.000Z</time>
      </trkpt>
      <trkpt lat="48.70403" lon="1.77404">
        <ele>184.80000305176</ele>
        <time>2015-12-27T08:37:04.000Z</time>
      </trkpt>
      <trkpt lat="48.70405" lon="1.77408">
        <ele>184.80000305176</ele>
        <time>2015-12-27T08:37:06.000Z</time>
      </trkpt>
      <trkpt lat="48.70409" lon="1.77416">
        <ele>185</ele>
        <time>2015-12-27T08:37:12.000Z</time>
      </trkpt>
      <trkpt lat="48.7041" lon="1.77417">
        <ele>185</ele>
        <time>2015-12-27T08:37:13.000Z</time>
      </trkpt>
      <trkpt lat="48.70412" lon="1.77419">
        <ele>185</ele>
        <time>2015-12-27T08:37:17.000Z</time>
      </trkpt>
      <trkpt lat="48.70415" lon="1.77418">
        <ele>184.80000305176</ele>
        <time>2015-12-27T08:37:19.000Z</time>
      </trkpt>
      <trkpt lat="48.70415" lon="1.77419">
        <ele>184.80000305176</ele>
        <time>2015-12-27T08:37:20.000Z</time>
      </trkpt>
      <trkpt lat="48.70418" lon="1.77427">
        <ele>185</ele>
        <time>2015-12-27T08:37:26.000Z</time>
      </trkpt>
      <trkpt lat="48.70421" lon="1.77433">
        <ele>185</ele>
        <time>2015-12-27T08:37:30.000Z</time>
      </trkpt>
      <trkpt lat="48.70422" lon="1.77436">
        <ele>185.19999694824</ele>
        <time>2015-12-27T08:37:32.000Z</time>
      </trkpt>
      <trkpt lat="48.70424" lon="1.7744">
        <ele>185.19999694824</ele>
        <time>2015-12-27T08:37:35.000Z</time>
      </trkpt>
      <trkpt lat="48.70424" lon="1.77441">
        <ele>185.19999694824</ele>
        <time>2015-12-27T08:37:36.000Z</time>
      </trkpt>
      <trkpt lat="48.70427" lon="1.77452">
        <ele>185.39999389648</ele>
        <time>2015-12-27T08:37:43.000Z</time>
      </trkpt>
      <trkpt lat="48.70431" lon="1.77465">
        <ele>185.60000610352</ele>
        <time>2015-12-27T08:37:51.000Z</time>
      </trkpt>
      <trkpt lat="48.70432" lon="1.77468">
        <ele>185.60000610352</ele>
        <time>2015-12-27T08:37:53.000Z</time>
      </trkpt>
      <trkpt lat="48.70433" lon="1.77474">
        <ele>185.80000305176</ele>
        <time>2015-12-27T08:37:56.000Z</time>
      </trkpt>
      <trkpt lat="48.70436" lon="1.77481">
        <ele>185.80000305176</ele>
        <time>2015-12-27T08:38:02.000Z</time>
      </trkpt>
      <trkpt lat="48.70436" lon="1.77482">
        <ele>185.80000305176</ele>
        <time>2015-12-27T08:38:03.000Z</time>
      </trkpt>
      <trkpt lat="48.70442" lon="1.77508">
        <ele>186.19999694824</ele>
        <time>2015-12-27T08:38:23.000Z</time>
      </trkpt>
      <trkpt lat="48.70443" lon="1.77511">
        <ele>186.19999694824</ele>
        <time>2015-12-27T08:38:25.000Z</time>
      </trkpt>
      <trkpt lat="48.70445" lon="1.77518">
        <ele>186.19999694824</ele>
        <time>2015-12-27T08:38:29.000Z</time>
      </trkpt>
      <trkpt lat="48.70446" lon="1.77523">
        <ele>186.39999389648</ele>
        <time>2015-12-27T08:38:32.000Z</time>
      </trkpt>
      <trkpt lat="48.70449" lon="1.77535">
        <ele>186.39999389648</ele>
        <time>2015-12-27T08:38:39.000Z</time>
      </trkpt>
      <trkpt lat="48.70453" lon="1.77543">
        <ele>186.39999389648</ele>
        <time>2015-12-27T08:38:44.000Z</time>
      </trkpt>
      <trkpt lat="48.70453" lon="1.77545">
        <ele>186.39999389648</ele>
        <time>2015-12-27T08:38:45.000Z</time>
      </trkpt>
      <trkpt lat="48.70456" lon="1.77552">
        <ele>186.60000610352</ele>
        <time>2015-12-27T08:38:49.000Z</time>
      </trkpt>
      <trkpt lat="48.70458" lon="1.77557">
        <ele>186.60000610352</ele>
        <time>2015-12-27T08:38:52.000Z</time>
      </trkpt>
      <trkpt lat="48.70461" lon="1.77567">
        <ele>186.60000610352</ele>
        <time>2015-12-27T08:38:58.000Z</time>
      </trkpt>
      <trkpt lat="48.70462" lon="1.7757">
        <ele>186.60000610352</ele>
        <time>2015-12-27T08:39:00.000Z</time>
      </trkpt>
      <trkpt lat="48.70465" lon="1.77578">
        <ele>186.60000610352</ele>
        <time>2015-12-27T08:39:05.000Z</time>
      </trkpt>
      <trkpt lat="48.7047" lon="1.77589">
        <ele>186.39999389648</ele>
        <time>2015-12-27T08:39:12.000Z</time>
      </trkpt>
      <trkpt lat="48.7047" lon="1.7759">
        <ele>186.39999389648</ele>
        <time>2015-12-27T08:39:13.000Z</time>
      </trkpt>
      <trkpt lat="48.70471" lon="1.776">
        <ele>186.19999694824</ele>
        <time>2015-12-27T08:39:18.000Z</time>
      </trkpt>
      <trkpt lat="48.70475" lon="1.77608">
        <ele>186</ele>
        <time>2015-12-27T08:39:23.000Z</time>
      </trkpt>
      <trkpt lat="48.70479" lon="1.77617">
        <ele>186</ele>
        <time>2015-12-27T08:39:28.000Z</time>
      </trkpt>
      <trkpt lat="48.7048" lon="1.77621">
        <ele>186</ele>
        <time>2015-12-27T08:39:30.000Z</time>
      </trkpt>
      <trkpt lat="48.70484" lon="1.77635">
        <ele>185.80000305176</ele>
        <time>2015-12-27T08:39:38.000Z</time>
      </trkpt>
      <trkpt lat="48.70484" lon="1.77636">
        <ele>185.80000305176</ele>
        <time>2015-12-27T08:39:40.000Z</time>
      </trkpt>
      <trkpt lat="48.70503" lon="1.77704">
        <ele>186.60000610352</ele>
        <time>2015-12-27T08:40:44.000Z</time>
      </trkpt>
      <trkpt lat="48.70503" lon="1.77706">
        <ele>186.60000610352</ele>
        <time>2015-12-27T08:40:45.000Z</time>
      </trkpt>
      <trkpt lat="48.70508" lon="1.7772">
        <ele>186.80000305176</ele>
        <time>2015-12-27T08:40:53.000Z</time>
      </trkpt>
      <trkpt lat="48.7051" lon="1.77725">
        <ele>187</ele>
        <time>2015-12-27T08:40:56.000Z</time>
      </trkpt>
      <trkpt lat="48.70512" lon="1.7773">
        <ele>187</ele>
        <time>2015-12-27T08:40:59.000Z</time>
      </trkpt>
      <trkpt lat="48.70515" lon="1.7774">
        <ele>187</ele>
        <time>2015-12-27T08:41:05.000Z</time>
      </trkpt>
      <trkpt lat="48.70517" lon="1.77745">
        <ele>187</ele>
        <time>2015-12-27T08:41:08.000Z</time>
      </trkpt>
      <trkpt lat="48.70518" lon="1.77746">
        <ele>187.19999694824</ele>
        <time>2015-12-27T08:41:09.000Z</time>
      </trkpt>
      <trkpt lat="48.70519" lon="1.77748">
        <ele>187.19999694824</ele>
        <time>2015-12-27T08:41:10.000Z</time>
      </trkpt>
      <trkpt lat="48.70523" lon="1.77759">
        <ele>187.19999694824</ele>
        <time>2015-12-27T08:41:16.000Z</time>
      </trkpt>
      <trkpt lat="48.70529" lon="1.77773">
        <ele>187.19999694824</ele>
        <time>2015-12-27T08:41:24.000Z</time>
      </trkpt>
      <trkpt lat="48.70533" lon="1.77781">
        <ele>187.19999694824</ele>
        <time>2015-12-27T08:41:29.000Z</time>
      </trkpt>
      <trkpt lat="48.70534" lon="1.77782">
        <ele>187.19999694824</ele>
        <time>2015-12-27T08:41:30.000Z</time>
      </trkpt>
      <trkpt lat="48.70539" lon="1.77796">
        <ele>187.19999694824</ele>
        <time>2015-12-27T08:41:38.000Z</time>
      </trkpt>
      <trkpt lat="48.70545" lon="1.77809">
        <ele>187.19999694824</ele>
        <time>2015-12-27T08:41:46.000Z</time>
      </trkpt>
      <trkpt lat="48.70551" lon="1.7782">
        <ele>187.19999694824</ele>
        <time>2015-12-27T08:41:53.000Z</time>
      </trkpt>
      <trkpt lat="48.70558" lon="1.77837">
        <ele>186.80000305176</ele>
        <time>2015-12-27T08:42:03.000Z</time>
      </trkpt>
      <trkpt lat="48.70563" lon="1.77854">
        <ele>186.60000610352</ele>
        <time>2015-12-27T08:42:12.000Z</time>
      </trkpt>
      <trkpt lat="48.70566" lon="1.7786">
        <ele>186.39999389648</ele>
        <time>2015-12-27T08:42:16.000Z</time>
      </trkpt>
      <trkpt lat="48.70566" lon="1.77862">
        <ele>186.39999389648</ele>
        <time>2015-12-27T08:42:17.000Z</time>
      </trkpt>
      <trkpt lat="48.70569" lon="1.77869">
        <ele>186.19999694824</ele>
        <time>2015-12-27T08:42:21.000Z</time>
      </trkpt>
      <trkpt lat="48.70571" lon="1.77873">
        <ele>186.19999694824</ele>
        <time>2015-12-27T08:42:24.000Z</time>
      </trkpt>
      <trkpt lat="48.70575" lon="1.77882">
        <ele>186</ele>
        <time>2015-12-27T08:42:30.000Z</time>
      </trkpt>
      <trkpt lat="48.7058" lon="1.77891">
        <ele>185.80000305176</ele>
        <time>2015-12-27T08:42:35.000Z</time>
      </trkpt>
      <trkpt lat="48.70582" lon="1.77901">
        <ele>185.60000610352</ele>
        <time>2015-12-27T08:42:40.000Z</time>
      </trkpt>
      <trkpt lat="48.70583" lon="1.77905">
        <ele>185.39999389648</ele>
        <time>2015-12-27T08:42:42.000Z</time>
      </trkpt>
      <trkpt lat="48.70587" lon="1.77921">
        <ele>185.80000305176</ele>
        <time>2015-12-27T08:42:50.000Z</time>
      </trkpt>
      <trkpt lat="48.7059" lon="1.77931">
        <ele>186</ele>
        <time>2015-12-27T08:42:55.000Z</time>
      </trkpt>
      <trkpt lat="48.7059" lon="1.77934">
        <ele>186</ele>
        <time>2015-12-27T08:42:56.000Z</time>
      </trkpt>
      <trkpt lat="48.70589" lon="1.77935">
        <ele>186</ele>
        <time>2015-12-27T08:42:57.000Z</time>
      </trkpt>
      <trkpt lat="48.7059" lon="1.77939">
        <ele>186.19999694824</ele>
        <time>2015-12-27T08:42:59.000Z</time>
      </trkpt>
      <trkpt lat="48.7059" lon="1.77948">
        <ele>186.39999389648</ele>
        <time>2015-12-27T08:43:03.000Z</time>
      </trkpt>
      <trkpt lat="48.70591" lon="1.77949">
        <ele>186.39999389648</ele>
        <time>2015-12-27T08:43:04.000Z</time>
      </trkpt>
      <trkpt lat="48.70592" lon="1.77953">
        <ele>186.39999389648</ele>
        <time>2015-12-27T08:43:06.000Z</time>
      </trkpt>
      <trkpt lat="48.70593" lon="1.77958">
        <ele>186.60000610352</ele>
        <time>2015-12-27T08:43:09.000Z</time>
      </trkpt>
      <trkpt lat="48.70596" lon="1.77969">
        <ele>186.80000305176</ele>
        <time>2015-12-27T08:43:14.000Z</time>
      </trkpt>
      <trkpt lat="48.706" lon="1.77986">
        <ele>187</ele>
        <time>2015-12-27T08:43:22.000Z</time>
      </trkpt>
      <trkpt lat="48.70603" lon="1.77998">
        <ele>187</ele>
        <time>2015-12-27T08:43:28.000Z</time>
      </trkpt>
      <trkpt lat="48.70605" lon="1.78009">
        <ele>187</ele>
        <time>2015-12-27T08:43:33.000Z</time>
      </trkpt>
      <trkpt lat="48.70606" lon="1.7801">
        <ele>187</ele>
        <time>2015-12-27T08:43:34.000Z</time>
      </trkpt>
      <trkpt lat="48.7061" lon="1.78017">
        <ele>186.80000305176</ele>
        <time>2015-12-27T08:43:38.000Z</time>
      </trkpt>
      <trkpt lat="48.7061" lon="1.78019">
        <ele>186.80000305176</ele>
        <time>2015-12-27T08:43:39.000Z</time>
      </trkpt>
      <trkpt lat="48.70611" lon="1.78021">
        <ele>186.80000305176</ele>
        <time>2015-12-27T08:43:42.000Z</time>
      </trkpt>
      <trkpt lat="48.70618" lon="1.78043">
        <ele>186.39999389648</ele>
        <time>2015-12-27T08:44:08.000Z</time>
      </trkpt>
      <trkpt lat="48.70619" lon="1.78045">
        <ele>186.39999389648</ele>
        <time>2015-12-27T08:44:09.000Z</time>
      </trkpt>
      <trkpt lat="48.70621" lon="1.78048">
        <ele>186.39999389648</ele>
        <time>2015-12-27T08:44:11.000Z</time>
      </trkpt>
      <trkpt lat="48.70623" lon="1.78055">
        <ele>186.19999694824</ele>
        <time>2015-12-27T08:44:15.000Z</time>
      </trkpt>
      <trkpt lat="48.70627" lon="1.78066">
        <ele>186.19999694824</ele>
        <time>2015-12-27T08:44:21.000Z</time>
      </trkpt>
      <trkpt lat="48.70628" lon="1.7807">
        <ele>186.19999694824</ele>
        <time>2015-12-27T08:44:23.000Z</time>
      </trkpt>
      <trkpt lat="48.70632" lon="1.78079">
        <ele>186</ele>
        <time>2015-12-27T08:44:29.000Z</time>
      </trkpt>
      <trkpt lat="48.70636" lon="1.78094">
        <ele>185.80000305176</ele>
        <time>2015-12-27T08:44:37.000Z</time>
      </trkpt>
      <trkpt lat="48.70641" lon="1.78106">
        <ele>185.60000610352</ele>
        <time>2015-12-27T08:44:44.000Z</time>
      </trkpt>
      <trkpt lat="48.70642" lon="1.78111">
        <ele>185.60000610352</ele>
        <time>2015-12-27T08:44:47.000Z</time>
      </trkpt>
      <trkpt lat="48.70644" lon="1.78115">
        <ele>185.60000610352</ele>
        <time>2015-12-27T08:44:50.000Z</time>
      </trkpt>
      <trkpt lat="48.70646" lon="1.78121">
        <ele>185.39999389648</ele>
        <time>2015-12-27T08:44:53.000Z</time>
      </trkpt>
      <trkpt lat="48.70647" lon="1.78127">
        <ele>185.39999389648</ele>
        <time>2015-12-27T08:44:56.000Z</time>
      </trkpt>
      <trkpt lat="48.70649" lon="1.7813">
        <ele>185.39999389648</ele>
        <time>2015-12-27T08:44:58.000Z</time>
      </trkpt>
      <trkpt lat="48.7065" lon="1.78135">
        <ele>185.39999389648</ele>
        <time>2015-12-27T08:45:01.000Z</time>
      </trkpt>
      <trkpt lat="48.70655" lon="1.7815">
        <ele>185.19999694824</ele>
        <time>2015-12-27T08:45:08.000Z</time>
      </trkpt>
      <trkpt lat="48.70656" lon="1.78157">
        <ele>185.19999694824</ele>
        <time>2015-12-27T08:45:12.000Z</time>
      </trkpt>
      <trkpt lat="48.70657" lon="1.78163">
        <ele>185.19999694824</ele>
        <time>2015-12-27T08:45:15.000Z</time>
      </trkpt>
      <trkpt lat="48.70657" lon="1.78165">
        <ele>185.19999694824</ele>
        <time>2015-12-27T08:45:16.000Z</time>
      </trkpt>
      <trkpt lat="48.70658" lon="1.78169">
        <ele>185.19999694824</ele>
        <time>2015-12-27T08:45:18.000Z</time>
      </trkpt>
      <trkpt lat="48.7066" lon="1.78175">
        <ele>185.19999694824</ele>
        <time>2015-12-27T08:45:21.000Z</time>
      </trkpt>
      <trkpt lat="48.7066" lon="1.78177">
        <ele>185.19999694824</ele>
        <time>2015-12-27T08:45:22.000Z</time>
      </trkpt>
      <trkpt lat="48.70663" lon="1.78187">
        <ele>185.19999694824</ele>
        <time>2015-12-27T08:45:28.000Z</time>
      </trkpt>
      <trkpt lat="48.70665" lon="1.78189">
        <ele>185.19999694824</ele>
        <time>2015-12-27T08:45:30.000Z</time>
      </trkpt>
      <trkpt lat="48.70669" lon="1.78197">
        <ele>185.19999694824</ele>
        <time>2015-12-27T08:45:34.000Z</time>
      </trkpt>
      <trkpt lat="48.70673" lon="1.78202">
        <ele>185</ele>
        <time>2015-12-27T08:45:38.000Z</time>
      </trkpt>
      <trkpt lat="48.70674" lon="1.78205">
        <ele>185</ele>
        <time>2015-12-27T08:45:40.000Z</time>
      </trkpt>
      <trkpt lat="48.70675" lon="1.78207">
        <ele>185</ele>
        <time>2015-12-27T08:45:41.000Z</time>
      </trkpt>
      <trkpt lat="48.70677" lon="1.78218">
        <ele>185.19999694824</ele>
        <time>2015-12-27T08:45:46.000Z</time>
      </trkpt>
      <trkpt lat="48.7068" lon="1.78231">
        <ele>185.19999694824</ele>
        <time>2015-12-27T08:45:52.000Z</time>
      </trkpt>
      <trkpt lat="48.70685" lon="1.78248">
        <ele>185.19999694824</ele>
        <time>2015-12-27T08:46:00.000Z</time>
      </trkpt>
      <trkpt lat="48.70687" lon="1.78256">
        <ele>185</ele>
        <time>2015-12-27T08:46:04.000Z</time>
      </trkpt>
      <trkpt lat="48.70688" lon="1.78259">
        <ele>185</ele>
        <time>2015-12-27T08:46:06.000Z</time>
      </trkpt>
      <trkpt lat="48.70689" lon="1.78263">
        <ele>185</ele>
        <time>2015-12-27T08:46:08.000Z</time>
      </trkpt>
      <trkpt lat="48.70692" lon="1.7827">
        <ele>184.80000305176</ele>
        <time>2015-12-27T08:46:12.000Z</time>
      </trkpt>
      <trkpt lat="48.70692" lon="1.78272">
        <ele>184.80000305176</ele>
        <time>2015-12-27T08:46:13.000Z</time>
      </trkpt>
      <trkpt lat="48.70698" lon="1.78284">
        <ele>184.60000610352</ele>
        <time>2015-12-27T08:46:20.000Z</time>
      </trkpt>
      <trkpt lat="48.70701" lon="1.78296">
        <ele>184.39999389648</ele>
        <time>2015-12-27T08:46:26.000Z</time>
      </trkpt>
      <trkpt lat="48.70704" lon="1.78301">
        <ele>184.39999389648</ele>
        <time>2015-12-27T08:46:29.000Z</time>
      </trkpt>
      <trkpt lat="48.70705" lon="1.78305">
        <ele>184.39999389648</ele>
        <time>2015-12-27T08:46:31.000Z</time>
      </trkpt>
      <trkpt lat="48.70708" lon="1.78314">
        <ele>184.19999694824</ele>
        <time>2015-12-27T08:46:36.000Z</time>
      </trkpt>
      <trkpt lat="48.7071" lon="1.78317">
        <ele>184.19999694824</ele>
        <time>2015-12-27T08:46:38.000Z</time>
      </trkpt>
      <trkpt lat="48.70714" lon="1.78328">
        <ele>184.19999694824</ele>
        <time>2015-12-27T08:46:44.000Z</time>
      </trkpt>
      <trkpt lat="48.70718" lon="1.78341">
        <ele>184.60000610352</ele>
        <time>2015-12-27T08:46:51.000Z</time>
      </trkpt>
      <trkpt lat="48.70722" lon="1.78355">
        <ele>185</ele>
        <time>2015-12-27T08:46:58.000Z</time>
      </trkpt>
      <trkpt lat="48.70726" lon="1.78365">
        <ele>185.19999694824</ele>
        <time>2015-12-27T08:47:03.000Z</time>
      </trkpt>
      <trkpt lat="48.70731" lon="1.78374">
        <ele>185.39999389648</ele>
        <time>2015-12-27T08:47:09.000Z</time>
      </trkpt>
      <trkpt lat="48.70732" lon="1.78378">
        <ele>185.39999389648</ele>
        <time>2015-12-27T08:47:11.000Z</time>
      </trkpt>
      <trkpt lat="48.70735" lon="1.78383">
        <ele>185.39999389648</ele>
        <time>2015-12-27T08:47:15.000Z</time>
      </trkpt>
      <trkpt lat="48.70736" lon="1.78385">
        <ele>185.60000610352</ele>
        <time>2015-12-27T08:47:16.000Z</time>
      </trkpt>
      <trkpt lat="48.70738" lon="1.78387">
        <ele>185.60000610352</ele>
        <time>2015-12-27T08:47:18.000Z</time>
      </trkpt>
      <trkpt lat="48.70738" lon="1.78391">
        <ele>185.60000610352</ele>
        <time>2015-12-27T08:47:20.000Z</time>
      </trkpt>
      <trkpt lat="48.70739" lon="1.78392">
        <ele>185.60000610352</ele>
        <time>2015-12-27T08:47:21.000Z</time>
      </trkpt>
      <trkpt lat="48.70742" lon="1.78398">
        <ele>185.80000305176</ele>
        <time>2015-12-27T08:47:25.000Z</time>
      </trkpt>
      <trkpt lat="48.70744" lon="1.78409">
        <ele>186</ele>
        <time>2015-12-27T08:47:31.000Z</time>
      </trkpt>
      <trkpt lat="48.70745" lon="1.78411">
        <ele>186</ele>
        <time>2015-12-27T08:47:33.000Z</time>
      </trkpt>
      <trkpt lat="48.70746" lon="1.78418">
        <ele>185.80000305176</ele>
        <time>2015-12-27T08:47:37.000Z</time>
      </trkpt>
      <trkpt lat="48.70747" lon="1.78424">
        <ele>185.80000305176</ele>
        <time>2015-12-27T08:47:41.000Z</time>
      </trkpt>
      <trkpt lat="48.70748" lon="1.78426">
        <ele>185.80000305176</ele>
        <time>2015-12-27T08:47:43.000Z</time>
      </trkpt>
      <trkpt lat="48.70749" lon="1.78429">
        <ele>185.80000305176</ele>
        <time>2015-12-27T08:47:45.000Z</time>
      </trkpt>
      <trkpt lat="48.70752" lon="1.78435">
        <ele>185.60000610352</ele>
        <time>2015-12-27T08:47:49.000Z</time>
      </trkpt>
      <trkpt lat="48.70755" lon="1.78443">
        <ele>185.60000610352</ele>
        <time>2015-12-27T08:47:54.000Z</time>
      </trkpt>
      <trkpt lat="48.70758" lon="1.78452">
        <ele>185.39999389648</ele>
        <time>2015-12-27T08:48:00.000Z</time>
      </trkpt>
      <trkpt lat="48.70764" lon="1.78463">
        <ele>185.19999694824</ele>
        <time>2015-12-27T08:48:06.000Z</time>
      </trkpt>
      <trkpt lat="48.70768" lon="1.78471">
        <ele>185</ele>
        <time>2015-12-27T08:48:11.000Z</time>
      </trkpt>
      <trkpt lat="48.70769" lon="1.78473">
        <ele>185</ele>
        <time>2015-12-27T08:48:12.000Z</time>
      </trkpt>
      <trkpt lat="48.70773" lon="1.78483">
        <ele>184.80000305176</ele>
        <time>2015-12-27T08:48:18.000Z</time>
      </trkpt>
      <trkpt lat="48.70777" lon="1.78495">
        <ele>184.39999389648</ele>
        <time>2015-12-27T08:48:24.000Z</time>
      </trkpt>
      <trkpt lat="48.70778" lon="1.78497">
        <ele>184.39999389648</ele>
        <time>2015-12-27T08:48:25.000Z</time>
      </trkpt>
      <trkpt lat="48.70781" lon="1.78504">
        <ele>184</ele>
        <time>2015-12-27T08:48:29.000Z</time>
      </trkpt>
      <trkpt lat="48.70782" lon="1.78507">
        <ele>183.80000305176</ele>
        <time>2015-12-27T08:48:31.000Z</time>
      </trkpt>
      <trkpt lat="48.70784" lon="1.78517">
        <ele>183.60000610352</ele>
        <time>2015-12-27T08:48:36.000Z</time>
      </trkpt>
      <trkpt lat="48.70784" lon="1.78519">
        <ele>183.60000610352</ele>
        <time>2015-12-27T08:48:37.000Z</time>
      </trkpt>
      <trkpt lat="48.70786" lon="1.78526">
        <ele>183.39999389648</ele>
        <time>2015-12-27T08:48:41.000Z</time>
      </trkpt>
      <trkpt lat="48.70788" lon="1.78528">
        <ele>183.19999694824</ele>
        <time>2015-12-27T08:48:42.000Z</time>
      </trkpt>
      <trkpt lat="48.7079" lon="1.78532">
        <ele>183</ele>
        <time>2015-12-27T08:48:45.000Z</time>
      </trkpt>
      <trkpt lat="48.70793" lon="1.78543">
        <ele>182.60000610352</ele>
        <time>2015-12-27T08:48:51.000Z</time>
      </trkpt>
      <trkpt lat="48.70795" lon="1.78549">
        <ele>182.39999389648</ele>
        <time>2015-12-27T08:48:55.000Z</time>
      </trkpt>
      <trkpt lat="48.70795" lon="1.78551">
        <ele>182.39999389648</ele>
        <time>2015-12-27T08:48:56.000Z</time>
      </trkpt>
      <trkpt lat="48.70798" lon="1.78559">
        <ele>182.19999694824</ele>
        <time>2015-12-27T08:49:00.000Z</time>
      </trkpt>
      <trkpt lat="48.708" lon="1.78566">
        <ele>182</ele>
        <time>2015-12-27T08:49:04.000Z</time>
      </trkpt>
      <trkpt lat="48.70802" lon="1.78577">
        <ele>182</ele>
        <time>2015-12-27T08:49:10.000Z</time>
      </trkpt>
      <trkpt lat="48.70801" lon="1.78578">
        <ele>182</ele>
        <time>2015-12-27T08:49:11.000Z</time>
      </trkpt>
      <trkpt lat="48.708" lon="1.78578">
        <ele>182</ele>
        <time>2015-12-27T08:49:14.000Z</time>
      </trkpt>
      <trkpt lat="48.70748" lon="1.78743">
        <ele>189</ele>
        <time>2015-12-27T08:55:03.000Z</time>
      </trkpt>
      <trkpt lat="48.70747" lon="1.78744">
        <ele>189</ele>
        <time>2015-12-27T08:55:04.000Z</time>
      </trkpt>
      <trkpt lat="48.70743" lon="1.78749">
        <ele>188.80000305176</ele>
        <time>2015-12-27T08:55:08.000Z</time>
      </trkpt>
      <trkpt lat="48.70743" lon="1.78751">
        <ele>188.80000305176</ele>
        <time>2015-12-27T08:55:09.000Z</time>
      </trkpt>
      <trkpt lat="48.70739" lon="1.7876">
        <ele>188.80000305176</ele>
        <time>2015-12-27T08:55:15.000Z</time>
      </trkpt>
      <trkpt lat="48.70738" lon="1.78766">
        <ele>188.60000610352</ele>
        <time>2015-12-27T08:55:19.000Z</time>
      </trkpt>
      <trkpt lat="48.70737" lon="1.78766">
        <ele>188.60000610352</ele>
        <time>2015-12-27T08:55:20.000Z</time>
      </trkpt>
      <trkpt lat="48.70737" lon="1.78766">
        <ele>188.60000610352</ele>
        <time>2015-12-27T08:55:21.000Z</time>
      </trkpt>
      <trkpt lat="48.70724" lon="1.78797">
        <ele>188</ele>
        <time>2015-12-27T08:55:47.000Z</time>
      </trkpt>
      <trkpt lat="48.70723" lon="1.78802">
        <ele>187.80000305176</ele>
        <time>2015-12-27T08:55:50.000Z</time>
      </trkpt>
      <trkpt lat="48.70722" lon="1.78804">
        <ele>187.80000305176</ele>
        <time>2015-12-27T08:55:51.000Z</time>
      </trkpt>
      <trkpt lat="48.70719" lon="1.78812">
        <ele>187.60000610352</ele>
        <time>2015-12-27T08:55:56.000Z</time>
      </trkpt>
      <trkpt lat="48.70717" lon="1.7882">
        <ele>187.39999389648</ele>
        <time>2015-12-27T08:56:02.000Z</time>
      </trkpt>
      <trkpt lat="48.70714" lon="1.78827">
        <ele>187.39999389648</ele>
        <time>2015-12-27T08:56:07.000Z</time>
      </trkpt>
      <trkpt lat="48.70712" lon="1.78833">
        <ele>187.39999389648</ele>
        <time>2015-12-27T08:56:10.000Z</time>
      </trkpt>
      <trkpt lat="48.7071" lon="1.78838">
        <ele>187.19999694824</ele>
        <time>2015-12-27T08:56:13.000Z</time>
      </trkpt>
      <trkpt lat="48.70707" lon="1.78846">
        <ele>187.39999389648</ele>
        <time>2015-12-27T08:56:18.000Z</time>
      </trkpt>
      <trkpt lat="48.70706" lon="1.78847">
        <ele>187.39999389648</ele>
        <time>2015-12-27T08:56:19.000Z</time>
      </trkpt>
      <trkpt lat="48.70704" lon="1.78851">
        <ele>187.39999389648</ele>
        <time>2015-12-27T08:56:22.000Z</time>
      </trkpt>
      <trkpt lat="48.70699" lon="1.78859">
        <ele>187.80000305176</ele>
        <time>2015-12-27T08:56:28.000Z</time>
      </trkpt>
      <trkpt lat="48.70696" lon="1.78864">
        <ele>188</ele>
        <time>2015-12-27T08:56:32.000Z</time>
      </trkpt>
      <trkpt lat="48.70694" lon="1.78865">
        <ele>188</ele>
        <time>2015-12-27T08:56:34.000Z</time>
      </trkpt>
      <trkpt lat="48.70694" lon="1.78865">
        <ele>188</ele>
        <time>2015-12-27T08:56:35.000Z</time>
      </trkpt>
      <trkpt lat="48.70689" lon="1.78872">
        <ele>188.19999694824</ele>
        <time>2015-12-27T08:56:41.000Z</time>
      </trkpt>
      <trkpt lat="48.70683" lon="1.78878">
        <ele>188.39999389648</ele>
        <time>2015-12-27T08:56:47.000Z</time>
      </trkpt>
      <trkpt lat="48.70681" lon="1.7888">
        <ele>188.39999389648</ele>
        <time>2015-12-27T08:56:50.000Z</time>
      </trkpt>
      <trkpt lat="48.70678" lon="1.78881">
        <ele>188.39999389648</ele>
        <time>2015-12-27T08:56:52.000Z</time>
      </trkpt>
      <trkpt lat="48.70676" lon="1.78883">
        <ele>188.39999389648</ele>
        <time>2015-12-27T08:56:54.000Z</time>
      </trkpt>
      <trkpt lat="48.70672" lon="1.78888">
        <ele>188.60000610352</ele>
        <time>2015-12-27T08:56:58.000Z</time>
      </trkpt>
      <trkpt lat="48.70664" lon="1.78896">
        <ele>188.60000610352</ele>
        <time>2015-12-27T08:57:06.000Z</time>
      </trkpt>
      <trkpt lat="48.70657" lon="1.78904">
        <ele>188.60000610352</ele>
        <time>2015-12-27T08:57:12.000Z</time>
      </trkpt>
      <trkpt lat="48.70656" lon="1.78905">
        <ele>188.60000610352</ele>
        <time>2015-12-27T08:57:13.000Z</time>
      </trkpt>
      <trkpt lat="48.70648" lon="1.78914">
        <ele>188.39999389648</ele>
        <time>2015-12-27T08:57:21.000Z</time>
      </trkpt>
      <trkpt lat="48.70641" lon="1.7892">
        <ele>188.19999694824</ele>
        <time>2015-12-27T08:57:27.000Z</time>
      </trkpt>
      <trkpt lat="48.70639" lon="1.78922">
        <ele>188.19999694824</ele>
        <time>2015-12-27T08:57:29.000Z</time>
      </trkpt>
      <trkpt lat="48.70635" lon="1.78927">
        <ele>188.19999694824</ele>
        <time>2015-12-27T08:57:33.000Z</time>
      </trkpt>
      <trkpt lat="48.70632" lon="1.78929">
        <ele>188</ele>
        <time>2015-12-27T08:57:36.000Z</time>
      </trkpt>
      <trkpt lat="48.7063" lon="1.78932">
        <ele>188</ele>
        <time>2015-12-27T08:57:39.000Z</time>
      </trkpt>
      <trkpt lat="48.70629" lon="1.78939">
        <ele>188</ele>
        <time>2015-12-27T08:57:47.000Z</time>
      </trkpt>
      <trkpt lat="48.70631" lon="1.78943">
        <ele>188</ele>
        <time>2015-12-27T08:57:54.000Z</time>
      </trkpt>
      <trkpt lat="48.70607" lon="1.78967">
        <ele>188</ele>
        <time>2015-12-27T08:58:27.000Z</time>
      </trkpt>
      <trkpt lat="48.70603" lon="1.7897">
        <ele>188</ele>
        <time>2015-12-27T08:58:30.000Z</time>
      </trkpt>
      <trkpt lat="48.706" lon="1.78972">
        <ele>188</ele>
        <time>2015-12-27T08:58:33.000Z</time>
      </trkpt>
      <trkpt lat="48.70598" lon="1.78974">
        <ele>188</ele>
        <time>2015-12-27T08:58:35.000Z</time>
      </trkpt>
      <trkpt lat="48.70596" lon="1.78975">
        <ele>188</ele>
        <time>2015-12-27T08:58:37.000Z</time>
      </trkpt>
      <trkpt lat="48.70595" lon="1.78976">
        <ele>188</ele>
        <time>2015-12-27T08:58:39.000Z</time>
      </trkpt>
      <trkpt lat="48.70595" lon="1.78976">
        <ele>188</ele>
        <time>2015-12-27T08:58:41.000Z</time>
      </trkpt>
      <trkpt lat="48.7059" lon="1.78981">
        <ele>188.19999694824</ele>
        <time>2015-12-27T08:58:48.000Z</time>
      </trkpt>
      <trkpt lat="48.7059" lon="1.78981">
        <ele>188.19999694824</ele>
        <time>2015-12-27T08:58:49.000Z</time>
      </trkpt>
      <trkpt lat="48.70582" lon="1.78986">
        <ele>188.39999389648</ele>
        <time>2015-12-27T08:58:55.000Z</time>
      </trkpt>
      <trkpt lat="48.70582" lon="1.78986">
        <ele>188.39999389648</ele>
        <time>2015-12-27T08:58:56.000Z</time>
      </trkpt>
      <trkpt lat="48.70579" lon="1.78987">
        <ele>188.60000610352</ele>
        <time>2015-12-27T08:58:59.000Z</time>
      </trkpt>
      <trkpt lat="48.70578" lon="1.78989">
        <ele>188.60000610352</ele>
        <time>2015-12-27T08:59:00.000Z</time>
      </trkpt>
      <trkpt lat="48.70575" lon="1.78992">
        <ele>188.60000610352</ele>
        <time>2015-12-27T08:59:03.000Z</time>
      </trkpt>
      <trkpt lat="48.70568" lon="1.78996">
        <ele>188.80000305176</ele>
        <time>2015-12-27T08:59:09.000Z</time>
      </trkpt>
      <trkpt lat="48.70568" lon="1.78996">
        <ele>188.80000305176</ele>
        <time>2015-12-27T08:59:10.000Z</time>
      </trkpt>
      <trkpt lat="48.70565" lon="1.78995">
        <ele>189</ele>
        <time>2015-12-27T08:59:17.000Z</time>
      </trkpt>
      <trkpt lat="48.70584" lon="1.79008">
        <ele>188.39999389648</ele>
        <time>2015-12-27T09:01:37.000Z</time>
      </trkpt>
      <trkpt lat="48.7058" lon="1.79014">
        <ele>188.60000610352</ele>
        <time>2015-12-27T09:01:41.000Z</time>
      </trkpt>
      <trkpt lat="48.70578" lon="1.79017">
        <ele>188.60000610352</ele>
        <time>2015-12-27T09:01:43.000Z</time>
      </trkpt>
      <trkpt lat="48.70575" lon="1.79026">
        <ele>188.60000610352</ele>
        <time>2015-12-27T09:01:48.000Z</time>
      </trkpt>
      <trkpt lat="48.7057" lon="1.79037">
        <ele>188.80000305176</ele>
        <time>2015-12-27T09:01:54.000Z</time>
      </trkpt>
      <trkpt lat="48.70566" lon="1.79041">
        <ele>188.60000610352</ele>
        <time>2015-12-27T09:01:58.000Z</time>
      </trkpt>
      <trkpt lat="48.70563" lon="1.79044">
        <ele>188.60000610352</ele>
        <time>2015-12-27T09:02:00.000Z</time>
      </trkpt>
      <trkpt lat="48.70562" lon="1.79047">
        <ele>188.39999389648</ele>
        <time>2015-12-27T09:02:02.000Z</time>
      </trkpt>
      <trkpt lat="48.70558" lon="1.79052">
        <ele>188.19999694824</ele>
        <time>2015-12-27T09:02:05.000Z</time>
      </trkpt>
      <trkpt lat="48.70557" lon="1.79054">
        <ele>188</ele>
        <time>2015-12-27T09:02:06.000Z</time>
      </trkpt>
      <trkpt lat="48.70556" lon="1.79055">
        <ele>188</ele>
        <time>2015-12-27T09:02:07.000Z</time>
      </trkpt>
      <trkpt lat="48.70551" lon="1.79061">
        <ele>187.80000305176</ele>
        <time>2015-12-27T09:02:11.000Z</time>
      </trkpt>
      <trkpt lat="48.70544" lon="1.79068">
        <ele>187.39999389648</ele>
        <time>2015-12-27T09:02:17.000Z</time>
      </trkpt>
      <trkpt lat="48.70543" lon="1.7907">
        <ele>187.39999389648</ele>
        <time>2015-12-27T09:02:21.000Z</time>
      </trkpt>
      <trkpt lat="48.7052" lon="1.79107">
        <ele>187.80000305176</ele>
        <time>2015-12-27T09:03:00.000Z</time>
      </trkpt>
      <trkpt lat="48.70518" lon="1.79107">
        <ele>188</ele>
        <time>2015-12-27T09:03:01.000Z</time>
      </trkpt>
      <trkpt lat="48.70515" lon="1.79109">
        <ele>188</ele>
        <time>2015-12-27T09:03:04.000Z</time>
      </trkpt>
      <trkpt lat="48.70509" lon="1.79113">
        <ele>188.39999389648</ele>
        <time>2015-12-27T09:03:08.000Z</time>
      </trkpt>
      <trkpt lat="48.70505" lon="1.79116">
        <ele>188.60000610352</ele>
        <time>2015-12-27T09:03:11.000Z</time>
      </trkpt>
      <trkpt lat="48.70503" lon="1.79118">
        <ele>188.80000305176</ele>
        <time>2015-12-27T09:03:13.000Z</time>
      </trkpt>
      <trkpt lat="48.70493" lon="1.79124">
        <ele>189.19999694824</ele>
        <time>2015-12-27T09:03:20.000Z</time>
      </trkpt>
      <trkpt lat="48.70484" lon="1.7913">
        <ele>189.19999694824</ele>
        <time>2015-12-27T09:03:27.000Z</time>
      </trkpt>
      <trkpt lat="48.70479" lon="1.79134">
        <ele>189.19999694824</ele>
        <time>2015-12-27T09:03:32.000Z</time>
      </trkpt>
      <trkpt lat="48.70478" lon="1.79134">
        <ele>189.19999694824</ele>
        <time>2015-12-27T09:03:33.000Z</time>
      </trkpt>
      <trkpt lat="48.70475" lon="1.79136">
        <ele>189.19999694824</ele>
        <time>2015-12-27T09:03:35.000Z</time>
      </trkpt>
      <trkpt lat="48.70473" lon="1.79138">
        <ele>189.19999694824</ele>
        <time>2015-12-27T09:03:38.000Z</time>
      </trkpt>
      <trkpt lat="48.70471" lon="1.79138">
        <ele>189.19999694824</ele>
        <time>2015-12-27T09:03:43.000Z</time>
      </trkpt>
      <trkpt lat="48.70439" lon="1.7916">
        <ele>189</ele>
        <time>2015-12-27T09:04:19.000Z</time>
      </trkpt>
      <trkpt lat="48.70436" lon="1.79163">
        <ele>189</ele>
        <time>2015-12-27T09:04:22.000Z</time>
      </trkpt>
      <trkpt lat="48.70435" lon="1.79163">
        <ele>189</ele>
        <time>2015-12-27T09:04:23.000Z</time>
      </trkpt>
      <trkpt lat="48.70432" lon="1.79165">
        <ele>188.80000305176</ele>
        <time>2015-12-27T09:04:26.000Z</time>
      </trkpt>
      <trkpt lat="48.70432" lon="1.79166">
        <ele>188.80000305176</ele>
        <time>2015-12-27T09:04:28.000Z</time>
      </trkpt>
      <trkpt lat="48.70385" lon="1.79203">
        <ele>188.80000305176</ele>
        <time>2015-12-27T09:07:31.000Z</time>
      </trkpt>
      <trkpt lat="48.70382" lon="1.79205">
        <ele>189</ele>
        <time>2015-12-27T09:07:35.000Z</time>
      </trkpt>
      <trkpt lat="48.70381" lon="1.79207">
        <ele>189</ele>
        <time>2015-12-27T09:07:36.000Z</time>
      </trkpt>
      <trkpt lat="48.70377" lon="1.79212">
        <ele>189.19999694824</ele>
        <time>2015-12-27T09:07:39.000Z</time>
      </trkpt>
      <trkpt lat="48.70375" lon="1.79213">
        <ele>189.19999694824</ele>
        <time>2015-12-27T09:07:40.000Z</time>
      </trkpt>
      <trkpt lat="48.7037" lon="1.79218">
        <ele>189.39999389648</ele>
        <time>2015-12-27T09:07:45.000Z</time>
      </trkpt>
      <trkpt lat="48.70365" lon="1.79224">
        <ele>189.60000610352</ele>
        <time>2015-12-27T09:07:51.000Z</time>
      </trkpt>
      <trkpt lat="48.70361" lon="1.79231">
        <ele>189.80000305176</ele>
        <time>2015-12-27T09:07:56.000Z</time>
      </trkpt>
      <trkpt lat="48.70357" lon="1.79235">
        <ele>189.80000305176</ele>
        <time>2015-12-27T09:08:01.000Z</time>
      </trkpt>
      <trkpt lat="48.70356" lon="1.79236">
        <ele>190</ele>
        <time>2015-12-27T09:08:03.000Z</time>
      </trkpt>
      <trkpt lat="48.70355" lon="1.79237">
        <ele>190</ele>
        <time>2015-12-27T09:08:04.000Z</time>
      </trkpt>
      <trkpt lat="48.70351" lon="1.7924">
        <ele>190</ele>
        <time>2015-12-27T09:08:06.000Z</time>
      </trkpt>
      <trkpt lat="48.70345" lon="1.79248">
        <ele>190</ele>
        <time>2015-12-27T09:08:10.000Z</time>
      </trkpt>
      <trkpt lat="48.70337" lon="1.79257">
        <ele>190</ele>
        <time>2015-12-27T09:08:16.000Z</time>
      </trkpt>
      <trkpt lat="48.70336" lon="1.79258">
        <ele>190</ele>
        <time>2015-12-27T09:08:17.000Z</time>
      </trkpt>
      <trkpt lat="48.70331" lon="1.7926">
        <ele>190</ele>
        <time>2015-12-27T09:08:20.000Z</time>
      </trkpt>
      <trkpt lat="48.7033" lon="1.7926">
        <ele>190</ele>
        <time>2015-12-27T09:08:21.000Z</time>
      </trkpt>
      <trkpt lat="48.70326" lon="1.79262">
        <ele>190</ele>
        <time>2015-12-27T09:08:25.000Z</time>
      </trkpt>
      <trkpt lat="48.70323" lon="1.79265">
        <ele>190</ele>
        <time>2015-12-27T09:08:27.000Z</time>
      </trkpt>
      <trkpt lat="48.70319" lon="1.7927">
        <ele>190</ele>
        <time>2015-12-27T09:08:31.000Z</time>
      </trkpt>
      <trkpt lat="48.70313" lon="1.79273">
        <ele>190</ele>
        <time>2015-12-27T09:08:35.000Z</time>
      </trkpt>
      <trkpt lat="48.70311" lon="1.79276">
        <ele>190</ele>
        <time>2015-12-27T09:08:37.000Z</time>
      </trkpt>
      <trkpt lat="48.70306" lon="1.7928">
        <ele>190</ele>
        <time>2015-12-27T09:08:41.000Z</time>
      </trkpt>
      <trkpt lat="48.70304" lon="1.79284">
        <ele>190.19999694824</ele>
        <time>2015-12-27T09:08:43.000Z</time>
      </trkpt>
      <trkpt lat="48.70302" lon="1.79284">
        <ele>190.19999694824</ele>
        <time>2015-12-27T09:08:44.000Z</time>
      </trkpt>
      <trkpt lat="48.70297" lon="1.79289">
        <ele>190.19999694824</ele>
        <time>2015-12-27T09:08:49.000Z</time>
      </trkpt>
      <trkpt lat="48.70295" lon="1.79291">
        <ele>190.39999389648</ele>
        <time>2015-12-27T09:08:50.000Z</time>
      </trkpt>
      <trkpt lat="48.70291" lon="1.79295">
        <ele>190.39999389648</ele>
        <time>2015-12-27T09:08:53.000Z</time>
      </trkpt>
      <trkpt lat="48.70285" lon="1.79298">
        <ele>190.60000610352</ele>
        <time>2015-12-27T09:08:58.000Z</time>
      </trkpt>
      <trkpt lat="48.70278" lon="1.79299">
        <ele>190.60000610352</ele>
        <time>2015-12-27T09:09:04.000Z</time>
      </trkpt>
      <trkpt lat="48.70277" lon="1.79294">
        <ele>190.60000610352</ele>
        <time>2015-12-27T09:09:07.000Z</time>
      </trkpt>
      <trkpt lat="48.70277" lon="1.79288">
        <ele>190.60000610352</ele>
        <time>2015-12-27T09:09:10.000Z</time>
      </trkpt>
      <trkpt lat="48.70276" lon="1.79279">
        <ele>190.39999389648</ele>
        <time>2015-12-27T09:09:14.000Z</time>
      </trkpt>
      <trkpt lat="48.70276" lon="1.79278">
        <ele>190.39999389648</ele>
        <time>2015-12-27T09:09:15.000Z</time>
      </trkpt>
      <trkpt lat="48.70274" lon="1.79262">
        <ele>190.19999694824</ele>
        <time>2015-12-27T09:09:22.000Z</time>
      </trkpt>
      <trkpt lat="48.70273" lon="1.7926">
        <ele>190.19999694824</ele>
        <time>2015-12-27T09:09:24.000Z</time>
      </trkpt>
      <trkpt lat="48.70271" lon="1.7926">
        <ele>190.19999694824</ele>
        <time>2015-12-27T09:09:25.000Z</time>
      </trkpt>
      <trkpt lat="48.70269" lon="1.79261">
        <ele>190.19999694824</ele>
        <time>2015-12-27T09:09:28.000Z</time>
      </trkpt>
      <trkpt lat="48.70266" lon="1.79264">
        <ele>190.39999389648</ele>
        <time>2015-12-27T09:09:30.000Z</time>
      </trkpt>
      <trkpt lat="48.70264" lon="1.79267">
        <ele>190.39999389648</ele>
        <time>2015-12-27T09:09:32.000Z</time>
      </trkpt>
      <trkpt lat="48.70258" lon="1.79271">
        <ele>190.60000610352</ele>
        <time>2015-12-27T09:09:37.000Z</time>
      </trkpt>
      <trkpt lat="48.70254" lon="1.79277">
        <ele>190.60000610352</ele>
        <time>2015-12-27T09:09:41.000Z</time>
      </trkpt>
      <trkpt lat="48.70252" lon="1.79279">
        <ele>190.80000305176</ele>
        <time>2015-12-27T09:09:43.000Z</time>
      </trkpt>
      <trkpt lat="48.70248" lon="1.79283">
        <ele>190.80000305176</ele>
        <time>2015-12-27T09:09:47.000Z</time>
      </trkpt>
      <trkpt lat="48.70246" lon="1.79284">
        <ele>190.80000305176</ele>
        <time>2015-12-27T09:09:48.000Z</time>
      </trkpt>
      <trkpt lat="48.7024" lon="1.79289">
        <ele>191</ele>
        <time>2015-12-27T09:09:53.000Z</time>
      </trkpt>
      <trkpt lat="48.70234" lon="1.79293">
        <ele>191</ele>
        <time>2015-12-27T09:09:59.000Z</time>
      </trkpt>
      <trkpt lat="48.70226" lon="1.79295">
        <ele>190.80000305176</ele>
        <time>2015-12-27T09:10:05.000Z</time>
      </trkpt>
      <trkpt lat="48.70218" lon="1.79297">
        <ele>190.60000610352</ele>
        <time>2015-12-27T09:10:10.000Z</time>
      </trkpt>
      <trkpt lat="48.70212" lon="1.79299">
        <ele>190.60000610352</ele>
        <time>2015-12-27T09:10:14.000Z</time>
      </trkpt>
      <trkpt lat="48.70208" lon="1.793">
        <ele>190.60000610352</ele>
        <time>2015-12-27T09:10:17.000Z</time>
      </trkpt>
      <trkpt lat="48.70205" lon="1.79303">
        <ele>190.39999389648</ele>
        <time>2015-12-27T09:10:20.000Z</time>
      </trkpt>
      <trkpt lat="48.70197" lon="1.79311">
        <ele>190.19999694824</ele>
        <time>2015-12-27T09:10:27.000Z</time>
      </trkpt>
      <trkpt lat="48.70189" lon="1.79318">
        <ele>190</ele>
        <time>2015-12-27T09:10:33.000Z</time>
      </trkpt>
      <trkpt lat="48.70185" lon="1.79322">
        <ele>190</ele>
        <time>2015-12-27T09:10:37.000Z</time>
      </trkpt>
      <trkpt lat="48.70182" lon="1.79324">
        <ele>190</ele>
        <time>2015-12-27T09:10:39.000Z</time>
      </trkpt>
      <trkpt lat="48.70174" lon="1.7933">
        <ele>189.80000305176</ele>
        <time>2015-12-27T09:10:46.000Z</time>
      </trkpt>
      <trkpt lat="48.70173" lon="1.79331">
        <ele>189.80000305176</ele>
        <time>2015-12-27T09:10:47.000Z</time>
      </trkpt>
      <trkpt lat="48.7017" lon="1.79336">
        <ele>189.60000610352</ele>
        <time>2015-12-27T09:10:50.000Z</time>
      </trkpt>
      <trkpt lat="48.70169" lon="1.79337">
        <ele>189.60000610352</ele>
        <time>2015-12-27T09:10:51.000Z</time>
      </trkpt>
      <trkpt lat="48.70163" lon="1.79344">
        <ele>189.39999389648</ele>
        <time>2015-12-27T09:10:57.000Z</time>
      </trkpt>
      <trkpt lat="48.70156" lon="1.79352">
        <ele>189.19999694824</ele>
        <time>2015-12-27T09:11:04.000Z</time>
      </trkpt>
      <trkpt lat="48.70153" lon="1.79354">
        <ele>189.19999694824</ele>
        <time>2015-12-27T09:11:09.000Z</time>
      </trkpt>
      <trkpt lat="48.70129" lon="1.79379">
        <ele>189</ele>
        <time>2015-12-27T09:11:37.000Z</time>
      </trkpt>
      <trkpt lat="48.70121" lon="1.79389">
        <ele>189</ele>
        <time>2015-12-27T09:11:45.000Z</time>
      </trkpt>
      <trkpt lat="48.70119" lon="1.79391">
        <ele>189</ele>
        <time>2015-12-27T09:11:49.000Z</time>
      </trkpt>
      <trkpt lat="48.70117" lon="1.79394">
        <ele>189</ele>
        <time>2015-12-27T09:11:51.000Z</time>
      </trkpt>
      <trkpt lat="48.7011" lon="1.79402">
        <ele>189</ele>
        <time>2015-12-27T09:11:58.000Z</time>
      </trkpt>
      <trkpt lat="48.70104" lon="1.79409">
        <ele>189</ele>
        <time>2015-12-27T09:12:04.000Z</time>
      </trkpt>
      <trkpt lat="48.70097" lon="1.79418">
        <ele>188.80000305176</ele>
        <time>2015-12-27T09:12:12.000Z</time>
      </trkpt>
      <trkpt lat="48.70089" lon="1.79424">
        <ele>188.60000610352</ele>
        <time>2015-12-27T09:12:19.000Z</time>
      </trkpt>
      <trkpt lat="48.70088" lon="1.79425">
        <ele>188.60000610352</ele>
        <time>2015-12-27T09:12:20.000Z</time>
      </trkpt>
      <trkpt lat="48.70085" lon="1.79427">
        <ele>188.60000610352</ele>
        <time>2015-12-27T09:12:23.000Z</time>
      </trkpt>
      <trkpt lat="48.70079" lon="1.79429">
        <ele>188.39999389648</ele>
        <time>2015-12-27T09:12:27.000Z</time>
      </trkpt>
      <trkpt lat="48.70073" lon="1.79438">
        <ele>188.19999694824</ele>
        <time>2015-12-27T09:12:32.000Z</time>
      </trkpt>
      <trkpt lat="48.70068" lon="1.79444">
        <ele>188.19999694824</ele>
        <time>2015-12-27T09:12:36.000Z</time>
      </trkpt>
      <trkpt lat="48.70062" lon="1.79451">
        <ele>188</ele>
        <time>2015-12-27T09:12:41.000Z</time>
      </trkpt>
      <trkpt lat="48.70061" lon="1.79453">
        <ele>188</ele>
        <time>2015-12-27T09:12:42.000Z</time>
      </trkpt>
      <trkpt lat="48.70056" lon="1.79458">
        <ele>188</ele>
        <time>2015-12-27T09:12:46.000Z</time>
      </trkpt>
      <trkpt lat="48.70051" lon="1.79465">
        <ele>188</ele>
        <time>2015-12-27T09:12:51.000Z</time>
      </trkpt>
      <trkpt lat="48.70046" lon="1.79469">
        <ele>188</ele>
        <time>2015-12-27T09:12:55.000Z</time>
      </trkpt>
      <trkpt lat="48.70042" lon="1.79474">
        <ele>188</ele>
        <time>2015-12-27T09:12:59.000Z</time>
      </trkpt>
      <trkpt lat="48.70037" lon="1.7948">
        <ele>188</ele>
        <time>2015-12-27T09:13:04.000Z</time>
      </trkpt>
      <trkpt lat="48.70034" lon="1.79485">
        <ele>188</ele>
        <time>2015-12-27T09:13:08.000Z</time>
      </trkpt>
      <trkpt lat="48.70029" lon="1.79489">
        <ele>188</ele>
        <time>2015-12-27T09:13:12.000Z</time>
      </trkpt>
      <trkpt lat="48.70023" lon="1.79497">
        <ele>188.19999694824</ele>
        <time>2015-12-27T09:13:17.000Z</time>
      </trkpt>
      <trkpt lat="48.70017" lon="1.795">
        <ele>188</ele>
        <time>2015-12-27T09:13:22.000Z</time>
      </trkpt>
      <trkpt lat="48.70011" lon="1.79505">
        <ele>187.60000610352</ele>
        <time>2015-12-27T09:13:26.000Z</time>
      </trkpt>
      <trkpt lat="48.70006" lon="1.79509">
        <ele>187.39999389648</ele>
        <time>2015-12-27T09:13:31.000Z</time>
      </trkpt>
      <trkpt lat="48.70001" lon="1.79514">
        <ele>187.19999694824</ele>
        <time>2015-12-27T09:13:36.000Z</time>
      </trkpt>
      <trkpt lat="48.69998" lon="1.79516">
        <ele>187</ele>
        <time>2015-12-27T09:13:38.000Z</time>
      </trkpt>
      <trkpt lat="48.69998" lon="1.79516">
        <ele>187</ele>
        <time>2015-12-27T09:13:39.000Z</time>
      </trkpt>
      <trkpt lat="48.69994" lon="1.79519">
        <ele>186.80000305176</ele>
        <time>2015-12-27T09:13:42.000Z</time>
      </trkpt>
      <trkpt lat="48.69987" lon="1.79526">
        <ele>186.39999389648</ele>
        <time>2015-12-27T09:13:47.000Z</time>
      </trkpt>
      <trkpt lat="48.6998" lon="1.79534">
        <ele>186.19999694824</ele>
        <time>2015-12-27T09:13:52.000Z</time>
      </trkpt>
      <trkpt lat="48.69977" lon="1.79538">
        <ele>186.19999694824</ele>
        <time>2015-12-27T09:13:55.000Z</time>
      </trkpt>
      <trkpt lat="48.69975" lon="1.79541">
        <ele>186.19999694824</ele>
        <time>2015-12-27T09:13:56.000Z</time>
      </trkpt>
      <trkpt lat="48.69974" lon="1.79543">
        <ele>186.19999694824</ele>
        <time>2015-12-27T09:13:57.000Z</time>
      </trkpt>
      <trkpt lat="48.6997" lon="1.79548">
        <ele>186</ele>
        <time>2015-12-27T09:14:00.000Z</time>
      </trkpt>
      <trkpt lat="48.69967" lon="1.79552">
        <ele>186</ele>
        <time>2015-12-27T09:14:03.000Z</time>
      </trkpt>
      <trkpt lat="48.69962" lon="1.79557">
        <ele>185.80000305176</ele>
        <time>2015-12-27T09:14:07.000Z</time>
      </trkpt>
      <trkpt lat="48.69961" lon="1.79558">
        <ele>185.80000305176</ele>
        <time>2015-12-27T09:14:08.000Z</time>
      </trkpt>
      <trkpt lat="48.69954" lon="1.79563">
        <ele>185.60000610352</ele>
        <time>2015-12-27T09:14:13.000Z</time>
      </trkpt>
      <trkpt lat="48.69947" lon="1.79567">
        <ele>185.39999389648</ele>
        <time>2015-12-27T09:14:19.000Z</time>
      </trkpt>
      <trkpt lat="48.69943" lon="1.79569">
        <ele>185.19999694824</ele>
        <time>2015-12-27T09:14:22.000Z</time>
      </trkpt>
      <trkpt lat="48.69941" lon="1.79571">
        <ele>185.19999694824</ele>
        <time>2015-12-27T09:14:24.000Z</time>
      </trkpt>
      <trkpt lat="48.69941" lon="1.79572">
        <ele>185.19999694824</ele>
        <time>2015-12-27T09:14:25.000Z</time>
      </trkpt>
      <trkpt lat="48.69934" lon="1.79575">
        <ele>185</ele>
        <time>2015-12-27T09:14:31.000Z</time>
      </trkpt>
      <trkpt lat="48.69929" lon="1.79574">
        <ele>184.80000305176</ele>
        <time>2015-12-27T09:14:34.000Z</time>
      </trkpt>
      <trkpt lat="48.69926" lon="1.79572">
        <ele>184.80000305176</ele>
        <time>2015-12-27T09:14:35.000Z</time>
      </trkpt>
      <trkpt lat="48.69923" lon="1.79575">
        <ele>184.80000305176</ele>
        <time>2015-12-27T09:14:37.000Z</time>
      </trkpt>
      <trkpt lat="48.69914" lon="1.79586">
        <ele>185</ele>
        <time>2015-12-27T09:14:44.000Z</time>
      </trkpt>
      <trkpt lat="48.69913" lon="1.79587">
        <ele>185</ele>
        <time>2015-12-27T09:14:45.000Z</time>
      </trkpt>
      <trkpt lat="48.69909" lon="1.79592">
        <ele>185</ele>
        <time>2015-12-27T09:14:49.000Z</time>
      </trkpt>
      <trkpt lat="48.69905" lon="1.79596">
        <ele>185.19999694824</ele>
        <time>2015-12-27T09:14:53.000Z</time>
      </trkpt>
      <trkpt lat="48.69902" lon="1.796">
        <ele>185.19999694824</ele>
        <time>2015-12-27T09:14:56.000Z</time>
      </trkpt>
      <trkpt lat="48.699" lon="1.79603">
        <ele>185.19999694824</ele>
        <time>2015-12-27T09:14:58.000Z</time>
      </trkpt>
      <trkpt lat="48.69893" lon="1.79609">
        <ele>185.19999694824</ele>
        <time>2015-12-27T09:15:03.000Z</time>
      </trkpt>
      <trkpt lat="48.69893" lon="1.7961">
        <ele>185.39999389648</ele>
        <time>2015-12-27T09:15:04.000Z</time>
      </trkpt>
      <trkpt lat="48.69888" lon="1.79614">
        <ele>185.19999694824</ele>
        <time>2015-12-27T09:15:07.000Z</time>
      </trkpt>
      <trkpt lat="48.69883" lon="1.7962">
        <ele>185</ele>
        <time>2015-12-27T09:15:11.000Z</time>
      </trkpt>
      <trkpt lat="48.69879" lon="1.79628">
        <ele>184.80000305176</ele>
        <time>2015-12-27T09:15:16.000Z</time>
      </trkpt>
      <trkpt lat="48.69877" lon="1.79629">
        <ele>184.80000305176</ele>
        <time>2015-12-27T09:15:17.000Z</time>
      </trkpt>
      <trkpt lat="48.69873" lon="1.79633">
        <ele>184.60000610352</ele>
        <time>2015-12-27T09:15:21.000Z</time>
      </trkpt>
      <trkpt lat="48.69868" lon="1.79638">
        <ele>184.60000610352</ele>
        <time>2015-12-27T09:15:26.000Z</time>
      </trkpt>
      <trkpt lat="48.69867" lon="1.79639">
        <ele>184.39999389648</ele>
        <time>2015-12-27T09:15:27.000Z</time>
      </trkpt>
      <trkpt lat="48.6986" lon="1.79647">
        <ele>184.19999694824</ele>
        <time>2015-12-27T09:15:34.000Z</time>
      </trkpt>
      <trkpt lat="48.69852" lon="1.79654">
        <ele>184</ele>
        <time>2015-12-27T09:15:40.000Z</time>
      </trkpt>
      <trkpt lat="48.69843" lon="1.79664">
        <ele>184</ele>
        <time>2015-12-27T09:15:48.000Z</time>
      </trkpt>
      <trkpt lat="48.69841" lon="1.79665">
        <ele>184</ele>
        <time>2015-12-27T09:15:50.000Z</time>
      </trkpt>
      <trkpt lat="48.69838" lon="1.79669">
        <ele>184.19999694824</ele>
        <time>2015-12-27T09:15:53.000Z</time>
      </trkpt>
      <trkpt lat="48.69837" lon="1.7967">
        <ele>184.19999694824</ele>
        <time>2015-12-27T09:15:54.000Z</time>
      </trkpt>
      <trkpt lat="48.69834" lon="1.79671">
        <ele>184.19999694824</ele>
        <time>2015-12-27T09:15:56.000Z</time>
      </trkpt>
      <trkpt lat="48.69833" lon="1.79672">
        <ele>184.19999694824</ele>
        <time>2015-12-27T09:15:57.000Z</time>
      </trkpt>
      <trkpt lat="48.69829" lon="1.79677">
        <ele>184.19999694824</ele>
        <time>2015-12-27T09:16:01.000Z</time>
      </trkpt>
      <trkpt lat="48.69825" lon="1.7968">
        <ele>184.19999694824</ele>
        <time>2015-12-27T09:16:04.000Z</time>
      </trkpt>
      <trkpt lat="48.69821" lon="1.79684">
        <ele>184.19999694824</ele>
        <time>2015-12-27T09:16:07.000Z</time>
      </trkpt>
      <trkpt lat="48.69819" lon="1.79684">
        <ele>184.19999694824</ele>
        <time>2015-12-27T09:16:08.000Z</time>
      </trkpt>
      <trkpt lat="48.69815" lon="1.79687">
        <ele>184.39999389648</ele>
        <time>2015-12-27T09:16:11.000Z</time>
      </trkpt>
      <trkpt lat="48.69812" lon="1.7969">
        <ele>184.39999389648</ele>
        <time>2015-12-27T09:16:14.000Z</time>
      </trkpt>
      <trkpt lat="48.69808" lon="1.79693">
        <ele>184.39999389648</ele>
        <time>2015-12-27T09:16:17.000Z</time>
      </trkpt>
      <trkpt lat="48.69802" lon="1.79698">
        <ele>184.19999694824</ele>
        <time>2015-12-27T09:16:22.000Z</time>
      </trkpt>
      <trkpt lat="48.69801" lon="1.79699">
        <ele>184.19999694824</ele>
        <time>2015-12-27T09:16:23.000Z</time>
      </trkpt>
      <trkpt lat="48.69796" lon="1.79703">
        <ele>184.19999694824</ele>
        <time>2015-12-27T09:16:27.000Z</time>
      </trkpt>
      <trkpt lat="48.69789" lon="1.79711">
        <ele>184.19999694824</ele>
        <time>2015-12-27T09:16:32.000Z</time>
      </trkpt>
      <trkpt lat="48.69778" lon="1.79717">
        <ele>184</ele>
        <time>2015-12-27T09:16:39.000Z</time>
      </trkpt>
      <trkpt lat="48.69771" lon="1.79725">
        <ele>183.80000305176</ele>
        <time>2015-12-27T09:16:45.000Z</time>
      </trkpt>
      <trkpt lat="48.69763" lon="1.79734">
        <ele>183.80000305176</ele>
        <time>2015-12-27T09:16:51.000Z</time>
      </trkpt>
      <trkpt lat="48.69757" lon="1.79741">
        <ele>183.80000305176</ele>
        <time>2015-12-27T09:16:56.000Z</time>
      </trkpt>
      <trkpt lat="48.69752" lon="1.79745">
        <ele>183.80000305176</ele>
        <time>2015-12-27T09:17:00.000Z</time>
      </trkpt>
      <trkpt lat="48.69752" lon="1.79745">
        <ele>183.80000305176</ele>
        <time>2015-12-27T09:17:01.000Z</time>
      </trkpt>
      <trkpt lat="48.69749" lon="1.79746">
        <ele>183.60000610352</ele>
        <time>2015-12-27T09:17:03.000Z</time>
      </trkpt>
      <trkpt lat="48.69746" lon="1.79747">
        <ele>183.60000610352</ele>
        <time>2015-12-27T09:17:05.000Z</time>
      </trkpt>
      <trkpt lat="48.69739" lon="1.79748">
        <ele>183.60000610352</ele>
        <time>2015-12-27T09:17:09.000Z</time>
      </trkpt>
      <trkpt lat="48.69737" lon="1.79749">
        <ele>183.39999389648</ele>
        <time>2015-12-27T09:17:11.000Z</time>
      </trkpt>
      <trkpt lat="48.69731" lon="1.79753">
        <ele>183.39999389648</ele>
        <time>2015-12-27T09:17:16.000Z</time>
      </trkpt>
      <trkpt lat="48.69727" lon="1.79756">
        <ele>183.39999389648</ele>
        <time>2015-12-27T09:17:18.000Z</time>
      </trkpt>
      <trkpt lat="48.69718" lon="1.79762">
        <ele>183.39999389648</ele>
        <time>2015-12-27T09:17:23.000Z</time>
      </trkpt>
      <trkpt lat="48.69716" lon="1.79764">
        <ele>183.39999389648</ele>
        <time>2015-12-27T09:17:25.000Z</time>
      </trkpt>
      <trkpt lat="48.69711" lon="1.79766">
        <ele>183.39999389648</ele>
        <time>2015-12-27T09:17:28.000Z</time>
      </trkpt>
      <trkpt lat="48.69708" lon="1.79768">
        <ele>183.39999389648</ele>
        <time>2015-12-27T09:17:30.000Z</time>
      </trkpt>
      <trkpt lat="48.69704" lon="1.79772">
        <ele>183.60000610352</ele>
        <time>2015-12-27T09:17:33.000Z</time>
      </trkpt>
      <trkpt lat="48.69703" lon="1.79772">
        <ele>183.60000610352</ele>
        <time>2015-12-27T09:17:34.000Z</time>
      </trkpt>
      <trkpt lat="48.69699" lon="1.79775">
        <ele>183.80000305176</ele>
        <time>2015-12-27T09:17:36.000Z</time>
      </trkpt>
      <trkpt lat="48.69697" lon="1.79777">
        <ele>183.80000305176</ele>
        <time>2015-12-27T09:17:38.000Z</time>
      </trkpt>
      <trkpt lat="48.69693" lon="1.79779">
        <ele>184</ele>
        <time>2015-12-27T09:17:41.000Z</time>
      </trkpt>
      <trkpt lat="48.69691" lon="1.7978">
        <ele>184</ele>
        <time>2015-12-27T09:17:43.000Z</time>
      </trkpt>
      <trkpt lat="48.69686" lon="1.79782">
        <ele>184.19999694824</ele>
        <time>2015-12-27T09:17:46.000Z</time>
      </trkpt>
      <trkpt lat="48.69683" lon="1.79783">
        <ele>184.19999694824</ele>
        <time>2015-12-27T09:17:48.000Z</time>
      </trkpt>
      <trkpt lat="48.69681" lon="1.79785">
        <ele>184.39999389648</ele>
        <time>2015-12-27T09:17:50.000Z</time>
      </trkpt>
      <trkpt lat="48.69673" lon="1.79789">
        <ele>184.80000305176</ele>
        <time>2015-12-27T09:17:56.000Z</time>
      </trkpt>
      <trkpt lat="48.69664" lon="1.79791">
        <ele>185</ele>
        <time>2015-12-27T09:18:03.000Z</time>
      </trkpt>
      <trkpt lat="48.69661" lon="1.79792">
        <ele>185.19999694824</ele>
        <time>2015-12-27T09:18:06.000Z</time>
      </trkpt>
      <trkpt lat="48.69658" lon="1.79793">
        <ele>185.39999389648</ele>
        <time>2015-12-27T09:18:10.000Z</time>
      </trkpt>
      <trkpt lat="48.69657" lon="1.79796">
        <ele>185.39999389648</ele>
        <time>2015-12-27T09:18:13.000Z</time>
      </trkpt>
      <trkpt lat="48.69653" lon="1.79799">
        <ele>185.39999389648</ele>
        <time>2015-12-27T09:18:16.000Z</time>
      </trkpt>
      <trkpt lat="48.69646" lon="1.79801">
        <ele>185.60000610352</ele>
        <time>2015-12-27T09:18:21.000Z</time>
      </trkpt>
      <trkpt lat="48.69644" lon="1.79802">
        <ele>185.60000610352</ele>
        <time>2015-12-27T09:18:23.000Z</time>
      </trkpt>
      <trkpt lat="48.6963" lon="1.79806">
        <ele>185.60000610352</ele>
        <time>2015-12-27T09:18:31.000Z</time>
      </trkpt>
      <trkpt lat="48.69623" lon="1.79809">
        <ele>185.60000610352</ele>
        <time>2015-12-27T09:18:36.000Z</time>
      </trkpt>
      <trkpt lat="48.69622" lon="1.79809">
        <ele>185.60000610352</ele>
        <time>2015-12-27T09:18:37.000Z</time>
      </trkpt>
      <trkpt lat="48.69611" lon="1.79807">
        <ele>185.60000610352</ele>
        <time>2015-12-27T09:18:45.000Z</time>
      </trkpt>
      <trkpt lat="48.6961" lon="1.798">
        <ele>185.39999389648</ele>
        <time>2015-12-27T09:18:49.000Z</time>
      </trkpt>
      <trkpt lat="48.69613" lon="1.79794">
        <ele>185.39999389648</ele>
        <time>2015-12-27T09:18:53.000Z</time>
      </trkpt>
      <trkpt lat="48.69613" lon="1.79794">
        <ele>185.39999389648</ele>
        <time>2015-12-27T09:18:54.000Z</time>
      </trkpt>
      <trkpt lat="48.69612" lon="1.79794">
        <ele>185.39999389648</ele>
        <time>2015-12-27T09:18:55.000Z</time>
      </trkpt>
      <trkpt lat="48.69607" lon="1.7979">
        <ele>185.19999694824</ele>
        <time>2015-12-27T09:19:29.000Z</time>
      </trkpt>
      <trkpt lat="48.69607" lon="1.79791">
        <ele>185.19999694824</ele>
        <time>2015-12-27T09:19:30.000Z</time>
      </trkpt>
      <trkpt lat="48.69607" lon="1.79791">
        <ele>185.19999694824</ele>
        <time>2015-12-27T09:19:31.000Z</time>
      </trkpt>
      <trkpt lat="48.69594" lon="1.7981">
        <ele>186.39999389648</ele>
        <time>2015-12-27T09:20:12.000Z</time>
      </trkpt>
      <trkpt lat="48.69591" lon="1.79811">
        <ele>186.60000610352</ele>
        <time>2015-12-27T09:20:15.000Z</time>
      </trkpt>
      <trkpt lat="48.6959" lon="1.79812">
        <ele>186.60000610352</ele>
        <time>2015-12-27T09:20:16.000Z</time>
      </trkpt>
      <trkpt lat="48.69587" lon="1.79816">
        <ele>186.80000305176</ele>
        <time>2015-12-27T09:20:20.000Z</time>
      </trkpt>
      <trkpt lat="48.69581" lon="1.79818">
        <ele>187</ele>
        <time>2015-12-27T09:20:26.000Z</time>
      </trkpt>
      <trkpt lat="48.69573" lon="1.79823">
        <ele>187.39999389648</ele>
        <time>2015-12-27T09:20:33.000Z</time>
      </trkpt>
      <trkpt lat="48.69572" lon="1.79823">
        <ele>187.60000610352</ele>
        <time>2015-12-27T09:20:34.000Z</time>
      </trkpt>
      <trkpt lat="48.69565" lon="1.79827">
        <ele>187.80000305176</ele>
        <time>2015-12-27T09:20:39.000Z</time>
      </trkpt>
      <trkpt lat="48.69564" lon="1.79827">
        <ele>188</ele>
        <time>2015-12-27T09:20:40.000Z</time>
      </trkpt>
      <trkpt lat="48.69562" lon="1.79829">
        <ele>188</ele>
        <time>2015-12-27T09:20:42.000Z</time>
      </trkpt>
      <trkpt lat="48.69557" lon="1.79833">
        <ele>188.39999389648</ele>
        <time>2015-12-27T09:20:46.000Z</time>
      </trkpt>
      <trkpt lat="48.69547" lon="1.7984">
        <ele>188.80000305176</ele>
        <time>2015-12-27T09:20:52.000Z</time>
      </trkpt>
      <trkpt lat="48.69546" lon="1.7984">
        <ele>189</ele>
        <time>2015-12-27T09:20:53.000Z</time>
      </trkpt>
      <trkpt lat="48.69539" lon="1.79844">
        <ele>189.19999694824</ele>
        <time>2015-12-27T09:20:57.000Z</time>
      </trkpt>
      <trkpt lat="48.69536" lon="1.79845">
        <ele>189</ele>
        <time>2015-12-27T09:20:59.000Z</time>
      </trkpt>
      <trkpt lat="48.6953" lon="1.79848">
        <ele>188.80000305176</ele>
        <time>2015-12-27T09:21:03.000Z</time>
      </trkpt>
      <trkpt lat="48.6952" lon="1.79853">
        <ele>188.39999389648</ele>
        <time>2015-12-27T09:21:10.000Z</time>
      </trkpt>
      <trkpt lat="48.6951" lon="1.79857">
        <ele>188</ele>
        <time>2015-12-27T09:21:16.000Z</time>
      </trkpt>
      <trkpt lat="48.69503" lon="1.79859">
        <ele>187.80000305176</ele>
        <time>2015-12-27T09:21:21.000Z</time>
      </trkpt>
      <trkpt lat="48.69492" lon="1.79864">
        <ele>187.39999389648</ele>
        <time>2015-12-27T09:21:28.000Z</time>
      </trkpt>
      <trkpt lat="48.6948" lon="1.7987">
        <ele>186.80000305176</ele>
        <time>2015-12-27T09:21:36.000Z</time>
      </trkpt>
      <trkpt lat="48.69473" lon="1.79874">
        <ele>186.60000610352</ele>
        <time>2015-12-27T09:21:41.000Z</time>
      </trkpt>
      <trkpt lat="48.6947" lon="1.79876">
        <ele>186.39999389648</ele>
        <time>2015-12-27T09:21:43.000Z</time>
      </trkpt>
      <trkpt lat="48.69466" lon="1.79878">
        <ele>186.39999389648</ele>
        <time>2015-12-27T09:21:46.000Z</time>
      </trkpt>
      <trkpt lat="48.69461" lon="1.7988">
        <ele>186.19999694824</ele>
        <time>2015-12-27T09:21:49.000Z</time>
      </trkpt>
      <trkpt lat="48.69451" lon="1.79885">
        <ele>185.80000305176</ele>
        <time>2015-12-27T09:21:56.000Z</time>
      </trkpt>
      <trkpt lat="48.6945" lon="1.79885">
        <ele>185.80000305176</ele>
        <time>2015-12-27T09:21:57.000Z</time>
      </trkpt>
      <trkpt lat="48.69436" lon="1.79892">
        <ele>185.39999389648</ele>
        <time>2015-12-27T09:22:06.000Z</time>
      </trkpt>
      <trkpt lat="48.69423" lon="1.799">
        <ele>184.60000610352</ele>
        <time>2015-12-27T09:22:14.000Z</time>
      </trkpt>
      <trkpt lat="48.69418" lon="1.79903">
        <ele>184.19999694824</ele>
        <time>2015-12-27T09:22:18.000Z</time>
      </trkpt>
      <trkpt lat="48.69415" lon="1.79905">
        <ele>184</ele>
        <time>2015-12-27T09:22:20.000Z</time>
      </trkpt>
      <trkpt lat="48.69405" lon="1.7991">
        <ele>183.19999694824</ele>
        <time>2015-12-27T09:22:27.000Z</time>
      </trkpt>
      <trkpt lat="48.69404" lon="1.79911">
        <ele>183.19999694824</ele>
        <time>2015-12-27T09:22:28.000Z</time>
      </trkpt>
      <trkpt lat="48.69395" lon="1.79913">
        <ele>182.60000610352</ele>
        <time>2015-12-27T09:22:34.000Z</time>
      </trkpt>
      <trkpt lat="48.69385" lon="1.79915">
        <ele>182</ele>
        <time>2015-12-27T09:22:41.000Z</time>
      </trkpt>
      <trkpt lat="48.69382" lon="1.79921">
        <ele>181.60000610352</ele>
        <time>2015-12-27T09:22:46.000Z</time>
      </trkpt>
      <trkpt lat="48.69386" lon="1.79928">
        <ele>181.39999389648</ele>
        <time>2015-12-27T09:22:51.000Z</time>
      </trkpt>
      <trkpt lat="48.69387" lon="1.7993">
        <ele>181.39999389648</ele>
        <time>2015-12-27T09:22:52.000Z</time>
      </trkpt>
      <trkpt lat="48.69392" lon="1.7994">
        <ele>181.19999694824</ele>
        <time>2015-12-27T09:22:59.000Z</time>
      </trkpt>
      <trkpt lat="48.69399" lon="1.79951">
        <ele>181</ele>
        <time>2015-12-27T09:23:06.000Z</time>
      </trkpt>
      <trkpt lat="48.69405" lon="1.79958">
        <ele>181</ele>
        <time>2015-12-27T09:23:13.000Z</time>
      </trkpt>
      <trkpt lat="48.69409" lon="1.79962">
        <ele>181</ele>
        <time>2015-12-27T09:23:17.000Z</time>
      </trkpt>
      <trkpt lat="48.69411" lon="1.79967">
        <ele>180.80000305176</ele>
        <time>2015-12-27T09:23:19.000Z</time>
      </trkpt>
      <trkpt lat="48.69419" lon="1.79977">
        <ele>180.80000305176</ele>
        <time>2015-12-27T09:23:25.000Z</time>
      </trkpt>
      <trkpt lat="48.69427" lon="1.79989">
        <ele>180.60000610352</ele>
        <time>2015-12-27T09:23:32.000Z</time>
      </trkpt>
      <trkpt lat="48.69433" lon="1.79999">
        <ele>180.39999389648</ele>
        <time>2015-12-27T09:23:38.000Z</time>
      </trkpt>
      <trkpt lat="48.69439" lon="1.80008">
        <ele>180.39999389648</ele>
        <time>2015-12-27T09:23:44.000Z</time>
      </trkpt>
      <trkpt lat="48.6944" lon="1.80009">
        <ele>180.39999389648</ele>
        <time>2015-12-27T09:23:45.000Z</time>
      </trkpt>
      <trkpt lat="48.69448" lon="1.80021">
        <ele>180.60000610352</ele>
        <time>2015-12-27T09:23:52.000Z</time>
      </trkpt>
      <trkpt lat="48.69454" lon="1.8003">
        <ele>180.60000610352</ele>
        <time>2015-12-27T09:23:57.000Z</time>
      </trkpt>
      <trkpt lat="48.69455" lon="1.80032">
        <ele>180.60000610352</ele>
        <time>2015-12-27T09:23:58.000Z</time>
      </trkpt>
      <trkpt lat="48.69467" lon="1.80048">
        <ele>180.60000610352</ele>
        <time>2015-12-27T09:24:07.000Z</time>
      </trkpt>
      <trkpt lat="48.69475" lon="1.8006">
        <ele>180.60000610352</ele>
        <time>2015-12-27T09:24:14.000Z</time>
      </trkpt>
      <trkpt lat="48.69478" lon="1.80065">
        <ele>180.60000610352</ele>
        <time>2015-12-27T09:24:17.000Z</time>
      </trkpt>
      <trkpt lat="48.69481" lon="1.80071">
        <ele>180.60000610352</ele>
        <time>2015-12-27T09:24:20.000Z</time>
      </trkpt>
      <trkpt lat="48.69488" lon="1.80084">
        <ele>180.60000610352</ele>
        <time>2015-12-27T09:24:27.000Z</time>
      </trkpt>
      <trkpt lat="48.69495" lon="1.80097">
        <ele>180.39999389648</ele>
        <time>2015-12-27T09:24:34.000Z</time>
      </trkpt>
      <trkpt lat="48.69498" lon="1.80104">
        <ele>180.19999694824</ele>
        <time>2015-12-27T09:24:37.000Z</time>
      </trkpt>
      <trkpt lat="48.695" lon="1.80109">
        <ele>180</ele>
        <time>2015-12-27T09:24:40.000Z</time>
      </trkpt>
      <trkpt lat="48.69503" lon="1.80113">
        <ele>180</ele>
        <time>2015-12-27T09:24:42.000Z</time>
      </trkpt>
      <trkpt lat="48.69506" lon="1.80118">
        <ele>180</ele>
        <time>2015-12-27T09:24:45.000Z</time>
      </trkpt>
      <trkpt lat="48.69508" lon="1.80121">
        <ele>179.80000305176</ele>
        <time>2015-12-27T09:24:47.000Z</time>
      </trkpt>
      <trkpt lat="48.69515" lon="1.80132">
        <ele>179.80000305176</ele>
        <time>2015-12-27T09:24:54.000Z</time>
      </trkpt>
      <trkpt lat="48.69524" lon="1.80146">
        <ele>179.60000610352</ele>
        <time>2015-12-27T09:25:02.000Z</time>
      </trkpt>
      <trkpt lat="48.69534" lon="1.8016">
        <ele>179.60000610352</ele>
        <time>2015-12-27T09:25:10.000Z</time>
      </trkpt>
      <trkpt lat="48.69543" lon="1.80174">
        <ele>179.80000305176</ele>
        <time>2015-12-27T09:25:18.000Z</time>
      </trkpt>
      <trkpt lat="48.69552" lon="1.80187">
        <ele>179.80000305176</ele>
        <time>2015-12-27T09:25:25.000Z</time>
      </trkpt>
      <trkpt lat="48.69562" lon="1.80202">
        <ele>179.80000305176</ele>
        <time>2015-12-27T09:25:34.000Z</time>
      </trkpt>
      <trkpt lat="48.69569" lon="1.80213">
        <ele>179.80000305176</ele>
        <time>2015-12-27T09:25:40.000Z</time>
      </trkpt>
      <trkpt lat="48.69572" lon="1.80217">
        <ele>180</ele>
        <time>2015-12-27T09:25:43.000Z</time>
      </trkpt>
      <trkpt lat="48.69576" lon="1.80222">
        <ele>180</ele>
        <time>2015-12-27T09:25:46.000Z</time>
      </trkpt>
      <trkpt lat="48.69577" lon="1.80223">
        <ele>180</ele>
        <time>2015-12-27T09:25:47.000Z</time>
      </trkpt>
      <trkpt lat="48.69586" lon="1.80234">
        <ele>180.19999694824</ele>
        <time>2015-12-27T09:25:54.000Z</time>
      </trkpt>
      <trkpt lat="48.69595" lon="1.80247">
        <ele>180.60000610352</ele>
        <time>2015-12-27T09:26:02.000Z</time>
      </trkpt>
      <trkpt lat="48.69595" lon="1.80249">
        <ele>180.60000610352</ele>
        <time>2015-12-27T09:26:03.000Z</time>
      </trkpt>
      <trkpt lat="48.69598" lon="1.80255">
        <ele>180.80000305176</ele>
        <time>2015-12-27T09:26:06.000Z</time>
      </trkpt>
      <trkpt lat="48.69602" lon="1.8026">
        <ele>181.19999694824</ele>
        <time>2015-12-27T09:26:09.000Z</time>
      </trkpt>
      <trkpt lat="48.69609" lon="1.80272">
        <ele>181.60000610352</ele>
        <time>2015-12-27T09:26:15.000Z</time>
      </trkpt>
      <trkpt lat="48.69615" lon="1.80282">
        <ele>181.80000305176</ele>
        <time>2015-12-27T09:26:21.000Z</time>
      </trkpt>
      <trkpt lat="48.69621" lon="1.80292">
        <ele>182</ele>
        <time>2015-12-27T09:26:26.000Z</time>
      </trkpt>
      <trkpt lat="48.69628" lon="1.80304">
        <ele>182.39999389648</ele>
        <time>2015-12-27T09:26:33.000Z</time>
      </trkpt>
      <trkpt lat="48.69635" lon="1.80312">
        <ele>182.60000610352</ele>
        <time>2015-12-27T09:26:39.000Z</time>
      </trkpt>
      <trkpt lat="48.69642" lon="1.80325">
        <ele>182.80000305176</ele>
        <time>2015-12-27T09:26:47.000Z</time>
      </trkpt>
      <trkpt lat="48.69645" lon="1.80336">
        <ele>182.60000610352</ele>
        <time>2015-12-27T09:26:53.000Z</time>
      </trkpt>
      <trkpt lat="48.69651" lon="1.80348">
        <ele>182.60000610352</ele>
        <time>2015-12-27T09:27:00.000Z</time>
      </trkpt>
      <trkpt lat="48.69656" lon="1.80354">
        <ele>182.39999389648</ele>
        <time>2015-12-27T09:27:04.000Z</time>
      </trkpt>
      <trkpt lat="48.69664" lon="1.80364">
        <ele>182.39999389648</ele>
        <time>2015-12-27T09:27:10.000Z</time>
      </trkpt>
      <trkpt lat="48.69665" lon="1.80365">
        <ele>182.39999389648</ele>
        <time>2015-12-27T09:27:11.000Z</time>
      </trkpt>
      <trkpt lat="48.69671" lon="1.80377">
        <ele>182.19999694824</ele>
        <time>2015-12-27T09:27:17.000Z</time>
      </trkpt>
      <trkpt lat="48.69678" lon="1.80389">
        <ele>182.19999694824</ele>
        <time>2015-12-27T09:27:24.000Z</time>
      </trkpt>
      <trkpt lat="48.69685" lon="1.80399">
        <ele>182.19999694824</ele>
        <time>2015-12-27T09:27:30.000Z</time>
      </trkpt>
      <trkpt lat="48.69689" lon="1.80406">
        <ele>182</ele>
        <time>2015-12-27T09:27:36.000Z</time>
      </trkpt>
      <trkpt lat="48.69689" lon="1.80406">
        <ele>182</ele>
        <time>2015-12-27T09:27:37.000Z</time>
      </trkpt>
      <trkpt lat="48.69701" lon="1.80428">
        <ele>181.39999389648</ele>
        <time>2015-12-27T09:27:55.000Z</time>
      </trkpt>
      <trkpt lat="48.69703" lon="1.80433">
        <ele>181.39999389648</ele>
        <time>2015-12-27T09:27:58.000Z</time>
      </trkpt>
      <trkpt lat="48.69704" lon="1.80435">
        <ele>181.39999389648</ele>
        <time>2015-12-27T09:27:59.000Z</time>
      </trkpt>
      <trkpt lat="48.69706" lon="1.80444">
        <ele>181.39999389648</ele>
        <time>2015-12-27T09:28:04.000Z</time>
      </trkpt>
      <trkpt lat="48.69705" lon="1.80447">
        <ele>181.39999389648</ele>
        <time>2015-12-27T09:28:05.000Z</time>
      </trkpt>
      <trkpt lat="48.69706" lon="1.80453">
        <ele>181.39999389648</ele>
        <time>2015-12-27T09:28:08.000Z</time>
      </trkpt>
      <trkpt lat="48.69707" lon="1.80464">
        <ele>181.39999389648</ele>
        <time>2015-12-27T09:28:13.000Z</time>
      </trkpt>
      <trkpt lat="48.69709" lon="1.80477">
        <ele>181.60000610352</ele>
        <time>2015-12-27T09:28:19.000Z</time>
      </trkpt>
      <trkpt lat="48.69709" lon="1.80495">
        <ele>181.80000305176</ele>
        <time>2015-12-27T09:28:27.000Z</time>
      </trkpt>
      <trkpt lat="48.69711" lon="1.80511">
        <ele>182.39999389648</ele>
        <time>2015-12-27T09:28:34.000Z</time>
      </trkpt>
      <trkpt lat="48.69712" lon="1.8053">
        <ele>182.19999694824</ele>
        <time>2015-12-27T09:28:42.000Z</time>
      </trkpt>
      <trkpt lat="48.69714" lon="1.80544">
        <ele>182</ele>
        <time>2015-12-27T09:28:48.000Z</time>
      </trkpt>
      <trkpt lat="48.69716" lon="1.80557">
        <ele>181.80000305176</ele>
        <time>2015-12-27T09:28:54.000Z</time>
      </trkpt>
      <trkpt lat="48.69718" lon="1.80576">
        <ele>181.80000305176</ele>
        <time>2015-12-27T09:29:03.000Z</time>
      </trkpt>
      <trkpt lat="48.69718" lon="1.80584">
        <ele>182</ele>
        <time>2015-12-27T09:29:07.000Z</time>
      </trkpt>
      <trkpt lat="48.69719" lon="1.80588">
        <ele>182</ele>
        <time>2015-12-27T09:29:09.000Z</time>
      </trkpt>
      <trkpt lat="48.69719" lon="1.80591">
        <ele>182</ele>
        <time>2015-12-27T09:29:11.000Z</time>
      </trkpt>
      <trkpt lat="48.6972" lon="1.80604">
        <ele>182.39999389648</ele>
        <time>2015-12-27T09:29:17.000Z</time>
      </trkpt>
      <trkpt lat="48.69722" lon="1.80615">
        <ele>182.39999389648</ele>
        <time>2015-12-27T09:29:23.000Z</time>
      </trkpt>
      <trkpt lat="48.69722" lon="1.8063">
        <ele>182.39999389648</ele>
        <time>2015-12-27T09:29:29.000Z</time>
      </trkpt>
      <trkpt lat="48.69722" lon="1.80638">
        <ele>182.39999389648</ele>
        <time>2015-12-27T09:29:32.000Z</time>
      </trkpt>
      <trkpt lat="48.69724" lon="1.80651">
        <ele>182.39999389648</ele>
        <time>2015-12-27T09:29:37.000Z</time>
      </trkpt>
      <trkpt lat="48.69724" lon="1.80653">
        <ele>182.39999389648</ele>
        <time>2015-12-27T09:29:38.000Z</time>
      </trkpt>
      <trkpt lat="48.69727" lon="1.80667">
        <ele>182.19999694824</ele>
        <time>2015-12-27T09:29:44.000Z</time>
      </trkpt>
      <trkpt lat="48.69728" lon="1.80676">
        <ele>182</ele>
        <time>2015-12-27T09:29:48.000Z</time>
      </trkpt>
      <trkpt lat="48.69728" lon="1.80681">
        <ele>181.80000305176</ele>
        <time>2015-12-27T09:29:50.000Z</time>
      </trkpt>
      <trkpt lat="48.69729" lon="1.80695">
        <ele>181.60000610352</ele>
        <time>2015-12-27T09:29:56.000Z</time>
      </trkpt>
      <trkpt lat="48.69731" lon="1.8071">
        <ele>181.39999389648</ele>
        <time>2015-12-27T09:30:03.000Z</time>
      </trkpt>
      <trkpt lat="48.69733" lon="1.80718">
        <ele>181.39999389648</ele>
        <time>2015-12-27T09:30:07.000Z</time>
      </trkpt>
      <trkpt lat="48.69734" lon="1.80731">
        <ele>181.39999389648</ele>
        <time>2015-12-27T09:30:13.000Z</time>
      </trkpt>
      <trkpt lat="48.69735" lon="1.80744">
        <ele>181</ele>
        <time>2015-12-27T09:30:19.000Z</time>
      </trkpt>
      <trkpt lat="48.69735" lon="1.80754">
        <ele>180.39999389648</ele>
        <time>2015-12-27T09:30:23.000Z</time>
      </trkpt>
      <trkpt lat="48.69736" lon="1.80758">
        <ele>180.19999694824</ele>
        <time>2015-12-27T09:30:25.000Z</time>
      </trkpt>
      <trkpt lat="48.69734" lon="1.80771">
        <ele>179.39999389648</ele>
        <time>2015-12-27T09:30:30.000Z</time>
      </trkpt>
      <trkpt lat="48.69734" lon="1.80779">
        <ele>179</ele>
        <time>2015-12-27T09:30:33.000Z</time>
      </trkpt>
      <trkpt lat="48.69734" lon="1.80787">
        <ele>178.60000610352</ele>
        <time>2015-12-27T09:30:36.000Z</time>
      </trkpt>
      <trkpt lat="48.69733" lon="1.80802">
        <ele>178.39999389648</ele>
        <time>2015-12-27T09:30:42.000Z</time>
      </trkpt>
      <trkpt lat="48.69734" lon="1.8082">
        <ele>178.19999694824</ele>
        <time>2015-12-27T09:30:49.000Z</time>
      </trkpt>
      <trkpt lat="48.69734" lon="1.80834">
        <ele>178.19999694824</ele>
        <time>2015-12-27T09:30:55.000Z</time>
      </trkpt>
      <trkpt lat="48.69735" lon="1.80844">
        <ele>178</ele>
        <time>2015-12-27T09:31:01.000Z</time>
      </trkpt>
      <trkpt lat="48.69735" lon="1.80849">
        <ele>178</ele>
        <time>2015-12-27T09:31:03.000Z</time>
      </trkpt>
      <trkpt lat="48.69736" lon="1.80864">
        <ele>178</ele>
        <time>2015-12-27T09:31:10.000Z</time>
      </trkpt>
      <trkpt lat="48.69736" lon="1.80882">
        <ele>178</ele>
        <time>2015-12-27T09:31:18.000Z</time>
      </trkpt>
      <trkpt lat="48.69739" lon="1.80897">
        <ele>177.80000305176</ele>
        <time>2015-12-27T09:31:24.000Z</time>
      </trkpt>
      <trkpt lat="48.69741" lon="1.80917">
        <ele>178.19999694824</ele>
        <time>2015-12-27T09:31:33.000Z</time>
      </trkpt>
      <trkpt lat="48.69742" lon="1.80923">
        <ele>178.39999389648</ele>
        <time>2015-12-27T09:31:37.000Z</time>
      </trkpt>
      <trkpt lat="48.69741" lon="1.80924">
        <ele>178.39999389648</ele>
        <time>2015-12-27T09:31:39.000Z</time>
      </trkpt>
      <trkpt lat="48.6974" lon="1.80942">
        <ele>179.19999694824</ele>
        <time>2015-12-27T09:32:12.000Z</time>
      </trkpt>
      <trkpt lat="48.6974" lon="1.80948">
        <ele>179.39999389648</ele>
        <time>2015-12-27T09:32:15.000Z</time>
      </trkpt>
      <trkpt lat="48.6974" lon="1.80967">
        <ele>180</ele>
        <time>2015-12-27T09:32:23.000Z</time>
      </trkpt>
      <trkpt lat="48.6974" lon="1.80983">
        <ele>180.39999389648</ele>
        <time>2015-12-27T09:32:30.000Z</time>
      </trkpt>
      <trkpt lat="48.69743" lon="1.80992">
        <ele>180.39999389648</ele>
        <time>2015-12-27T09:32:34.000Z</time>
      </trkpt>
      <trkpt lat="48.69743" lon="1.80994">
        <ele>180.39999389648</ele>
        <time>2015-12-27T09:32:35.000Z</time>
      </trkpt>
      <trkpt lat="48.69746" lon="1.81007">
        <ele>180.60000610352</ele>
        <time>2015-12-27T09:32:41.000Z</time>
      </trkpt>
      <trkpt lat="48.69746" lon="1.81015">
        <ele>180.80000305176</ele>
        <time>2015-12-27T09:32:45.000Z</time>
      </trkpt>
      <trkpt lat="48.69746" lon="1.8102">
        <ele>180.80000305176</ele>
        <time>2015-12-27T09:32:48.000Z</time>
      </trkpt>
      <trkpt lat="48.69748" lon="1.81035">
        <ele>181.19999694824</ele>
        <time>2015-12-27T09:32:55.000Z</time>
      </trkpt>
      <trkpt lat="48.69748" lon="1.81037">
        <ele>181.19999694824</ele>
        <time>2015-12-27T09:32:56.000Z</time>
      </trkpt>
      <trkpt lat="48.69749" lon="1.81046">
        <ele>181.39999389648</ele>
        <time>2015-12-27T09:33:01.000Z</time>
      </trkpt>
      <trkpt lat="48.69751" lon="1.8106">
        <ele>181.39999389648</ele>
        <time>2015-12-27T09:33:08.000Z</time>
      </trkpt>
      <trkpt lat="48.69753" lon="1.81077">
        <ele>181.60000610352</ele>
        <time>2015-12-27T09:33:16.000Z</time>
      </trkpt>
      <trkpt lat="48.69755" lon="1.81086">
        <ele>181.80000305176</ele>
        <time>2015-12-27T09:33:20.000Z</time>
      </trkpt>
      <trkpt lat="48.69755" lon="1.81089">
        <ele>182</ele>
        <time>2015-12-27T09:33:22.000Z</time>
      </trkpt>
      <trkpt lat="48.69756" lon="1.81102">
        <ele>182.39999389648</ele>
        <time>2015-12-27T09:33:28.000Z</time>
      </trkpt>
      <trkpt lat="48.69757" lon="1.81115">
        <ele>182.80000305176</ele>
        <time>2015-12-27T09:33:34.000Z</time>
      </trkpt>
      <trkpt lat="48.69758" lon="1.81119">
        <ele>183</ele>
        <time>2015-12-27T09:33:36.000Z</time>
      </trkpt>
      <trkpt lat="48.6976" lon="1.81132">
        <ele>183.39999389648</ele>
        <time>2015-12-27T09:33:42.000Z</time>
      </trkpt>
      <trkpt lat="48.69761" lon="1.81145">
        <ele>183.80000305176</ele>
        <time>2015-12-27T09:33:48.000Z</time>
      </trkpt>
      <trkpt lat="48.69762" lon="1.81161">
        <ele>184</ele>
        <time>2015-12-27T09:33:55.000Z</time>
      </trkpt>
      <trkpt lat="48.69762" lon="1.81169">
        <ele>184</ele>
        <time>2015-12-27T09:33:59.000Z</time>
      </trkpt>
      <trkpt lat="48.69762" lon="1.81173">
        <ele>184</ele>
        <time>2015-12-27T09:34:01.000Z</time>
      </trkpt>
      <trkpt lat="48.69763" lon="1.81179">
        <ele>184</ele>
        <time>2015-12-27T09:34:04.000Z</time>
      </trkpt>
      <trkpt lat="48.69764" lon="1.8119">
        <ele>184</ele>
        <time>2015-12-27T09:34:09.000Z</time>
      </trkpt>
      <trkpt lat="48.69765" lon="1.81192">
        <ele>184</ele>
        <time>2015-12-27T09:34:10.000Z</time>
      </trkpt>
      <trkpt lat="48.69766" lon="1.81198">
        <ele>184</ele>
        <time>2015-12-27T09:34:13.000Z</time>
      </trkpt>
      <trkpt lat="48.69767" lon="1.81205">
        <ele>184</ele>
        <time>2015-12-27T09:34:16.000Z</time>
      </trkpt>
      <trkpt lat="48.69767" lon="1.81209">
        <ele>184</ele>
        <time>2015-12-27T09:34:18.000Z</time>
      </trkpt>
      <trkpt lat="48.69767" lon="1.81212">
        <ele>184</ele>
        <time>2015-12-27T09:34:19.000Z</time>
      </trkpt>
      <trkpt lat="48.69768" lon="1.81231">
        <ele>184</ele>
        <time>2015-12-27T09:34:27.000Z</time>
      </trkpt>
      <trkpt lat="48.69769" lon="1.81253">
        <ele>183.60000610352</ele>
        <time>2015-12-27T09:34:36.000Z</time>
      </trkpt>
      <trkpt lat="48.69771" lon="1.8127">
        <ele>183.19999694824</ele>
        <time>2015-12-27T09:34:43.000Z</time>
      </trkpt>
      <trkpt lat="48.69771" lon="1.81285">
        <ele>182.80000305176</ele>
        <time>2015-12-27T09:34:50.000Z</time>
      </trkpt>
      <trkpt lat="48.69773" lon="1.81298">
        <ele>182.39999389648</ele>
        <time>2015-12-27T09:34:56.000Z</time>
      </trkpt>
      <trkpt lat="48.69772" lon="1.81301">
        <ele>182.39999389648</ele>
        <time>2015-12-27T09:34:57.000Z</time>
      </trkpt>
      <trkpt lat="48.69771" lon="1.8131">
        <ele>182.19999694824</ele>
        <time>2015-12-27T09:35:01.000Z</time>
      </trkpt>
      <trkpt lat="48.69771" lon="1.81328">
        <ele>181.80000305176</ele>
        <time>2015-12-27T09:35:08.000Z</time>
      </trkpt>
      <trkpt lat="48.69773" lon="1.81348">
        <ele>181</ele>
        <time>2015-12-27T09:35:16.000Z</time>
      </trkpt>
      <trkpt lat="48.69777" lon="1.81371">
        <ele>180</ele>
        <time>2015-12-27T09:35:26.000Z</time>
      </trkpt>
      <trkpt lat="48.69779" lon="1.81393">
        <ele>179.19999694824</ele>
        <time>2015-12-27T09:35:35.000Z</time>
      </trkpt>
      <trkpt lat="48.6978" lon="1.814">
        <ele>179</ele>
        <time>2015-12-27T09:35:38.000Z</time>
      </trkpt>
      <trkpt lat="48.6978" lon="1.81407">
        <ele>178.80000305176</ele>
        <time>2015-12-27T09:35:41.000Z</time>
      </trkpt>
      <trkpt lat="48.69782" lon="1.81431">
        <ele>178.39999389648</ele>
        <time>2015-12-27T09:35:51.000Z</time>
      </trkpt>
      <trkpt lat="48.69783" lon="1.81452">
        <ele>178.39999389648</ele>
        <time>2015-12-27T09:36:01.000Z</time>
      </trkpt>
      <trkpt lat="48.69786" lon="1.81465">
        <ele>178.19999694824</ele>
        <time>2015-12-27T09:36:08.000Z</time>
      </trkpt>
      <trkpt lat="48.69786" lon="1.8148">
        <ele>178.19999694824</ele>
        <time>2015-12-27T09:36:15.000Z</time>
      </trkpt>
      <trkpt lat="48.6979" lon="1.81494">
        <ele>178.19999694824</ele>
        <time>2015-12-27T09:36:22.000Z</time>
      </trkpt>
      <trkpt lat="48.69791" lon="1.81511">
        <ele>178.39999389648</ele>
        <time>2015-12-27T09:36:30.000Z</time>
      </trkpt>
      <trkpt lat="48.69793" lon="1.81513">
        <ele>178.39999389648</ele>
        <time>2015-12-27T09:36:32.000Z</time>
      </trkpt>
      <trkpt lat="48.69799" lon="1.81516">
        <ele>178.19999694824</ele>
        <time>2015-12-27T09:36:36.000Z</time>
      </trkpt>
      <trkpt lat="48.69806" lon="1.81519">
        <ele>178</ele>
        <time>2015-12-27T09:36:41.000Z</time>
      </trkpt>
      <trkpt lat="48.69807" lon="1.8152">
        <ele>178</ele>
        <time>2015-12-27T09:36:42.000Z</time>
      </trkpt>
      <trkpt lat="48.69814" lon="1.81523">
        <ele>177.80000305176</ele>
        <time>2015-12-27T09:36:48.000Z</time>
      </trkpt>
      <trkpt lat="48.69819" lon="1.81525">
        <ele>177.60000610352</ele>
        <time>2015-12-27T09:36:54.000Z</time>
      </trkpt>
      <trkpt lat="48.69819" lon="1.81525">
        <ele>177.60000610352</ele>
        <time>2015-12-27T09:36:55.000Z</time>
      </trkpt>
      <trkpt lat="48.69829" lon="1.8153">
        <ele>177.19999694824</ele>
        <time>2015-12-27T09:37:04.000Z</time>
      </trkpt>
      <trkpt lat="48.69833" lon="1.81532">
        <ele>177</ele>
        <time>2015-12-27T09:37:07.000Z</time>
      </trkpt>
      <trkpt lat="48.69842" lon="1.81535">
        <ele>176.60000610352</ele>
        <time>2015-12-27T09:37:14.000Z</time>
      </trkpt>
      <trkpt lat="48.69849" lon="1.81537">
        <ele>176.39999389648</ele>
        <time>2015-12-27T09:37:19.000Z</time>
      </trkpt>
      <trkpt lat="48.69854" lon="1.81539">
        <ele>176.19999694824</ele>
        <time>2015-12-27T09:37:24.000Z</time>
      </trkpt>
      <trkpt lat="48.69862" lon="1.81542">
        <ele>176.19999694824</ele>
        <time>2015-12-27T09:37:30.000Z</time>
      </trkpt>
      <trkpt lat="48.69873" lon="1.81545">
        <ele>176.39999389648</ele>
        <time>2015-12-27T09:37:39.000Z</time>
      </trkpt>
      <trkpt lat="48.69881" lon="1.81548">
        <ele>176.39999389648</ele>
        <time>2015-12-27T09:37:45.000Z</time>
      </trkpt>
      <trkpt lat="48.6989" lon="1.81551">
        <ele>176.60000610352</ele>
        <time>2015-12-27T09:37:52.000Z</time>
      </trkpt>
      <trkpt lat="48.69903" lon="1.81556">
        <ele>176.60000610352</ele>
        <time>2015-12-27T09:38:02.000Z</time>
      </trkpt>
      <trkpt lat="48.69913" lon="1.81561">
        <ele>176.80000305176</ele>
        <time>2015-12-27T09:38:10.000Z</time>
      </trkpt>
      <trkpt lat="48.69918" lon="1.81562">
        <ele>176.80000305176</ele>
        <time>2015-12-27T09:38:14.000Z</time>
      </trkpt>
      <trkpt lat="48.69922" lon="1.81564">
        <ele>176.80000305176</ele>
        <time>2015-12-27T09:38:17.000Z</time>
      </trkpt>
      <trkpt lat="48.69929" lon="1.81567">
        <ele>176.80000305176</ele>
        <time>2015-12-27T09:38:22.000Z</time>
      </trkpt>
      <trkpt lat="48.69932" lon="1.81569">
        <ele>177</ele>
        <time>2015-12-27T09:38:24.000Z</time>
      </trkpt>
      <trkpt lat="48.69945" lon="1.81573">
        <ele>177.19999694824</ele>
        <time>2015-12-27T09:38:33.000Z</time>
      </trkpt>
      <trkpt lat="48.69953" lon="1.81573">
        <ele>177.19999694824</ele>
        <time>2015-12-27T09:38:40.000Z</time>
      </trkpt>
      <trkpt lat="48.6996" lon="1.81577">
        <ele>177.39999389648</ele>
        <time>2015-12-27T09:38:46.000Z</time>
      </trkpt>
      <trkpt lat="48.69961" lon="1.81577">
        <ele>177.39999389648</ele>
        <time>2015-12-27T09:38:47.000Z</time>
      </trkpt>
      <trkpt lat="48.69966" lon="1.81579">
        <ele>177.60000610352</ele>
        <time>2015-12-27T09:38:50.000Z</time>
      </trkpt>
      <trkpt lat="48.69969" lon="1.81582">
        <ele>177.80000305176</ele>
        <time>2015-12-27T09:38:53.000Z</time>
      </trkpt>
      <trkpt lat="48.69971" lon="1.81586">
        <ele>178</ele>
        <time>2015-12-27T09:38:56.000Z</time>
      </trkpt>
      <trkpt lat="48.69972" lon="1.81587">
        <ele>178</ele>
        <time>2015-12-27T09:38:57.000Z</time>
      </trkpt>
      <trkpt lat="48.69979" lon="1.81589">
        <ele>178.19999694824</ele>
        <time>2015-12-27T09:39:01.000Z</time>
      </trkpt>
      <trkpt lat="48.69986" lon="1.81591">
        <ele>178.19999694824</ele>
        <time>2015-12-27T09:39:06.000Z</time>
      </trkpt>
      <trkpt lat="48.69988" lon="1.81592">
        <ele>178.39999389648</ele>
        <time>2015-12-27T09:39:07.000Z</time>
      </trkpt>
      <trkpt lat="48.7" lon="1.81597">
        <ele>178.60000610352</ele>
        <time>2015-12-27T09:39:16.000Z</time>
      </trkpt>
      <trkpt lat="48.70005" lon="1.81598">
        <ele>178.80000305176</ele>
        <time>2015-12-27T09:39:20.000Z</time>
      </trkpt>
      <trkpt lat="48.70008" lon="1.81598">
        <ele>178.80000305176</ele>
        <time>2015-12-27T09:39:22.000Z</time>
      </trkpt>
      <trkpt lat="48.70012" lon="1.816">
        <ele>179</ele>
        <time>2015-12-27T09:39:25.000Z</time>
      </trkpt>
      <trkpt lat="48.7002" lon="1.81601">
        <ele>179</ele>
        <time>2015-12-27T09:39:32.000Z</time>
      </trkpt>
      <trkpt lat="48.70023" lon="1.81602">
        <ele>179.19999694824</ele>
        <time>2015-12-27T09:39:34.000Z</time>
      </trkpt>
      <trkpt lat="48.70027" lon="1.81604">
        <ele>179.19999694824</ele>
        <time>2015-12-27T09:39:37.000Z</time>
      </trkpt>
      <trkpt lat="48.70035" lon="1.81606">
        <ele>179.39999389648</ele>
        <time>2015-12-27T09:39:43.000Z</time>
      </trkpt>
      <trkpt lat="48.70036" lon="1.81606">
        <ele>179.39999389648</ele>
        <time>2015-12-27T09:39:44.000Z</time>
      </trkpt>
      <trkpt lat="48.7004" lon="1.81608">
        <ele>179.60000610352</ele>
        <time>2015-12-27T09:39:47.000Z</time>
      </trkpt>
      <trkpt lat="48.70045" lon="1.8161">
        <ele>179.60000610352</ele>
        <time>2015-12-27T09:39:50.000Z</time>
      </trkpt>
      <trkpt lat="48.70047" lon="1.8161">
        <ele>179.60000610352</ele>
        <time>2015-12-27T09:39:51.000Z</time>
      </trkpt>
      <trkpt lat="48.7005" lon="1.81609">
        <ele>179.60000610352</ele>
        <time>2015-12-27T09:39:54.000Z</time>
      </trkpt>
      <trkpt lat="48.70052" lon="1.81608">
        <ele>179.60000610352</ele>
        <time>2015-12-27T09:39:55.000Z</time>
      </trkpt>
      <trkpt lat="48.70059" lon="1.81609">
        <ele>179.80000305176</ele>
        <time>2015-12-27T09:40:00.000Z</time>
      </trkpt>
      <trkpt lat="48.70074" lon="1.81615">
        <ele>179.80000305176</ele>
        <time>2015-12-27T09:40:10.000Z</time>
      </trkpt>
      <trkpt lat="48.70082" lon="1.81617">
        <ele>179.80000305176</ele>
        <time>2015-12-27T09:40:15.000Z</time>
      </trkpt>
      <trkpt lat="48.70084" lon="1.81619">
        <ele>179.80000305176</ele>
        <time>2015-12-27T09:40:16.000Z</time>
      </trkpt>
      <trkpt lat="48.70098" lon="1.81626">
        <ele>180</ele>
        <time>2015-12-27T09:40:26.000Z</time>
      </trkpt>
      <trkpt lat="48.70102" lon="1.81628">
        <ele>180</ele>
        <time>2015-12-27T09:40:29.000Z</time>
      </trkpt>
      <trkpt lat="48.70106" lon="1.81629">
        <ele>180</ele>
        <time>2015-12-27T09:40:32.000Z</time>
      </trkpt>
      <trkpt lat="48.70109" lon="1.8163">
        <ele>180</ele>
        <time>2015-12-27T09:40:34.000Z</time>
      </trkpt>
      <trkpt lat="48.70113" lon="1.81631">
        <ele>179.80000305176</ele>
        <time>2015-12-27T09:40:37.000Z</time>
      </trkpt>
      <trkpt lat="48.70125" lon="1.81634">
        <ele>179.39999389648</ele>
        <time>2015-12-27T09:40:45.000Z</time>
      </trkpt>
      <trkpt lat="48.70129" lon="1.81635">
        <ele>179.19999694824</ele>
        <time>2015-12-27T09:40:48.000Z</time>
      </trkpt>
      <trkpt lat="48.70132" lon="1.81636">
        <ele>179.19999694824</ele>
        <time>2015-12-27T09:40:50.000Z</time>
      </trkpt>
      <trkpt lat="48.70144" lon="1.81641">
        <ele>179</ele>
        <time>2015-12-27T09:40:59.000Z</time>
      </trkpt>
      <trkpt lat="48.70156" lon="1.81644">
        <ele>178.60000610352</ele>
        <time>2015-12-27T09:41:08.000Z</time>
      </trkpt>
      <trkpt lat="48.70164" lon="1.81648">
        <ele>178.60000610352</ele>
        <time>2015-12-27T09:41:15.000Z</time>
      </trkpt>
      <trkpt lat="48.70169" lon="1.81649">
        <ele>178.39999389648</ele>
        <time>2015-12-27T09:41:20.000Z</time>
      </trkpt>
      <trkpt lat="48.70178" lon="1.81654">
        <ele>178.39999389648</ele>
        <time>2015-12-27T09:41:27.000Z</time>
      </trkpt>
      <trkpt lat="48.70186" lon="1.81657">
        <ele>178</ele>
        <time>2015-12-27T09:41:33.000Z</time>
      </trkpt>
      <trkpt lat="48.70196" lon="1.81662">
        <ele>177.60000610352</ele>
        <time>2015-12-27T09:41:41.000Z</time>
      </trkpt>
      <trkpt lat="48.70205" lon="1.81667">
        <ele>177.39999389648</ele>
        <time>2015-12-27T09:41:49.000Z</time>
      </trkpt>
      <trkpt lat="48.70213" lon="1.81672">
        <ele>177</ele>
        <time>2015-12-27T09:41:55.000Z</time>
      </trkpt>
      <trkpt lat="48.70218" lon="1.81679">
        <ele>176.80000305176</ele>
        <time>2015-12-27T09:42:00.000Z</time>
      </trkpt>
      <trkpt lat="48.70219" lon="1.81681">
        <ele>176.80000305176</ele>
        <time>2015-12-27T09:42:02.000Z</time>
      </trkpt>
      <trkpt lat="48.70224" lon="1.81688">
        <ele>176.60000610352</ele>
        <time>2015-12-27T09:42:06.000Z</time>
      </trkpt>
      <trkpt lat="48.70225" lon="1.81689">
        <ele>176.60000610352</ele>
        <time>2015-12-27T09:42:07.000Z</time>
      </trkpt>
      <trkpt lat="48.70238" lon="1.81699">
        <ele>176.19999694824</ele>
        <time>2015-12-27T09:42:17.000Z</time>
      </trkpt>
      <trkpt lat="48.7025" lon="1.81708">
        <ele>175.80000305176</ele>
        <time>2015-12-27T09:42:26.000Z</time>
      </trkpt>
      <trkpt lat="48.70262" lon="1.81716">
        <ele>175.19999694824</ele>
        <time>2015-12-27T09:42:35.000Z</time>
      </trkpt>
      <trkpt lat="48.70268" lon="1.81722">
        <ele>175</ele>
        <time>2015-12-27T09:42:40.000Z</time>
      </trkpt>
      <trkpt lat="48.70271" lon="1.81724">
        <ele>175</ele>
        <time>2015-12-27T09:42:42.000Z</time>
      </trkpt>
      <trkpt lat="48.70286" lon="1.81736">
        <ele>175.39999389648</ele>
        <time>2015-12-27T09:42:54.000Z</time>
      </trkpt>
      <trkpt lat="48.70297" lon="1.81744">
        <ele>175.60000610352</ele>
        <time>2015-12-27T09:43:02.000Z</time>
      </trkpt>
      <trkpt lat="48.70306" lon="1.81747">
        <ele>175.80000305176</ele>
        <time>2015-12-27T09:43:09.000Z</time>
      </trkpt>
      <trkpt lat="48.70315" lon="1.81755">
        <ele>176</ele>
        <time>2015-12-27T09:43:16.000Z</time>
      </trkpt>
      <trkpt lat="48.70322" lon="1.81765">
        <ele>176.19999694824</ele>
        <time>2015-12-27T09:43:23.000Z</time>
      </trkpt>
      <trkpt lat="48.70331" lon="1.81774">
        <ele>176.39999389648</ele>
        <time>2015-12-27T09:43:32.000Z</time>
      </trkpt>
      <trkpt lat="48.7034" lon="1.81781">
        <ele>176.60000610352</ele>
        <time>2015-12-27T09:43:40.000Z</time>
      </trkpt>
      <trkpt lat="48.70351" lon="1.81785">
        <ele>177</ele>
        <time>2015-12-27T09:43:48.000Z</time>
      </trkpt>
      <trkpt lat="48.70357" lon="1.8179">
        <ele>177.19999694824</ele>
        <time>2015-12-27T09:43:55.000Z</time>
      </trkpt>
      <trkpt lat="48.70358" lon="1.8179">
        <ele>177.39999389648</ele>
        <time>2015-12-27T09:43:57.000Z</time>
      </trkpt>
      <trkpt lat="48.70358" lon="1.8179">
        <ele>177.39999389648</ele>
        <time>2015-12-27T09:43:59.000Z</time>
      </trkpt>
      <trkpt lat="48.70366" lon="1.81799">
        <ele>178</ele>
        <time>2015-12-27T09:44:07.000Z</time>
      </trkpt>
      <trkpt lat="48.70367" lon="1.818">
        <ele>178</ele>
        <time>2015-12-27T09:44:08.000Z</time>
      </trkpt>
      <trkpt lat="48.7037" lon="1.818">
        <ele>178.19999694824</ele>
        <time>2015-12-27T09:44:13.000Z</time>
      </trkpt>
      <trkpt lat="48.70377" lon="1.81807">
        <ele>178.80000305176</ele>
        <time>2015-12-27T09:44:55.000Z</time>
      </trkpt>
      <trkpt lat="48.70384" lon="1.81812">
        <ele>179.19999694824</ele>
        <time>2015-12-27T09:45:01.000Z</time>
      </trkpt>
      <trkpt lat="48.70393" lon="1.81818">
        <ele>179.80000305176</ele>
        <time>2015-12-27T09:45:09.000Z</time>
      </trkpt>
      <trkpt lat="48.70399" lon="1.81826">
        <ele>180.39999389648</ele>
        <time>2015-12-27T09:45:16.000Z</time>
      </trkpt>
      <trkpt lat="48.70404" lon="1.8183">
        <ele>180.60000610352</ele>
        <time>2015-12-27T09:45:20.000Z</time>
      </trkpt>
      <trkpt lat="48.7041" lon="1.81836">
        <ele>181</ele>
        <time>2015-12-27T09:45:26.000Z</time>
      </trkpt>
      <trkpt lat="48.70415" lon="1.81843">
        <ele>181.39999389648</ele>
        <time>2015-12-27T09:45:32.000Z</time>
      </trkpt>
      <trkpt lat="48.70421" lon="1.81847">
        <ele>181.80000305176</ele>
        <time>2015-12-27T09:45:36.000Z</time>
      </trkpt>
      <trkpt lat="48.70423" lon="1.81848">
        <ele>182</ele>
        <time>2015-12-27T09:45:38.000Z</time>
      </trkpt>
      <trkpt lat="48.70428" lon="1.81849">
        <ele>182.39999389648</ele>
        <time>2015-12-27T09:45:43.000Z</time>
      </trkpt>
      <trkpt lat="48.70429" lon="1.81849">
        <ele>182.39999389648</ele>
        <time>2015-12-27T09:45:44.000Z</time>
      </trkpt>
      <trkpt lat="48.70429" lon="1.81849">
        <ele>182.39999389648</ele>
        <time>2015-12-27T09:45:45.000Z</time>
      </trkpt>
      <trkpt lat="48.70448" lon="1.81863">
        <ele>183.19999694824</ele>
        <time>2015-12-27T09:46:04.000Z</time>
      </trkpt>
      <trkpt lat="48.70451" lon="1.81865">
        <ele>183.19999694824</ele>
        <time>2015-12-27T09:46:07.000Z</time>
      </trkpt>
      <trkpt lat="48.70459" lon="1.81866">
        <ele>183.19999694824</ele>
        <time>2015-12-27T09:46:14.000Z</time>
      </trkpt>
      <trkpt lat="48.7046" lon="1.81866">
        <ele>183.19999694824</ele>
        <time>2015-12-27T09:46:15.000Z</time>
      </trkpt>
      <trkpt lat="48.70467" lon="1.81873">
        <ele>183.39999389648</ele>
        <time>2015-12-27T09:46:22.000Z</time>
      </trkpt>
      <trkpt lat="48.70471" lon="1.81875">
        <ele>183.39999389648</ele>
        <time>2015-12-27T09:46:25.000Z</time>
      </trkpt>
      <trkpt lat="48.70474" lon="1.81878">
        <ele>183.39999389648</ele>
        <time>2015-12-27T09:46:29.000Z</time>
      </trkpt>
      <trkpt lat="48.70483" lon="1.81884">
        <ele>183.60000610352</ele>
        <time>2015-12-27T09:46:37.000Z</time>
      </trkpt>
      <trkpt lat="48.7049" lon="1.8189">
        <ele>183.60000610352</ele>
        <time>2015-12-27T09:46:44.000Z</time>
      </trkpt>
      <trkpt lat="48.70495" lon="1.81892">
        <ele>183.60000610352</ele>
        <time>2015-12-27T09:46:47.000Z</time>
      </trkpt>
      <trkpt lat="48.70497" lon="1.81893">
        <ele>183.80000305176</ele>
        <time>2015-12-27T09:46:49.000Z</time>
      </trkpt>
      <trkpt lat="48.70507" lon="1.81898">
        <ele>183.80000305176</ele>
        <time>2015-12-27T09:46:57.000Z</time>
      </trkpt>
      <trkpt lat="48.70514" lon="1.81902">
        <ele>184</ele>
        <time>2015-12-27T09:47:03.000Z</time>
      </trkpt>
      <trkpt lat="48.70524" lon="1.81908">
        <ele>183.80000305176</ele>
        <time>2015-12-27T09:47:10.000Z</time>
      </trkpt>
      <trkpt lat="48.70536" lon="1.81916">
        <ele>183.60000610352</ele>
        <time>2015-12-27T09:47:19.000Z</time>
      </trkpt>
      <trkpt lat="48.70547" lon="1.81923">
        <ele>183.19999694824</ele>
        <time>2015-12-27T09:47:27.000Z</time>
      </trkpt>
      <trkpt lat="48.70554" lon="1.81928">
        <ele>183</ele>
        <time>2015-12-27T09:47:32.000Z</time>
      </trkpt>
      <trkpt lat="48.70561" lon="1.81934">
        <ele>182.60000610352</ele>
        <time>2015-12-27T09:47:39.000Z</time>
      </trkpt>
      <trkpt lat="48.70564" lon="1.81938">
        <ele>182.39999389648</ele>
        <time>2015-12-27T09:47:42.000Z</time>
      </trkpt>
      <trkpt lat="48.70567" lon="1.8194">
        <ele>182.39999389648</ele>
        <time>2015-12-27T09:47:44.000Z</time>
      </trkpt>
      <trkpt lat="48.70584" lon="1.8195">
        <ele>181.80000305176</ele>
        <time>2015-12-27T09:47:54.000Z</time>
      </trkpt>
      <trkpt lat="48.70596" lon="1.81957">
        <ele>181.60000610352</ele>
        <time>2015-12-27T09:48:00.000Z</time>
      </trkpt>
      <trkpt lat="48.70604" lon="1.81964">
        <ele>181.19999694824</ele>
        <time>2015-12-27T09:48:06.000Z</time>
      </trkpt>
      <trkpt lat="48.70605" lon="1.81965">
        <ele>181</ele>
        <time>2015-12-27T09:48:07.000Z</time>
      </trkpt>
      <trkpt lat="48.70617" lon="1.81973">
        <ele>180</ele>
        <time>2015-12-27T09:48:16.000Z</time>
      </trkpt>
      <trkpt lat="48.70624" lon="1.81979">
        <ele>179.60000610352</ele>
        <time>2015-12-27T09:48:21.000Z</time>
      </trkpt>
      <trkpt lat="48.70627" lon="1.81982">
        <ele>179.19999694824</ele>
        <time>2015-12-27T09:48:24.000Z</time>
      </trkpt>
      <trkpt lat="48.70636" lon="1.81989">
        <ele>178.39999389648</ele>
        <time>2015-12-27T09:48:31.000Z</time>
      </trkpt>
      <trkpt lat="48.70645" lon="1.81992">
        <ele>178</ele>
        <time>2015-12-27T09:48:37.000Z</time>
      </trkpt>
      <trkpt lat="48.70657" lon="1.81998">
        <ele>177.39999389648</ele>
        <time>2015-12-27T09:48:46.000Z</time>
      </trkpt>
      <trkpt lat="48.70669" lon="1.82007">
        <ele>176.60000610352</ele>
        <time>2015-12-27T09:48:55.000Z</time>
      </trkpt>
      <trkpt lat="48.7068" lon="1.82014">
        <ele>176</ele>
        <time>2015-12-27T09:49:03.000Z</time>
      </trkpt>
      <trkpt lat="48.70681" lon="1.82014">
        <ele>176</ele>
        <time>2015-12-27T09:49:04.000Z</time>
      </trkpt>
      <trkpt lat="48.70688" lon="1.82018">
        <ele>175.60000610352</ele>
        <time>2015-12-27T09:49:09.000Z</time>
      </trkpt>
      <trkpt lat="48.70694" lon="1.82024">
        <ele>175.60000610352</ele>
        <time>2015-12-27T09:49:14.000Z</time>
      </trkpt>
      <trkpt lat="48.70695" lon="1.82024">
        <ele>175.60000610352</ele>
        <time>2015-12-27T09:49:15.000Z</time>
      </trkpt>
      <trkpt lat="48.70702" lon="1.82029">
        <ele>175.60000610352</ele>
        <time>2015-12-27T09:49:20.000Z</time>
      </trkpt>
      <trkpt lat="48.70709" lon="1.82035">
        <ele>175.80000305176</ele>
        <time>2015-12-27T09:49:26.000Z</time>
      </trkpt>
      <trkpt lat="48.70718" lon="1.82046">
        <ele>175.60000610352</ele>
        <time>2015-12-27T09:49:34.000Z</time>
      </trkpt>
      <trkpt lat="48.70733" lon="1.82056">
        <ele>175.80000305176</ele>
        <time>2015-12-27T09:49:45.000Z</time>
      </trkpt>
      <trkpt lat="48.70745" lon="1.82064">
        <ele>175.80000305176</ele>
        <time>2015-12-27T09:49:55.000Z</time>
      </trkpt>
      <trkpt lat="48.70755" lon="1.82071">
        <ele>175.80000305176</ele>
        <time>2015-12-27T09:50:03.000Z</time>
      </trkpt>
      <trkpt lat="48.70765" lon="1.82078">
        <ele>176</ele>
        <time>2015-12-27T09:50:12.000Z</time>
      </trkpt>
      <trkpt lat="48.70774" lon="1.82084">
        <ele>176.19999694824</ele>
        <time>2015-12-27T09:50:19.000Z</time>
      </trkpt>
      <trkpt lat="48.7078" lon="1.82087">
        <ele>176.80000305176</ele>
        <time>2015-12-27T09:50:24.000Z</time>
      </trkpt>
      <trkpt lat="48.70781" lon="1.82089">
        <ele>176.80000305176</ele>
        <time>2015-12-27T09:50:25.000Z</time>
      </trkpt>
      <trkpt lat="48.70781" lon="1.82088">
        <ele>176.80000305176</ele>
        <time>2015-12-27T09:50:27.000Z</time>
      </trkpt>
      <trkpt lat="48.70803" lon="1.82098">
        <ele>178.60000610352</ele>
        <time>2015-12-27T09:51:33.000Z</time>
      </trkpt>
      <trkpt lat="48.70811" lon="1.82102">
        <ele>179</ele>
        <time>2015-12-27T09:51:38.000Z</time>
      </trkpt>
      <trkpt lat="48.70812" lon="1.82103">
        <ele>179.19999694824</ele>
        <time>2015-12-27T09:51:39.000Z</time>
      </trkpt>
      <trkpt lat="48.70819" lon="1.82109">
        <ele>179.60000610352</ele>
        <time>2015-12-27T09:51:45.000Z</time>
      </trkpt>
      <trkpt lat="48.70826" lon="1.82116">
        <ele>180.19999694824</ele>
        <time>2015-12-27T09:51:51.000Z</time>
      </trkpt>
      <trkpt lat="48.7083" lon="1.82121">
        <ele>180.60000610352</ele>
        <time>2015-12-27T09:51:56.000Z</time>
      </trkpt>
      <trkpt lat="48.70831" lon="1.82122">
        <ele>180.80000305176</ele>
        <time>2015-12-27T09:51:57.000Z</time>
      </trkpt>
      <trkpt lat="48.70832" lon="1.82123">
        <ele>180.80000305176</ele>
        <time>2015-12-27T09:51:58.000Z</time>
      </trkpt>
      <trkpt lat="48.70837" lon="1.82128">
        <ele>181.19999694824</ele>
        <time>2015-12-27T09:52:04.000Z</time>
      </trkpt>
      <trkpt lat="48.70843" lon="1.82135">
        <ele>181.80000305176</ele>
        <time>2015-12-27T09:52:08.000Z</time>
      </trkpt>
      <trkpt lat="48.70846" lon="1.82141">
        <ele>182.19999694824</ele>
        <time>2015-12-27T09:52:12.000Z</time>
      </trkpt>
      <trkpt lat="48.70846" lon="1.82141">
        <ele>182.19999694824</ele>
        <time>2015-12-27T09:52:13.000Z</time>
      </trkpt>
      <trkpt lat="48.70852" lon="1.82147">
        <ele>182.60000610352</ele>
        <time>2015-12-27T09:52:17.000Z</time>
      </trkpt>
      <trkpt lat="48.7086" lon="1.82151">
        <ele>182.39999389648</ele>
        <time>2015-12-27T09:52:22.000Z</time>
      </trkpt>
      <trkpt lat="48.70865" lon="1.82157">
        <ele>182.19999694824</ele>
        <time>2015-12-27T09:52:26.000Z</time>
      </trkpt>
      <trkpt lat="48.70873" lon="1.82162">
        <ele>181.39999389648</ele>
        <time>2015-12-27T09:52:31.000Z</time>
      </trkpt>
      <trkpt lat="48.70884" lon="1.82172">
        <ele>180.60000610352</ele>
        <time>2015-12-27T09:52:38.000Z</time>
      </trkpt>
      <trkpt lat="48.70893" lon="1.82181">
        <ele>179.80000305176</ele>
        <time>2015-12-27T09:52:45.000Z</time>
      </trkpt>
      <trkpt lat="48.70906" lon="1.82195">
        <ele>178.80000305176</ele>
        <time>2015-12-27T09:52:55.000Z</time>
      </trkpt>
      <trkpt lat="48.70916" lon="1.82205">
        <ele>178</ele>
        <time>2015-12-27T09:53:04.000Z</time>
      </trkpt>
      <trkpt lat="48.70927" lon="1.82217">
        <ele>177</ele>
        <time>2015-12-27T09:53:13.000Z</time>
      </trkpt>
      <trkpt lat="48.70935" lon="1.82226">
        <ele>176.19999694824</ele>
        <time>2015-12-27T09:53:20.000Z</time>
      </trkpt>
      <trkpt lat="48.70941" lon="1.82232">
        <ele>176</ele>
        <time>2015-12-27T09:53:26.000Z</time>
      </trkpt>
      <trkpt lat="48.70941" lon="1.82232">
        <ele>176</ele>
        <time>2015-12-27T09:53:27.000Z</time>
      </trkpt>
      <trkpt lat="48.70946" lon="1.82236">
        <ele>176</ele>
        <time>2015-12-27T09:53:34.000Z</time>
      </trkpt>
      <trkpt lat="48.70949" lon="1.82239">
        <ele>176</ele>
        <time>2015-12-27T09:53:36.000Z</time>
      </trkpt>
      <trkpt lat="48.70953" lon="1.82244">
        <ele>176</ele>
        <time>2015-12-27T09:53:41.000Z</time>
      </trkpt>
      <trkpt lat="48.70953" lon="1.82244">
        <ele>176</ele>
        <time>2015-12-27T09:53:42.000Z</time>
      </trkpt>
      <trkpt lat="48.70964" lon="1.8226">
        <ele>176.19999694824</ele>
        <time>2015-12-27T09:53:56.000Z</time>
      </trkpt>
      <trkpt lat="48.70968" lon="1.82264">
        <ele>176.39999389648</ele>
        <time>2015-12-27T09:53:59.000Z</time>
      </trkpt>
      <trkpt lat="48.7097" lon="1.82267">
        <ele>176.39999389648</ele>
        <time>2015-12-27T09:54:01.000Z</time>
      </trkpt>
      <trkpt lat="48.7097" lon="1.82268">
        <ele>176.39999389648</ele>
        <time>2015-12-27T09:54:03.000Z</time>
      </trkpt>
      <trkpt lat="48.70972" lon="1.8227">
        <ele>176.39999389648</ele>
        <time>2015-12-27T09:54:07.000Z</time>
      </trkpt>
      <trkpt lat="48.70982" lon="1.82282">
        <ele>176.60000610352</ele>
        <time>2015-12-27T09:54:35.000Z</time>
      </trkpt>
      <trkpt lat="48.70991" lon="1.8229">
        <ele>176.60000610352</ele>
        <time>2015-12-27T09:54:43.000Z</time>
      </trkpt>
      <trkpt lat="48.70992" lon="1.82291">
        <ele>176.60000610352</ele>
        <time>2015-12-27T09:54:46.000Z</time>
      </trkpt>
      <trkpt lat="48.70999" lon="1.82298">
        <ele>176.80000305176</ele>
        <time>2015-12-27T09:55:17.000Z</time>
      </trkpt>
      <trkpt lat="48.71" lon="1.82299">
        <ele>176.80000305176</ele>
        <time>2015-12-27T09:55:18.000Z</time>
      </trkpt>
      <trkpt lat="48.7101" lon="1.8231">
        <ele>176.80000305176</ele>
        <time>2015-12-27T09:55:26.000Z</time>
      </trkpt>
      <trkpt lat="48.71022" lon="1.82322">
        <ele>177</ele>
        <time>2015-12-27T09:55:37.000Z</time>
      </trkpt>
      <trkpt lat="48.71027" lon="1.82326">
        <ele>177</ele>
        <time>2015-12-27T09:55:41.000Z</time>
      </trkpt>
      <trkpt lat="48.71029" lon="1.82329">
        <ele>177</ele>
        <time>2015-12-27T09:55:43.000Z</time>
      </trkpt>
      <trkpt lat="48.71039" lon="1.82338">
        <ele>177</ele>
        <time>2015-12-27T09:55:50.000Z</time>
      </trkpt>
      <trkpt lat="48.71048" lon="1.82347">
        <ele>177</ele>
        <time>2015-12-27T09:55:57.000Z</time>
      </trkpt>
      <trkpt lat="48.71054" lon="1.82354">
        <ele>177</ele>
        <time>2015-12-27T09:56:02.000Z</time>
      </trkpt>
      <trkpt lat="48.71063" lon="1.82362">
        <ele>177</ele>
        <time>2015-12-27T09:56:10.000Z</time>
      </trkpt>
      <trkpt lat="48.71075" lon="1.82374">
        <ele>177</ele>
        <time>2015-12-27T09:56:20.000Z</time>
      </trkpt>
      <trkpt lat="48.71079" lon="1.82379">
        <ele>177</ele>
        <time>2015-12-27T09:56:24.000Z</time>
      </trkpt>
      <trkpt lat="48.71085" lon="1.82385">
        <ele>177</ele>
        <time>2015-12-27T09:56:29.000Z</time>
      </trkpt>
      <trkpt lat="48.71097" lon="1.82396">
        <ele>177</ele>
        <time>2015-12-27T09:56:38.000Z</time>
      </trkpt>
      <trkpt lat="48.71107" lon="1.82406">
        <ele>177</ele>
        <time>2015-12-27T09:56:47.000Z</time>
      </trkpt>
      <trkpt lat="48.71119" lon="1.82418">
        <ele>177</ele>
        <time>2015-12-27T09:56:57.000Z</time>
      </trkpt>
      <trkpt lat="48.71127" lon="1.82426">
        <ele>177</ele>
        <time>2015-12-27T09:57:04.000Z</time>
      </trkpt>
      <trkpt lat="48.71138" lon="1.82436">
        <ele>177</ele>
        <time>2015-12-27T09:57:13.000Z</time>
      </trkpt>
      <trkpt lat="48.71148" lon="1.82446">
        <ele>177</ele>
        <time>2015-12-27T09:57:22.000Z</time>
      </trkpt>
      <trkpt lat="48.71156" lon="1.82455">
        <ele>177</ele>
        <time>2015-12-27T09:57:30.000Z</time>
      </trkpt>
      <trkpt lat="48.71165" lon="1.82463">
        <ele>177</ele>
        <time>2015-12-27T09:57:37.000Z</time>
      </trkpt>
      <trkpt lat="48.71174" lon="1.82473">
        <ele>177</ele>
        <time>2015-12-27T09:57:46.000Z</time>
      </trkpt>
      <trkpt lat="48.71183" lon="1.82482">
        <ele>177</ele>
        <time>2015-12-27T09:57:54.000Z</time>
      </trkpt>
      <trkpt lat="48.7119" lon="1.8249">
        <ele>177</ele>
        <time>2015-12-27T09:58:01.000Z</time>
      </trkpt>
      <trkpt lat="48.71198" lon="1.82497">
        <ele>177.19999694824</ele>
        <time>2015-12-27T09:58:08.000Z</time>
      </trkpt>
      <trkpt lat="48.71205" lon="1.82505">
        <ele>177.19999694824</ele>
        <time>2015-12-27T09:58:15.000Z</time>
      </trkpt>
      <trkpt lat="48.71213" lon="1.8251">
        <ele>177.19999694824</ele>
        <time>2015-12-27T09:58:21.000Z</time>
      </trkpt>
      <trkpt lat="48.71218" lon="1.82516">
        <ele>177.39999389648</ele>
        <time>2015-12-27T09:58:26.000Z</time>
      </trkpt>
      <trkpt lat="48.7122" lon="1.82518">
        <ele>177.39999389648</ele>
        <time>2015-12-27T09:58:28.000Z</time>
      </trkpt>
      <trkpt lat="48.71229" lon="1.82528">
        <ele>177.39999389648</ele>
        <time>2015-12-27T09:58:37.000Z</time>
      </trkpt>
      <trkpt lat="48.71236" lon="1.82534">
        <ele>177.60000610352</ele>
        <time>2015-12-27T09:58:44.000Z</time>
      </trkpt>
      <trkpt lat="48.71245" lon="1.82544">
        <ele>177.60000610352</ele>
        <time>2015-12-27T09:58:52.000Z</time>
      </trkpt>
      <trkpt lat="48.71252" lon="1.82551">
        <ele>177.80000305176</ele>
        <time>2015-12-27T09:58:58.000Z</time>
      </trkpt>
      <trkpt lat="48.71262" lon="1.82561">
        <ele>177.80000305176</ele>
        <time>2015-12-27T09:59:07.000Z</time>
      </trkpt>
      <trkpt lat="48.71263" lon="1.82562">
        <ele>177.80000305176</ele>
        <time>2015-12-27T09:59:11.000Z</time>
      </trkpt>
      <trkpt lat="48.71271" lon="1.82569">
        <ele>178</ele>
        <time>2015-12-27T09:59:23.000Z</time>
      </trkpt>
      <trkpt lat="48.71281" lon="1.82576">
        <ele>178</ele>
        <time>2015-12-27T09:59:30.000Z</time>
      </trkpt>
      <trkpt lat="48.71287" lon="1.8258">
        <ele>178</ele>
        <time>2015-12-27T09:59:35.000Z</time>
      </trkpt>
      <trkpt lat="48.71293" lon="1.82594">
        <ele>178.19999694824</ele>
        <time>2015-12-27T09:59:43.000Z</time>
      </trkpt>
      <trkpt lat="48.71293" lon="1.82609">
        <ele>178.39999389648</ele>
        <time>2015-12-27T09:59:50.000Z</time>
      </trkpt>
      <trkpt lat="48.71292" lon="1.82632">
        <ele>178.80000305176</ele>
        <time>2015-12-27T10:00:00.000Z</time>
      </trkpt>
      <trkpt lat="48.71291" lon="1.8265">
        <ele>179</ele>
        <time>2015-12-27T10:00:08.000Z</time>
      </trkpt>
      <trkpt lat="48.71291" lon="1.82668">
        <ele>178.80000305176</ele>
        <time>2015-12-27T10:00:16.000Z</time>
      </trkpt>
      <trkpt lat="48.71292" lon="1.82683">
        <ele>178.80000305176</ele>
        <time>2015-12-27T10:00:23.000Z</time>
      </trkpt>
      <trkpt lat="48.71291" lon="1.82698">
        <ele>178.80000305176</ele>
        <time>2015-12-27T10:00:30.000Z</time>
      </trkpt>
      <trkpt lat="48.71291" lon="1.82719">
        <ele>178.80000305176</ele>
        <time>2015-12-27T10:00:40.000Z</time>
      </trkpt>
      <trkpt lat="48.71289" lon="1.82736">
        <ele>178.80000305176</ele>
        <time>2015-12-27T10:00:48.000Z</time>
      </trkpt>
      <trkpt lat="48.71288" lon="1.8275">
        <ele>178.80000305176</ele>
        <time>2015-12-27T10:00:55.000Z</time>
      </trkpt>
      <trkpt lat="48.71285" lon="1.82767">
        <ele>179</ele>
        <time>2015-12-27T10:01:04.000Z</time>
      </trkpt>
      <trkpt lat="48.71281" lon="1.82789">
        <ele>179.39999389648</ele>
        <time>2015-12-27T10:01:14.000Z</time>
      </trkpt>
      <trkpt lat="48.71277" lon="1.82809">
        <ele>179.60000610352</ele>
        <time>2015-12-27T10:01:24.000Z</time>
      </trkpt>
      <trkpt lat="48.71274" lon="1.82824">
        <ele>180</ele>
        <time>2015-12-27T10:01:32.000Z</time>
      </trkpt>
      <trkpt lat="48.71271" lon="1.82839">
        <ele>180</ele>
        <time>2015-12-27T10:01:39.000Z</time>
      </trkpt>
      <trkpt lat="48.71268" lon="1.82854">
        <ele>180</ele>
        <time>2015-12-27T10:01:47.000Z</time>
      </trkpt>
      <trkpt lat="48.71265" lon="1.82871">
        <ele>179.80000305176</ele>
        <time>2015-12-27T10:01:55.000Z</time>
      </trkpt>
      <trkpt lat="48.71262" lon="1.82886">
        <ele>179.60000610352</ele>
        <time>2015-12-27T10:02:02.000Z</time>
      </trkpt>
      <trkpt lat="48.71257" lon="1.82897">
        <ele>179.60000610352</ele>
        <time>2015-12-27T10:02:09.000Z</time>
      </trkpt>
      <trkpt lat="48.71254" lon="1.82901">
        <ele>179.60000610352</ele>
        <time>2015-12-27T10:02:13.000Z</time>
      </trkpt>
      <trkpt lat="48.71254" lon="1.82904">
        <ele>179.80000305176</ele>
        <time>2015-12-27T10:02:15.000Z</time>
      </trkpt>
      <trkpt lat="48.71255" lon="1.82906">
        <ele>179.80000305176</ele>
        <time>2015-12-27T10:02:16.000Z</time>
      </trkpt>
      <trkpt lat="48.71255" lon="1.82913">
        <ele>179.80000305176</ele>
        <time>2015-12-27T10:02:19.000Z</time>
      </trkpt>
      <trkpt lat="48.71253" lon="1.8292">
        <ele>179.60000610352</ele>
        <time>2015-12-27T10:02:23.000Z</time>
      </trkpt>
      <trkpt lat="48.71252" lon="1.82926">
        <ele>179.60000610352</ele>
        <time>2015-12-27T10:02:26.000Z</time>
      </trkpt>
      <trkpt lat="48.71248" lon="1.82937">
        <ele>179.39999389648</ele>
        <time>2015-12-27T10:02:33.000Z</time>
      </trkpt>
      <trkpt lat="48.71247" lon="1.82943">
        <ele>179.19999694824</ele>
        <time>2015-12-27T10:02:36.000Z</time>
      </trkpt>
      <trkpt lat="48.71245" lon="1.82947">
        <ele>179.19999694824</ele>
        <time>2015-12-27T10:02:38.000Z</time>
      </trkpt>
      <trkpt lat="48.71241" lon="1.8296">
        <ele>179</ele>
        <time>2015-12-27T10:02:45.000Z</time>
      </trkpt>
      <trkpt lat="48.71237" lon="1.82977">
        <ele>179</ele>
        <time>2015-12-27T10:02:53.000Z</time>
      </trkpt>
      <trkpt lat="48.71231" lon="1.82994">
        <ele>179</ele>
        <time>2015-12-27T10:03:02.000Z</time>
      </trkpt>
      <trkpt lat="48.71224" lon="1.83012">
        <ele>179.19999694824</ele>
        <time>2015-12-27T10:03:12.000Z</time>
      </trkpt>
      <trkpt lat="48.71218" lon="1.8303">
        <ele>179.39999389648</ele>
        <time>2015-12-27T10:03:21.000Z</time>
      </trkpt>
      <trkpt lat="48.71217" lon="1.83034">
        <ele>179.60000610352</ele>
        <time>2015-12-27T10:03:23.000Z</time>
      </trkpt>
      <trkpt lat="48.71216" lon="1.8304">
        <ele>179.60000610352</ele>
        <time>2015-12-27T10:03:27.000Z</time>
      </trkpt>
      <trkpt lat="48.7121" lon="1.83056">
        <ele>179.80000305176</ele>
        <time>2015-12-27T10:03:35.000Z</time>
      </trkpt>
      <trkpt lat="48.71209" lon="1.83062">
        <ele>179.80000305176</ele>
        <time>2015-12-27T10:03:40.000Z</time>
      </trkpt>
      <trkpt lat="48.71206" lon="1.83072">
        <ele>180</ele>
        <time>2015-12-27T10:03:47.000Z</time>
      </trkpt>
      <trkpt lat="48.71202" lon="1.83091">
        <ele>180</ele>
        <time>2015-12-27T10:03:57.000Z</time>
      </trkpt>
      <trkpt lat="48.71201" lon="1.83103">
        <ele>180.39999389648</ele>
        <time>2015-12-27T10:04:04.000Z</time>
      </trkpt>
      <trkpt lat="48.71199" lon="1.83124">
        <ele>181</ele>
        <time>2015-12-27T10:04:14.000Z</time>
      </trkpt>
      <trkpt lat="48.71197" lon="1.83137">
        <ele>181.19999694824</ele>
        <time>2015-12-27T10:04:20.000Z</time>
      </trkpt>
      <trkpt lat="48.71196" lon="1.83148">
        <ele>181.60000610352</ele>
        <time>2015-12-27T10:04:26.000Z</time>
      </trkpt>
      <trkpt lat="48.71196" lon="1.83159">
        <ele>181.80000305176</ele>
        <time>2015-12-27T10:04:32.000Z</time>
      </trkpt>
      <trkpt lat="48.71197" lon="1.83175">
        <ele>181.39999389648</ele>
        <time>2015-12-27T10:04:40.000Z</time>
      </trkpt>
      <trkpt lat="48.71198" lon="1.83192">
        <ele>181</ele>
        <time>2015-12-27T10:04:48.000Z</time>
      </trkpt>
      <trkpt lat="48.71199" lon="1.83196">
        <ele>180.80000305176</ele>
        <time>2015-12-27T10:04:50.000Z</time>
      </trkpt>
      <trkpt lat="48.712" lon="1.83204">
        <ele>180.60000610352</ele>
        <time>2015-12-27T10:04:54.000Z</time>
      </trkpt>
      <trkpt lat="48.71201" lon="1.83207">
        <ele>180.60000610352</ele>
        <time>2015-12-27T10:04:55.000Z</time>
      </trkpt>
      <trkpt lat="48.71202" lon="1.83227">
        <ele>180.19999694824</ele>
        <time>2015-12-27T10:05:04.000Z</time>
      </trkpt>
      <trkpt lat="48.71201" lon="1.83248">
        <ele>179.80000305176</ele>
        <time>2015-12-27T10:05:13.000Z</time>
      </trkpt>
      <trkpt lat="48.71197" lon="1.83267">
        <ele>179.60000610352</ele>
        <time>2015-12-27T10:05:22.000Z</time>
      </trkpt>
      <trkpt lat="48.71192" lon="1.83288">
        <ele>179.39999389648</ele>
        <time>2015-12-27T10:05:32.000Z</time>
      </trkpt>
      <trkpt lat="48.71187" lon="1.83302">
        <ele>179.19999694824</ele>
        <time>2015-12-27T10:05:38.000Z</time>
      </trkpt>
      <trkpt lat="48.71182" lon="1.83318">
        <ele>179</ele>
        <time>2015-12-27T10:05:46.000Z</time>
      </trkpt>
      <trkpt lat="48.71175" lon="1.83339">
        <ele>179.19999694824</ele>
        <time>2015-12-27T10:05:56.000Z</time>
      </trkpt>
      <trkpt lat="48.7117" lon="1.83356">
        <ele>179.60000610352</ele>
        <time>2015-12-27T10:06:04.000Z</time>
      </trkpt>
      <trkpt lat="48.71165" lon="1.83372">
        <ele>180</ele>
        <time>2015-12-27T10:06:12.000Z</time>
      </trkpt>
      <trkpt lat="48.71159" lon="1.83393">
        <ele>180.19999694824</ele>
        <time>2015-12-27T10:06:22.000Z</time>
      </trkpt>
      <trkpt lat="48.71155" lon="1.83406">
        <ele>180.19999694824</ele>
        <time>2015-12-27T10:06:28.000Z</time>
      </trkpt>
      <trkpt lat="48.7115" lon="1.83427">
        <ele>181.60000610352</ele>
        <time>2015-12-27T10:06:38.000Z</time>
      </trkpt>
      <trkpt lat="48.71146" lon="1.83433">
        <ele>182</ele>
        <time>2015-12-27T10:06:42.000Z</time>
      </trkpt>
      <trkpt lat="48.71144" lon="1.83434">
        <ele>182</ele>
        <time>2015-12-27T10:06:44.000Z</time>
      </trkpt>
      <trkpt lat="48.71141" lon="1.83442">
        <ele>182.60000610352</ele>
        <time>2015-12-27T10:06:49.000Z</time>
      </trkpt>
      <trkpt lat="48.71141" lon="1.83445">
        <ele>182.60000610352</ele>
        <time>2015-12-27T10:06:50.000Z</time>
      </trkpt>
      <trkpt lat="48.71136" lon="1.8346">
        <ele>182.39999389648</ele>
        <time>2015-12-27T10:06:58.000Z</time>
      </trkpt>
      <trkpt lat="48.71134" lon="1.83464">
        <ele>182.19999694824</ele>
        <time>2015-12-27T10:07:02.000Z</time>
      </trkpt>
      <trkpt lat="48.71139" lon="1.83485">
        <ele>183</ele>
        <time>2015-12-27T10:07:14.000Z</time>
      </trkpt>
      <trkpt lat="48.71138" lon="1.83492">
        <ele>183</ele>
        <time>2015-12-27T10:07:17.000Z</time>
      </trkpt>
      <trkpt lat="48.71137" lon="1.83501">
        <ele>183</ele>
        <time>2015-12-27T10:07:22.000Z</time>
      </trkpt>
      <trkpt lat="48.71134" lon="1.83511">
        <ele>183</ele>
        <time>2015-12-27T10:07:27.000Z</time>
      </trkpt>
      <trkpt lat="48.71134" lon="1.83516">
        <ele>183.19999694824</ele>
        <time>2015-12-27T10:07:30.000Z</time>
      </trkpt>
      <trkpt lat="48.71132" lon="1.83523">
        <ele>183.19999694824</ele>
        <time>2015-12-27T10:07:33.000Z</time>
      </trkpt>
      <trkpt lat="48.71129" lon="1.8354">
        <ele>183</ele>
        <time>2015-12-27T10:07:41.000Z</time>
      </trkpt>
      <trkpt lat="48.71126" lon="1.83559">
        <ele>183</ele>
        <time>2015-12-27T10:07:50.000Z</time>
      </trkpt>
      <trkpt lat="48.71121" lon="1.83578">
        <ele>182.80000305176</ele>
        <time>2015-12-27T10:07:59.000Z</time>
      </trkpt>
      <trkpt lat="48.71117" lon="1.83588">
        <ele>182.39999389648</ele>
        <time>2015-12-27T10:08:05.000Z</time>
      </trkpt>
      <trkpt lat="48.71116" lon="1.83593">
        <ele>182.39999389648</ele>
        <time>2015-12-27T10:08:07.000Z</time>
      </trkpt>
      <trkpt lat="48.71113" lon="1.83608">
        <ele>182.19999694824</ele>
        <time>2015-12-27T10:08:14.000Z</time>
      </trkpt>
      <trkpt lat="48.71109" lon="1.83621">
        <ele>182</ele>
        <time>2015-12-27T10:08:20.000Z</time>
      </trkpt>
      <trkpt lat="48.71105" lon="1.83636">
        <ele>181.80000305176</ele>
        <time>2015-12-27T10:08:27.000Z</time>
      </trkpt>
      <trkpt lat="48.711" lon="1.83655">
        <ele>181.80000305176</ele>
        <time>2015-12-27T10:08:35.000Z</time>
      </trkpt>
      <trkpt lat="48.71098" lon="1.8366">
        <ele>182</ele>
        <time>2015-12-27T10:08:40.000Z</time>
      </trkpt>
      <trkpt lat="48.71089" lon="1.83696">
        <ele>182.80000305176</ele>
        <time>2015-12-27T10:11:19.000Z</time>
      </trkpt>
      <trkpt lat="48.71088" lon="1.837">
        <ele>182.80000305176</ele>
        <time>2015-12-27T10:11:22.000Z</time>
      </trkpt>
      <trkpt lat="48.71086" lon="1.83701">
        <ele>182.80000305176</ele>
        <time>2015-12-27T10:11:23.000Z</time>
      </trkpt>
      <trkpt lat="48.71085" lon="1.83707">
        <ele>183</ele>
        <time>2015-12-27T10:11:26.000Z</time>
      </trkpt>
      <trkpt lat="48.7108" lon="1.83722">
        <ele>183</ele>
        <time>2015-12-27T10:11:34.000Z</time>
      </trkpt>
      <trkpt lat="48.71077" lon="1.83733">
        <ele>182.80000305176</ele>
        <time>2015-12-27T10:11:40.000Z</time>
      </trkpt>
      <trkpt lat="48.71076" lon="1.83748">
        <ele>182.80000305176</ele>
        <time>2015-12-27T10:11:46.000Z</time>
      </trkpt>
      <trkpt lat="48.71074" lon="1.83753">
        <ele>182.60000610352</ele>
        <time>2015-12-27T10:11:49.000Z</time>
      </trkpt>
      <trkpt lat="48.71073" lon="1.83755">
        <ele>182.60000610352</ele>
        <time>2015-12-27T10:11:51.000Z</time>
      </trkpt>
      <trkpt lat="48.71068" lon="1.83769">
        <ele>182.39999389648</ele>
        <time>2015-12-27T10:11:58.000Z</time>
      </trkpt>
      <trkpt lat="48.71064" lon="1.83784">
        <ele>182.19999694824</ele>
        <time>2015-12-27T10:12:06.000Z</time>
      </trkpt>
      <trkpt lat="48.7106" lon="1.83799">
        <ele>182.39999389648</ele>
        <time>2015-12-27T10:12:13.000Z</time>
      </trkpt>
      <trkpt lat="48.71056" lon="1.83813">
        <ele>182.39999389648</ele>
        <time>2015-12-27T10:12:20.000Z</time>
      </trkpt>
      <trkpt lat="48.71052" lon="1.83827">
        <ele>182.39999389648</ele>
        <time>2015-12-27T10:12:27.000Z</time>
      </trkpt>
      <trkpt lat="48.71048" lon="1.83837">
        <ele>182.39999389648</ele>
        <time>2015-12-27T10:12:32.000Z</time>
      </trkpt>
      <trkpt lat="48.71048" lon="1.83839">
        <ele>182.39999389648</ele>
        <time>2015-12-27T10:12:33.000Z</time>
      </trkpt>
      <trkpt lat="48.71047" lon="1.83846">
        <ele>182.39999389648</ele>
        <time>2015-12-27T10:12:36.000Z</time>
      </trkpt>
      <trkpt lat="48.71043" lon="1.83857">
        <ele>182.39999389648</ele>
        <time>2015-12-27T10:12:42.000Z</time>
      </trkpt>
      <trkpt lat="48.71038" lon="1.8387">
        <ele>182.19999694824</ele>
        <time>2015-12-27T10:12:49.000Z</time>
      </trkpt>
      <trkpt lat="48.71034" lon="1.83884">
        <ele>181.80000305176</ele>
        <time>2015-12-27T10:12:56.000Z</time>
      </trkpt>
      <trkpt lat="48.71028" lon="1.839">
        <ele>181.60000610352</ele>
        <time>2015-12-27T10:13:04.000Z</time>
      </trkpt>
      <trkpt lat="48.71023" lon="1.83914">
        <ele>181.19999694824</ele>
        <time>2015-12-27T10:13:11.000Z</time>
      </trkpt>
      <trkpt lat="48.71018" lon="1.8393">
        <ele>181.19999694824</ele>
        <time>2015-12-27T10:13:20.000Z</time>
      </trkpt>
      <trkpt lat="48.71012" lon="1.83949">
        <ele>181.39999389648</ele>
        <time>2015-12-27T10:13:30.000Z</time>
      </trkpt>
      <trkpt lat="48.7101" lon="1.83961">
        <ele>181.39999389648</ele>
        <time>2015-12-27T10:13:36.000Z</time>
      </trkpt>
      <trkpt lat="48.71009" lon="1.83963">
        <ele>181.39999389648</ele>
        <time>2015-12-27T10:13:37.000Z</time>
      </trkpt>
      <trkpt lat="48.71005" lon="1.83974">
        <ele>181.39999389648</ele>
        <time>2015-12-27T10:13:43.000Z</time>
      </trkpt>
      <trkpt lat="48.71001" lon="1.83987">
        <ele>181.39999389648</ele>
        <time>2015-12-27T10:13:50.000Z</time>
      </trkpt>
      <trkpt lat="48.70995" lon="1.84003">
        <ele>181.39999389648</ele>
        <time>2015-12-27T10:13:58.000Z</time>
      </trkpt>
      <trkpt lat="48.70994" lon="1.84008">
        <ele>181.60000610352</ele>
        <time>2015-12-27T10:14:03.000Z</time>
      </trkpt>
      <trkpt lat="48.70993" lon="1.84013">
        <ele>181.60000610352</ele>
        <time>2015-12-27T10:14:07.000Z</time>
      </trkpt>
      <trkpt lat="48.70992" lon="1.84016">
        <ele>181.60000610352</ele>
        <time>2015-12-27T10:14:09.000Z</time>
      </trkpt>
      <trkpt lat="48.70988" lon="1.84028">
        <ele>181.80000305176</ele>
        <time>2015-12-27T10:14:15.000Z</time>
      </trkpt>
      <trkpt lat="48.70981" lon="1.84048">
        <ele>181.80000305176</ele>
        <time>2015-12-27T10:14:25.000Z</time>
      </trkpt>
      <trkpt lat="48.70976" lon="1.84061">
        <ele>181.80000305176</ele>
        <time>2015-12-27T10:14:32.000Z</time>
      </trkpt>
      <trkpt lat="48.70972" lon="1.84074">
        <ele>181.80000305176</ele>
        <time>2015-12-27T10:14:39.000Z</time>
      </trkpt>
      <trkpt lat="48.70965" lon="1.84095">
        <ele>182</ele>
        <time>2015-12-27T10:14:50.000Z</time>
      </trkpt>
      <trkpt lat="48.70961" lon="1.84107">
        <ele>181.80000305176</ele>
        <time>2015-12-27T10:14:57.000Z</time>
      </trkpt>
      <trkpt lat="48.70956" lon="1.84123">
        <ele>181.80000305176</ele>
        <time>2015-12-27T10:15:05.000Z</time>
      </trkpt>
      <trkpt lat="48.70952" lon="1.84137">
        <ele>181.60000610352</ele>
        <time>2015-12-27T10:15:12.000Z</time>
      </trkpt>
      <trkpt lat="48.70945" lon="1.84159">
        <ele>181.39999389648</ele>
        <time>2015-12-27T10:15:23.000Z</time>
      </trkpt>
      <trkpt lat="48.70941" lon="1.84172">
        <ele>181.19999694824</ele>
        <time>2015-12-27T10:15:32.000Z</time>
      </trkpt>
      <trkpt lat="48.70936" lon="1.84185">
        <ele>181</ele>
        <time>2015-12-27T10:15:40.000Z</time>
      </trkpt>
      <trkpt lat="48.70931" lon="1.84197">
        <ele>180.80000305176</ele>
        <time>2015-12-27T10:15:47.000Z</time>
      </trkpt>
      <trkpt lat="48.70924" lon="1.84213">
        <ele>180.39999389648</ele>
        <time>2015-12-27T10:15:55.000Z</time>
      </trkpt>
      <trkpt lat="48.70917" lon="1.84231">
        <ele>180</ele>
        <time>2015-12-27T10:16:05.000Z</time>
      </trkpt>
      <trkpt lat="48.70915" lon="1.84235">
        <ele>180</ele>
        <time>2015-12-27T10:16:07.000Z</time>
      </trkpt>
      <trkpt lat="48.70911" lon="1.84249">
        <ele>179.80000305176</ele>
        <time>2015-12-27T10:16:15.000Z</time>
      </trkpt>
      <trkpt lat="48.70907" lon="1.84261">
        <ele>179.80000305176</ele>
        <time>2015-12-27T10:16:22.000Z</time>
      </trkpt>
      <trkpt lat="48.70906" lon="1.84264">
        <ele>179.80000305176</ele>
        <time>2015-12-27T10:16:24.000Z</time>
      </trkpt>
      <trkpt lat="48.70906" lon="1.84265">
        <ele>179.80000305176</ele>
        <time>2015-12-27T10:16:25.000Z</time>
      </trkpt>
      <trkpt lat="48.70904" lon="1.84268">
        <ele>179.80000305176</ele>
        <time>2015-12-27T10:16:27.000Z</time>
      </trkpt>
      <trkpt lat="48.70902" lon="1.84273">
        <ele>179.80000305176</ele>
        <time>2015-12-27T10:16:31.000Z</time>
      </trkpt>
      <trkpt lat="48.70902" lon="1.84274">
        <ele>179.80000305176</ele>
        <time>2015-12-27T10:16:33.000Z</time>
      </trkpt>
      <trkpt lat="48.70897" lon="1.84289">
        <ele>179.80000305176</ele>
        <time>2015-12-27T10:16:41.000Z</time>
      </trkpt>
      <trkpt lat="48.70896" lon="1.84293">
        <ele>179.60000610352</ele>
        <time>2015-12-27T10:16:43.000Z</time>
      </trkpt>
      <trkpt lat="48.70892" lon="1.84308">
        <ele>179.60000610352</ele>
        <time>2015-12-27T10:16:50.000Z</time>
      </trkpt>
      <trkpt lat="48.70892" lon="1.8431">
        <ele>179.60000610352</ele>
        <time>2015-12-27T10:16:51.000Z</time>
      </trkpt>
      <trkpt lat="48.7089" lon="1.84318">
        <ele>179.60000610352</ele>
        <time>2015-12-27T10:16:56.000Z</time>
      </trkpt>
      <trkpt lat="48.70883" lon="1.84338">
        <ele>179.80000305176</ele>
        <time>2015-12-27T10:17:07.000Z</time>
      </trkpt>
      <trkpt lat="48.70879" lon="1.84356">
        <ele>180</ele>
        <time>2015-12-27T10:17:17.000Z</time>
      </trkpt>
      <trkpt lat="48.70879" lon="1.84357">
        <ele>180</ele>
        <time>2015-12-27T10:17:18.000Z</time>
      </trkpt>
      <trkpt lat="48.70873" lon="1.84374">
        <ele>179.80000305176</ele>
        <time>2015-12-27T10:17:27.000Z</time>
      </trkpt>
      <trkpt lat="48.7087" lon="1.84389">
        <ele>179.80000305176</ele>
        <time>2015-12-27T10:17:35.000Z</time>
      </trkpt>
      <trkpt lat="48.70866" lon="1.84402">
        <ele>179.80000305176</ele>
        <time>2015-12-27T10:17:43.000Z</time>
      </trkpt>
      <trkpt lat="48.70863" lon="1.84411">
        <ele>179.39999389648</ele>
        <time>2015-12-27T10:17:49.000Z</time>
      </trkpt>
      <trkpt lat="48.70862" lon="1.84415">
        <ele>179.39999389648</ele>
        <time>2015-12-27T10:17:51.000Z</time>
      </trkpt>
      <trkpt lat="48.70858" lon="1.84431">
        <ele>179.80000305176</ele>
        <time>2015-12-27T10:18:00.000Z</time>
      </trkpt>
      <trkpt lat="48.70854" lon="1.84447">
        <ele>180</ele>
        <time>2015-12-27T10:18:09.000Z</time>
      </trkpt>
      <trkpt lat="48.70854" lon="1.84447">
        <ele>180</ele>
        <time>2015-12-27T10:18:10.000Z</time>
      </trkpt>
      <trkpt lat="48.70819" lon="1.84564">
        <ele>181</ele>
        <time>2015-12-27T10:22:15.000Z</time>
      </trkpt>
      <trkpt lat="48.70817" lon="1.84569">
        <ele>181</ele>
        <time>2015-12-27T10:22:18.000Z</time>
      </trkpt>
      <trkpt lat="48.70816" lon="1.84576">
        <ele>181</ele>
        <time>2015-12-27T10:22:21.000Z</time>
      </trkpt>
      <trkpt lat="48.70814" lon="1.84581">
        <ele>181</ele>
        <time>2015-12-27T10:22:24.000Z</time>
      </trkpt>
      <trkpt lat="48.70814" lon="1.84583">
        <ele>181</ele>
        <time>2015-12-27T10:22:25.000Z</time>
      </trkpt>
      <trkpt lat="48.70812" lon="1.84588">
        <ele>181</ele>
        <time>2015-12-27T10:22:29.000Z</time>
      </trkpt>
      <trkpt lat="48.70808" lon="1.84597">
        <ele>181</ele>
        <time>2015-12-27T10:22:35.000Z</time>
      </trkpt>
      <trkpt lat="48.70804" lon="1.84611">
        <ele>181.19999694824</ele>
        <time>2015-12-27T10:22:43.000Z</time>
      </trkpt>
      <trkpt lat="48.70803" lon="1.84613">
        <ele>181.19999694824</ele>
        <time>2015-12-27T10:22:44.000Z</time>
      </trkpt>
      <trkpt lat="48.70799" lon="1.84624">
        <ele>181.19999694824</ele>
        <time>2015-12-27T10:22:50.000Z</time>
      </trkpt>
      <trkpt lat="48.70795" lon="1.84637">
        <ele>181.39999389648</ele>
        <time>2015-12-27T10:22:57.000Z</time>
      </trkpt>
      <trkpt lat="48.7079" lon="1.84653">
        <ele>181.60000610352</ele>
        <time>2015-12-27T10:23:05.000Z</time>
      </trkpt>
      <trkpt lat="48.70786" lon="1.84665">
        <ele>181.60000610352</ele>
        <time>2015-12-27T10:23:12.000Z</time>
      </trkpt>
      <trkpt lat="48.70786" lon="1.84665">
        <ele>181.60000610352</ele>
        <time>2015-12-27T10:23:13.000Z</time>
      </trkpt>
      <trkpt lat="48.70786" lon="1.84666">
        <ele>181.60000610352</ele>
        <time>2015-12-27T10:23:15.000Z</time>
      </trkpt>
      <trkpt lat="48.70776" lon="1.84697">
        <ele>182</ele>
        <time>2015-12-27T10:24:01.000Z</time>
      </trkpt>
      <trkpt lat="48.70774" lon="1.84703">
        <ele>182</ele>
        <time>2015-12-27T10:24:04.000Z</time>
      </trkpt>
      <trkpt lat="48.70768" lon="1.84719">
        <ele>182.19999694824</ele>
        <time>2015-12-27T10:24:13.000Z</time>
      </trkpt>
      <trkpt lat="48.70763" lon="1.84735">
        <ele>182.39999389648</ele>
        <time>2015-12-27T10:24:21.000Z</time>
      </trkpt>
      <trkpt lat="48.70759" lon="1.84747">
        <ele>182.19999694824</ele>
        <time>2015-12-27T10:24:28.000Z</time>
      </trkpt>
      <trkpt lat="48.70755" lon="1.8476">
        <ele>182.19999694824</ele>
        <time>2015-12-27T10:24:35.000Z</time>
      </trkpt>
      <trkpt lat="48.7075" lon="1.84775">
        <ele>182</ele>
        <time>2015-12-27T10:24:43.000Z</time>
      </trkpt>
      <trkpt lat="48.70749" lon="1.84778">
        <ele>182</ele>
        <time>2015-12-27T10:24:45.000Z</time>
      </trkpt>
      <trkpt lat="48.70746" lon="1.84789">
        <ele>181.80000305176</ele>
        <time>2015-12-27T10:24:51.000Z</time>
      </trkpt>
      <trkpt lat="48.70741" lon="1.84805">
        <ele>181.60000610352</ele>
        <time>2015-12-27T10:25:00.000Z</time>
      </trkpt>
      <trkpt lat="48.70735" lon="1.84821">
        <ele>181</ele>
        <time>2015-12-27T10:25:08.000Z</time>
      </trkpt>
      <trkpt lat="48.7073" lon="1.84831">
        <ele>181</ele>
        <time>2015-12-27T10:25:14.000Z</time>
      </trkpt>
      <trkpt lat="48.70729" lon="1.84832">
        <ele>181</ele>
        <time>2015-12-27T10:25:15.000Z</time>
      </trkpt>
      <trkpt lat="48.70726" lon="1.84841">
        <ele>181</ele>
        <time>2015-12-27T10:25:20.000Z</time>
      </trkpt>
      <trkpt lat="48.70723" lon="1.84853">
        <ele>181.19999694824</ele>
        <time>2015-12-27T10:25:28.000Z</time>
      </trkpt>
      <trkpt lat="48.70719" lon="1.84868">
        <ele>180.80000305176</ele>
        <time>2015-12-27T10:25:36.000Z</time>
      </trkpt>
      <trkpt lat="48.70715" lon="1.84879">
        <ele>180.39999389648</ele>
        <time>2015-12-27T10:25:44.000Z</time>
      </trkpt>
      <trkpt lat="48.7071" lon="1.84895">
        <ele>179.80000305176</ele>
        <time>2015-12-27T10:25:53.000Z</time>
      </trkpt>
      <trkpt lat="48.70704" lon="1.84914">
        <ele>179</ele>
        <time>2015-12-27T10:26:03.000Z</time>
      </trkpt>
      <trkpt lat="48.70698" lon="1.84931">
        <ele>178.39999389648</ele>
        <time>2015-12-27T10:26:12.000Z</time>
      </trkpt>
      <trkpt lat="48.70694" lon="1.84944">
        <ele>178.19999694824</ele>
        <time>2015-12-27T10:26:19.000Z</time>
      </trkpt>
      <trkpt lat="48.70689" lon="1.84962">
        <ele>177.80000305176</ele>
        <time>2015-12-27T10:26:28.000Z</time>
      </trkpt>
      <trkpt lat="48.70685" lon="1.84981">
        <ele>177.80000305176</ele>
        <time>2015-12-27T10:26:37.000Z</time>
      </trkpt>
      <trkpt lat="48.70681" lon="1.84995">
        <ele>178</ele>
        <time>2015-12-27T10:26:44.000Z</time>
      </trkpt>
      <trkpt lat="48.70676" lon="1.85012">
        <ele>178.39999389648</ele>
        <time>2015-12-27T10:26:52.000Z</time>
      </trkpt>
      <trkpt lat="48.70672" lon="1.85023">
        <ele>178.60000610352</ele>
        <time>2015-12-27T10:26:58.000Z</time>
      </trkpt>
      <trkpt lat="48.70672" lon="1.85026">
        <ele>178.80000305176</ele>
        <time>2015-12-27T10:26:59.000Z</time>
      </trkpt>
      <trkpt lat="48.70667" lon="1.8504">
        <ele>179.19999694824</ele>
        <time>2015-12-27T10:27:06.000Z</time>
      </trkpt>
      <trkpt lat="48.70664" lon="1.85049">
        <ele>179.39999389648</ele>
        <time>2015-12-27T10:27:10.000Z</time>
      </trkpt>
      <trkpt lat="48.70664" lon="1.85051">
        <ele>179.39999389648</ele>
        <time>2015-12-27T10:27:11.000Z</time>
      </trkpt>
      <trkpt lat="48.7066" lon="1.85063">
        <ele>179.19999694824</ele>
        <time>2015-12-27T10:27:16.000Z</time>
      </trkpt>
      <trkpt lat="48.7066" lon="1.85064">
        <ele>179.19999694824</ele>
        <time>2015-12-27T10:27:17.000Z</time>
      </trkpt>
      <trkpt lat="48.70658" lon="1.8507">
        <ele>179.19999694824</ele>
        <time>2015-12-27T10:27:21.000Z</time>
      </trkpt>
      <trkpt lat="48.70658" lon="1.8507">
        <ele>179.19999694824</ele>
        <time>2015-12-27T10:27:22.000Z</time>
      </trkpt>
      <trkpt lat="48.70655" lon="1.8508">
        <ele>179.39999389648</ele>
        <time>2015-12-27T10:27:30.000Z</time>
      </trkpt>
      <trkpt lat="48.70653" lon="1.85086">
        <ele>179.39999389648</ele>
        <time>2015-12-27T10:27:33.000Z</time>
      </trkpt>
      <trkpt lat="48.70647" lon="1.85103">
        <ele>179.80000305176</ele>
        <time>2015-12-27T10:27:41.000Z</time>
      </trkpt>
      <trkpt lat="48.70643" lon="1.85118">
        <ele>180</ele>
        <time>2015-12-27T10:27:48.000Z</time>
      </trkpt>
      <trkpt lat="48.70638" lon="1.85133">
        <ele>179.80000305176</ele>
        <time>2015-12-27T10:27:56.000Z</time>
      </trkpt>
      <trkpt lat="48.70632" lon="1.85148">
        <ele>179.80000305176</ele>
        <time>2015-12-27T10:28:04.000Z</time>
      </trkpt>
      <trkpt lat="48.70628" lon="1.85163">
        <ele>180</ele>
        <time>2015-12-27T10:28:11.000Z</time>
      </trkpt>
      <trkpt lat="48.70623" lon="1.85179">
        <ele>180</ele>
        <time>2015-12-27T10:28:19.000Z</time>
      </trkpt>
      <trkpt lat="48.70623" lon="1.85181">
        <ele>180</ele>
        <time>2015-12-27T10:28:21.000Z</time>
      </trkpt>
      <trkpt lat="48.7062" lon="1.8519">
        <ele>180</ele>
        <time>2015-12-27T10:28:30.000Z</time>
      </trkpt>
      <trkpt lat="48.70619" lon="1.85192">
        <ele>180</ele>
        <time>2015-12-27T10:28:31.000Z</time>
      </trkpt>
      <trkpt lat="48.70614" lon="1.8521">
        <ele>180</ele>
        <time>2015-12-27T10:28:40.000Z</time>
      </trkpt>
      <trkpt lat="48.70609" lon="1.85226">
        <ele>180</ele>
        <time>2015-12-27T10:28:48.000Z</time>
      </trkpt>
      <trkpt lat="48.70604" lon="1.85241">
        <ele>180</ele>
        <time>2015-12-27T10:28:56.000Z</time>
      </trkpt>
      <trkpt lat="48.70599" lon="1.85259">
        <ele>180.19999694824</ele>
        <time>2015-12-27T10:29:04.000Z</time>
      </trkpt>
      <trkpt lat="48.70596" lon="1.85267">
        <ele>180.19999694824</ele>
        <time>2015-12-27T10:29:08.000Z</time>
      </trkpt>
      <trkpt lat="48.70595" lon="1.85271">
        <ele>180.19999694824</ele>
        <time>2015-12-27T10:29:10.000Z</time>
      </trkpt>
      <trkpt lat="48.70594" lon="1.85275">
        <ele>180.19999694824</ele>
        <time>2015-12-27T10:29:12.000Z</time>
      </trkpt>
      <trkpt lat="48.70592" lon="1.85284">
        <ele>180.39999389648</ele>
        <time>2015-12-27T10:29:16.000Z</time>
      </trkpt>
      <trkpt lat="48.70586" lon="1.85301">
        <ele>180.39999389648</ele>
        <time>2015-12-27T10:29:25.000Z</time>
      </trkpt>
      <trkpt lat="48.70585" lon="1.85305">
        <ele>180.39999389648</ele>
        <time>2015-12-27T10:29:27.000Z</time>
      </trkpt>
      <trkpt lat="48.70584" lon="1.85309">
        <ele>180.39999389648</ele>
        <time>2015-12-27T10:29:29.000Z</time>
      </trkpt>
      <trkpt lat="48.7058" lon="1.85323">
        <ele>180.39999389648</ele>
        <time>2015-12-27T10:29:37.000Z</time>
      </trkpt>
      <trkpt lat="48.70575" lon="1.85341">
        <ele>179</ele>
        <time>2015-12-27T10:29:46.000Z</time>
      </trkpt>
      <trkpt lat="48.70574" lon="1.85355">
        <ele>178.19999694824</ele>
        <time>2015-12-27T10:29:53.000Z</time>
      </trkpt>
      <trkpt lat="48.70574" lon="1.85357">
        <ele>178.19999694824</ele>
        <time>2015-12-27T10:29:54.000Z</time>
      </trkpt>
      <trkpt lat="48.70578" lon="1.85367">
        <ele>178</ele>
        <time>2015-12-27T10:30:00.000Z</time>
      </trkpt>
      <trkpt lat="48.70585" lon="1.85375">
        <ele>178.19999694824</ele>
        <time>2015-12-27T10:30:06.000Z</time>
      </trkpt>
      <trkpt lat="48.70595" lon="1.85384">
        <ele>178.39999389648</ele>
        <time>2015-12-27T10:30:13.000Z</time>
      </trkpt>
      <trkpt lat="48.70602" lon="1.85395">
        <ele>178.39999389648</ele>
        <time>2015-12-27T10:30:20.000Z</time>
      </trkpt>
      <trkpt lat="48.70608" lon="1.85403">
        <ele>178.39999389648</ele>
        <time>2015-12-27T10:30:27.000Z</time>
      </trkpt>
      <trkpt lat="48.70609" lon="1.85403">
        <ele>178.39999389648</ele>
        <time>2015-12-27T10:30:29.000Z</time>
      </trkpt>
      <trkpt lat="48.70639" lon="1.85439">
        <ele>176.60000610352</ele>
        <time>2015-12-27T10:31:25.000Z</time>
      </trkpt>
      <trkpt lat="48.70641" lon="1.85442">
        <ele>176.39999389648</ele>
        <time>2015-12-27T10:31:27.000Z</time>
      </trkpt>
      <trkpt lat="48.70645" lon="1.85445">
        <ele>176.19999694824</ele>
        <time>2015-12-27T10:31:32.000Z</time>
      </trkpt>
      <trkpt lat="48.70667" lon="1.85463">
        <ele>175.60000610352</ele>
        <time>2015-12-27T10:32:24.000Z</time>
      </trkpt>
      <trkpt lat="48.7067" lon="1.85467">
        <ele>175.39999389648</ele>
        <time>2015-12-27T10:32:27.000Z</time>
      </trkpt>
      <trkpt lat="48.70679" lon="1.85475">
        <ele>175</ele>
        <time>2015-12-27T10:32:34.000Z</time>
      </trkpt>
      <trkpt lat="48.70685" lon="1.85482">
        <ele>174.60000610352</ele>
        <time>2015-12-27T10:32:40.000Z</time>
      </trkpt>
      <trkpt lat="48.70686" lon="1.85484">
        <ele>174.39999389648</ele>
        <time>2015-12-27T10:32:41.000Z</time>
      </trkpt>
      <trkpt lat="48.70694" lon="1.85494">
        <ele>174.19999694824</ele>
        <time>2015-12-27T10:32:48.000Z</time>
      </trkpt>
      <trkpt lat="48.70702" lon="1.85506">
        <ele>174.19999694824</ele>
        <time>2015-12-27T10:32:56.000Z</time>
      </trkpt>
      <trkpt lat="48.70713" lon="1.85514">
        <ele>174.39999389648</ele>
        <time>2015-12-27T10:33:05.000Z</time>
      </trkpt>
      <trkpt lat="48.70718" lon="1.85517">
        <ele>174.39999389648</ele>
        <time>2015-12-27T10:33:09.000Z</time>
      </trkpt>
      <trkpt lat="48.70719" lon="1.85518">
        <ele>174.39999389648</ele>
        <time>2015-12-27T10:33:10.000Z</time>
      </trkpt>
      <trkpt lat="48.7072" lon="1.8552">
        <ele>174.39999389648</ele>
        <time>2015-12-27T10:33:13.000Z</time>
      </trkpt>
      <trkpt lat="48.70739" lon="1.85515">
        <ele>175</ele>
        <time>2015-12-27T10:37:20.000Z</time>
      </trkpt>
      <trkpt lat="48.70737" lon="1.85516">
        <ele>174.80000305176</ele>
        <time>2015-12-27T10:37:21.000Z</time>
      </trkpt>
      <trkpt lat="48.70734" lon="1.8552">
        <ele>174.80000305176</ele>
        <time>2015-12-27T10:37:24.000Z</time>
      </trkpt>
      <trkpt lat="48.70729" lon="1.85524">
        <ele>174.60000610352</ele>
        <time>2015-12-27T10:37:27.000Z</time>
      </trkpt>
      <trkpt lat="48.70724" lon="1.85532">
        <ele>174.39999389648</ele>
        <time>2015-12-27T10:37:33.000Z</time>
      </trkpt>
      <trkpt lat="48.7072" lon="1.85537">
        <ele>174.19999694824</ele>
        <time>2015-12-27T10:37:37.000Z</time>
      </trkpt>
      <trkpt lat="48.70713" lon="1.85546">
        <ele>174</ele>
        <time>2015-12-27T10:37:43.000Z</time>
      </trkpt>
      <trkpt lat="48.70704" lon="1.85556">
        <ele>173.60000610352</ele>
        <time>2015-12-27T10:37:50.000Z</time>
      </trkpt>
      <trkpt lat="48.70694" lon="1.85568">
        <ele>173.19999694824</ele>
        <time>2015-12-27T10:37:58.000Z</time>
      </trkpt>
      <trkpt lat="48.70683" lon="1.8558">
        <ele>173</ele>
        <time>2015-12-27T10:38:07.000Z</time>
      </trkpt>
      <trkpt lat="48.70675" lon="1.85589">
        <ele>172.80000305176</ele>
        <time>2015-12-27T10:38:14.000Z</time>
      </trkpt>
      <trkpt lat="48.70666" lon="1.85598">
        <ele>172.60000610352</ele>
        <time>2015-12-27T10:38:22.000Z</time>
      </trkpt>
      <trkpt lat="48.70659" lon="1.85606">
        <ele>172.60000610352</ele>
        <time>2015-12-27T10:38:29.000Z</time>
      </trkpt>
      <trkpt lat="48.70646" lon="1.85622">
        <ele>172.60000610352</ele>
        <time>2015-12-27T10:38:40.000Z</time>
      </trkpt>
      <trkpt lat="48.70637" lon="1.85633">
        <ele>173.19999694824</ele>
        <time>2015-12-27T10:38:48.000Z</time>
      </trkpt>
      <trkpt lat="48.70628" lon="1.85644">
        <ele>173.80000305176</ele>
        <time>2015-12-27T10:38:56.000Z</time>
      </trkpt>
      <trkpt lat="48.7062" lon="1.85654">
        <ele>174.39999389648</ele>
        <time>2015-12-27T10:39:03.000Z</time>
      </trkpt>
      <trkpt lat="48.70612" lon="1.85664">
        <ele>174.80000305176</ele>
        <time>2015-12-27T10:39:10.000Z</time>
      </trkpt>
      <trkpt lat="48.70601" lon="1.85677">
        <ele>175.39999389648</ele>
        <time>2015-12-27T10:39:18.000Z</time>
      </trkpt>
      <trkpt lat="48.70593" lon="1.85688">
        <ele>175.60000610352</ele>
        <time>2015-12-27T10:39:24.000Z</time>
      </trkpt>
      <trkpt lat="48.70592" lon="1.8569">
        <ele>175.60000610352</ele>
        <time>2015-12-27T10:39:25.000Z</time>
      </trkpt>
      <trkpt lat="48.70587" lon="1.85694">
        <ele>175.80000305176</ele>
        <time>2015-12-27T10:39:29.000Z</time>
      </trkpt>
      <trkpt lat="48.70586" lon="1.85695">
        <ele>175.80000305176</ele>
        <time>2015-12-27T10:39:30.000Z</time>
      </trkpt>
      <trkpt lat="48.70576" lon="1.85705">
        <ele>176.19999694824</ele>
        <time>2015-12-27T10:39:37.000Z</time>
      </trkpt>
      <trkpt lat="48.70565" lon="1.85715">
        <ele>176.19999694824</ele>
        <time>2015-12-27T10:39:45.000Z</time>
      </trkpt>
      <trkpt lat="48.70556" lon="1.85725">
        <ele>175.80000305176</ele>
        <time>2015-12-27T10:39:52.000Z</time>
      </trkpt>
      <trkpt lat="48.70545" lon="1.85738">
        <ele>175.39999389648</ele>
        <time>2015-12-27T10:40:00.000Z</time>
      </trkpt>
      <trkpt lat="48.70538" lon="1.85746">
        <ele>175.19999694824</ele>
        <time>2015-12-27T10:40:06.000Z</time>
      </trkpt>
      <trkpt lat="48.70528" lon="1.85758">
        <ele>175.19999694824</ele>
        <time>2015-12-27T10:40:14.000Z</time>
      </trkpt>
      <trkpt lat="48.70522" lon="1.85765">
        <ele>175.19999694824</ele>
        <time>2015-12-27T10:40:19.000Z</time>
      </trkpt>
      <trkpt lat="48.70512" lon="1.85776">
        <ele>175.39999389648</ele>
        <time>2015-12-27T10:40:27.000Z</time>
      </trkpt>
      <trkpt lat="48.70502" lon="1.85788">
        <ele>175.60000610352</ele>
        <time>2015-12-27T10:40:35.000Z</time>
      </trkpt>
      <trkpt lat="48.70494" lon="1.85798">
        <ele>175.60000610352</ele>
        <time>2015-12-27T10:40:42.000Z</time>
      </trkpt>
      <trkpt lat="48.70484" lon="1.8581">
        <ele>175</ele>
        <time>2015-12-27T10:40:50.000Z</time>
      </trkpt>
      <trkpt lat="48.70475" lon="1.8582">
        <ele>174.39999389648</ele>
        <time>2015-12-27T10:40:57.000Z</time>
      </trkpt>
      <trkpt lat="48.70463" lon="1.85834">
        <ele>173.80000305176</ele>
        <time>2015-12-27T10:41:06.000Z</time>
      </trkpt>
      <trkpt lat="48.7045" lon="1.85849">
        <ele>173.60000610352</ele>
        <time>2015-12-27T10:41:16.000Z</time>
      </trkpt>
      <trkpt lat="48.70438" lon="1.85864">
        <ele>174</ele>
        <time>2015-12-27T10:41:26.000Z</time>
      </trkpt>
      <trkpt lat="48.70433" lon="1.85866">
        <ele>174.39999389648</ele>
        <time>2015-12-27T10:41:30.000Z</time>
      </trkpt>
      <trkpt lat="48.70432" lon="1.85866">
        <ele>174.39999389648</ele>
        <time>2015-12-27T10:41:32.000Z</time>
      </trkpt>
      <trkpt lat="48.70427" lon="1.85865">
        <ele>174.80000305176</ele>
        <time>2015-12-27T10:41:36.000Z</time>
      </trkpt>
      <trkpt lat="48.70426" lon="1.85865">
        <ele>174.80000305176</ele>
        <time>2015-12-27T10:41:37.000Z</time>
      </trkpt>
      <trkpt lat="48.70426" lon="1.85866">
        <ele>174.80000305176</ele>
        <time>2015-12-27T10:41:39.000Z</time>
      </trkpt>
      <trkpt lat="48.70417" lon="1.85886">
        <ele>176</ele>
        <time>2015-12-27T10:42:02.000Z</time>
      </trkpt>
      <trkpt lat="48.70416" lon="1.85887">
        <ele>176</ele>
        <time>2015-12-27T10:42:03.000Z</time>
      </trkpt>
      <trkpt lat="48.70409" lon="1.85894">
        <ele>176.19999694824</ele>
        <time>2015-12-27T10:42:09.000Z</time>
      </trkpt>
      <trkpt lat="48.70407" lon="1.85897">
        <ele>176.19999694824</ele>
        <time>2015-12-27T10:42:11.000Z</time>
      </trkpt>
      <trkpt lat="48.704" lon="1.85906">
        <ele>176.39999389648</ele>
        <time>2015-12-27T10:42:17.000Z</time>
      </trkpt>
      <trkpt lat="48.70393" lon="1.85914">
        <ele>176.60000610352</ele>
        <time>2015-12-27T10:42:24.000Z</time>
      </trkpt>
      <trkpt lat="48.70381" lon="1.85926">
        <ele>177</ele>
        <time>2015-12-27T10:42:34.000Z</time>
      </trkpt>
      <trkpt lat="48.70371" lon="1.85938">
        <ele>177</ele>
        <time>2015-12-27T10:42:43.000Z</time>
      </trkpt>
      <trkpt lat="48.70365" lon="1.85946">
        <ele>177</ele>
        <time>2015-12-27T10:42:49.000Z</time>
      </trkpt>
      <trkpt lat="48.70359" lon="1.85952">
        <ele>176.80000305176</ele>
        <time>2015-12-27T10:42:54.000Z</time>
      </trkpt>
      <trkpt lat="48.70348" lon="1.85963">
        <ele>176.60000610352</ele>
        <time>2015-12-27T10:43:03.000Z</time>
      </trkpt>
      <trkpt lat="48.70341" lon="1.85973">
        <ele>176.39999389648</ele>
        <time>2015-12-27T10:43:10.000Z</time>
      </trkpt>
      <trkpt lat="48.70334" lon="1.85979">
        <ele>176.60000610352</ele>
        <time>2015-12-27T10:43:15.000Z</time>
      </trkpt>
      <trkpt lat="48.70333" lon="1.8598">
        <ele>176.60000610352</ele>
        <time>2015-12-27T10:43:16.000Z</time>
      </trkpt>
      <trkpt lat="48.70323" lon="1.85989">
        <ele>177.19999694824</ele>
        <time>2015-12-27T10:43:24.000Z</time>
      </trkpt>
      <trkpt lat="48.70314" lon="1.85999">
        <ele>177.39999389648</ele>
        <time>2015-12-27T10:43:31.000Z</time>
      </trkpt>
      <trkpt lat="48.70301" lon="1.86014">
        <ele>177.80000305176</ele>
        <time>2015-12-27T10:43:41.000Z</time>
      </trkpt>
      <trkpt lat="48.70292" lon="1.86022">
        <ele>178</ele>
        <time>2015-12-27T10:43:47.000Z</time>
      </trkpt>
      <trkpt lat="48.70281" lon="1.86031">
        <ele>177.80000305176</ele>
        <time>2015-12-27T10:43:55.000Z</time>
      </trkpt>
      <trkpt lat="48.70269" lon="1.86046">
        <ele>177.60000610352</ele>
        <time>2015-12-27T10:44:04.000Z</time>
      </trkpt>
      <trkpt lat="48.70256" lon="1.86061">
        <ele>177</ele>
        <time>2015-12-27T10:44:14.000Z</time>
      </trkpt>
      <trkpt lat="48.70244" lon="1.86075">
        <ele>177</ele>
        <time>2015-12-27T10:44:23.000Z</time>
      </trkpt>
      <trkpt lat="48.70236" lon="1.86086">
        <ele>176.80000305176</ele>
        <time>2015-12-27T10:44:31.000Z</time>
      </trkpt>
      <trkpt lat="48.70226" lon="1.86098">
        <ele>176.60000610352</ele>
        <time>2015-12-27T10:44:38.000Z</time>
      </trkpt>
      <trkpt lat="48.70213" lon="1.86114">
        <ele>176.60000610352</ele>
        <time>2015-12-27T10:44:48.000Z</time>
      </trkpt>
      <trkpt lat="48.70205" lon="1.86123">
        <ele>176.39999389648</ele>
        <time>2015-12-27T10:44:54.000Z</time>
      </trkpt>
      <trkpt lat="48.70194" lon="1.86135">
        <ele>176.19999694824</ele>
        <time>2015-12-27T10:45:02.000Z</time>
      </trkpt>
      <trkpt lat="48.70193" lon="1.86136">
        <ele>176.19999694824</ele>
        <time>2015-12-27T10:45:04.000Z</time>
      </trkpt>
      <trkpt lat="48.7019" lon="1.8614">
        <ele>176.19999694824</ele>
        <time>2015-12-27T10:45:15.000Z</time>
      </trkpt>
      <trkpt lat="48.70188" lon="1.86141">
        <ele>176.19999694824</ele>
        <time>2015-12-27T10:45:16.000Z</time>
      </trkpt>
      <trkpt lat="48.70179" lon="1.86151">
        <ele>176</ele>
        <time>2015-12-27T10:45:24.000Z</time>
      </trkpt>
      <trkpt lat="48.70168" lon="1.86161">
        <ele>176.19999694824</ele>
        <time>2015-12-27T10:45:32.000Z</time>
      </trkpt>
      <trkpt lat="48.70156" lon="1.86171">
        <ele>176.19999694824</ele>
        <time>2015-12-27T10:45:41.000Z</time>
      </trkpt>
      <trkpt lat="48.70148" lon="1.86176">
        <ele>176.19999694824</ele>
        <time>2015-12-27T10:45:48.000Z</time>
      </trkpt>
      <trkpt lat="48.70138" lon="1.86177">
        <ele>176.39999389648</ele>
        <time>2015-12-27T10:45:55.000Z</time>
      </trkpt>
      <trkpt lat="48.70125" lon="1.86179">
        <ele>176.39999389648</ele>
        <time>2015-12-27T10:46:04.000Z</time>
      </trkpt>
      <trkpt lat="48.70116" lon="1.86192">
        <ele>175.80000305176</ele>
        <time>2015-12-27T10:46:12.000Z</time>
      </trkpt>
      <trkpt lat="48.70107" lon="1.86207">
        <ele>175.19999694824</ele>
        <time>2015-12-27T10:46:21.000Z</time>
      </trkpt>
      <trkpt lat="48.70093" lon="1.86222">
        <ele>174.39999389648</ele>
        <time>2015-12-27T10:46:32.000Z</time>
      </trkpt>
      <trkpt lat="48.70076" lon="1.86235">
        <ele>175</ele>
        <time>2015-12-27T10:46:44.000Z</time>
      </trkpt>
      <trkpt lat="48.70066" lon="1.86243">
        <ele>175.19999694824</ele>
        <time>2015-12-27T10:46:51.000Z</time>
      </trkpt>
      <trkpt lat="48.70062" lon="1.86246">
        <ele>175.19999694824</ele>
        <time>2015-12-27T10:46:54.000Z</time>
      </trkpt>
      <trkpt lat="48.70058" lon="1.8625">
        <ele>175.19999694824</ele>
        <time>2015-12-27T10:46:57.000Z</time>
      </trkpt>
      <trkpt lat="48.70044" lon="1.86262">
        <ele>175.39999389648</ele>
        <time>2015-12-27T10:47:07.000Z</time>
      </trkpt>
      <trkpt lat="48.70029" lon="1.86273">
        <ele>176</ele>
        <time>2015-12-27T10:47:17.000Z</time>
      </trkpt>
      <trkpt lat="48.70018" lon="1.86284">
        <ele>176.39999389648</ele>
        <time>2015-12-27T10:47:25.000Z</time>
      </trkpt>
      <trkpt lat="48.70017" lon="1.86285">
        <ele>176.39999389648</ele>
        <time>2015-12-27T10:47:26.000Z</time>
      </trkpt>
      <trkpt lat="48.70007" lon="1.86292">
        <ele>176.19999694824</ele>
        <time>2015-12-27T10:47:33.000Z</time>
      </trkpt>
      <trkpt lat="48.69998" lon="1.863">
        <ele>176</ele>
        <time>2015-12-27T10:47:39.000Z</time>
      </trkpt>
      <trkpt lat="48.69989" lon="1.86307">
        <ele>176</ele>
        <time>2015-12-27T10:47:45.000Z</time>
      </trkpt>
      <trkpt lat="48.69978" lon="1.86314">
        <ele>176</ele>
        <time>2015-12-27T10:47:52.000Z</time>
      </trkpt>
      <trkpt lat="48.69967" lon="1.86321">
        <ele>176</ele>
        <time>2015-12-27T10:47:59.000Z</time>
      </trkpt>
      <trkpt lat="48.69959" lon="1.86326">
        <ele>176</ele>
        <time>2015-12-27T10:48:05.000Z</time>
      </trkpt>
      <trkpt lat="48.69951" lon="1.86334">
        <ele>176</ele>
        <time>2015-12-27T10:48:11.000Z</time>
      </trkpt>
      <trkpt lat="48.6994" lon="1.8634">
        <ele>176.39999389648</ele>
        <time>2015-12-27T10:48:18.000Z</time>
      </trkpt>
      <trkpt lat="48.69937" lon="1.86343">
        <ele>176.39999389648</ele>
        <time>2015-12-27T10:48:20.000Z</time>
      </trkpt>
      <trkpt lat="48.6993" lon="1.8635">
        <ele>176.60000610352</ele>
        <time>2015-12-27T10:48:25.000Z</time>
      </trkpt>
      <trkpt lat="48.69928" lon="1.86353">
        <ele>176.80000305176</ele>
        <time>2015-12-27T10:48:27.000Z</time>
      </trkpt>
      <trkpt lat="48.69918" lon="1.86362">
        <ele>177</ele>
        <time>2015-12-27T10:48:34.000Z</time>
      </trkpt>
      <trkpt lat="48.69905" lon="1.86372">
        <ele>177.19999694824</ele>
        <time>2015-12-27T10:48:43.000Z</time>
      </trkpt>
      <trkpt lat="48.69891" lon="1.86384">
        <ele>177.19999694824</ele>
        <time>2015-12-27T10:48:53.000Z</time>
      </trkpt>
      <trkpt lat="48.69879" lon="1.86393">
        <ele>177.19999694824</ele>
        <time>2015-12-27T10:49:01.000Z</time>
      </trkpt>
      <trkpt lat="48.69873" lon="1.86397">
        <ele>177.19999694824</ele>
        <time>2015-12-27T10:49:07.000Z</time>
      </trkpt>
      <trkpt lat="48.69873" lon="1.86398">
        <ele>177.19999694824</ele>
        <time>2015-12-27T10:49:08.000Z</time>
      </trkpt>
      <trkpt lat="48.69864" lon="1.86408">
        <ele>177.19999694824</ele>
        <time>2015-12-27T10:49:22.000Z</time>
      </trkpt>
      <trkpt lat="48.6986" lon="1.86412">
        <ele>177</ele>
        <time>2015-12-27T10:49:25.000Z</time>
      </trkpt>
      <trkpt lat="48.69857" lon="1.86414">
        <ele>177</ele>
        <time>2015-12-27T10:49:27.000Z</time>
      </trkpt>
      <trkpt lat="48.69849" lon="1.8642">
        <ele>177.39999389648</ele>
        <time>2015-12-27T10:49:33.000Z</time>
      </trkpt>
      <trkpt lat="48.69849" lon="1.8642">
        <ele>177.39999389648</ele>
        <time>2015-12-27T10:49:35.000Z</time>
      </trkpt>
      <trkpt lat="48.69841" lon="1.86427">
        <ele>177.60000610352</ele>
        <time>2015-12-27T10:50:31.000Z</time>
      </trkpt>
      <trkpt lat="48.6984" lon="1.86428">
        <ele>177.80000305176</ele>
        <time>2015-12-27T10:50:32.000Z</time>
      </trkpt>
      <trkpt lat="48.69824" lon="1.86439">
        <ele>178.39999389648</ele>
        <time>2015-12-27T10:50:43.000Z</time>
      </trkpt>
      <trkpt lat="48.69815" lon="1.86446">
        <ele>178.80000305176</ele>
        <time>2015-12-27T10:50:50.000Z</time>
      </trkpt>
      <trkpt lat="48.69805" lon="1.86455">
        <ele>178.60000610352</ele>
        <time>2015-12-27T10:50:57.000Z</time>
      </trkpt>
      <trkpt lat="48.69794" lon="1.86467">
        <ele>178</ele>
        <time>2015-12-27T10:51:06.000Z</time>
      </trkpt>
      <trkpt lat="48.69784" lon="1.86471">
        <ele>177.80000305176</ele>
        <time>2015-12-27T10:51:13.000Z</time>
      </trkpt>
      <trkpt lat="48.69782" lon="1.86473">
        <ele>177.80000305176</ele>
        <time>2015-12-27T10:51:15.000Z</time>
      </trkpt>
      <trkpt lat="48.69776" lon="1.86477">
        <ele>177.60000610352</ele>
        <time>2015-12-27T10:51:19.000Z</time>
      </trkpt>
      <trkpt lat="48.69766" lon="1.86486">
        <ele>177</ele>
        <time>2015-12-27T10:51:26.000Z</time>
      </trkpt>
      <trkpt lat="48.69762" lon="1.86491">
        <ele>177.19999694824</ele>
        <time>2015-12-27T10:51:29.000Z</time>
      </trkpt>
      <trkpt lat="48.69759" lon="1.86495">
        <ele>177.19999694824</ele>
        <time>2015-12-27T10:51:32.000Z</time>
      </trkpt>
      <trkpt lat="48.69752" lon="1.86506">
        <ele>177.39999389648</ele>
        <time>2015-12-27T10:51:39.000Z</time>
      </trkpt>
      <trkpt lat="48.6975" lon="1.86506">
        <ele>177.39999389648</ele>
        <time>2015-12-27T10:51:40.000Z</time>
      </trkpt>
      <trkpt lat="48.69744" lon="1.86507">
        <ele>177.60000610352</ele>
        <time>2015-12-27T10:51:44.000Z</time>
      </trkpt>
      <trkpt lat="48.6974" lon="1.86511">
        <ele>177.60000610352</ele>
        <time>2015-12-27T10:51:47.000Z</time>
      </trkpt>
      <trkpt lat="48.69734" lon="1.86516">
        <ele>177.80000305176</ele>
        <time>2015-12-27T10:51:51.000Z</time>
      </trkpt>
      <trkpt lat="48.69721" lon="1.86527">
        <ele>178</ele>
        <time>2015-12-27T10:52:00.000Z</time>
      </trkpt>
      <trkpt lat="48.6971" lon="1.86537">
        <ele>177.80000305176</ele>
        <time>2015-12-27T10:52:08.000Z</time>
      </trkpt>
      <trkpt lat="48.69698" lon="1.86545">
        <ele>177.39999389648</ele>
        <time>2015-12-27T10:52:16.000Z</time>
      </trkpt>
      <trkpt lat="48.69696" lon="1.86548">
        <ele>177.39999389648</ele>
        <time>2015-12-27T10:52:18.000Z</time>
      </trkpt>
      <trkpt lat="48.69691" lon="1.86552">
        <ele>177.19999694824</ele>
        <time>2015-12-27T10:52:22.000Z</time>
      </trkpt>
      <trkpt lat="48.69687" lon="1.86555">
        <ele>177.19999694824</ele>
        <time>2015-12-27T10:52:26.000Z</time>
      </trkpt>
      <trkpt lat="48.69656" lon="1.86574">
        <ele>175.39999389648</ele>
        <time>2015-12-27T10:53:30.000Z</time>
      </trkpt>
      <trkpt lat="48.69644" lon="1.86584">
        <ele>174.60000610352</ele>
        <time>2015-12-27T10:53:39.000Z</time>
      </trkpt>
      <trkpt lat="48.6963" lon="1.86595">
        <ele>173.80000305176</ele>
        <time>2015-12-27T10:53:49.000Z</time>
      </trkpt>
      <trkpt lat="48.69622" lon="1.86604">
        <ele>173.39999389648</ele>
        <time>2015-12-27T10:53:56.000Z</time>
      </trkpt>
      <trkpt lat="48.69612" lon="1.86612">
        <ele>172.80000305176</ele>
        <time>2015-12-27T10:54:05.000Z</time>
      </trkpt>
      <trkpt lat="48.69604" lon="1.86605">
        <ele>172.60000610352</ele>
        <time>2015-12-27T10:54:11.000Z</time>
      </trkpt>
      <trkpt lat="48.69598" lon="1.86593">
        <ele>172.60000610352</ele>
        <time>2015-12-27T10:54:18.000Z</time>
      </trkpt>
      <trkpt lat="48.69594" lon="1.86575">
        <ele>172.60000610352</ele>
        <time>2015-12-27T10:54:26.000Z</time>
      </trkpt>
      <trkpt lat="48.69594" lon="1.86559">
        <ele>172.80000305176</ele>
        <time>2015-12-27T10:54:33.000Z</time>
      </trkpt>
      <trkpt lat="48.69592" lon="1.8654">
        <ele>173</ele>
        <time>2015-12-27T10:54:40.000Z</time>
      </trkpt>
      <trkpt lat="48.69592" lon="1.86538">
        <ele>173</ele>
        <time>2015-12-27T10:54:41.000Z</time>
      </trkpt>
      <trkpt lat="48.69592" lon="1.8653">
        <ele>173</ele>
        <time>2015-12-27T10:54:44.000Z</time>
      </trkpt>
      <trkpt lat="48.6959" lon="1.86516">
        <ele>173.19999694824</ele>
        <time>2015-12-27T10:54:50.000Z</time>
      </trkpt>
      <trkpt lat="48.69588" lon="1.86503">
        <ele>173.19999694824</ele>
        <time>2015-12-27T10:54:57.000Z</time>
      </trkpt>
      <trkpt lat="48.69588" lon="1.86488">
        <ele>173.39999389648</ele>
        <time>2015-12-27T11:04:38.000Z</time>
      </trkpt>
      <trkpt lat="48.69586" lon="1.86488">
        <ele>173.39999389648</ele>
        <time>2015-12-27T11:04:41.000Z</time>
      </trkpt>
      <trkpt lat="48.6957" lon="1.86491">
        <ele>172.80000305176</ele>
        <time>2015-12-27T11:06:56.000Z</time>
      </trkpt>
      <trkpt lat="48.69569" lon="1.8649">
        <ele>172.80000305176</ele>
        <time>2015-12-27T11:06:57.000Z</time>
      </trkpt>
      <trkpt lat="48.69559" lon="1.86487">
        <ele>172.39999389648</ele>
        <time>2015-12-27T11:07:04.000Z</time>
      </trkpt>
      <trkpt lat="48.69547" lon="1.86483">
        <ele>172.19999694824</ele>
        <time>2015-12-27T11:07:12.000Z</time>
      </trkpt>
      <trkpt lat="48.69532" lon="1.86477">
        <ele>171.80000305176</ele>
        <time>2015-12-27T11:07:22.000Z</time>
      </trkpt>
      <trkpt lat="48.69523" lon="1.86474">
        <ele>171.39999389648</ele>
        <time>2015-12-27T11:07:28.000Z</time>
      </trkpt>
      <trkpt lat="48.69511" lon="1.8647">
        <ele>171.39999389648</ele>
        <time>2015-12-27T11:07:36.000Z</time>
      </trkpt>
      <trkpt lat="48.69495" lon="1.86464">
        <ele>171.19999694824</ele>
        <time>2015-12-27T11:07:47.000Z</time>
      </trkpt>
      <trkpt lat="48.69476" lon="1.86458">
        <ele>171.39999389648</ele>
        <time>2015-12-27T11:07:59.000Z</time>
      </trkpt>
      <trkpt lat="48.69455" lon="1.86451">
        <ele>171.39999389648</ele>
        <time>2015-12-27T11:08:12.000Z</time>
      </trkpt>
      <trkpt lat="48.69437" lon="1.86445">
        <ele>171.60000610352</ele>
        <time>2015-12-27T11:08:24.000Z</time>
      </trkpt>
      <trkpt lat="48.69424" lon="1.8644">
        <ele>172</ele>
        <time>2015-12-27T11:08:32.000Z</time>
      </trkpt>
      <trkpt lat="48.6941" lon="1.86435">
        <ele>172.60000610352</ele>
        <time>2015-12-27T11:08:42.000Z</time>
      </trkpt>
      <trkpt lat="48.69403" lon="1.86425">
        <ele>173</ele>
        <time>2015-12-27T11:08:49.000Z</time>
      </trkpt>
      <trkpt lat="48.69403" lon="1.86424">
        <ele>173</ele>
        <time>2015-12-27T11:08:51.000Z</time>
      </trkpt>
      <trkpt lat="48.69382" lon="1.86456">
        <ele>173.39999389648</ele>
        <time>2015-12-27T11:12:41.000Z</time>
      </trkpt>
      <trkpt lat="48.69377" lon="1.86473">
        <ele>173.39999389648</ele>
        <time>2015-12-27T11:12:46.000Z</time>
      </trkpt>
      <trkpt lat="48.69374" lon="1.86485">
        <ele>173.39999389648</ele>
        <time>2015-12-27T11:12:52.000Z</time>
      </trkpt>
      <trkpt lat="48.6937" lon="1.86496">
        <ele>173.39999389648</ele>
        <time>2015-12-27T11:12:58.000Z</time>
      </trkpt>
      <trkpt lat="48.6936" lon="1.86524">
        <ele>174.39999389648</ele>
        <time>2015-12-27T11:13:12.000Z</time>
      </trkpt>
      <trkpt lat="48.69354" lon="1.86543">
        <ele>175.19999694824</ele>
        <time>2015-12-27T11:13:22.000Z</time>
      </trkpt>
      <trkpt lat="48.6935" lon="1.86558">
        <ele>175.60000610352</ele>
        <time>2015-12-27T11:13:30.000Z</time>
      </trkpt>
      <trkpt lat="48.69349" lon="1.86559">
        <ele>175.80000305176</ele>
        <time>2015-12-27T11:13:33.000Z</time>
      </trkpt>
      <trkpt lat="48.69338" lon="1.8659">
        <ele>175.60000610352</ele>
        <time>2015-12-27T11:14:02.000Z</time>
      </trkpt>
      <trkpt lat="48.69337" lon="1.86592">
        <ele>175.60000610352</ele>
        <time>2015-12-27T11:14:03.000Z</time>
      </trkpt>
      <trkpt lat="48.69337" lon="1.8661">
        <ele>175.39999389648</ele>
        <time>2015-12-27T11:14:11.000Z</time>
      </trkpt>
      <trkpt lat="48.69337" lon="1.86624">
        <ele>175.19999694824</ele>
        <time>2015-12-27T11:14:18.000Z</time>
      </trkpt>
      <trkpt lat="48.69337" lon="1.86638">
        <ele>175</ele>
        <time>2015-12-27T11:14:25.000Z</time>
      </trkpt>
      <trkpt lat="48.69338" lon="1.86658">
        <ele>175.19999694824</ele>
        <time>2015-12-27T11:14:34.000Z</time>
      </trkpt>
      <trkpt lat="48.69338" lon="1.86684">
        <ele>174.60000610352</ele>
        <time>2015-12-27T11:14:45.000Z</time>
      </trkpt>
      <trkpt lat="48.69338" lon="1.86709">
        <ele>174</ele>
        <time>2015-12-27T11:14:56.000Z</time>
      </trkpt>
      <trkpt lat="48.69338" lon="1.86732">
        <ele>173.39999389648</ele>
        <time>2015-12-27T11:15:06.000Z</time>
      </trkpt>
      <trkpt lat="48.69338" lon="1.86746">
        <ele>173.19999694824</ele>
        <time>2015-12-27T11:15:12.000Z</time>
      </trkpt>
      <trkpt lat="48.69339" lon="1.86769">
        <ele>173.19999694824</ele>
        <time>2015-12-27T11:15:22.000Z</time>
      </trkpt>
      <trkpt lat="48.69339" lon="1.86788">
        <ele>173.19999694824</ele>
        <time>2015-12-27T11:15:30.000Z</time>
      </trkpt>
      <trkpt lat="48.6934" lon="1.86805">
        <ele>173.19999694824</ele>
        <time>2015-12-27T11:15:37.000Z</time>
      </trkpt>
      <trkpt lat="48.69348" lon="1.86819">
        <ele>173</ele>
        <time>2015-12-27T11:15:46.000Z</time>
      </trkpt>
      <trkpt lat="48.69352" lon="1.86819">
        <ele>173</ele>
        <time>2015-12-27T11:15:48.000Z</time>
      </trkpt>
      <trkpt lat="48.69357" lon="1.86816">
        <ele>173</ele>
        <time>2015-12-27T11:15:50.000Z</time>
      </trkpt>
      <trkpt lat="48.69367" lon="1.86808">
        <ele>172.80000305176</ele>
        <time>2015-12-27T11:15:55.000Z</time>
      </trkpt>
      <trkpt lat="48.69377" lon="1.86801">
        <ele>172.80000305176</ele>
        <time>2015-12-27T11:16:03.000Z</time>
      </trkpt>
      <trkpt lat="48.69389" lon="1.86791">
        <ele>172.60000610352</ele>
        <time>2015-12-27T11:16:12.000Z</time>
      </trkpt>
      <trkpt lat="48.69392" lon="1.86787">
        <ele>172.60000610352</ele>
        <time>2015-12-27T11:16:15.000Z</time>
      </trkpt>
      <trkpt lat="48.69397" lon="1.86783">
        <ele>172.39999389648</ele>
        <time>2015-12-27T11:16:19.000Z</time>
      </trkpt>
      <trkpt lat="48.69407" lon="1.86776">
        <ele>172.39999389648</ele>
        <time>2015-12-27T11:16:26.000Z</time>
      </trkpt>
      <trkpt lat="48.69408" lon="1.86775">
        <ele>172.39999389648</ele>
        <time>2015-12-27T11:16:27.000Z</time>
      </trkpt>
      <trkpt lat="48.69416" lon="1.86772">
        <ele>172.19999694824</ele>
        <time>2015-12-27T11:16:34.000Z</time>
      </trkpt>
      <trkpt lat="48.6942" lon="1.86777">
        <ele>172.19999694824</ele>
        <time>2015-12-27T11:16:38.000Z</time>
      </trkpt>
      <trkpt lat="48.69421" lon="1.86778">
        <ele>172.19999694824</ele>
        <time>2015-12-27T11:16:39.000Z</time>
      </trkpt>
      <trkpt lat="48.69427" lon="1.8679">
        <ele>172.19999694824</ele>
        <time>2015-12-27T11:16:45.000Z</time>
      </trkpt>
      <trkpt lat="48.69432" lon="1.86803">
        <ele>172</ele>
        <time>2015-12-27T11:16:51.000Z</time>
      </trkpt>
      <trkpt lat="48.69436" lon="1.86814">
        <ele>172</ele>
        <time>2015-12-27T11:16:57.000Z</time>
      </trkpt>
      <trkpt lat="48.69441" lon="1.86829">
        <ele>172</ele>
        <time>2015-12-27T11:17:04.000Z</time>
      </trkpt>
      <trkpt lat="48.69446" lon="1.86843">
        <ele>172.19999694824</ele>
        <time>2015-12-27T11:17:11.000Z</time>
      </trkpt>
      <trkpt lat="48.6945" lon="1.86856">
        <ele>172.39999389648</ele>
        <time>2015-12-27T11:17:18.000Z</time>
      </trkpt>
      <trkpt lat="48.69457" lon="1.86872">
        <ele>172.60000610352</ele>
        <time>2015-12-27T11:17:26.000Z</time>
      </trkpt>
      <trkpt lat="48.69459" lon="1.86884">
        <ele>173</ele>
        <time>2015-12-27T11:17:31.000Z</time>
      </trkpt>
      <trkpt lat="48.69462" lon="1.86891">
        <ele>173.19999694824</ele>
        <time>2015-12-27T11:17:36.000Z</time>
      </trkpt>
      <trkpt lat="48.69466" lon="1.86906">
        <ele>173.60000610352</ele>
        <time>2015-12-27T11:17:43.000Z</time>
      </trkpt>
      <trkpt lat="48.69468" lon="1.86916">
        <ele>174.39999389648</ele>
        <time>2015-12-27T11:17:47.000Z</time>
      </trkpt>
      <trkpt lat="48.69469" lon="1.86919">
        <ele>174.60000610352</ele>
        <time>2015-12-27T11:17:49.000Z</time>
      </trkpt>
      <trkpt lat="48.69472" lon="1.86929">
        <ele>175.39999389648</ele>
        <time>2015-12-27T11:17:54.000Z</time>
      </trkpt>
      <trkpt lat="48.69473" lon="1.86931">
        <ele>175.60000610352</ele>
        <time>2015-12-27T11:17:55.000Z</time>
      </trkpt>
      <trkpt lat="48.69479" lon="1.8694">
        <ele>176</ele>
        <time>2015-12-27T11:18:01.000Z</time>
      </trkpt>
      <trkpt lat="48.69486" lon="1.86945">
        <ele>176</ele>
        <time>2015-12-27T11:18:06.000Z</time>
      </trkpt>
      <trkpt lat="48.6949" lon="1.86948">
        <ele>176</ele>
        <time>2015-12-27T11:18:09.000Z</time>
      </trkpt>
      <trkpt lat="48.69493" lon="1.8695">
        <ele>176</ele>
        <time>2015-12-27T11:18:11.000Z</time>
      </trkpt>
      <trkpt lat="48.695" lon="1.86954">
        <ele>175.80000305176</ele>
        <time>2015-12-27T11:18:16.000Z</time>
      </trkpt>
      <trkpt lat="48.69506" lon="1.86958">
        <ele>175.80000305176</ele>
        <time>2015-12-27T11:18:20.000Z</time>
      </trkpt>
      <trkpt lat="48.69512" lon="1.86961">
        <ele>175.60000610352</ele>
        <time>2015-12-27T11:18:23.000Z</time>
      </trkpt>
      <trkpt lat="48.69524" lon="1.86966">
        <ele>175</ele>
        <time>2015-12-27T11:18:31.000Z</time>
      </trkpt>
      <trkpt lat="48.69533" lon="1.86971">
        <ele>174.39999389648</ele>
        <time>2015-12-27T11:18:37.000Z</time>
      </trkpt>
      <trkpt lat="48.69542" lon="1.86974">
        <ele>173.60000610352</ele>
        <time>2015-12-27T11:18:43.000Z</time>
      </trkpt>
      <trkpt lat="48.69552" lon="1.86978">
        <ele>172.80000305176</ele>
        <time>2015-12-27T11:18:50.000Z</time>
      </trkpt>
      <trkpt lat="48.6956" lon="1.86984">
        <ele>172.60000610352</ele>
        <time>2015-12-27T11:18:56.000Z</time>
      </trkpt>
      <trkpt lat="48.6957" lon="1.86989">
        <ele>172</ele>
        <time>2015-12-27T11:19:03.000Z</time>
      </trkpt>
      <trkpt lat="48.69573" lon="1.8699">
        <ele>171.80000305176</ele>
        <time>2015-12-27T11:19:05.000Z</time>
      </trkpt>
      <trkpt lat="48.69576" lon="1.86993">
        <ele>171.60000610352</ele>
        <time>2015-12-27T11:19:07.000Z</time>
      </trkpt>
      <trkpt lat="48.69581" lon="1.86999">
        <ele>171.80000305176</ele>
        <time>2015-12-27T11:19:12.000Z</time>
      </trkpt>
      <trkpt lat="48.69582" lon="1.87">
        <ele>171.60000610352</ele>
        <time>2015-12-27T11:19:13.000Z</time>
      </trkpt>
      <trkpt lat="48.69587" lon="1.87005">
        <ele>171.60000610352</ele>
        <time>2015-12-27T11:19:17.000Z</time>
      </trkpt>
      <trkpt lat="48.6959" lon="1.87009">
        <ele>171.80000305176</ele>
        <time>2015-12-27T11:19:22.000Z</time>
      </trkpt>
      <trkpt lat="48.69605" lon="1.87019">
        <ele>170.80000305176</ele>
        <time>2015-12-27T11:19:56.000Z</time>
      </trkpt>
      <trkpt lat="48.69613" lon="1.87029">
        <ele>171</ele>
        <time>2015-12-27T11:20:03.000Z</time>
      </trkpt>
      <trkpt lat="48.6962" lon="1.8704">
        <ele>171</ele>
        <time>2015-12-27T11:20:10.000Z</time>
      </trkpt>
      <trkpt lat="48.69625" lon="1.87048">
        <ele>171.19999694824</ele>
        <time>2015-12-27T11:20:15.000Z</time>
      </trkpt>
      <trkpt lat="48.69627" lon="1.87051">
        <ele>171.19999694824</ele>
        <time>2015-12-27T11:20:17.000Z</time>
      </trkpt>
      <trkpt lat="48.69631" lon="1.8706">
        <ele>171.60000610352</ele>
        <time>2015-12-27T11:20:22.000Z</time>
      </trkpt>
      <trkpt lat="48.69632" lon="1.87061">
        <ele>171.60000610352</ele>
        <time>2015-12-27T11:20:23.000Z</time>
      </trkpt>
      <trkpt lat="48.69637" lon="1.8707">
        <ele>171.80000305176</ele>
        <time>2015-12-27T11:20:29.000Z</time>
      </trkpt>
      <trkpt lat="48.6964" lon="1.8708">
        <ele>172</ele>
        <time>2015-12-27T11:20:35.000Z</time>
      </trkpt>
      <trkpt lat="48.69643" lon="1.87088">
        <ele>171.80000305176</ele>
        <time>2015-12-27T11:20:39.000Z</time>
      </trkpt>
      <trkpt lat="48.69644" lon="1.87093">
        <ele>171.80000305176</ele>
        <time>2015-12-27T11:20:41.000Z</time>
      </trkpt>
      <trkpt lat="48.69646" lon="1.87099">
        <ele>171.80000305176</ele>
        <time>2015-12-27T11:20:44.000Z</time>
      </trkpt>
      <trkpt lat="48.69647" lon="1.87104">
        <ele>171.80000305176</ele>
        <time>2015-12-27T11:20:46.000Z</time>
      </trkpt>
      <trkpt lat="48.69651" lon="1.87118">
        <ele>171.80000305176</ele>
        <time>2015-12-27T11:20:52.000Z</time>
      </trkpt>
      <trkpt lat="48.69653" lon="1.87128">
        <ele>171.80000305176</ele>
        <time>2015-12-27T11:20:55.000Z</time>
      </trkpt>
      <trkpt lat="48.69655" lon="1.87133">
        <ele>171.60000610352</ele>
        <time>2015-12-27T11:20:57.000Z</time>
      </trkpt>
      <trkpt lat="48.69659" lon="1.87145">
        <ele>171.19999694824</ele>
        <time>2015-12-27T11:21:01.000Z</time>
      </trkpt>
      <trkpt lat="48.6966" lon="1.87147">
        <ele>171.19999694824</ele>
        <time>2015-12-27T11:21:02.000Z</time>
      </trkpt>
      <trkpt lat="48.69664" lon="1.87161">
        <ele>170.80000305176</ele>
        <time>2015-12-27T11:21:09.000Z</time>
      </trkpt>
      <trkpt lat="48.69668" lon="1.87171">
        <ele>170.80000305176</ele>
        <time>2015-12-27T11:21:14.000Z</time>
      </trkpt>
      <trkpt lat="48.69669" lon="1.87173">
        <ele>170.80000305176</ele>
        <time>2015-12-27T11:21:15.000Z</time>
      </trkpt>
      <trkpt lat="48.69671" lon="1.87179">
        <ele>170.60000610352</ele>
        <time>2015-12-27T11:21:18.000Z</time>
      </trkpt>
      <trkpt lat="48.69673" lon="1.87183">
        <ele>170.60000610352</ele>
        <time>2015-12-27T11:21:20.000Z</time>
      </trkpt>
      <trkpt lat="48.69676" lon="1.87193">
        <ele>170.60000610352</ele>
        <time>2015-12-27T11:21:26.000Z</time>
      </trkpt>
      <trkpt lat="48.69678" lon="1.87201">
        <ele>170.60000610352</ele>
        <time>2015-12-27T11:21:31.000Z</time>
      </trkpt>
      <trkpt lat="48.69683" lon="1.87211">
        <ele>170.39999389648</ele>
        <time>2015-12-27T11:21:36.000Z</time>
      </trkpt>
      <trkpt lat="48.69688" lon="1.87225">
        <ele>170.39999389648</ele>
        <time>2015-12-27T11:21:42.000Z</time>
      </trkpt>
      <trkpt lat="48.69689" lon="1.87227">
        <ele>170.39999389648</ele>
        <time>2015-12-27T11:21:43.000Z</time>
      </trkpt>
      <trkpt lat="48.69693" lon="1.87239">
        <ele>170.60000610352</ele>
        <time>2015-12-27T11:21:48.000Z</time>
      </trkpt>
      <trkpt lat="48.69698" lon="1.87253">
        <ele>169.80000305176</ele>
        <time>2015-12-27T11:21:54.000Z</time>
      </trkpt>
      <trkpt lat="48.69702" lon="1.87266">
        <ele>169.39999389648</ele>
        <time>2015-12-27T11:22:00.000Z</time>
      </trkpt>
      <trkpt lat="48.69703" lon="1.87268">
        <ele>169.39999389648</ele>
        <time>2015-12-27T11:22:01.000Z</time>
      </trkpt>
      <trkpt lat="48.69705" lon="1.87277">
        <ele>169.19999694824</ele>
        <time>2015-12-27T11:22:05.000Z</time>
      </trkpt>
      <trkpt lat="48.69707" lon="1.87288">
        <ele>169</ele>
        <time>2015-12-27T11:22:10.000Z</time>
      </trkpt>
      <trkpt lat="48.69708" lon="1.8729">
        <ele>169</ele>
        <time>2015-12-27T11:22:11.000Z</time>
      </trkpt>
      <trkpt lat="48.69708" lon="1.87299">
        <ele>169.19999694824</ele>
        <time>2015-12-27T11:22:15.000Z</time>
      </trkpt>
      <trkpt lat="48.69708" lon="1.87304">
        <ele>169.19999694824</ele>
        <time>2015-12-27T11:22:17.000Z</time>
      </trkpt>
      <trkpt lat="48.69709" lon="1.87312">
        <ele>169.19999694824</ele>
        <time>2015-12-27T11:22:20.000Z</time>
      </trkpt>
      <trkpt lat="48.69711" lon="1.87323">
        <ele>169.19999694824</ele>
        <time>2015-12-27T11:22:25.000Z</time>
      </trkpt>
      <trkpt lat="48.69712" lon="1.87337">
        <ele>168.19999694824</ele>
        <time>2015-12-27T11:22:31.000Z</time>
      </trkpt>
      <trkpt lat="48.69713" lon="1.87348">
        <ele>167.39999389648</ele>
        <time>2015-12-27T11:22:36.000Z</time>
      </trkpt>
      <trkpt lat="48.69713" lon="1.87352">
        <ele>167.39999389648</ele>
        <time>2015-12-27T11:22:38.000Z</time>
      </trkpt>
      <trkpt lat="48.69714" lon="1.8736">
        <ele>167.19999694824</ele>
        <time>2015-12-27T11:22:41.000Z</time>
      </trkpt>
      <trkpt lat="48.69715" lon="1.87369">
        <ele>167.39999389648</ele>
        <time>2015-12-27T11:22:45.000Z</time>
      </trkpt>
      <trkpt lat="48.69714" lon="1.87387">
        <ele>168</ele>
        <time>2015-12-27T11:22:53.000Z</time>
      </trkpt>
      <trkpt lat="48.69714" lon="1.87394">
        <ele>168</ele>
        <time>2015-12-27T11:22:57.000Z</time>
      </trkpt>
      <trkpt lat="48.69715" lon="1.87399">
        <ele>168.19999694824</ele>
        <time>2015-12-27T11:22:59.000Z</time>
      </trkpt>
      <trkpt lat="48.69715" lon="1.87403">
        <ele>168.19999694824</ele>
        <time>2015-12-27T11:23:01.000Z</time>
      </trkpt>
      <trkpt lat="48.69717" lon="1.87415">
        <ele>167.80000305176</ele>
        <time>2015-12-27T11:23:06.000Z</time>
      </trkpt>
      <trkpt lat="48.69719" lon="1.87425">
        <ele>167.39999389648</ele>
        <time>2015-12-27T11:23:10.000Z</time>
      </trkpt>
      <trkpt lat="48.6972" lon="1.8743">
        <ele>167.19999694824</ele>
        <time>2015-12-27T11:23:12.000Z</time>
      </trkpt>
      <trkpt lat="48.69723" lon="1.87447">
        <ele>166.39999389648</ele>
        <time>2015-12-27T11:23:19.000Z</time>
      </trkpt>
      <trkpt lat="48.69725" lon="1.87456">
        <ele>165.80000305176</ele>
        <time>2015-12-27T11:23:23.000Z</time>
      </trkpt>
      <trkpt lat="48.69724" lon="1.8746">
        <ele>165.80000305176</ele>
        <time>2015-12-27T11:23:25.000Z</time>
      </trkpt>
      <trkpt lat="48.69726" lon="1.87469">
        <ele>165.19999694824</ele>
        <time>2015-12-27T11:23:29.000Z</time>
      </trkpt>
      <trkpt lat="48.69726" lon="1.87472">
        <ele>165</ele>
        <time>2015-12-27T11:23:30.000Z</time>
      </trkpt>
      <trkpt lat="48.69729" lon="1.87481">
        <ele>164.19999694824</ele>
        <time>2015-12-27T11:23:34.000Z</time>
      </trkpt>
      <trkpt lat="48.69731" lon="1.87487">
        <ele>163.60000610352</ele>
        <time>2015-12-27T11:23:37.000Z</time>
      </trkpt>
      <trkpt lat="48.69733" lon="1.87495">
        <ele>163.80000305176</ele>
        <time>2015-12-27T11:23:41.000Z</time>
      </trkpt>
      <trkpt lat="48.69734" lon="1.87498">
        <ele>164</ele>
        <time>2015-12-27T11:23:43.000Z</time>
      </trkpt>
      <trkpt lat="48.69736" lon="1.87505">
        <ele>164.19999694824</ele>
        <time>2015-12-27T11:23:47.000Z</time>
      </trkpt>
      <trkpt lat="48.69737" lon="1.87507">
        <ele>164.39999389648</ele>
        <time>2015-12-27T11:23:48.000Z</time>
      </trkpt>
      <trkpt lat="48.69743" lon="1.87522">
        <ele>165</ele>
        <time>2015-12-27T11:23:55.000Z</time>
      </trkpt>
      <trkpt lat="48.69746" lon="1.8753">
        <ele>165.39999389648</ele>
        <time>2015-12-27T11:23:59.000Z</time>
      </trkpt>
      <trkpt lat="48.69748" lon="1.87534">
        <ele>165.60000610352</ele>
        <time>2015-12-27T11:24:01.000Z</time>
      </trkpt>
      <trkpt lat="48.69754" lon="1.87547">
        <ele>166</ele>
        <time>2015-12-27T11:24:07.000Z</time>
      </trkpt>
      <trkpt lat="48.6976" lon="1.87557">
        <ele>166</ele>
        <time>2015-12-27T11:24:12.000Z</time>
      </trkpt>
      <trkpt lat="48.6977" lon="1.87571">
        <ele>165.80000305176</ele>
        <time>2015-12-27T11:24:21.000Z</time>
      </trkpt>
      <trkpt lat="48.69779" lon="1.87585">
        <ele>165</ele>
        <time>2015-12-27T11:24:30.000Z</time>
      </trkpt>
      <trkpt lat="48.69787" lon="1.87599">
        <ele>164.60000610352</ele>
        <time>2015-12-27T11:24:38.000Z</time>
      </trkpt>
      <trkpt lat="48.69794" lon="1.8761">
        <ele>164.39999389648</ele>
        <time>2015-12-27T11:24:44.000Z</time>
      </trkpt>
      <trkpt lat="48.69797" lon="1.87617">
        <ele>164.39999389648</ele>
        <time>2015-12-27T11:24:48.000Z</time>
      </trkpt>
      <trkpt lat="48.69799" lon="1.87621">
        <ele>164.39999389648</ele>
        <time>2015-12-27T11:24:50.000Z</time>
      </trkpt>
      <trkpt lat="48.69802" lon="1.87636">
        <ele>165.19999694824</ele>
        <time>2015-12-27T11:24:56.000Z</time>
      </trkpt>
      <trkpt lat="48.69802" lon="1.87651">
        <ele>166.80000305176</ele>
        <time>2015-12-27T11:25:03.000Z</time>
      </trkpt>
      <trkpt lat="48.69805" lon="1.87664">
        <ele>166.60000610352</ele>
        <time>2015-12-27T11:25:09.000Z</time>
      </trkpt>
      <trkpt lat="48.69806" lon="1.87666">
        <ele>166.19999694824</ele>
        <time>2015-12-27T11:25:10.000Z</time>
      </trkpt>
      <trkpt lat="48.6981" lon="1.87683">
        <ele>165.39999389648</ele>
        <time>2015-12-27T11:25:16.000Z</time>
      </trkpt>
      <trkpt lat="48.69814" lon="1.87697">
        <ele>164.39999389648</ele>
        <time>2015-12-27T11:25:22.000Z</time>
      </trkpt>
      <trkpt lat="48.69819" lon="1.87717">
        <ele>163.19999694824</ele>
        <time>2015-12-27T11:25:30.000Z</time>
      </trkpt>
      <trkpt lat="48.69822" lon="1.87734">
        <ele>162.60000610352</ele>
        <time>2015-12-27T11:25:36.000Z</time>
      </trkpt>
      <trkpt lat="48.69823" lon="1.87739">
        <ele>162.39999389648</ele>
        <time>2015-12-27T11:25:37.000Z</time>
      </trkpt>
      <trkpt lat="48.69826" lon="1.87751">
        <ele>161.60000610352</ele>
        <time>2015-12-27T11:25:41.000Z</time>
      </trkpt>
      <trkpt lat="48.69828" lon="1.87766">
        <ele>161</ele>
        <time>2015-12-27T11:25:48.000Z</time>
      </trkpt>
      <trkpt lat="48.6983" lon="1.87782">
        <ele>160.60000610352</ele>
        <time>2015-12-27T11:25:55.000Z</time>
      </trkpt>
      <trkpt lat="48.69832" lon="1.87794">
        <ele>160.19999694824</ele>
        <time>2015-12-27T11:26:01.000Z</time>
      </trkpt>
      <trkpt lat="48.69836" lon="1.87811">
        <ele>159</ele>
        <time>2015-12-27T11:26:09.000Z</time>
      </trkpt>
      <trkpt lat="48.69838" lon="1.87826">
        <ele>157.80000305176</ele>
        <time>2015-12-27T11:26:16.000Z</time>
      </trkpt>
      <trkpt lat="48.69839" lon="1.87838">
        <ele>157.39999389648</ele>
        <time>2015-12-27T11:26:22.000Z</time>
      </trkpt>
      <trkpt lat="48.6984" lon="1.87852">
        <ele>156.80000305176</ele>
        <time>2015-12-27T11:26:27.000Z</time>
      </trkpt>
      <trkpt lat="48.69842" lon="1.8786">
        <ele>156.39999389648</ele>
        <time>2015-12-27T11:26:31.000Z</time>
      </trkpt>
      <trkpt lat="48.69842" lon="1.87864">
        <ele>156.19999694824</ele>
        <time>2015-12-27T11:26:33.000Z</time>
      </trkpt>
      <trkpt lat="48.69844" lon="1.87881">
        <ele>155.39999389648</ele>
        <time>2015-12-27T11:26:40.000Z</time>
      </trkpt>
      <trkpt lat="48.69846" lon="1.87895">
        <ele>154.60000610352</ele>
        <time>2015-12-27T11:26:46.000Z</time>
      </trkpt>
      <trkpt lat="48.69848" lon="1.87915">
        <ele>154</ele>
        <time>2015-12-27T11:26:54.000Z</time>
      </trkpt>
      <trkpt lat="48.6985" lon="1.87931">
        <ele>154</ele>
        <time>2015-12-27T11:27:01.000Z</time>
      </trkpt>
      <trkpt lat="48.69852" lon="1.87947">
        <ele>154.19999694824</ele>
        <time>2015-12-27T11:27:08.000Z</time>
      </trkpt>
      <trkpt lat="48.69855" lon="1.87961">
        <ele>154.19999694824</ele>
        <time>2015-12-27T11:27:14.000Z</time>
      </trkpt>
      <trkpt lat="48.69857" lon="1.87963">
        <ele>154</ele>
        <time>2015-12-27T11:27:16.000Z</time>
      </trkpt>
      <trkpt lat="48.69859" lon="1.87966">
        <ele>153.80000305176</ele>
        <time>2015-12-27T11:27:19.000Z</time>
      </trkpt>
      <trkpt lat="48.69866" lon="1.87969">
        <ele>153.19999694824</ele>
        <time>2015-12-27T11:27:24.000Z</time>
      </trkpt>
      <trkpt lat="48.69875" lon="1.87974">
        <ele>152.60000610352</ele>
        <time>2015-12-27T11:27:30.000Z</time>
      </trkpt>
      <trkpt lat="48.69877" lon="1.87975">
        <ele>152.39999389648</ele>
        <time>2015-12-27T11:27:31.000Z</time>
      </trkpt>
      <trkpt lat="48.69885" lon="1.87989">
        <ele>152</ele>
        <time>2015-12-27T11:27:39.000Z</time>
      </trkpt>
      <trkpt lat="48.69888" lon="1.88003">
        <ele>152.19999694824</ele>
        <time>2015-12-27T11:27:46.000Z</time>
      </trkpt>
      <trkpt lat="48.69889" lon="1.88004">
        <ele>152</ele>
        <time>2015-12-27T11:27:47.000Z</time>
      </trkpt>
      <trkpt lat="48.69897" lon="1.88014">
        <ele>151.80000305176</ele>
        <time>2015-12-27T11:27:53.000Z</time>
      </trkpt>
      <trkpt lat="48.69904" lon="1.88031">
        <ele>151.60000610352</ele>
        <time>2015-12-27T11:28:01.000Z</time>
      </trkpt>
      <trkpt lat="48.69911" lon="1.8805">
        <ele>151.80000305176</ele>
        <time>2015-12-27T11:28:10.000Z</time>
      </trkpt>
      <trkpt lat="48.69917" lon="1.88066">
        <ele>152.39999389648</ele>
        <time>2015-12-27T11:28:18.000Z</time>
      </trkpt>
      <trkpt lat="48.69927" lon="1.88081">
        <ele>152.39999389648</ele>
        <time>2015-12-27T11:28:27.000Z</time>
      </trkpt>
      <trkpt lat="48.6994" lon="1.88095">
        <ele>151.60000610352</ele>
        <time>2015-12-27T11:28:37.000Z</time>
      </trkpt>
      <trkpt lat="48.69952" lon="1.88106">
        <ele>151.19999694824</ele>
        <time>2015-12-27T11:28:46.000Z</time>
      </trkpt>
      <trkpt lat="48.69965" lon="1.88118">
        <ele>150.60000610352</ele>
        <time>2015-12-27T11:28:56.000Z</time>
      </trkpt>
      <trkpt lat="48.69979" lon="1.88131">
        <ele>150</ele>
        <time>2015-12-27T11:29:07.000Z</time>
      </trkpt>
      <trkpt lat="48.69995" lon="1.88145">
        <ele>149.19999694824</ele>
        <time>2015-12-27T11:29:19.000Z</time>
      </trkpt>
      <trkpt lat="48.70002" lon="1.88151">
        <ele>148.80000305176</ele>
        <time>2015-12-27T11:29:25.000Z</time>
      </trkpt>
      <trkpt lat="48.70006" lon="1.88159">
        <ele>149</ele>
        <time>2015-12-27T11:29:30.000Z</time>
      </trkpt>
      <trkpt lat="48.70007" lon="1.88165">
        <ele>149</ele>
        <time>2015-12-27T11:29:33.000Z</time>
      </trkpt>
      <trkpt lat="48.70008" lon="1.88167">
        <ele>149</ele>
        <time>2015-12-27T11:29:34.000Z</time>
      </trkpt>
      <trkpt lat="48.70012" lon="1.88183">
        <ele>149</ele>
        <time>2015-12-27T11:29:40.000Z</time>
      </trkpt>
      <trkpt lat="48.70017" lon="1.88199">
        <ele>149</ele>
        <time>2015-12-27T11:29:47.000Z</time>
      </trkpt>
      <trkpt lat="48.7002" lon="1.88213">
        <ele>149</ele>
        <time>2015-12-27T11:29:54.000Z</time>
      </trkpt>
      <trkpt lat="48.70024" lon="1.88225">
        <ele>149.39999389648</ele>
        <time>2015-12-27T11:30:01.000Z</time>
      </trkpt>
      <trkpt lat="48.70026" lon="1.88236">
        <ele>149.60000610352</ele>
        <time>2015-12-27T11:30:07.000Z</time>
      </trkpt>
      <trkpt lat="48.70029" lon="1.8825">
        <ele>149.80000305176</ele>
        <time>2015-12-27T11:30:15.000Z</time>
      </trkpt>
      <trkpt lat="48.70032" lon="1.88263">
        <ele>149.80000305176</ele>
        <time>2015-12-27T11:30:22.000Z</time>
      </trkpt>
      <trkpt lat="48.70034" lon="1.88273">
        <ele>149.80000305176</ele>
        <time>2015-12-27T11:30:28.000Z</time>
      </trkpt>
      <trkpt lat="48.70036" lon="1.88282">
        <ele>149.80000305176</ele>
        <time>2015-12-27T11:30:33.000Z</time>
      </trkpt>
      <trkpt lat="48.70038" lon="1.88289">
        <ele>149.80000305176</ele>
        <time>2015-12-27T11:30:37.000Z</time>
      </trkpt>
      <trkpt lat="48.7004" lon="1.88297">
        <ele>149.80000305176</ele>
        <time>2015-12-27T11:30:40.000Z</time>
      </trkpt>
      <trkpt lat="48.70043" lon="1.88306">
        <ele>149.60000610352</ele>
        <time>2015-12-27T11:30:45.000Z</time>
      </trkpt>
      <trkpt lat="48.70049" lon="1.88323">
        <ele>149.60000610352</ele>
        <time>2015-12-27T11:30:53.000Z</time>
      </trkpt>
      <trkpt lat="48.70055" lon="1.88341">
        <ele>150</ele>
        <time>2015-12-27T11:31:02.000Z</time>
      </trkpt>
      <trkpt lat="48.70059" lon="1.88357">
        <ele>150.39999389648</ele>
        <time>2015-12-27T11:31:09.000Z</time>
      </trkpt>
      <trkpt lat="48.70063" lon="1.88368">
        <ele>150.39999389648</ele>
        <time>2015-12-27T11:31:15.000Z</time>
      </trkpt>
      <trkpt lat="48.7007" lon="1.88383">
        <ele>150.39999389648</ele>
        <time>2015-12-27T11:31:23.000Z</time>
      </trkpt>
      <trkpt lat="48.7008" lon="1.8841">
        <ele>150.39999389648</ele>
        <time>2015-12-27T11:31:36.000Z</time>
      </trkpt>
      <trkpt lat="48.70086" lon="1.88426">
        <ele>151</ele>
        <time>2015-12-27T11:31:44.000Z</time>
      </trkpt>
      <trkpt lat="48.70092" lon="1.88442">
        <ele>151.39999389648</ele>
        <time>2015-12-27T11:31:52.000Z</time>
      </trkpt>
      <trkpt lat="48.70094" lon="1.88446">
        <ele>151.60000610352</ele>
        <time>2015-12-27T11:31:57.000Z</time>
      </trkpt>
      <trkpt lat="48.70108" lon="1.88447">
        <ele>151.39999389648</ele>
        <time>2015-12-27T11:32:19.000Z</time>
      </trkpt>
      <trkpt lat="48.70113" lon="1.88445">
        <ele>151.19999694824</ele>
        <time>2015-12-27T11:32:22.000Z</time>
      </trkpt>
      <trkpt lat="48.70114" lon="1.88445">
        <ele>151.19999694824</ele>
        <time>2015-12-27T11:32:23.000Z</time>
      </trkpt>
      <trkpt lat="48.70122" lon="1.88443">
        <ele>150.80000305176</ele>
        <time>2015-12-27T11:32:29.000Z</time>
      </trkpt>
      <trkpt lat="48.70125" lon="1.88442">
        <ele>150.80000305176</ele>
        <time>2015-12-27T11:32:31.000Z</time>
      </trkpt>
      <trkpt lat="48.70127" lon="1.88443">
        <ele>150.80000305176</ele>
        <time>2015-12-27T11:32:33.000Z</time>
      </trkpt>
      <trkpt lat="48.70133" lon="1.88445">
        <ele>150.60000610352</ele>
        <time>2015-12-27T11:32:37.000Z</time>
      </trkpt>
      <trkpt lat="48.70139" lon="1.88447">
        <ele>150.60000610352</ele>
        <time>2015-12-27T11:32:42.000Z</time>
      </trkpt>
      <trkpt lat="48.70152" lon="1.88453">
        <ele>150.60000610352</ele>
        <time>2015-12-27T11:32:52.000Z</time>
      </trkpt>
      <trkpt lat="48.7017" lon="1.88462">
        <ele>150.60000610352</ele>
        <time>2015-12-27T11:33:04.000Z</time>
      </trkpt>
      <trkpt lat="48.70182" lon="1.88471">
        <ele>150.60000610352</ele>
        <time>2015-12-27T11:33:13.000Z</time>
      </trkpt>
      <trkpt lat="48.70192" lon="1.88476">
        <ele>150.60000610352</ele>
        <time>2015-12-27T11:33:20.000Z</time>
      </trkpt>
      <trkpt lat="48.70202" lon="1.88482">
        <ele>150.60000610352</ele>
        <time>2015-12-27T11:33:27.000Z</time>
      </trkpt>
      <trkpt lat="48.70208" lon="1.88486">
        <ele>150.60000610352</ele>
        <time>2015-12-27T11:33:32.000Z</time>
      </trkpt>
      <trkpt lat="48.7021" lon="1.88487">
        <ele>150.60000610352</ele>
        <time>2015-12-27T11:33:34.000Z</time>
      </trkpt>
      <trkpt lat="48.70217" lon="1.88491">
        <ele>150.60000610352</ele>
        <time>2015-12-27T11:33:39.000Z</time>
      </trkpt>
      <trkpt lat="48.70233" lon="1.88499">
        <ele>150.39999389648</ele>
        <time>2015-12-27T11:33:50.000Z</time>
      </trkpt>
      <trkpt lat="48.70238" lon="1.88506">
        <ele>150.39999389648</ele>
        <time>2015-12-27T11:33:55.000Z</time>
      </trkpt>
      <trkpt lat="48.70238" lon="1.88508">
        <ele>150.39999389648</ele>
        <time>2015-12-27T11:33:56.000Z</time>
      </trkpt>
      <trkpt lat="48.70242" lon="1.88518">
        <ele>150.39999389648</ele>
        <time>2015-12-27T11:34:02.000Z</time>
      </trkpt>
      <trkpt lat="48.70243" lon="1.88518">
        <ele>150.39999389648</ele>
        <time>2015-12-27T11:34:03.000Z</time>
      </trkpt>
      <trkpt lat="48.70245" lon="1.8852">
        <ele>150.19999694824</ele>
        <time>2015-12-27T11:34:06.000Z</time>
      </trkpt>
      <trkpt lat="48.70254" lon="1.88525">
        <ele>150.19999694824</ele>
        <time>2015-12-27T11:34:33.000Z</time>
      </trkpt>
      <trkpt lat="48.70255" lon="1.88526">
        <ele>150.19999694824</ele>
        <time>2015-12-27T11:34:34.000Z</time>
      </trkpt>
      <trkpt lat="48.7027" lon="1.88529">
        <ele>150</ele>
        <time>2015-12-27T11:34:44.000Z</time>
      </trkpt>
      <trkpt lat="48.70287" lon="1.8853">
        <ele>150.19999694824</ele>
        <time>2015-12-27T11:34:55.000Z</time>
      </trkpt>
      <trkpt lat="48.70307" lon="1.8853">
        <ele>150.39999389648</ele>
        <time>2015-12-27T11:35:08.000Z</time>
      </trkpt>
      <trkpt lat="48.70317" lon="1.88535">
        <ele>150.39999389648</ele>
        <time>2015-12-27T11:35:15.000Z</time>
      </trkpt>
      <trkpt lat="48.70321" lon="1.88536">
        <ele>150.39999389648</ele>
        <time>2015-12-27T11:35:18.000Z</time>
      </trkpt>
      <trkpt lat="48.70327" lon="1.88536">
        <ele>150.19999694824</ele>
        <time>2015-12-27T11:35:21.000Z</time>
      </trkpt>
      <trkpt lat="48.7033" lon="1.88536">
        <ele>150</ele>
        <time>2015-12-27T11:35:23.000Z</time>
      </trkpt>
      <trkpt lat="48.70339" lon="1.88537">
        <ele>149.80000305176</ele>
        <time>2015-12-27T11:35:28.000Z</time>
      </trkpt>
      <trkpt lat="48.70352" lon="1.88538">
        <ele>149.39999389648</ele>
        <time>2015-12-27T11:35:36.000Z</time>
      </trkpt>
      <trkpt lat="48.70358" lon="1.88538">
        <ele>149.39999389648</ele>
        <time>2015-12-27T11:35:40.000Z</time>
      </trkpt>
      <trkpt lat="48.70374" lon="1.88538">
        <ele>149.60000610352</ele>
        <time>2015-12-27T11:35:50.000Z</time>
      </trkpt>
      <trkpt lat="48.70384" lon="1.88538">
        <ele>149.60000610352</ele>
        <time>2015-12-27T11:35:56.000Z</time>
      </trkpt>
      <trkpt lat="48.70397" lon="1.88537">
        <ele>149.80000305176</ele>
        <time>2015-12-27T11:36:04.000Z</time>
      </trkpt>
      <trkpt lat="48.70409" lon="1.88537">
        <ele>150.19999694824</ele>
        <time>2015-12-27T11:36:13.000Z</time>
      </trkpt>
      <trkpt lat="48.70411" lon="1.88537">
        <ele>150.39999389648</ele>
        <time>2015-12-27T11:36:16.000Z</time>
      </trkpt>
      <trkpt lat="48.70412" lon="1.88535">
        <ele>150.39999389648</ele>
        <time>2015-12-27T11:36:19.000Z</time>
      </trkpt>
      <trkpt lat="48.70401" lon="1.88536">
        <ele>149.80000305176</ele>
        <time>2015-12-27T11:36:45.000Z</time>
      </trkpt>
      <trkpt lat="48.70396" lon="1.88536">
        <ele>149.80000305176</ele>
        <time>2015-12-27T11:36:47.000Z</time>
      </trkpt>
      <trkpt lat="48.70384" lon="1.88537">
        <ele>149.60000610352</ele>
        <time>2015-12-27T11:36:53.000Z</time>
      </trkpt>
      <trkpt lat="48.70378" lon="1.88537">
        <ele>149.60000610352</ele>
        <time>2015-12-27T11:36:57.000Z</time>
      </trkpt>
      <trkpt lat="48.70376" lon="1.88536">
        <ele>149.60000610352</ele>
        <time>2015-12-27T11:36:58.000Z</time>
      </trkpt>
      <trkpt lat="48.70365" lon="1.88537">
        <ele>149.39999389648</ele>
        <time>2015-12-27T11:37:05.000Z</time>
      </trkpt>
      <trkpt lat="48.70354" lon="1.88537">
        <ele>149.39999389648</ele>
        <time>2015-12-27T11:37:12.000Z</time>
      </trkpt>
      <trkpt lat="48.70349" lon="1.88538">
        <ele>149.39999389648</ele>
        <time>2015-12-27T11:37:16.000Z</time>
      </trkpt>
      <trkpt lat="48.70338" lon="1.88537">
        <ele>149.80000305176</ele>
        <time>2015-12-27T11:37:24.000Z</time>
      </trkpt>
      <trkpt lat="48.7033" lon="1.88537">
        <ele>150.19999694824</ele>
        <time>2015-12-27T11:37:29.000Z</time>
      </trkpt>
      <trkpt lat="48.7032" lon="1.88537">
        <ele>150.39999389648</ele>
        <time>2015-12-27T11:37:36.000Z</time>
      </trkpt>
      <trkpt lat="48.70314" lon="1.88535">
        <ele>150.60000610352</ele>
        <time>2015-12-27T11:37:40.000Z</time>
      </trkpt>
      <trkpt lat="48.7031" lon="1.88532">
        <ele>150.39999389648</ele>
        <time>2015-12-27T11:37:43.000Z</time>
      </trkpt>
      <trkpt lat="48.70308" lon="1.88531">
        <ele>150.39999389648</ele>
        <time>2015-12-27T11:37:44.000Z</time>
      </trkpt>
      <trkpt lat="48.70305" lon="1.8853">
        <ele>150.39999389648</ele>
        <time>2015-12-27T11:37:46.000Z</time>
      </trkpt>
      <trkpt lat="48.70301" lon="1.88529">
        <ele>150.39999389648</ele>
        <time>2015-12-27T11:37:49.000Z</time>
      </trkpt>
      <trkpt lat="48.70299" lon="1.88529">
        <ele>150.39999389648</ele>
        <time>2015-12-27T11:37:50.000Z</time>
      </trkpt>
      <trkpt lat="48.70289" lon="1.88529">
        <ele>150.19999694824</ele>
        <time>2015-12-27T11:37:56.000Z</time>
      </trkpt>
      <trkpt lat="48.70278" lon="1.8853">
        <ele>150</ele>
        <time>2015-12-27T11:38:03.000Z</time>
      </trkpt>
      <trkpt lat="48.70278" lon="1.88527">
        <ele>150</ele>
        <time>2015-12-27T11:38:04.000Z</time>
      </trkpt>
      <trkpt lat="48.70274" lon="1.88528">
        <ele>150</ele>
        <time>2015-12-27T11:38:06.000Z</time>
      </trkpt>
      <trkpt lat="48.70267" lon="1.88528">
        <ele>150</ele>
        <time>2015-12-27T11:38:10.000Z</time>
      </trkpt>
      <trkpt lat="48.70264" lon="1.88527">
        <ele>150</ele>
        <time>2015-12-27T11:38:12.000Z</time>
      </trkpt>
      <trkpt lat="48.70255" lon="1.88526">
        <ele>150.19999694824</ele>
        <time>2015-12-27T11:38:19.000Z</time>
      </trkpt>
      <trkpt lat="48.70254" lon="1.88528">
        <ele>150.19999694824</ele>
        <time>2015-12-27T11:38:20.000Z</time>
      </trkpt>
      <trkpt lat="48.70249" lon="1.88539">
        <ele>150.19999694824</ele>
        <time>2015-12-27T11:38:26.000Z</time>
      </trkpt>
      <trkpt lat="48.70249" lon="1.88551">
        <ele>150.19999694824</ele>
        <time>2015-12-27T11:38:33.000Z</time>
      </trkpt>
      <trkpt lat="48.70249" lon="1.88559">
        <ele>150.39999389648</ele>
        <time>2015-12-27T11:38:36.000Z</time>
      </trkpt>
      <trkpt lat="48.70249" lon="1.88562">
        <ele>150.39999389648</ele>
        <time>2015-12-27T11:38:38.000Z</time>
      </trkpt>
      <trkpt lat="48.70248" lon="1.88565">
        <ele>150.39999389648</ele>
        <time>2015-12-27T11:38:39.000Z</time>
      </trkpt>
      <trkpt lat="48.70248" lon="1.88574">
        <ele>150.60000610352</ele>
        <time>2015-12-27T11:38:45.000Z</time>
      </trkpt>
      <trkpt lat="48.70249" lon="1.88594">
        <ele>150.19999694824</ele>
        <time>2015-12-27T11:39:03.000Z</time>
      </trkpt>
      <trkpt lat="48.70248" lon="1.88597">
        <ele>150.19999694824</ele>
        <time>2015-12-27T11:39:05.000Z</time>
      </trkpt>
      <trkpt lat="48.70247" lon="1.88603">
        <ele>150.19999694824</ele>
        <time>2015-12-27T11:39:08.000Z</time>
      </trkpt>
      <trkpt lat="48.70246" lon="1.88613">
        <ele>150.19999694824</ele>
        <time>2015-12-27T11:39:13.000Z</time>
      </trkpt>
      <trkpt lat="48.70243" lon="1.88631">
        <ele>150</ele>
        <time>2015-12-27T11:39:21.000Z</time>
      </trkpt>
      <trkpt lat="48.70242" lon="1.88643">
        <ele>150</ele>
        <time>2015-12-27T11:39:26.000Z</time>
      </trkpt>
      <trkpt lat="48.70238" lon="1.88663">
        <ele>150</ele>
        <time>2015-12-27T11:39:35.000Z</time>
      </trkpt>
      <trkpt lat="48.70235" lon="1.8868">
        <ele>150</ele>
        <time>2015-12-27T11:39:43.000Z</time>
      </trkpt>
      <trkpt lat="48.70232" lon="1.88699">
        <ele>149.80000305176</ele>
        <time>2015-12-27T11:39:51.000Z</time>
      </trkpt>
      <trkpt lat="48.70228" lon="1.88718">
        <ele>150</ele>
        <time>2015-12-27T11:40:00.000Z</time>
      </trkpt>
      <trkpt lat="48.70228" lon="1.88728">
        <ele>150</ele>
        <time>2015-12-27T11:40:05.000Z</time>
      </trkpt>
      <trkpt lat="48.70228" lon="1.88732">
        <ele>150</ele>
        <time>2015-12-27T11:40:07.000Z</time>
      </trkpt>
      <trkpt lat="48.70228" lon="1.88737">
        <ele>150</ele>
        <time>2015-12-27T11:40:09.000Z</time>
      </trkpt>
      <trkpt lat="48.70228" lon="1.88749">
        <ele>149.60000610352</ele>
        <time>2015-12-27T11:40:14.000Z</time>
      </trkpt>
      <trkpt lat="48.70228" lon="1.88769">
        <ele>149</ele>
        <time>2015-12-27T11:40:23.000Z</time>
      </trkpt>
      <trkpt lat="48.70228" lon="1.88787">
        <ele>148.39999389648</ele>
        <time>2015-12-27T11:40:31.000Z</time>
      </trkpt>
      <trkpt lat="48.70229" lon="1.888">
        <ele>148</ele>
        <time>2015-12-27T11:40:37.000Z</time>
      </trkpt>
      <trkpt lat="48.7023" lon="1.88814">
        <ele>147.60000610352</ele>
        <time>2015-12-27T11:40:44.000Z</time>
      </trkpt>
      <trkpt lat="48.70232" lon="1.88833">
        <ele>147.19999694824</ele>
        <time>2015-12-27T11:40:52.000Z</time>
      </trkpt>
      <trkpt lat="48.70235" lon="1.88854">
        <ele>146.80000305176</ele>
        <time>2015-12-27T11:41:01.000Z</time>
      </trkpt>
      <trkpt lat="48.70236" lon="1.88868">
        <ele>146.60000610352</ele>
        <time>2015-12-27T11:41:07.000Z</time>
      </trkpt>
      <trkpt lat="48.70237" lon="1.88884">
        <ele>146</ele>
        <time>2015-12-27T11:41:14.000Z</time>
      </trkpt>
      <trkpt lat="48.70238" lon="1.88906">
        <ele>145.19999694824</ele>
        <time>2015-12-27T11:41:23.000Z</time>
      </trkpt>
      <trkpt lat="48.70239" lon="1.88928">
        <ele>144.80000305176</ele>
        <time>2015-12-27T11:41:33.000Z</time>
      </trkpt>
      <trkpt lat="48.70241" lon="1.88947">
        <ele>144.60000610352</ele>
        <time>2015-12-27T11:41:41.000Z</time>
      </trkpt>
      <trkpt lat="48.70241" lon="1.88966">
        <ele>144.39999389648</ele>
        <time>2015-12-27T11:41:49.000Z</time>
      </trkpt>
      <trkpt lat="48.70239" lon="1.8898">
        <ele>144.19999694824</ele>
        <time>2015-12-27T11:41:56.000Z</time>
      </trkpt>
      <trkpt lat="48.70238" lon="1.88985">
        <ele>144.19999694824</ele>
        <time>2015-12-27T11:42:02.000Z</time>
      </trkpt>
      <trkpt lat="48.70242" lon="1.88978">
        <ele>144.19999694824</ele>
        <time>2015-12-27T11:42:06.000Z</time>
      </trkpt>
      <trkpt lat="48.70243" lon="1.88976">
        <ele>144.19999694824</ele>
        <time>2015-12-27T11:42:07.000Z</time>
      </trkpt>
      <trkpt lat="48.70247" lon="1.88977">
        <ele>144</ele>
        <time>2015-12-27T11:42:11.000Z</time>
      </trkpt>
      <trkpt lat="48.70254" lon="1.88986">
        <ele>143.60000610352</ele>
        <time>2015-12-27T11:42:18.000Z</time>
      </trkpt>
      <trkpt lat="48.70256" lon="1.88989">
        <ele>143.60000610352</ele>
        <time>2015-12-27T11:42:20.000Z</time>
      </trkpt>
      <trkpt lat="48.70258" lon="1.88991">
        <ele>143.39999389648</ele>
        <time>2015-12-27T11:42:23.000Z</time>
      </trkpt>
      <trkpt lat="48.7026" lon="1.88993">
        <ele>143.39999389648</ele>
        <time>2015-12-27T11:42:24.000Z</time>
      </trkpt>
      <trkpt lat="48.70264" lon="1.88996">
        <ele>143.19999694824</ele>
        <time>2015-12-27T11:42:29.000Z</time>
      </trkpt>
      <trkpt lat="48.70264" lon="1.88996">
        <ele>143.19999694824</ele>
        <time>2015-12-27T11:42:30.000Z</time>
      </trkpt>
      <trkpt lat="48.70264" lon="1.88996">
        <ele>143.19999694824</ele>
        <time>2015-12-27T11:42:31.000Z</time>
      </trkpt>
      <trkpt lat="48.70256" lon="1.88988">
        <ele>143.60000610352</ele>
        <time>2015-12-27T11:47:38.000Z</time>
      </trkpt>
      <trkpt lat="48.70251" lon="1.88987">
        <ele>143.80000305176</ele>
        <time>2015-12-27T11:47:41.000Z</time>
      </trkpt>
      <trkpt lat="48.70244" lon="1.88981">
        <ele>144</ele>
        <time>2015-12-27T11:47:47.000Z</time>
      </trkpt>
      <trkpt lat="48.70239" lon="1.88976">
        <ele>144.19999694824</ele>
        <time>2015-12-27T11:47:51.000Z</time>
      </trkpt>
      <trkpt lat="48.70237" lon="1.88973">
        <ele>144.39999389648</ele>
        <time>2015-12-27T11:47:54.000Z</time>
      </trkpt>
      <trkpt lat="48.70237" lon="1.88973">
        <ele>144.39999389648</ele>
        <time>2015-12-27T11:47:56.000Z</time>
      </trkpt>
      <trkpt lat="48.7023" lon="1.88997">
        <ele>144.39999389648</ele>
        <time>2015-12-27T11:56:34.000Z</time>
      </trkpt>
      <trkpt lat="48.7023" lon="1.88999">
        <ele>144.39999389648</ele>
        <time>2015-12-27T11:56:35.000Z</time>
      </trkpt>
      <trkpt lat="48.70227" lon="1.89012">
        <ele>144.19999694824</ele>
        <time>2015-12-27T11:56:41.000Z</time>
      </trkpt>
      <trkpt lat="48.70225" lon="1.89024">
        <ele>144.19999694824</ele>
        <time>2015-12-27T11:56:47.000Z</time>
      </trkpt>
      <trkpt lat="48.70221" lon="1.89039">
        <ele>144</ele>
        <time>2015-12-27T11:56:54.000Z</time>
      </trkpt>
      <trkpt lat="48.70217" lon="1.89051">
        <ele>143.80000305176</ele>
        <time>2015-12-27T11:57:00.000Z</time>
      </trkpt>
      <trkpt lat="48.70215" lon="1.89068">
        <ele>143.39999389648</ele>
        <time>2015-12-27T11:57:08.000Z</time>
      </trkpt>
      <trkpt lat="48.70213" lon="1.89072">
        <ele>143.39999389648</ele>
        <time>2015-12-27T11:57:10.000Z</time>
      </trkpt>
      <trkpt lat="48.70212" lon="1.89078">
        <ele>143.39999389648</ele>
        <time>2015-12-27T11:57:13.000Z</time>
      </trkpt>
      <trkpt lat="48.70207" lon="1.89093">
        <ele>143.60000610352</ele>
        <time>2015-12-27T11:57:20.000Z</time>
      </trkpt>
      <trkpt lat="48.70203" lon="1.89111">
        <ele>143.60000610352</ele>
        <time>2015-12-27T11:57:28.000Z</time>
      </trkpt>
      <trkpt lat="48.702" lon="1.89128">
        <ele>143.60000610352</ele>
        <time>2015-12-27T11:57:36.000Z</time>
      </trkpt>
      <trkpt lat="48.70196" lon="1.89144">
        <ele>143.80000305176</ele>
        <time>2015-12-27T11:57:44.000Z</time>
      </trkpt>
      <trkpt lat="48.70192" lon="1.89163">
        <ele>143.80000305176</ele>
        <time>2015-12-27T11:57:53.000Z</time>
      </trkpt>
      <trkpt lat="48.70188" lon="1.89179">
        <ele>143.60000610352</ele>
        <time>2015-12-27T11:58:01.000Z</time>
      </trkpt>
      <trkpt lat="48.70188" lon="1.89192">
        <ele>143.60000610352</ele>
        <time>2015-12-27T11:58:08.000Z</time>
      </trkpt>
      <trkpt lat="48.70189" lon="1.89194">
        <ele>143.60000610352</ele>
        <time>2015-12-27T11:58:09.000Z</time>
      </trkpt>
      <trkpt lat="48.70195" lon="1.89198">
        <ele>143.19999694824</ele>
        <time>2015-12-27T11:58:13.000Z</time>
      </trkpt>
      <trkpt lat="48.70209" lon="1.8921">
        <ele>142.80000305176</ele>
        <time>2015-12-27T11:58:23.000Z</time>
      </trkpt>
      <trkpt lat="48.70217" lon="1.89217">
        <ele>142.60000610352</ele>
        <time>2015-12-27T11:58:29.000Z</time>
      </trkpt>
      <trkpt lat="48.70228" lon="1.89229">
        <ele>142.19999694824</ele>
        <time>2015-12-27T11:58:37.000Z</time>
      </trkpt>
      <trkpt lat="48.70237" lon="1.89237">
        <ele>141.80000305176</ele>
        <time>2015-12-27T11:58:44.000Z</time>
      </trkpt>
      <trkpt lat="48.70242" lon="1.89243">
        <ele>141.80000305176</ele>
        <time>2015-12-27T11:58:49.000Z</time>
      </trkpt>
      <trkpt lat="48.70246" lon="1.89249">
        <ele>141.60000610352</ele>
        <time>2015-12-27T11:58:53.000Z</time>
      </trkpt>
      <trkpt lat="48.70247" lon="1.89253">
        <ele>141.80000305176</ele>
        <time>2015-12-27T11:58:55.000Z</time>
      </trkpt>
      <trkpt lat="48.70251" lon="1.89259">
        <ele>141.60000610352</ele>
        <time>2015-12-27T11:58:59.000Z</time>
      </trkpt>
      <trkpt lat="48.70253" lon="1.89263">
        <ele>141.60000610352</ele>
        <time>2015-12-27T11:59:02.000Z</time>
      </trkpt>
      <trkpt lat="48.70261" lon="1.89274">
        <ele>141.60000610352</ele>
        <time>2015-12-27T11:59:09.000Z</time>
      </trkpt>
      <trkpt lat="48.70269" lon="1.89287">
        <ele>141.60000610352</ele>
        <time>2015-12-27T11:59:17.000Z</time>
      </trkpt>
      <trkpt lat="48.70277" lon="1.89296">
        <ele>142.60000610352</ele>
        <time>2015-12-27T11:59:24.000Z</time>
      </trkpt>
      <trkpt lat="48.70282" lon="1.89301">
        <ele>143.19999694824</ele>
        <time>2015-12-27T11:59:28.000Z</time>
      </trkpt>
      <trkpt lat="48.70282" lon="1.89303">
        <ele>143.39999389648</ele>
        <time>2015-12-27T11:59:29.000Z</time>
      </trkpt>
      <trkpt lat="48.70287" lon="1.8931">
        <ele>144.19999694824</ele>
        <time>2015-12-27T11:59:34.000Z</time>
      </trkpt>
      <trkpt lat="48.70288" lon="1.89311">
        <ele>144.19999694824</ele>
        <time>2015-12-27T11:59:35.000Z</time>
      </trkpt>
      <trkpt lat="48.70296" lon="1.89325">
        <ele>145.39999389648</ele>
        <time>2015-12-27T11:59:43.000Z</time>
      </trkpt>
      <trkpt lat="48.70301" lon="1.89337">
        <ele>146</ele>
        <time>2015-12-27T11:59:49.000Z</time>
      </trkpt>
      <trkpt lat="48.70302" lon="1.89349">
        <ele>146</ele>
        <time>2015-12-27T11:59:55.000Z</time>
      </trkpt>
      <trkpt lat="48.70303" lon="1.89368">
        <ele>146</ele>
        <time>2015-12-27T12:00:03.000Z</time>
      </trkpt>
      <trkpt lat="48.70304" lon="1.89391">
        <ele>146</ele>
        <time>2015-12-27T12:00:13.000Z</time>
      </trkpt>
      <trkpt lat="48.70307" lon="1.89412">
        <ele>146.39999389648</ele>
        <time>2015-12-27T12:00:22.000Z</time>
      </trkpt>
      <trkpt lat="48.70312" lon="1.89422">
        <ele>147</ele>
        <time>2015-12-27T12:00:28.000Z</time>
      </trkpt>
      <trkpt lat="48.70315" lon="1.89424">
        <ele>147.39999389648</ele>
        <time>2015-12-27T12:00:30.000Z</time>
      </trkpt>
      <trkpt lat="48.70318" lon="1.8943">
        <ele>147.80000305176</ele>
        <time>2015-12-27T12:00:34.000Z</time>
      </trkpt>
      <trkpt lat="48.70326" lon="1.8944">
        <ele>148.80000305176</ele>
        <time>2015-12-27T12:00:41.000Z</time>
      </trkpt>
      <trkpt lat="48.7033" lon="1.89449">
        <ele>149.19999694824</ele>
        <time>2015-12-27T12:00:46.000Z</time>
      </trkpt>
      <trkpt lat="48.70331" lon="1.8945">
        <ele>149.39999389648</ele>
        <time>2015-12-27T12:00:47.000Z</time>
      </trkpt>
      <trkpt lat="48.70334" lon="1.89456">
        <ele>149.60000610352</ele>
        <time>2015-12-27T12:00:50.000Z</time>
      </trkpt>
      <trkpt lat="48.70337" lon="1.89462">
        <ele>150</ele>
        <time>2015-12-27T12:00:54.000Z</time>
      </trkpt>
      <trkpt lat="48.70342" lon="1.89474">
        <ele>150.60000610352</ele>
        <time>2015-12-27T12:00:59.000Z</time>
      </trkpt>
      <trkpt lat="48.70345" lon="1.89488">
        <ele>151.19999694824</ele>
        <time>2015-12-27T12:01:05.000Z</time>
      </trkpt>
      <trkpt lat="48.70344" lon="1.89498">
        <ele>151.60000610352</ele>
        <time>2015-12-27T12:01:10.000Z</time>
      </trkpt>
      <trkpt lat="48.70344" lon="1.89507">
        <ele>152.19999694824</ele>
        <time>2015-12-27T12:01:15.000Z</time>
      </trkpt>
      <trkpt lat="48.70343" lon="1.8951">
        <ele>152.19999694824</ele>
        <time>2015-12-27T12:01:16.000Z</time>
      </trkpt>
      <trkpt lat="48.70341" lon="1.8952">
        <ele>152.60000610352</ele>
        <time>2015-12-27T12:01:21.000Z</time>
      </trkpt>
      <trkpt lat="48.70338" lon="1.89527">
        <ele>152.80000305176</ele>
        <time>2015-12-27T12:01:25.000Z</time>
      </trkpt>
      <trkpt lat="48.70337" lon="1.89529">
        <ele>152.80000305176</ele>
        <time>2015-12-27T12:01:26.000Z</time>
      </trkpt>
      <trkpt lat="48.70334" lon="1.89541">
        <ele>153.19999694824</ele>
        <time>2015-12-27T12:01:33.000Z</time>
      </trkpt>
      <trkpt lat="48.70333" lon="1.89547">
        <ele>153.39999389648</ele>
        <time>2015-12-27T12:01:38.000Z</time>
      </trkpt>
      <trkpt lat="48.70332" lon="1.89548">
        <ele>153.39999389648</ele>
        <time>2015-12-27T12:01:39.000Z</time>
      </trkpt>
      <trkpt lat="48.70326" lon="1.89555">
        <ele>153.19999694824</ele>
        <time>2015-12-27T12:01:44.000Z</time>
      </trkpt>
      <trkpt lat="48.70323" lon="1.89559">
        <ele>152.80000305176</ele>
        <time>2015-12-27T12:01:49.000Z</time>
      </trkpt>
      <trkpt lat="48.70315" lon="1.89565">
        <ele>152.19999694824</ele>
        <time>2015-12-27T12:01:59.000Z</time>
      </trkpt>
      <trkpt lat="48.70305" lon="1.89572">
        <ele>151.19999694824</ele>
        <time>2015-12-27T12:02:07.000Z</time>
      </trkpt>
      <trkpt lat="48.70301" lon="1.89574">
        <ele>150.80000305176</ele>
        <time>2015-12-27T12:02:11.000Z</time>
      </trkpt>
      <trkpt lat="48.70299" lon="1.89576">
        <ele>151</ele>
        <time>2015-12-27T12:02:13.000Z</time>
      </trkpt>
      <trkpt lat="48.70296" lon="1.8958">
        <ele>151</ele>
        <time>2015-12-27T12:02:16.000Z</time>
      </trkpt>
      <trkpt lat="48.7029" lon="1.89587">
        <ele>151.39999389648</ele>
        <time>2015-12-27T12:02:22.000Z</time>
      </trkpt>
      <trkpt lat="48.70289" lon="1.89588">
        <ele>151.39999389648</ele>
        <time>2015-12-27T12:02:23.000Z</time>
      </trkpt>
      <trkpt lat="48.70284" lon="1.89597">
        <ele>151.19999694824</ele>
        <time>2015-12-27T12:02:29.000Z</time>
      </trkpt>
      <trkpt lat="48.70282" lon="1.89602">
        <ele>151</ele>
        <time>2015-12-27T12:02:33.000Z</time>
      </trkpt>
      <trkpt lat="48.7028" lon="1.89605">
        <ele>151</ele>
        <time>2015-12-27T12:02:34.000Z</time>
      </trkpt>
      <trkpt lat="48.70273" lon="1.89617">
        <ele>150.19999694824</ele>
        <time>2015-12-27T12:02:41.000Z</time>
      </trkpt>
      <trkpt lat="48.70271" lon="1.89621">
        <ele>150</ele>
        <time>2015-12-27T12:02:44.000Z</time>
      </trkpt>
      <trkpt lat="48.70269" lon="1.89624">
        <ele>150</ele>
        <time>2015-12-27T12:02:46.000Z</time>
      </trkpt>
      <trkpt lat="48.70265" lon="1.89632">
        <ele>150.19999694824</ele>
        <time>2015-12-27T12:02:51.000Z</time>
      </trkpt>
      <trkpt lat="48.70263" lon="1.89635">
        <ele>150.39999389648</ele>
        <time>2015-12-27T12:02:53.000Z</time>
      </trkpt>
      <trkpt lat="48.7026" lon="1.89639">
        <ele>150.39999389648</ele>
        <time>2015-12-27T12:02:56.000Z</time>
      </trkpt>
      <trkpt lat="48.70257" lon="1.89645">
        <ele>150.60000610352</ele>
        <time>2015-12-27T12:03:01.000Z</time>
      </trkpt>
      <trkpt lat="48.70251" lon="1.89654">
        <ele>150.39999389648</ele>
        <time>2015-12-27T12:03:06.000Z</time>
      </trkpt>
      <trkpt lat="48.7025" lon="1.89654">
        <ele>150.19999694824</ele>
        <time>2015-12-27T12:03:07.000Z</time>
      </trkpt>
      <trkpt lat="48.70246" lon="1.8966">
        <ele>150.19999694824</ele>
        <time>2015-12-27T12:03:12.000Z</time>
      </trkpt>
      <trkpt lat="48.70243" lon="1.89663">
        <ele>150.19999694824</ele>
        <time>2015-12-27T12:03:15.000Z</time>
      </trkpt>
      <trkpt lat="48.70241" lon="1.89666">
        <ele>150.39999389648</ele>
        <time>2015-12-27T12:03:17.000Z</time>
      </trkpt>
      <trkpt lat="48.70239" lon="1.89673">
        <ele>150.80000305176</ele>
        <time>2015-12-27T12:03:21.000Z</time>
      </trkpt>
      <trkpt lat="48.70237" lon="1.89676">
        <ele>150.80000305176</ele>
        <time>2015-12-27T12:03:23.000Z</time>
      </trkpt>
      <trkpt lat="48.70235" lon="1.89679">
        <ele>151</ele>
        <time>2015-12-27T12:03:25.000Z</time>
      </trkpt>
      <trkpt lat="48.70234" lon="1.89681">
        <ele>151</ele>
        <time>2015-12-27T12:03:26.000Z</time>
      </trkpt>
      <trkpt lat="48.70231" lon="1.89688">
        <ele>151.39999389648</ele>
        <time>2015-12-27T12:03:31.000Z</time>
      </trkpt>
      <trkpt lat="48.7023" lon="1.89691">
        <ele>151.60000610352</ele>
        <time>2015-12-27T12:03:33.000Z</time>
      </trkpt>
      <trkpt lat="48.70228" lon="1.89695">
        <ele>151.60000610352</ele>
        <time>2015-12-27T12:03:35.000Z</time>
      </trkpt>
      <trkpt lat="48.70227" lon="1.89697">
        <ele>151.80000305176</ele>
        <time>2015-12-27T12:03:36.000Z</time>
      </trkpt>
      <trkpt lat="48.70224" lon="1.89702">
        <ele>151.60000610352</ele>
        <time>2015-12-27T12:03:40.000Z</time>
      </trkpt>
      <trkpt lat="48.70224" lon="1.89702">
        <ele>151.60000610352</ele>
        <time>2015-12-27T12:03:41.000Z</time>
      </trkpt>
      <trkpt lat="48.70222" lon="1.89704">
        <ele>151.60000610352</ele>
        <time>2015-12-27T12:03:42.000Z</time>
      </trkpt>
      <trkpt lat="48.70221" lon="1.89708">
        <ele>151.60000610352</ele>
        <time>2015-12-27T12:03:44.000Z</time>
      </trkpt>
      <trkpt lat="48.70218" lon="1.89713">
        <ele>151.39999389648</ele>
        <time>2015-12-27T12:03:48.000Z</time>
      </trkpt>
      <trkpt lat="48.70217" lon="1.89715">
        <ele>151.39999389648</ele>
        <time>2015-12-27T12:03:50.000Z</time>
      </trkpt>
      <trkpt lat="48.7021" lon="1.8972">
        <ele>150.80000305176</ele>
        <time>2015-12-27T12:03:56.000Z</time>
      </trkpt>
      <trkpt lat="48.70202" lon="1.89724">
        <ele>150</ele>
        <time>2015-12-27T12:04:02.000Z</time>
      </trkpt>
      <trkpt lat="48.70193" lon="1.89727">
        <ele>149</ele>
        <time>2015-12-27T12:04:07.000Z</time>
      </trkpt>
      <trkpt lat="48.70187" lon="1.89729">
        <ele>148.39999389648</ele>
        <time>2015-12-27T12:04:11.000Z</time>
      </trkpt>
      <trkpt lat="48.70185" lon="1.8973">
        <ele>148.60000610352</ele>
        <time>2015-12-27T12:04:13.000Z</time>
      </trkpt>
      <trkpt lat="48.70183" lon="1.89731">
        <ele>148.60000610352</ele>
        <time>2015-12-27T12:04:15.000Z</time>
      </trkpt>
      <trkpt lat="48.70176" lon="1.89734">
        <ele>148.39999389648</ele>
        <time>2015-12-27T12:04:20.000Z</time>
      </trkpt>
      <trkpt lat="48.70174" lon="1.89734">
        <ele>148.39999389648</ele>
        <time>2015-12-27T12:04:22.000Z</time>
      </trkpt>
      <trkpt lat="48.70169" lon="1.89737">
        <ele>148.19999694824</ele>
        <time>2015-12-27T12:04:26.000Z</time>
      </trkpt>
      <trkpt lat="48.70162" lon="1.89739">
        <ele>148.19999694824</ele>
        <time>2015-12-27T12:04:29.000Z</time>
      </trkpt>
      <trkpt lat="48.70161" lon="1.89741">
        <ele>148.19999694824</ele>
        <time>2015-12-27T12:04:31.000Z</time>
      </trkpt>
      <trkpt lat="48.7016" lon="1.89741">
        <ele>148</ele>
        <time>2015-12-27T12:04:32.000Z</time>
      </trkpt>
      <trkpt lat="48.70154" lon="1.89746">
        <ele>148</ele>
        <time>2015-12-27T12:04:36.000Z</time>
      </trkpt>
      <trkpt lat="48.70153" lon="1.89747">
        <ele>148</ele>
        <time>2015-12-27T12:04:37.000Z</time>
      </trkpt>
      <trkpt lat="48.70147" lon="1.89753">
        <ele>148</ele>
        <time>2015-12-27T12:04:42.000Z</time>
      </trkpt>
      <trkpt lat="48.70142" lon="1.8976">
        <ele>148.19999694824</ele>
        <time>2015-12-27T12:04:47.000Z</time>
      </trkpt>
      <trkpt lat="48.7014" lon="1.89764">
        <ele>148.19999694824</ele>
        <time>2015-12-27T12:04:49.000Z</time>
      </trkpt>
      <trkpt lat="48.70137" lon="1.89772">
        <ele>148.39999389648</ele>
        <time>2015-12-27T12:04:54.000Z</time>
      </trkpt>
      <trkpt lat="48.70137" lon="1.89777">
        <ele>148.39999389648</ele>
        <time>2015-12-27T12:04:56.000Z</time>
      </trkpt>
      <trkpt lat="48.70134" lon="1.89788">
        <ele>148.19999694824</ele>
        <time>2015-12-27T12:05:02.000Z</time>
      </trkpt>
      <trkpt lat="48.70134" lon="1.89792">
        <ele>148.19999694824</ele>
        <time>2015-12-27T12:05:04.000Z</time>
      </trkpt>
      <trkpt lat="48.70132" lon="1.89801">
        <ele>148</ele>
        <time>2015-12-27T12:05:08.000Z</time>
      </trkpt>
      <trkpt lat="48.70131" lon="1.89813">
        <ele>148</ele>
        <time>2015-12-27T12:05:13.000Z</time>
      </trkpt>
      <trkpt lat="48.70128" lon="1.89824">
        <ele>147.80000305176</ele>
        <time>2015-12-27T12:05:18.000Z</time>
      </trkpt>
      <trkpt lat="48.70128" lon="1.89826">
        <ele>148</ele>
        <time>2015-12-27T12:05:19.000Z</time>
      </trkpt>
      <trkpt lat="48.70124" lon="1.89833">
        <ele>148.39999389648</ele>
        <time>2015-12-27T12:05:23.000Z</time>
      </trkpt>
      <trkpt lat="48.7012" lon="1.89838">
        <ele>148.60000610352</ele>
        <time>2015-12-27T12:05:27.000Z</time>
      </trkpt>
      <trkpt lat="48.70118" lon="1.89842">
        <ele>148.60000610352</ele>
        <time>2015-12-27T12:05:29.000Z</time>
      </trkpt>
      <trkpt lat="48.70111" lon="1.89849">
        <ele>148</ele>
        <time>2015-12-27T12:05:35.000Z</time>
      </trkpt>
      <trkpt lat="48.70109" lon="1.89851">
        <ele>147.80000305176</ele>
        <time>2015-12-27T12:05:36.000Z</time>
      </trkpt>
      <trkpt lat="48.70102" lon="1.89855">
        <ele>147</ele>
        <time>2015-12-27T12:05:41.000Z</time>
      </trkpt>
      <trkpt lat="48.70099" lon="1.89856">
        <ele>146.80000305176</ele>
        <time>2015-12-27T12:05:43.000Z</time>
      </trkpt>
      <trkpt lat="48.70093" lon="1.8986">
        <ele>146.60000610352</ele>
        <time>2015-12-27T12:05:47.000Z</time>
      </trkpt>
      <trkpt lat="48.70083" lon="1.89865">
        <ele>146</ele>
        <time>2015-12-27T12:05:54.000Z</time>
      </trkpt>
      <trkpt lat="48.70073" lon="1.8987">
        <ele>145.60000610352</ele>
        <time>2015-12-27T12:06:00.000Z</time>
      </trkpt>
      <trkpt lat="48.70064" lon="1.89873">
        <ele>145</ele>
        <time>2015-12-27T12:06:05.000Z</time>
      </trkpt>
      <trkpt lat="48.70055" lon="1.89877">
        <ele>144.19999694824</ele>
        <time>2015-12-27T12:06:11.000Z</time>
      </trkpt>
      <trkpt lat="48.7005" lon="1.89881">
        <ele>143.80000305176</ele>
        <time>2015-12-27T12:06:17.000Z</time>
      </trkpt>
      <trkpt lat="48.70044" lon="1.89891">
        <ele>143.60000610352</ele>
        <time>2015-12-27T12:06:24.000Z</time>
      </trkpt>
      <trkpt lat="48.70044" lon="1.89893">
        <ele>143.60000610352</ele>
        <time>2015-12-27T12:06:25.000Z</time>
      </trkpt>
      <trkpt lat="48.70041" lon="1.89901">
        <ele>143.60000610352</ele>
        <time>2015-12-27T12:06:29.000Z</time>
      </trkpt>
      <trkpt lat="48.70041" lon="1.89904">
        <ele>143.60000610352</ele>
        <time>2015-12-27T12:06:30.000Z</time>
      </trkpt>
      <trkpt lat="48.70041" lon="1.89916">
        <ele>144.39999389648</ele>
        <time>2015-12-27T12:06:35.000Z</time>
      </trkpt>
      <trkpt lat="48.70041" lon="1.89919">
        <ele>144.39999389648</ele>
        <time>2015-12-27T12:06:36.000Z</time>
      </trkpt>
      <trkpt lat="48.70041" lon="1.89925">
        <ele>144.80000305176</ele>
        <time>2015-12-27T12:06:39.000Z</time>
      </trkpt>
      <trkpt lat="48.7004" lon="1.89932">
        <ele>145</ele>
        <time>2015-12-27T12:06:42.000Z</time>
      </trkpt>
      <trkpt lat="48.70039" lon="1.89934">
        <ele>144.80000305176</ele>
        <time>2015-12-27T12:06:43.000Z</time>
      </trkpt>
      <trkpt lat="48.70039" lon="1.89941">
        <ele>144.80000305176</ele>
        <time>2015-12-27T12:06:46.000Z</time>
      </trkpt>
      <trkpt lat="48.70038" lon="1.89947">
        <ele>144.80000305176</ele>
        <time>2015-12-27T12:06:49.000Z</time>
      </trkpt>
      <trkpt lat="48.70036" lon="1.89954">
        <ele>144.60000610352</ele>
        <time>2015-12-27T12:06:52.000Z</time>
      </trkpt>
      <trkpt lat="48.70035" lon="1.89955">
        <ele>144.60000610352</ele>
        <time>2015-12-27T12:06:53.000Z</time>
      </trkpt>
      <trkpt lat="48.70034" lon="1.89963">
        <ele>144.39999389648</ele>
        <time>2015-12-27T12:06:57.000Z</time>
      </trkpt>
      <trkpt lat="48.70033" lon="1.89971">
        <ele>144.60000610352</ele>
        <time>2015-12-27T12:07:01.000Z</time>
      </trkpt>
      <trkpt lat="48.70033" lon="1.89975">
        <ele>144.60000610352</ele>
        <time>2015-12-27T12:07:03.000Z</time>
      </trkpt>
      <trkpt lat="48.70033" lon="1.89983">
        <ele>144.60000610352</ele>
        <time>2015-12-27T12:07:07.000Z</time>
      </trkpt>
      <trkpt lat="48.70034" lon="1.89994">
        <ele>145</ele>
        <time>2015-12-27T12:07:12.000Z</time>
      </trkpt>
      <trkpt lat="48.70034" lon="1.90005">
        <ele>145.39999389648</ele>
        <time>2015-12-27T12:07:17.000Z</time>
      </trkpt>
      <trkpt lat="48.70034" lon="1.90007">
        <ele>145.39999389648</ele>
        <time>2015-12-27T12:07:18.000Z</time>
      </trkpt>
      <trkpt lat="48.70034" lon="1.90012">
        <ele>145.39999389648</ele>
        <time>2015-12-27T12:07:20.000Z</time>
      </trkpt>
      <trkpt lat="48.70035" lon="1.90018">
        <ele>145.60000610352</ele>
        <time>2015-12-27T12:07:23.000Z</time>
      </trkpt>
      <trkpt lat="48.70036" lon="1.9003">
        <ele>145.80000305176</ele>
        <time>2015-12-27T12:07:28.000Z</time>
      </trkpt>
      <trkpt lat="48.70037" lon="1.90045">
        <ele>145.80000305176</ele>
        <time>2015-12-27T12:07:35.000Z</time>
      </trkpt>
      <trkpt lat="48.70038" lon="1.90047">
        <ele>146</ele>
        <time>2015-12-27T12:07:36.000Z</time>
      </trkpt>
      <trkpt lat="48.70038" lon="1.90052">
        <ele>146</ele>
        <time>2015-12-27T12:07:39.000Z</time>
      </trkpt>
      <trkpt lat="48.70038" lon="1.90058">
        <ele>146</ele>
        <time>2015-12-27T12:07:42.000Z</time>
      </trkpt>
      <trkpt lat="48.70038" lon="1.90062">
        <ele>146</ele>
        <time>2015-12-27T12:07:44.000Z</time>
      </trkpt>
      <trkpt lat="48.70038" lon="1.90064">
        <ele>146.19999694824</ele>
        <time>2015-12-27T12:07:45.000Z</time>
      </trkpt>
      <trkpt lat="48.7004" lon="1.90076">
        <ele>146.39999389648</ele>
        <time>2015-12-27T12:07:51.000Z</time>
      </trkpt>
      <trkpt lat="48.70039" lon="1.90081">
        <ele>146.39999389648</ele>
        <time>2015-12-27T12:07:53.000Z</time>
      </trkpt>
      <trkpt lat="48.70041" lon="1.90087">
        <ele>146.60000610352</ele>
        <time>2015-12-27T12:07:56.000Z</time>
      </trkpt>
      <trkpt lat="48.70042" lon="1.90097">
        <ele>147</ele>
        <time>2015-12-27T12:08:01.000Z</time>
      </trkpt>
      <trkpt lat="48.70042" lon="1.90102">
        <ele>147</ele>
        <time>2015-12-27T12:08:03.000Z</time>
      </trkpt>
      <trkpt lat="48.70042" lon="1.90104">
        <ele>146.80000305176</ele>
        <time>2015-12-27T12:08:04.000Z</time>
      </trkpt>
      <trkpt lat="48.70041" lon="1.90107">
        <ele>146.80000305176</ele>
        <time>2015-12-27T12:08:06.000Z</time>
      </trkpt>
      <trkpt lat="48.70043" lon="1.90118">
        <ele>147.19999694824</ele>
        <time>2015-12-27T12:08:11.000Z</time>
      </trkpt>
      <trkpt lat="48.70044" lon="1.90124">
        <ele>147.19999694824</ele>
        <time>2015-12-27T12:08:14.000Z</time>
      </trkpt>
      <trkpt lat="48.70044" lon="1.90131">
        <ele>147.19999694824</ele>
        <time>2015-12-27T12:08:17.000Z</time>
      </trkpt>
      <trkpt lat="48.70045" lon="1.90139">
        <ele>147.39999389648</ele>
        <time>2015-12-27T12:08:21.000Z</time>
      </trkpt>
      <trkpt lat="48.70045" lon="1.90142">
        <ele>147.60000610352</ele>
        <time>2015-12-27T12:08:23.000Z</time>
      </trkpt>
      <trkpt lat="48.70045" lon="1.90151">
        <ele>147.39999389648</ele>
        <time>2015-12-27T12:08:27.000Z</time>
      </trkpt>
      <trkpt lat="48.70043" lon="1.90158">
        <ele>147.19999694824</ele>
        <time>2015-12-27T12:08:30.000Z</time>
      </trkpt>
      <trkpt lat="48.70042" lon="1.90161">
        <ele>146.80000305176</ele>
        <time>2015-12-27T12:08:31.000Z</time>
      </trkpt>
      <trkpt lat="48.70042" lon="1.90163">
        <ele>146.80000305176</ele>
        <time>2015-12-27T12:08:32.000Z</time>
      </trkpt>
      <trkpt lat="48.7004" lon="1.9017">
        <ele>146.19999694824</ele>
        <time>2015-12-27T12:08:36.000Z</time>
      </trkpt>
      <trkpt lat="48.7004" lon="1.90177">
        <ele>146</ele>
        <time>2015-12-27T12:08:40.000Z</time>
      </trkpt>
      <trkpt lat="48.70037" lon="1.90186">
        <ele>145.80000305176</ele>
        <time>2015-12-27T12:08:44.000Z</time>
      </trkpt>
      <trkpt lat="48.70037" lon="1.90191">
        <ele>145.80000305176</ele>
        <time>2015-12-27T12:08:46.000Z</time>
      </trkpt>
      <trkpt lat="48.70037" lon="1.90194">
        <ele>145.80000305176</ele>
        <time>2015-12-27T12:08:48.000Z</time>
      </trkpt>
      <trkpt lat="48.70035" lon="1.902">
        <ele>145.80000305176</ele>
        <time>2015-12-27T12:08:51.000Z</time>
      </trkpt>
      <trkpt lat="48.70032" lon="1.90213">
        <ele>145.39999389648</ele>
        <time>2015-12-27T12:08:56.000Z</time>
      </trkpt>
      <trkpt lat="48.70031" lon="1.90215">
        <ele>145.39999389648</ele>
        <time>2015-12-27T12:08:57.000Z</time>
      </trkpt>
      <trkpt lat="48.70031" lon="1.90217">
        <ele>145.19999694824</ele>
        <time>2015-12-27T12:08:58.000Z</time>
      </trkpt>
      <trkpt lat="48.7003" lon="1.90226">
        <ele>145.19999694824</ele>
        <time>2015-12-27T12:09:02.000Z</time>
      </trkpt>
      <trkpt lat="48.7003" lon="1.90228">
        <ele>145.19999694824</ele>
        <time>2015-12-27T12:09:03.000Z</time>
      </trkpt>
      <trkpt lat="48.7003" lon="1.9023">
        <ele>145.39999389648</ele>
        <time>2015-12-27T12:09:04.000Z</time>
      </trkpt>
      <trkpt lat="48.70031" lon="1.90236">
        <ele>145.39999389648</ele>
        <time>2015-12-27T12:09:07.000Z</time>
      </trkpt>
      <trkpt lat="48.70029" lon="1.90248">
        <ele>145.19999694824</ele>
        <time>2015-12-27T12:09:12.000Z</time>
      </trkpt>
      <trkpt lat="48.70028" lon="1.90255">
        <ele>145.19999694824</ele>
        <time>2015-12-27T12:09:15.000Z</time>
      </trkpt>
      <trkpt lat="48.70027" lon="1.90261">
        <ele>145.19999694824</ele>
        <time>2015-12-27T12:09:17.000Z</time>
      </trkpt>
      <trkpt lat="48.70026" lon="1.90271">
        <ele>145.19999694824</ele>
        <time>2015-12-27T12:09:22.000Z</time>
      </trkpt>
      <trkpt lat="48.70027" lon="1.90274">
        <ele>145.39999389648</ele>
        <time>2015-12-27T12:09:23.000Z</time>
      </trkpt>
      <trkpt lat="48.70026" lon="1.90282">
        <ele>145.39999389648</ele>
        <time>2015-12-27T12:09:27.000Z</time>
      </trkpt>
      <trkpt lat="48.70027" lon="1.90287">
        <ele>145.39999389648</ele>
        <time>2015-12-27T12:09:29.000Z</time>
      </trkpt>
      <trkpt lat="48.70029" lon="1.90295">
        <ele>145.80000305176</ele>
        <time>2015-12-27T12:09:32.000Z</time>
      </trkpt>
      <trkpt lat="48.70028" lon="1.90297">
        <ele>145.80000305176</ele>
        <time>2015-12-27T12:09:33.000Z</time>
      </trkpt>
      <trkpt lat="48.70026" lon="1.90305">
        <ele>145.60000610352</ele>
        <time>2015-12-27T12:09:36.000Z</time>
      </trkpt>
      <trkpt lat="48.70026" lon="1.90308">
        <ele>145.60000610352</ele>
        <time>2015-12-27T12:09:38.000Z</time>
      </trkpt>
      <trkpt lat="48.70026" lon="1.90312">
        <ele>145.60000610352</ele>
        <time>2015-12-27T12:09:40.000Z</time>
      </trkpt>
      <trkpt lat="48.70027" lon="1.90321">
        <ele>146</ele>
        <time>2015-12-27T12:09:45.000Z</time>
      </trkpt>
      <trkpt lat="48.70027" lon="1.90328">
        <ele>145.80000305176</ele>
        <time>2015-12-27T12:09:48.000Z</time>
      </trkpt>
      <trkpt lat="48.70028" lon="1.90336">
        <ele>145.80000305176</ele>
        <time>2015-12-27T12:09:52.000Z</time>
      </trkpt>
      <trkpt lat="48.7003" lon="1.90344">
        <ele>146</ele>
        <time>2015-12-27T12:09:56.000Z</time>
      </trkpt>
      <trkpt lat="48.7003" lon="1.90353">
        <ele>145.80000305176</ele>
        <time>2015-12-27T12:10:00.000Z</time>
      </trkpt>
      <trkpt lat="48.70031" lon="1.90365">
        <ele>145.60000610352</ele>
        <time>2015-12-27T12:10:06.000Z</time>
      </trkpt>
      <trkpt lat="48.70032" lon="1.90369">
        <ele>145.60000610352</ele>
        <time>2015-12-27T12:10:08.000Z</time>
      </trkpt>
      <trkpt lat="48.70033" lon="1.90374">
        <ele>145.60000610352</ele>
        <time>2015-12-27T12:10:10.000Z</time>
      </trkpt>
      <trkpt lat="48.70034" lon="1.90376">
        <ele>145.60000610352</ele>
        <time>2015-12-27T12:10:11.000Z</time>
      </trkpt>
      <trkpt lat="48.70038" lon="1.90389">
        <ele>146</ele>
        <time>2015-12-27T12:10:17.000Z</time>
      </trkpt>
      <trkpt lat="48.70041" lon="1.90398">
        <ele>146.19999694824</ele>
        <time>2015-12-27T12:10:21.000Z</time>
      </trkpt>
      <trkpt lat="48.70043" lon="1.90403">
        <ele>146.39999389648</ele>
        <time>2015-12-27T12:10:23.000Z</time>
      </trkpt>
      <trkpt lat="48.70043" lon="1.90408">
        <ele>146.19999694824</ele>
        <time>2015-12-27T12:10:25.000Z</time>
      </trkpt>
      <trkpt lat="48.70043" lon="1.90415">
        <ele>146</ele>
        <time>2015-12-27T12:10:28.000Z</time>
      </trkpt>
      <trkpt lat="48.70043" lon="1.90426">
        <ele>145.80000305176</ele>
        <time>2015-12-27T12:10:33.000Z</time>
      </trkpt>
      <trkpt lat="48.70042" lon="1.90437">
        <ele>145.80000305176</ele>
        <time>2015-12-27T12:10:38.000Z</time>
      </trkpt>
      <trkpt lat="48.7004" lon="1.90444">
        <ele>145.60000610352</ele>
        <time>2015-12-27T12:10:41.000Z</time>
      </trkpt>
      <trkpt lat="48.7004" lon="1.90457">
        <ele>145.80000305176</ele>
        <time>2015-12-27T12:10:47.000Z</time>
      </trkpt>
      <trkpt lat="48.7004" lon="1.90468">
        <ele>146</ele>
        <time>2015-12-27T12:10:52.000Z</time>
      </trkpt>
      <trkpt lat="48.70042" lon="1.90479">
        <ele>146.19999694824</ele>
        <time>2015-12-27T12:10:57.000Z</time>
      </trkpt>
      <trkpt lat="48.70048" lon="1.90487">
        <ele>147</ele>
        <time>2015-12-27T12:11:01.000Z</time>
      </trkpt>
      <trkpt lat="48.7005" lon="1.90496">
        <ele>147.19999694824</ele>
        <time>2015-12-27T12:11:05.000Z</time>
      </trkpt>
      <trkpt lat="48.70051" lon="1.90498">
        <ele>147.39999389648</ele>
        <time>2015-12-27T12:11:06.000Z</time>
      </trkpt>
      <trkpt lat="48.70053" lon="1.90504">
        <ele>147.60000610352</ele>
        <time>2015-12-27T12:11:09.000Z</time>
      </trkpt>
      <trkpt lat="48.70053" lon="1.90509">
        <ele>147.60000610352</ele>
        <time>2015-12-27T12:11:11.000Z</time>
      </trkpt>
      <trkpt lat="48.70052" lon="1.90524">
        <ele>147.39999389648</ele>
        <time>2015-12-27T12:11:17.000Z</time>
      </trkpt>
      <trkpt lat="48.70051" lon="1.90534">
        <ele>147.60000610352</ele>
        <time>2015-12-27T12:11:21.000Z</time>
      </trkpt>
      <trkpt lat="48.70054" lon="1.90545">
        <ele>148.19999694824</ele>
        <time>2015-12-27T12:11:26.000Z</time>
      </trkpt>
      <trkpt lat="48.70055" lon="1.90546">
        <ele>148.19999694824</ele>
        <time>2015-12-27T12:11:27.000Z</time>
      </trkpt>
      <trkpt lat="48.70056" lon="1.90549">
        <ele>148.39999389648</ele>
        <time>2015-12-27T12:11:29.000Z</time>
      </trkpt>
      <trkpt lat="48.70059" lon="1.90553">
        <ele>148.80000305176</ele>
        <time>2015-12-27T12:11:31.000Z</time>
      </trkpt>
      <trkpt lat="48.70064" lon="1.90559">
        <ele>149.39999389648</ele>
        <time>2015-12-27T12:11:35.000Z</time>
      </trkpt>
      <trkpt lat="48.70067" lon="1.90562">
        <ele>149.60000610352</ele>
        <time>2015-12-27T12:11:37.000Z</time>
      </trkpt>
      <trkpt lat="48.70069" lon="1.90566">
        <ele>150</ele>
        <time>2015-12-27T12:11:39.000Z</time>
      </trkpt>
      <trkpt lat="48.7007" lon="1.90567">
        <ele>150</ele>
        <time>2015-12-27T12:11:40.000Z</time>
      </trkpt>
      <trkpt lat="48.70078" lon="1.9058">
        <ele>150.80000305176</ele>
        <time>2015-12-27T12:11:46.000Z</time>
      </trkpt>
      <trkpt lat="48.7008" lon="1.90587">
        <ele>151</ele>
        <time>2015-12-27T12:11:49.000Z</time>
      </trkpt>
      <trkpt lat="48.70081" lon="1.90589">
        <ele>151.19999694824</ele>
        <time>2015-12-27T12:11:50.000Z</time>
      </trkpt>
      <trkpt lat="48.70087" lon="1.90599">
        <ele>151.60000610352</ele>
        <time>2015-12-27T12:11:55.000Z</time>
      </trkpt>
      <trkpt lat="48.7009" lon="1.90609">
        <ele>151.80000305176</ele>
        <time>2015-12-27T12:11:59.000Z</time>
      </trkpt>
      <trkpt lat="48.70092" lon="1.90616">
        <ele>152</ele>
        <time>2015-12-27T12:12:02.000Z</time>
      </trkpt>
      <trkpt lat="48.70092" lon="1.90627">
        <ele>152</ele>
        <time>2015-12-27T12:12:06.000Z</time>
      </trkpt>
      <trkpt lat="48.70093" lon="1.9063">
        <ele>152.19999694824</ele>
        <time>2015-12-27T12:12:07.000Z</time>
      </trkpt>
      <trkpt lat="48.70094" lon="1.90635">
        <ele>152.19999694824</ele>
        <time>2015-12-27T12:12:09.000Z</time>
      </trkpt>
      <trkpt lat="48.70093" lon="1.90639">
        <ele>152.19999694824</ele>
        <time>2015-12-27T12:12:11.000Z</time>
      </trkpt>
      <trkpt lat="48.70092" lon="1.90647">
        <ele>152</ele>
        <time>2015-12-27T12:12:15.000Z</time>
      </trkpt>
      <trkpt lat="48.70092" lon="1.9065">
        <ele>151.80000305176</ele>
        <time>2015-12-27T12:12:16.000Z</time>
      </trkpt>
      <trkpt lat="48.70091" lon="1.90661">
        <ele>151.60000610352</ele>
        <time>2015-12-27T12:12:21.000Z</time>
      </trkpt>
      <trkpt lat="48.70087" lon="1.90669">
        <ele>151.80000305176</ele>
        <time>2015-12-27T12:12:26.000Z</time>
      </trkpt>
      <trkpt lat="48.7008" lon="1.90678">
        <ele>151.60000610352</ele>
        <time>2015-12-27T12:12:31.000Z</time>
      </trkpt>
      <trkpt lat="48.70079" lon="1.90679">
        <ele>151.60000610352</ele>
        <time>2015-12-27T12:12:33.000Z</time>
      </trkpt>
      <trkpt lat="48.70075" lon="1.90683">
        <ele>151.39999389648</ele>
        <time>2015-12-27T12:12:37.000Z</time>
      </trkpt>
      <trkpt lat="48.70071" lon="1.90688">
        <ele>151.39999389648</ele>
        <time>2015-12-27T12:12:41.000Z</time>
      </trkpt>
      <trkpt lat="48.7007" lon="1.90688">
        <ele>151.19999694824</ele>
        <time>2015-12-27T12:12:42.000Z</time>
      </trkpt>
      <trkpt lat="48.70064" lon="1.90694">
        <ele>151</ele>
        <time>2015-12-27T12:12:46.000Z</time>
      </trkpt>
      <trkpt lat="48.70063" lon="1.90696">
        <ele>151</ele>
        <time>2015-12-27T12:12:48.000Z</time>
      </trkpt>
      <trkpt lat="48.7006" lon="1.90702">
        <ele>150.80000305176</ele>
        <time>2015-12-27T12:12:51.000Z</time>
      </trkpt>
      <trkpt lat="48.70057" lon="1.90712">
        <ele>150.60000610352</ele>
        <time>2015-12-27T12:12:57.000Z</time>
      </trkpt>
      <trkpt lat="48.70049" lon="1.90724">
        <ele>149.60000610352</ele>
        <time>2015-12-27T12:13:03.000Z</time>
      </trkpt>
      <trkpt lat="48.70048" lon="1.90725">
        <ele>149.60000610352</ele>
        <time>2015-12-27T12:13:04.000Z</time>
      </trkpt>
      <trkpt lat="48.70047" lon="1.90728">
        <ele>149.39999389648</ele>
        <time>2015-12-27T12:13:06.000Z</time>
      </trkpt>
      <trkpt lat="48.70046" lon="1.90731">
        <ele>149.39999389648</ele>
        <time>2015-12-27T12:13:08.000Z</time>
      </trkpt>
      <trkpt lat="48.70045" lon="1.90732">
        <ele>149.19999694824</ele>
        <time>2015-12-27T12:13:09.000Z</time>
      </trkpt>
      <trkpt lat="48.70041" lon="1.9074">
        <ele>148.80000305176</ele>
        <time>2015-12-27T12:13:14.000Z</time>
      </trkpt>
      <trkpt lat="48.70041" lon="1.90741">
        <ele>148.80000305176</ele>
        <time>2015-12-27T12:13:15.000Z</time>
      </trkpt>
      <trkpt lat="48.70038" lon="1.90747">
        <ele>148.60000610352</ele>
        <time>2015-12-27T12:13:18.000Z</time>
      </trkpt>
      <trkpt lat="48.70037" lon="1.90748">
        <ele>148.80000305176</ele>
        <time>2015-12-27T12:13:19.000Z</time>
      </trkpt>
      <trkpt lat="48.70035" lon="1.90754">
        <ele>149</ele>
        <time>2015-12-27T12:13:22.000Z</time>
      </trkpt>
      <trkpt lat="48.70036" lon="1.90755">
        <ele>149</ele>
        <time>2015-12-27T12:13:23.000Z</time>
      </trkpt>
      <trkpt lat="48.7003" lon="1.90765">
        <ele>148.19999694824</ele>
        <time>2015-12-27T12:13:29.000Z</time>
      </trkpt>
      <trkpt lat="48.70028" lon="1.90768">
        <ele>148</ele>
        <time>2015-12-27T12:13:31.000Z</time>
      </trkpt>
      <trkpt lat="48.70027" lon="1.90771">
        <ele>147.80000305176</ele>
        <time>2015-12-27T12:13:33.000Z</time>
      </trkpt>
      <trkpt lat="48.70024" lon="1.90776">
        <ele>147.19999694824</ele>
        <time>2015-12-27T12:13:36.000Z</time>
      </trkpt>
      <trkpt lat="48.70021" lon="1.90785">
        <ele>146.80000305176</ele>
        <time>2015-12-27T12:13:41.000Z</time>
      </trkpt>
      <trkpt lat="48.70017" lon="1.90792">
        <ele>146.80000305176</ele>
        <time>2015-12-27T12:13:45.000Z</time>
      </trkpt>
      <trkpt lat="48.70012" lon="1.908">
        <ele>147</ele>
        <time>2015-12-27T12:13:49.000Z</time>
      </trkpt>
      <trkpt lat="48.70011" lon="1.90804">
        <ele>147</ele>
        <time>2015-12-27T12:13:51.000Z</time>
      </trkpt>
      <trkpt lat="48.70011" lon="1.90806">
        <ele>147.19999694824</ele>
        <time>2015-12-27T12:13:52.000Z</time>
      </trkpt>
      <trkpt lat="48.7001" lon="1.90809">
        <ele>147.19999694824</ele>
        <time>2015-12-27T12:13:54.000Z</time>
      </trkpt>
      <trkpt lat="48.70007" lon="1.90818">
        <ele>147.19999694824</ele>
        <time>2015-12-27T12:13:58.000Z</time>
      </trkpt>
      <trkpt lat="48.70004" lon="1.90822">
        <ele>147</ele>
        <time>2015-12-27T12:14:00.000Z</time>
      </trkpt>
      <trkpt lat="48.70001" lon="1.90831">
        <ele>147.39999389648</ele>
        <time>2015-12-27T12:14:05.000Z</time>
      </trkpt>
      <trkpt lat="48.7" lon="1.90837">
        <ele>147.60000610352</ele>
        <time>2015-12-27T12:14:08.000Z</time>
      </trkpt>
      <trkpt lat="48.69998" lon="1.90841">
        <ele>147.80000305176</ele>
        <time>2015-12-27T12:14:10.000Z</time>
      </trkpt>
      <trkpt lat="48.69998" lon="1.90842">
        <ele>147.80000305176</ele>
        <time>2015-12-27T12:14:11.000Z</time>
      </trkpt>
      <trkpt lat="48.69997" lon="1.90848">
        <ele>148</ele>
        <time>2015-12-27T12:14:15.000Z</time>
      </trkpt>
      <trkpt lat="48.69996" lon="1.9085">
        <ele>148.19999694824</ele>
        <time>2015-12-27T12:14:16.000Z</time>
      </trkpt>
      <trkpt lat="48.69994" lon="1.90856">
        <ele>148.39999389648</ele>
        <time>2015-12-27T12:14:19.000Z</time>
      </trkpt>
      <trkpt lat="48.69993" lon="1.90861">
        <ele>148.60000610352</ele>
        <time>2015-12-27T12:14:22.000Z</time>
      </trkpt>
      <trkpt lat="48.69993" lon="1.90863">
        <ele>148.80000305176</ele>
        <time>2015-12-27T12:14:23.000Z</time>
      </trkpt>
      <trkpt lat="48.69993" lon="1.90872">
        <ele>149.19999694824</ele>
        <time>2015-12-27T12:14:27.000Z</time>
      </trkpt>
      <trkpt lat="48.69991" lon="1.90884">
        <ele>149.60000610352</ele>
        <time>2015-12-27T12:14:32.000Z</time>
      </trkpt>
      <trkpt lat="48.6999" lon="1.90894">
        <ele>149.60000610352</ele>
        <time>2015-12-27T12:14:37.000Z</time>
      </trkpt>
      <trkpt lat="48.6999" lon="1.90897">
        <ele>149.60000610352</ele>
        <time>2015-12-27T12:14:39.000Z</time>
      </trkpt>
      <trkpt lat="48.6999" lon="1.90905">
        <ele>149.80000305176</ele>
        <time>2015-12-27T12:14:43.000Z</time>
      </trkpt>
      <trkpt lat="48.6999" lon="1.90907">
        <ele>149.80000305176</ele>
        <time>2015-12-27T12:14:44.000Z</time>
      </trkpt>
      <trkpt lat="48.69992" lon="1.90909">
        <ele>150.19999694824</ele>
        <time>2015-12-27T12:14:45.000Z</time>
      </trkpt>
      <trkpt lat="48.69995" lon="1.90912">
        <ele>150.80000305176</ele>
        <time>2015-12-27T12:14:47.000Z</time>
      </trkpt>
      <trkpt lat="48.69998" lon="1.90917">
        <ele>151.39999389648</ele>
        <time>2015-12-27T12:14:52.000Z</time>
      </trkpt>
      <trkpt lat="48.70002" lon="1.90931">
        <ele>153</ele>
        <time>2015-12-27T12:14:59.000Z</time>
      </trkpt>
      <trkpt lat="48.70004" lon="1.90938">
        <ele>154</ele>
        <time>2015-12-27T12:15:03.000Z</time>
      </trkpt>
      <trkpt lat="48.70005" lon="1.90943">
        <ele>154.39999389648</ele>
        <time>2015-12-27T12:15:05.000Z</time>
      </trkpt>
      <trkpt lat="48.70008" lon="1.90955">
        <ele>155.80000305176</ele>
        <time>2015-12-27T12:15:09.000Z</time>
      </trkpt>
      <trkpt lat="48.70008" lon="1.90959">
        <ele>156.19999694824</ele>
        <time>2015-12-27T12:15:10.000Z</time>
      </trkpt>
      <trkpt lat="48.70007" lon="1.90974">
        <ele>157.19999694824</ele>
        <time>2015-12-27T12:15:15.000Z</time>
      </trkpt>
      <trkpt lat="48.70008" lon="1.90985">
        <ele>157.60000610352</ele>
        <time>2015-12-27T12:15:20.000Z</time>
      </trkpt>
      <trkpt lat="48.70008" lon="1.9099">
        <ele>157.60000610352</ele>
        <time>2015-12-27T12:15:22.000Z</time>
      </trkpt>
      <trkpt lat="48.70009" lon="1.90999">
        <ele>158.19999694824</ele>
        <time>2015-12-27T12:15:26.000Z</time>
      </trkpt>
      <trkpt lat="48.70009" lon="1.91002">
        <ele>158.19999694824</ele>
        <time>2015-12-27T12:15:27.000Z</time>
      </trkpt>
      <trkpt lat="48.7001" lon="1.91012">
        <ele>159</ele>
        <time>2015-12-27T12:15:31.000Z</time>
      </trkpt>
      <trkpt lat="48.70012" lon="1.91029">
        <ele>160.19999694824</ele>
        <time>2015-12-27T12:15:36.000Z</time>
      </trkpt>
      <trkpt lat="48.70013" lon="1.91034">
        <ele>160.60000610352</ele>
        <time>2015-12-27T12:15:37.000Z</time>
      </trkpt>
      <trkpt lat="48.70016" lon="1.91042">
        <ele>161.60000610352</ele>
        <time>2015-12-27T12:15:40.000Z</time>
      </trkpt>
      <trkpt lat="48.70018" lon="1.91045">
        <ele>162</ele>
        <time>2015-12-27T12:15:41.000Z</time>
      </trkpt>
      <trkpt lat="48.70016" lon="1.91054">
        <ele>162.19999694824</ele>
        <time>2015-12-27T12:15:44.000Z</time>
      </trkpt>
      <trkpt lat="48.70016" lon="1.91065">
        <ele>162.80000305176</ele>
        <time>2015-12-27T12:15:48.000Z</time>
      </trkpt>
      <trkpt lat="48.70018" lon="1.91075">
        <ele>163.60000610352</ele>
        <time>2015-12-27T12:15:52.000Z</time>
      </trkpt>
      <trkpt lat="48.7002" lon="1.91078">
        <ele>164</ele>
        <time>2015-12-27T12:15:53.000Z</time>
      </trkpt>
      <trkpt lat="48.70021" lon="1.91082">
        <ele>164.19999694824</ele>
        <time>2015-12-27T12:15:54.000Z</time>
      </trkpt>
      <trkpt lat="48.70024" lon="1.91092">
        <ele>164.80000305176</ele>
        <time>2015-12-27T12:15:58.000Z</time>
      </trkpt>
      <trkpt lat="48.70028" lon="1.91099">
        <ele>165.80000305176</ele>
        <time>2015-12-27T12:16:03.000Z</time>
      </trkpt>
      <trkpt lat="48.70033" lon="1.91112">
        <ele>167</ele>
        <time>2015-12-27T12:16:07.000Z</time>
      </trkpt>
      <trkpt lat="48.7004" lon="1.91125">
        <ele>168.39999389648</ele>
        <time>2015-12-27T12:16:11.000Z</time>
      </trkpt>
      <trkpt lat="48.70043" lon="1.91131">
        <ele>169</ele>
        <time>2015-12-27T12:16:15.000Z</time>
      </trkpt>
      <trkpt lat="48.70046" lon="1.9114">
        <ele>169.80000305176</ele>
        <time>2015-12-27T12:16:20.000Z</time>
      </trkpt>
      <trkpt lat="48.70047" lon="1.91145">
        <ele>170</ele>
        <time>2015-12-27T12:16:22.000Z</time>
      </trkpt>
      <trkpt lat="48.7005" lon="1.91151">
        <ele>170.60000610352</ele>
        <time>2015-12-27T12:16:24.000Z</time>
      </trkpt>
      <trkpt lat="48.70052" lon="1.91153">
        <ele>171.19999694824</ele>
        <time>2015-12-27T12:16:25.000Z</time>
      </trkpt>
      <trkpt lat="48.70058" lon="1.91157">
        <ele>172.60000610352</ele>
        <time>2015-12-27T12:16:30.000Z</time>
      </trkpt>
      <trkpt lat="48.70063" lon="1.91162">
        <ele>173.80000305176</ele>
        <time>2015-12-27T12:16:35.000Z</time>
      </trkpt>
      <trkpt lat="48.70064" lon="1.91162">
        <ele>174</ele>
        <time>2015-12-27T12:16:36.000Z</time>
      </trkpt>
      <trkpt lat="48.70072" lon="1.91166">
        <ele>176</ele>
        <time>2015-12-27T12:16:41.000Z</time>
      </trkpt>
      <trkpt lat="48.70076" lon="1.91168">
        <ele>177</ele>
        <time>2015-12-27T12:16:44.000Z</time>
      </trkpt>
      <trkpt lat="48.70082" lon="1.91171">
        <ele>178.39999389648</ele>
        <time>2015-12-27T12:16:47.000Z</time>
      </trkpt>
      <trkpt lat="48.70083" lon="1.91173">
        <ele>178.80000305176</ele>
        <time>2015-12-27T12:16:49.000Z</time>
      </trkpt>
      <trkpt lat="48.70085" lon="1.91176">
        <ele>179</ele>
        <time>2015-12-27T12:16:51.000Z</time>
      </trkpt>
      <trkpt lat="48.70088" lon="1.9118">
        <ele>179.80000305176</ele>
        <time>2015-12-27T12:16:54.000Z</time>
      </trkpt>
      <trkpt lat="48.7009" lon="1.91182">
        <ele>180.19999694824</ele>
        <time>2015-12-27T12:16:56.000Z</time>
      </trkpt>
      <trkpt lat="48.70092" lon="1.91185">
        <ele>180.80000305176</ele>
        <time>2015-12-27T12:16:58.000Z</time>
      </trkpt>
      <trkpt lat="48.70093" lon="1.91184">
        <ele>181</ele>
        <time>2015-12-27T12:17:00.000Z</time>
      </trkpt>
      <trkpt lat="48.70095" lon="1.91185">
        <ele>181.39999389648</ele>
        <time>2015-12-27T12:17:01.000Z</time>
      </trkpt>
      <trkpt lat="48.70096" lon="1.91186">
        <ele>181.80000305176</ele>
        <time>2015-12-27T12:17:02.000Z</time>
      </trkpt>
      <trkpt lat="48.70101" lon="1.91193">
        <ele>183</ele>
        <time>2015-12-27T12:17:06.000Z</time>
      </trkpt>
      <trkpt lat="48.70109" lon="1.91199">
        <ele>183.60000610352</ele>
        <time>2015-12-27T12:17:11.000Z</time>
      </trkpt>
      <trkpt lat="48.70115" lon="1.91201">
        <ele>183.80000305176</ele>
        <time>2015-12-27T12:17:17.000Z</time>
      </trkpt>
      <trkpt lat="48.70125" lon="1.91208">
        <ele>183.80000305176</ele>
        <time>2015-12-27T12:17:24.000Z</time>
      </trkpt>
      <trkpt lat="48.70126" lon="1.91211">
        <ele>183.80000305176</ele>
        <time>2015-12-27T12:17:26.000Z</time>
      </trkpt>
      <trkpt lat="48.70128" lon="1.91214">
        <ele>183.80000305176</ele>
        <time>2015-12-27T12:17:28.000Z</time>
      </trkpt>
      <trkpt lat="48.7013" lon="1.91227">
        <ele>183.80000305176</ele>
        <time>2015-12-27T12:17:34.000Z</time>
      </trkpt>
      <trkpt lat="48.70131" lon="1.9123">
        <ele>183.80000305176</ele>
        <time>2015-12-27T12:17:35.000Z</time>
      </trkpt>
      <trkpt lat="48.70134" lon="1.91238">
        <ele>183.80000305176</ele>
        <time>2015-12-27T12:17:39.000Z</time>
      </trkpt>
      <trkpt lat="48.70139" lon="1.91248">
        <ele>183.80000305176</ele>
        <time>2015-12-27T12:17:46.000Z</time>
      </trkpt>
      <trkpt lat="48.70141" lon="1.91251">
        <ele>183.80000305176</ele>
        <time>2015-12-27T12:17:48.000Z</time>
      </trkpt>
      <trkpt lat="48.70142" lon="1.91254">
        <ele>183.80000305176</ele>
        <time>2015-12-27T12:17:50.000Z</time>
      </trkpt>
      <trkpt lat="48.70147" lon="1.9126">
        <ele>183.80000305176</ele>
        <time>2015-12-27T12:17:54.000Z</time>
      </trkpt>
      <trkpt lat="48.70147" lon="1.91261">
        <ele>183.80000305176</ele>
        <time>2015-12-27T12:17:55.000Z</time>
      </trkpt>
      <trkpt lat="48.70148" lon="1.91266">
        <ele>183.80000305176</ele>
        <time>2015-12-27T12:17:58.000Z</time>
      </trkpt>
      <trkpt lat="48.70151" lon="1.91275">
        <ele>183.80000305176</ele>
        <time>2015-12-27T12:18:03.000Z</time>
      </trkpt>
      <trkpt lat="48.70149" lon="1.91282">
        <ele>183.60000610352</ele>
        <time>2015-12-27T12:18:07.000Z</time>
      </trkpt>
      <trkpt lat="48.70148" lon="1.91283">
        <ele>183.60000610352</ele>
        <time>2015-12-27T12:18:08.000Z</time>
      </trkpt>
      <trkpt lat="48.70147" lon="1.91285">
        <ele>183.39999389648</ele>
        <time>2015-12-27T12:18:11.000Z</time>
      </trkpt>
      <trkpt lat="48.70145" lon="1.91286">
        <ele>183.39999389648</ele>
        <time>2015-12-27T12:18:12.000Z</time>
      </trkpt>
      <trkpt lat="48.70139" lon="1.91286">
        <ele>183.39999389648</ele>
        <time>2015-12-27T12:18:17.000Z</time>
      </trkpt>
      <trkpt lat="48.7013" lon="1.91289">
        <ele>183</ele>
        <time>2015-12-27T12:18:23.000Z</time>
      </trkpt>
      <trkpt lat="48.70122" lon="1.9129">
        <ele>182.80000305176</ele>
        <time>2015-12-27T12:18:29.000Z</time>
      </trkpt>
      <trkpt lat="48.70118" lon="1.9129">
        <ele>182.80000305176</ele>
        <time>2015-12-27T12:18:32.000Z</time>
      </trkpt>
      <trkpt lat="48.70114" lon="1.9129">
        <ele>182.60000610352</ele>
        <time>2015-12-27T12:18:35.000Z</time>
      </trkpt>
      <trkpt lat="48.70112" lon="1.9129">
        <ele>182.60000610352</ele>
        <time>2015-12-27T12:18:36.000Z</time>
      </trkpt>
      <trkpt lat="48.70108" lon="1.91291">
        <ele>182.39999389648</ele>
        <time>2015-12-27T12:18:40.000Z</time>
      </trkpt>
      <trkpt lat="48.70101" lon="1.91296">
        <ele>181.80000305176</ele>
        <time>2015-12-27T12:18:45.000Z</time>
      </trkpt>
      <trkpt lat="48.701" lon="1.91297">
        <ele>181.60000610352</ele>
        <time>2015-12-27T12:18:46.000Z</time>
      </trkpt>
      <trkpt lat="48.70096" lon="1.91304">
        <ele>180.80000305176</ele>
        <time>2015-12-27T12:18:51.000Z</time>
      </trkpt>
      <trkpt lat="48.70088" lon="1.91307">
        <ele>179.19999694824</ele>
        <time>2015-12-27T12:18:57.000Z</time>
      </trkpt>
      <trkpt lat="48.70087" lon="1.91307">
        <ele>179</ele>
        <time>2015-12-27T12:18:58.000Z</time>
      </trkpt>
      <trkpt lat="48.7008" lon="1.91311">
        <ele>178.39999389648</ele>
        <time>2015-12-27T12:19:04.000Z</time>
      </trkpt>
      <trkpt lat="48.70073" lon="1.91313">
        <ele>177.80000305176</ele>
        <time>2015-12-27T12:19:09.000Z</time>
      </trkpt>
      <trkpt lat="48.70071" lon="1.91314">
        <ele>177.80000305176</ele>
        <time>2015-12-27T12:19:10.000Z</time>
      </trkpt>
      <trkpt lat="48.7006" lon="1.91321">
        <ele>177</ele>
        <time>2015-12-27T12:19:18.000Z</time>
      </trkpt>
      <trkpt lat="48.70051" lon="1.91329">
        <ele>176.39999389648</ele>
        <time>2015-12-27T12:19:26.000Z</time>
      </trkpt>
      <trkpt lat="48.70042" lon="1.91333">
        <ele>175.39999389648</ele>
        <time>2015-12-27T12:19:33.000Z</time>
      </trkpt>
      <trkpt lat="48.70035" lon="1.91343">
        <ele>174.80000305176</ele>
        <time>2015-12-27T12:19:40.000Z</time>
      </trkpt>
      <trkpt lat="48.70032" lon="1.9135">
        <ele>175.19999694824</ele>
        <time>2015-12-27T12:19:45.000Z</time>
      </trkpt>
      <trkpt lat="48.70033" lon="1.9135">
        <ele>175.19999694824</ele>
        <time>2015-12-27T12:19:46.000Z</time>
      </trkpt>
      <trkpt lat="48.70033" lon="1.91353">
        <ele>175.39999389648</ele>
        <time>2015-12-27T12:19:48.000Z</time>
      </trkpt>
      <trkpt lat="48.70033" lon="1.91353">
        <ele>175.39999389648</ele>
        <time>2015-12-27T12:19:51.000Z</time>
      </trkpt>
      <trkpt lat="48.69998" lon="1.9143">
        <ele>171.39999389648</ele>
        <time>2015-12-27T12:23:35.000Z</time>
      </trkpt>
      <trkpt lat="48.69997" lon="1.91432">
        <ele>171</ele>
        <time>2015-12-27T12:23:36.000Z</time>
      </trkpt>
      <trkpt lat="48.69994" lon="1.91446">
        <ele>170</ele>
        <time>2015-12-27T12:23:43.000Z</time>
      </trkpt>
      <trkpt lat="48.69994" lon="1.91449">
        <ele>170.19999694824</ele>
        <time>2015-12-27T12:23:45.000Z</time>
      </trkpt>
      <trkpt lat="48.69993" lon="1.91457">
        <ele>170</ele>
        <time>2015-12-27T12:23:49.000Z</time>
      </trkpt>
      <trkpt lat="48.69993" lon="1.91459">
        <ele>170</ele>
        <time>2015-12-27T12:23:50.000Z</time>
      </trkpt>
      <trkpt lat="48.69993" lon="1.91466">
        <ele>170</ele>
        <time>2015-12-27T12:23:54.000Z</time>
      </trkpt>
      <trkpt lat="48.69993" lon="1.9147">
        <ele>170.19999694824</ele>
        <time>2015-12-27T12:23:56.000Z</time>
      </trkpt>
      <trkpt lat="48.69994" lon="1.91482">
        <ele>170.60000610352</ele>
        <time>2015-12-27T12:24:02.000Z</time>
      </trkpt>
      <trkpt lat="48.69992" lon="1.91486">
        <ele>170</ele>
        <time>2015-12-27T12:24:04.000Z</time>
      </trkpt>
      <trkpt lat="48.6999" lon="1.91492">
        <ele>169.80000305176</ele>
        <time>2015-12-27T12:24:07.000Z</time>
      </trkpt>
      <trkpt lat="48.69988" lon="1.91502">
        <ele>169.60000610352</ele>
        <time>2015-12-27T12:24:12.000Z</time>
      </trkpt>
      <trkpt lat="48.69988" lon="1.91504">
        <ele>169.60000610352</ele>
        <time>2015-12-27T12:24:13.000Z</time>
      </trkpt>
      <trkpt lat="48.69986" lon="1.91518">
        <ele>169.39999389648</ele>
        <time>2015-12-27T12:24:19.000Z</time>
      </trkpt>
      <trkpt lat="48.69984" lon="1.91534">
        <ele>169.19999694824</ele>
        <time>2015-12-27T12:24:26.000Z</time>
      </trkpt>
      <trkpt lat="48.69979" lon="1.91552">
        <ele>168.19999694824</ele>
        <time>2015-12-27T12:24:34.000Z</time>
      </trkpt>
      <trkpt lat="48.69975" lon="1.91559">
        <ele>167.39999389648</ele>
        <time>2015-12-27T12:24:39.000Z</time>
      </trkpt>
      <trkpt lat="48.69974" lon="1.9156">
        <ele>167.39999389648</ele>
        <time>2015-12-27T12:24:40.000Z</time>
      </trkpt>
      <trkpt lat="48.69974" lon="1.9156">
        <ele>167.39999389648</ele>
        <time>2015-12-27T12:24:42.000Z</time>
      </trkpt>
      <trkpt lat="48.69987" lon="1.91572">
        <ele>171.39999389648</ele>
        <time>2015-12-27T12:24:57.000Z</time>
      </trkpt>
      <trkpt lat="48.69988" lon="1.91576">
        <ele>171.39999389648</ele>
        <time>2015-12-27T12:24:59.000Z</time>
      </trkpt>
      <trkpt lat="48.69984" lon="1.91586">
        <ele>170.80000305176</ele>
        <time>2015-12-27T12:25:04.000Z</time>
      </trkpt>
      <trkpt lat="48.69984" lon="1.91588">
        <ele>170.80000305176</ele>
        <time>2015-12-27T12:25:05.000Z</time>
      </trkpt>
      <trkpt lat="48.6998" lon="1.91608">
        <ele>169.80000305176</ele>
        <time>2015-12-27T12:25:15.000Z</time>
      </trkpt>
      <trkpt lat="48.69975" lon="1.91621">
        <ele>169.80000305176</ele>
        <time>2015-12-27T12:25:22.000Z</time>
      </trkpt>
      <trkpt lat="48.69971" lon="1.91634">
        <ele>170.80000305176</ele>
        <time>2015-12-27T12:25:29.000Z</time>
      </trkpt>
      <trkpt lat="48.69967" lon="1.91651">
        <ele>172</ele>
        <time>2015-12-27T12:25:37.000Z</time>
      </trkpt>
      <trkpt lat="48.69962" lon="1.91664">
        <ele>172.19999694824</ele>
        <time>2015-12-27T12:25:44.000Z</time>
      </trkpt>
      <trkpt lat="48.69959" lon="1.91674">
        <ele>172.19999694824</ele>
        <time>2015-12-27T12:25:50.000Z</time>
      </trkpt>
      <trkpt lat="48.69956" lon="1.91687">
        <ele>173.19999694824</ele>
        <time>2015-12-27T12:25:57.000Z</time>
      </trkpt>
      <trkpt lat="48.69953" lon="1.91694">
        <ele>174.19999694824</ele>
        <time>2015-12-27T12:26:01.000Z</time>
      </trkpt>
      <trkpt lat="48.69952" lon="1.91697">
        <ele>174.39999389648</ele>
        <time>2015-12-27T12:26:03.000Z</time>
      </trkpt>
      <trkpt lat="48.69951" lon="1.91701">
        <ele>175</ele>
        <time>2015-12-27T12:26:05.000Z</time>
      </trkpt>
      <trkpt lat="48.69949" lon="1.91708">
        <ele>176</ele>
        <time>2015-12-27T12:26:09.000Z</time>
      </trkpt>
      <trkpt lat="48.69948" lon="1.9171">
        <ele>176.19999694824</ele>
        <time>2015-12-27T12:26:10.000Z</time>
      </trkpt>
      <trkpt lat="48.69946" lon="1.91715">
        <ele>176.80000305176</ele>
        <time>2015-12-27T12:26:13.000Z</time>
      </trkpt>
      <trkpt lat="48.69944" lon="1.91727">
        <ele>178.39999389648</ele>
        <time>2015-12-27T12:26:19.000Z</time>
      </trkpt>
      <trkpt lat="48.69943" lon="1.91735">
        <ele>179.60000610352</ele>
        <time>2015-12-27T12:26:23.000Z</time>
      </trkpt>
      <trkpt lat="48.69942" lon="1.91739">
        <ele>180</ele>
        <time>2015-12-27T12:26:25.000Z</time>
      </trkpt>
      <trkpt lat="48.69942" lon="1.91741">
        <ele>180.19999694824</ele>
        <time>2015-12-27T12:26:26.000Z</time>
      </trkpt>
      <trkpt lat="48.6994" lon="1.91752">
        <ele>180.60000610352</ele>
        <time>2015-12-27T12:26:32.000Z</time>
      </trkpt>
      <trkpt lat="48.6994" lon="1.91761">
        <ele>181</ele>
        <time>2015-12-27T12:26:37.000Z</time>
      </trkpt>
      <trkpt lat="48.69941" lon="1.91763">
        <ele>181</ele>
        <time>2015-12-27T12:26:38.000Z</time>
      </trkpt>
      <trkpt lat="48.69941" lon="1.91766">
        <ele>181.19999694824</ele>
        <time>2015-12-27T12:26:40.000Z</time>
      </trkpt>
      <trkpt lat="48.69943" lon="1.9177">
        <ele>181.39999389648</ele>
        <time>2015-12-27T12:26:43.000Z</time>
      </trkpt>
      <trkpt lat="48.69946" lon="1.9178">
        <ele>181.80000305176</ele>
        <time>2015-12-27T12:26:48.000Z</time>
      </trkpt>
      <trkpt lat="48.69946" lon="1.91781">
        <ele>181.80000305176</ele>
        <time>2015-12-27T12:26:49.000Z</time>
      </trkpt>
      <trkpt lat="48.6995" lon="1.91793">
        <ele>182.60000610352</ele>
        <time>2015-12-27T12:26:56.000Z</time>
      </trkpt>
      <trkpt lat="48.69952" lon="1.91799">
        <ele>182.80000305176</ele>
        <time>2015-12-27T12:27:01.000Z</time>
      </trkpt>
      <trkpt lat="48.69954" lon="1.918">
        <ele>183</ele>
        <time>2015-12-27T12:27:02.000Z</time>
      </trkpt>
      <trkpt lat="48.69955" lon="1.91803">
        <ele>183.19999694824</ele>
        <time>2015-12-27T12:27:05.000Z</time>
      </trkpt>
      <trkpt lat="48.69955" lon="1.91805">
        <ele>183.19999694824</ele>
        <time>2015-12-27T12:27:07.000Z</time>
      </trkpt>
      <trkpt lat="48.69952" lon="1.91813">
        <ele>183.39999389648</ele>
        <time>2015-12-27T12:27:12.000Z</time>
      </trkpt>
      <trkpt lat="48.69951" lon="1.91814">
        <ele>183.39999389648</ele>
        <time>2015-12-27T12:27:13.000Z</time>
      </trkpt>
      <trkpt lat="48.69951" lon="1.91816">
        <ele>183.39999389648</ele>
        <time>2015-12-27T12:27:16.000Z</time>
      </trkpt>
      <trkpt lat="48.69935" lon="1.91842">
        <ele>182.60000610352</ele>
        <time>2015-12-27T12:29:21.000Z</time>
      </trkpt>
      <trkpt lat="48.69935" lon="1.91844">
        <ele>182.60000610352</ele>
        <time>2015-12-27T12:29:22.000Z</time>
      </trkpt>
      <trkpt lat="48.69932" lon="1.91852">
        <ele>182.19999694824</ele>
        <time>2015-12-27T12:29:27.000Z</time>
      </trkpt>
      <trkpt lat="48.6993" lon="1.91854">
        <ele>182</ele>
        <time>2015-12-27T12:29:29.000Z</time>
      </trkpt>
      <trkpt lat="48.69928" lon="1.91863">
        <ele>181.80000305176</ele>
        <time>2015-12-27T12:29:34.000Z</time>
      </trkpt>
      <trkpt lat="48.69925" lon="1.91872">
        <ele>181.39999389648</ele>
        <time>2015-12-27T12:29:39.000Z</time>
      </trkpt>
      <trkpt lat="48.69924" lon="1.91873">
        <ele>181.39999389648</ele>
        <time>2015-12-27T12:29:40.000Z</time>
      </trkpt>
      <trkpt lat="48.6992" lon="1.91882">
        <ele>181</ele>
        <time>2015-12-27T12:29:45.000Z</time>
      </trkpt>
      <trkpt lat="48.69919" lon="1.91886">
        <ele>180.80000305176</ele>
        <time>2015-12-27T12:29:48.000Z</time>
      </trkpt>
      <trkpt lat="48.69916" lon="1.91893">
        <ele>180.19999694824</ele>
        <time>2015-12-27T12:29:52.000Z</time>
      </trkpt>
      <trkpt lat="48.69915" lon="1.91896">
        <ele>180.19999694824</ele>
        <time>2015-12-27T12:29:53.000Z</time>
      </trkpt>
      <trkpt lat="48.6991" lon="1.91908">
        <ele>179.39999389648</ele>
        <time>2015-12-27T12:30:00.000Z</time>
      </trkpt>
      <trkpt lat="48.69905" lon="1.91922">
        <ele>179.19999694824</ele>
        <time>2015-12-27T12:30:08.000Z</time>
      </trkpt>
      <trkpt lat="48.69899" lon="1.91935">
        <ele>178.80000305176</ele>
        <time>2015-12-27T12:30:16.000Z</time>
      </trkpt>
      <trkpt lat="48.69893" lon="1.91949">
        <ele>178.39999389648</ele>
        <time>2015-12-27T12:30:25.000Z</time>
      </trkpt>
      <trkpt lat="48.69885" lon="1.91966">
        <ele>178.19999694824</ele>
        <time>2015-12-27T12:30:35.000Z</time>
      </trkpt>
      <trkpt lat="48.69879" lon="1.91981">
        <ele>178</ele>
        <time>2015-12-27T12:30:44.000Z</time>
      </trkpt>
      <trkpt lat="48.69872" lon="1.91995">
        <ele>177.80000305176</ele>
        <time>2015-12-27T12:30:53.000Z</time>
      </trkpt>
      <trkpt lat="48.69871" lon="1.92">
        <ele>177.60000610352</ele>
        <time>2015-12-27T12:30:57.000Z</time>
      </trkpt>
      <trkpt lat="48.6987" lon="1.92">
        <ele>177.60000610352</ele>
        <time>2015-12-27T12:30:58.000Z</time>
      </trkpt>
      <trkpt lat="48.69854" lon="1.92037">
        <ele>178.19999694824</ele>
        <time>2015-12-27T12:33:01.000Z</time>
      </trkpt>
      <trkpt lat="48.69852" lon="1.92041">
        <ele>178.39999389648</ele>
        <time>2015-12-27T12:33:04.000Z</time>
      </trkpt>
      <trkpt lat="48.69851" lon="1.92045">
        <ele>178.60000610352</ele>
        <time>2015-12-27T12:33:06.000Z</time>
      </trkpt>
      <trkpt lat="48.69849" lon="1.92047">
        <ele>178.60000610352</ele>
        <time>2015-12-27T12:33:08.000Z</time>
      </trkpt>
      <trkpt lat="48.69848" lon="1.9205">
        <ele>178.80000305176</ele>
        <time>2015-12-27T12:33:10.000Z</time>
      </trkpt>
      <trkpt lat="48.69845" lon="1.92055">
        <ele>179</ele>
        <time>2015-12-27T12:33:13.000Z</time>
      </trkpt>
      <trkpt lat="48.69844" lon="1.92058">
        <ele>179.19999694824</ele>
        <time>2015-12-27T12:33:15.000Z</time>
      </trkpt>
      <trkpt lat="48.69841" lon="1.92065">
        <ele>179.39999389648</ele>
        <time>2015-12-27T12:33:19.000Z</time>
      </trkpt>
      <trkpt lat="48.6984" lon="1.92066">
        <ele>179.39999389648</ele>
        <time>2015-12-27T12:33:20.000Z</time>
      </trkpt>
      <trkpt lat="48.6984" lon="1.92068">
        <ele>179.60000610352</ele>
        <time>2015-12-27T12:33:21.000Z</time>
      </trkpt>
      <trkpt lat="48.69838" lon="1.92074">
        <ele>179.80000305176</ele>
        <time>2015-12-27T12:33:25.000Z</time>
      </trkpt>
      <trkpt lat="48.6983" lon="1.92087">
        <ele>180</ele>
        <time>2015-12-27T12:33:33.000Z</time>
      </trkpt>
      <trkpt lat="48.69829" lon="1.9209">
        <ele>180</ele>
        <time>2015-12-27T12:33:35.000Z</time>
      </trkpt>
      <trkpt lat="48.69826" lon="1.92094">
        <ele>180.19999694824</ele>
        <time>2015-12-27T12:33:38.000Z</time>
      </trkpt>
      <trkpt lat="48.69826" lon="1.92096">
        <ele>180.19999694824</ele>
        <time>2015-12-27T12:33:39.000Z</time>
      </trkpt>
      <trkpt lat="48.69824" lon="1.92103">
        <ele>180.39999389648</ele>
        <time>2015-12-27T12:33:43.000Z</time>
      </trkpt>
      <trkpt lat="48.69821" lon="1.92108">
        <ele>180.39999389648</ele>
        <time>2015-12-27T12:33:49.000Z</time>
      </trkpt>
      <trkpt lat="48.698" lon="1.9214">
        <ele>181.80000305176</ele>
        <time>2015-12-27T12:34:21.000Z</time>
      </trkpt>
      <trkpt lat="48.69799" lon="1.92143">
        <ele>182</ele>
        <time>2015-12-27T12:34:23.000Z</time>
      </trkpt>
      <trkpt lat="48.69798" lon="1.92145">
        <ele>182</ele>
        <time>2015-12-27T12:34:24.000Z</time>
      </trkpt>
      <trkpt lat="48.69796" lon="1.92152">
        <ele>182.39999389648</ele>
        <time>2015-12-27T12:34:30.000Z</time>
      </trkpt>
      <trkpt lat="48.69796" lon="1.92154">
        <ele>182.60000610352</ele>
        <time>2015-12-27T12:34:31.000Z</time>
      </trkpt>
      <trkpt lat="48.69795" lon="1.92158">
        <ele>182.80000305176</ele>
        <time>2015-12-27T12:34:33.000Z</time>
      </trkpt>
      <trkpt lat="48.6979" lon="1.92165">
        <ele>183</ele>
        <time>2015-12-27T12:34:38.000Z</time>
      </trkpt>
      <trkpt lat="48.69787" lon="1.92173">
        <ele>183.39999389648</ele>
        <time>2015-12-27T12:34:42.000Z</time>
      </trkpt>
      <trkpt lat="48.69783" lon="1.92184">
        <ele>183.39999389648</ele>
        <time>2015-12-27T12:34:49.000Z</time>
      </trkpt>
      <trkpt lat="48.69778" lon="1.92194">
        <ele>183.19999694824</ele>
        <time>2015-12-27T12:34:56.000Z</time>
      </trkpt>
      <trkpt lat="48.69777" lon="1.92198">
        <ele>183.19999694824</ele>
        <time>2015-12-27T12:34:58.000Z</time>
      </trkpt>
      <trkpt lat="48.69776" lon="1.92201">
        <ele>183.19999694824</ele>
        <time>2015-12-27T12:35:01.000Z</time>
      </trkpt>
      <trkpt lat="48.69773" lon="1.92209">
        <ele>183</ele>
        <time>2015-12-27T12:35:06.000Z</time>
      </trkpt>
      <trkpt lat="48.6977" lon="1.92214">
        <ele>183</ele>
        <time>2015-12-27T12:35:09.000Z</time>
      </trkpt>
      <trkpt lat="48.69767" lon="1.92219">
        <ele>183</ele>
        <time>2015-12-27T12:35:13.000Z</time>
      </trkpt>
      <trkpt lat="48.69765" lon="1.92223">
        <ele>183</ele>
        <time>2015-12-27T12:35:15.000Z</time>
      </trkpt>
      <trkpt lat="48.69762" lon="1.9223">
        <ele>183</ele>
        <time>2015-12-27T12:35:19.000Z</time>
      </trkpt>
      <trkpt lat="48.6976" lon="1.92234">
        <ele>183</ele>
        <time>2015-12-27T12:35:21.000Z</time>
      </trkpt>
      <trkpt lat="48.69759" lon="1.92237">
        <ele>183.19999694824</ele>
        <time>2015-12-27T12:35:23.000Z</time>
      </trkpt>
      <trkpt lat="48.69757" lon="1.92241">
        <ele>183.19999694824</ele>
        <time>2015-12-27T12:35:25.000Z</time>
      </trkpt>
      <trkpt lat="48.69754" lon="1.92246">
        <ele>183.39999389648</ele>
        <time>2015-12-27T12:35:28.000Z</time>
      </trkpt>
      <trkpt lat="48.69753" lon="1.92247">
        <ele>183.39999389648</ele>
        <time>2015-12-27T12:35:29.000Z</time>
      </trkpt>
      <trkpt lat="48.69752" lon="1.9225">
        <ele>183.39999389648</ele>
        <time>2015-12-27T12:35:31.000Z</time>
      </trkpt>
      <trkpt lat="48.69749" lon="1.92255">
        <ele>183.60000610352</ele>
        <time>2015-12-27T12:35:34.000Z</time>
      </trkpt>
      <trkpt lat="48.69742" lon="1.92271">
        <ele>184</ele>
        <time>2015-12-27T12:35:43.000Z</time>
      </trkpt>
      <trkpt lat="48.69739" lon="1.92277">
        <ele>184.19999694824</ele>
        <time>2015-12-27T12:35:46.000Z</time>
      </trkpt>
      <trkpt lat="48.69738" lon="1.9228">
        <ele>184.39999389648</ele>
        <time>2015-12-27T12:35:48.000Z</time>
      </trkpt>
      <trkpt lat="48.69737" lon="1.92281">
        <ele>184.39999389648</ele>
        <time>2015-12-27T12:35:49.000Z</time>
      </trkpt>
      <trkpt lat="48.69736" lon="1.92283">
        <ele>184.39999389648</ele>
        <time>2015-12-27T12:35:50.000Z</time>
      </trkpt>
      <trkpt lat="48.69732" lon="1.92287">
        <ele>184.60000610352</ele>
        <time>2015-12-27T12:35:53.000Z</time>
      </trkpt>
      <trkpt lat="48.6973" lon="1.92292">
        <ele>184.60000610352</ele>
        <time>2015-12-27T12:35:55.000Z</time>
      </trkpt>
      <trkpt lat="48.69727" lon="1.92295">
        <ele>184.60000610352</ele>
        <time>2015-12-27T12:35:57.000Z</time>
      </trkpt>
      <trkpt lat="48.69726" lon="1.92297">
        <ele>184.60000610352</ele>
        <time>2015-12-27T12:35:58.000Z</time>
      </trkpt>
      <trkpt lat="48.69723" lon="1.92301">
        <ele>184.80000305176</ele>
        <time>2015-12-27T12:36:01.000Z</time>
      </trkpt>
      <trkpt lat="48.69723" lon="1.92302">
        <ele>184.80000305176</ele>
        <time>2015-12-27T12:36:02.000Z</time>
      </trkpt>
      <trkpt lat="48.69718" lon="1.92313">
        <ele>184.80000305176</ele>
        <time>2015-12-27T12:36:07.000Z</time>
      </trkpt>
      <trkpt lat="48.69714" lon="1.92322">
        <ele>185</ele>
        <time>2015-12-27T12:36:12.000Z</time>
      </trkpt>
      <trkpt lat="48.69709" lon="1.92335">
        <ele>185</ele>
        <time>2015-12-27T12:36:19.000Z</time>
      </trkpt>
      <trkpt lat="48.69706" lon="1.92345">
        <ele>185</ele>
        <time>2015-12-27T12:36:25.000Z</time>
      </trkpt>
      <trkpt lat="48.69704" lon="1.92351">
        <ele>185</ele>
        <time>2015-12-27T12:36:30.000Z</time>
      </trkpt>
      <trkpt lat="48.69704" lon="1.92354">
        <ele>185</ele>
        <time>2015-12-27T12:36:31.000Z</time>
      </trkpt>
      <trkpt lat="48.69702" lon="1.9236">
        <ele>185</ele>
        <time>2015-12-27T12:36:34.000Z</time>
      </trkpt>
      <trkpt lat="48.69701" lon="1.92362">
        <ele>185</ele>
        <time>2015-12-27T12:36:35.000Z</time>
      </trkpt>
      <trkpt lat="48.69699" lon="1.92366">
        <ele>185</ele>
        <time>2015-12-27T12:36:37.000Z</time>
      </trkpt>
      <trkpt lat="48.69696" lon="1.9237">
        <ele>185</ele>
        <time>2015-12-27T12:36:40.000Z</time>
      </trkpt>
      <trkpt lat="48.69693" lon="1.92376">
        <ele>185</ele>
        <time>2015-12-27T12:36:44.000Z</time>
      </trkpt>
      <trkpt lat="48.69687" lon="1.92391">
        <ele>185</ele>
        <time>2015-12-27T12:36:52.000Z</time>
      </trkpt>
      <trkpt lat="48.69686" lon="1.92393">
        <ele>185</ele>
        <time>2015-12-27T12:36:55.000Z</time>
      </trkpt>
      <trkpt lat="48.69683" lon="1.92399">
        <ele>185</ele>
        <time>2015-12-27T12:37:21.000Z</time>
      </trkpt>
      <trkpt lat="48.6968" lon="1.92399">
        <ele>185.19999694824</ele>
        <time>2015-12-27T12:37:25.000Z</time>
      </trkpt>
      <trkpt lat="48.69673" lon="1.92425">
        <ele>184</ele>
        <time>2015-12-27T12:37:48.000Z</time>
      </trkpt>
      <trkpt lat="48.6967" lon="1.92429">
        <ele>183.80000305176</ele>
        <time>2015-12-27T12:37:51.000Z</time>
      </trkpt>
      <trkpt lat="48.69668" lon="1.92432">
        <ele>183.60000610352</ele>
        <time>2015-12-27T12:37:53.000Z</time>
      </trkpt>
      <trkpt lat="48.69666" lon="1.92438">
        <ele>183.19999694824</ele>
        <time>2015-12-27T12:37:57.000Z</time>
      </trkpt>
      <trkpt lat="48.69664" lon="1.92446">
        <ele>182.80000305176</ele>
        <time>2015-12-27T12:38:02.000Z</time>
      </trkpt>
      <trkpt lat="48.69663" lon="1.92447">
        <ele>182.60000610352</ele>
        <time>2015-12-27T12:38:03.000Z</time>
      </trkpt>
      <trkpt lat="48.6966" lon="1.92451">
        <ele>182.39999389648</ele>
        <time>2015-12-27T12:38:07.000Z</time>
      </trkpt>
      <trkpt lat="48.6966" lon="1.92454">
        <ele>182.19999694824</ele>
        <time>2015-12-27T12:38:09.000Z</time>
      </trkpt>
      <trkpt lat="48.69656" lon="1.92461">
        <ele>181.80000305176</ele>
        <time>2015-12-27T12:38:14.000Z</time>
      </trkpt>
      <trkpt lat="48.69655" lon="1.92465">
        <ele>182</ele>
        <time>2015-12-27T12:38:16.000Z</time>
      </trkpt>
      <trkpt lat="48.6965" lon="1.92473">
        <ele>182</ele>
        <time>2015-12-27T12:38:21.000Z</time>
      </trkpt>
      <trkpt lat="48.69644" lon="1.92486">
        <ele>182.19999694824</ele>
        <time>2015-12-27T12:38:29.000Z</time>
      </trkpt>
      <trkpt lat="48.69638" lon="1.92501">
        <ele>182.19999694824</ele>
        <time>2015-12-27T12:38:38.000Z</time>
      </trkpt>
      <trkpt lat="48.69634" lon="1.92507">
        <ele>182.39999389648</ele>
        <time>2015-12-27T12:38:42.000Z</time>
      </trkpt>
      <trkpt lat="48.69632" lon="1.92512">
        <ele>182.39999389648</ele>
        <time>2015-12-27T12:38:45.000Z</time>
      </trkpt>
      <trkpt lat="48.69631" lon="1.92514">
        <ele>182.39999389648</ele>
        <time>2015-12-27T12:38:46.000Z</time>
      </trkpt>
      <trkpt lat="48.69626" lon="1.92524">
        <ele>182.19999694824</ele>
        <time>2015-12-27T12:38:52.000Z</time>
      </trkpt>
      <trkpt lat="48.69623" lon="1.9253">
        <ele>182.19999694824</ele>
        <time>2015-12-27T12:38:56.000Z</time>
      </trkpt>
      <trkpt lat="48.69621" lon="1.92535">
        <ele>182</ele>
        <time>2015-12-27T12:38:59.000Z</time>
      </trkpt>
      <trkpt lat="48.69618" lon="1.92539">
        <ele>182</ele>
        <time>2015-12-27T12:39:02.000Z</time>
      </trkpt>
      <trkpt lat="48.69617" lon="1.92542">
        <ele>181.80000305176</ele>
        <time>2015-12-27T12:39:04.000Z</time>
      </trkpt>
      <trkpt lat="48.69616" lon="1.92544">
        <ele>181.80000305176</ele>
        <time>2015-12-27T12:39:05.000Z</time>
      </trkpt>
      <trkpt lat="48.69611" lon="1.92553">
        <ele>181.60000610352</ele>
        <time>2015-12-27T12:39:11.000Z</time>
      </trkpt>
      <trkpt lat="48.6961" lon="1.92554">
        <ele>181.60000610352</ele>
        <time>2015-12-27T12:39:12.000Z</time>
      </trkpt>
      <trkpt lat="48.69603" lon="1.92566">
        <ele>181.39999389648</ele>
        <time>2015-12-27T12:39:19.000Z</time>
      </trkpt>
      <trkpt lat="48.69599" lon="1.92577">
        <ele>181</ele>
        <time>2015-12-27T12:39:26.000Z</time>
      </trkpt>
      <trkpt lat="48.69594" lon="1.92588">
        <ele>180.80000305176</ele>
        <time>2015-12-27T12:39:33.000Z</time>
      </trkpt>
      <trkpt lat="48.69591" lon="1.92592">
        <ele>180.60000610352</ele>
        <time>2015-12-27T12:39:36.000Z</time>
      </trkpt>
      <trkpt lat="48.6959" lon="1.92596">
        <ele>180.60000610352</ele>
        <time>2015-12-27T12:39:39.000Z</time>
      </trkpt>
      <trkpt lat="48.69587" lon="1.92602">
        <ele>180.39999389648</ele>
        <time>2015-12-27T12:39:44.000Z</time>
      </trkpt>
      <trkpt lat="48.69583" lon="1.9261">
        <ele>180.19999694824</ele>
        <time>2015-12-27T12:39:49.000Z</time>
      </trkpt>
      <trkpt lat="48.69581" lon="1.92612">
        <ele>180.19999694824</ele>
        <time>2015-12-27T12:39:51.000Z</time>
      </trkpt>
      <trkpt lat="48.69578" lon="1.92617">
        <ele>180</ele>
        <time>2015-12-27T12:39:55.000Z</time>
      </trkpt>
      <trkpt lat="48.69575" lon="1.92624">
        <ele>179.80000305176</ele>
        <time>2015-12-27T12:39:59.000Z</time>
      </trkpt>
      <trkpt lat="48.69572" lon="1.92629">
        <ele>180</ele>
        <time>2015-12-27T12:40:02.000Z</time>
      </trkpt>
      <trkpt lat="48.69569" lon="1.92634">
        <ele>180.19999694824</ele>
        <time>2015-12-27T12:40:05.000Z</time>
      </trkpt>
      <trkpt lat="48.69566" lon="1.92643">
        <ele>180.39999389648</ele>
        <time>2015-12-27T12:40:10.000Z</time>
      </trkpt>
      <trkpt lat="48.69565" lon="1.92645">
        <ele>180.60000610352</ele>
        <time>2015-12-27T12:40:11.000Z</time>
      </trkpt>
      <trkpt lat="48.69563" lon="1.92656">
        <ele>181</ele>
        <time>2015-12-27T12:40:18.000Z</time>
      </trkpt>
      <trkpt lat="48.6956" lon="1.92662">
        <ele>181</ele>
        <time>2015-12-27T12:40:22.000Z</time>
      </trkpt>
      <trkpt lat="48.69558" lon="1.92667">
        <ele>181</ele>
        <time>2015-12-27T12:40:25.000Z</time>
      </trkpt>
      <trkpt lat="48.69557" lon="1.92672">
        <ele>181</ele>
        <time>2015-12-27T12:40:28.000Z</time>
      </trkpt>
      <trkpt lat="48.69554" lon="1.92679">
        <ele>181</ele>
        <time>2015-12-27T12:40:32.000Z</time>
      </trkpt>
      <trkpt lat="48.69552" lon="1.9268">
        <ele>181.19999694824</ele>
        <time>2015-12-27T12:40:33.000Z</time>
      </trkpt>
      <trkpt lat="48.69551" lon="1.92682">
        <ele>181.19999694824</ele>
        <time>2015-12-27T12:40:34.000Z</time>
      </trkpt>
      <trkpt lat="48.69549" lon="1.92688">
        <ele>181.19999694824</ele>
        <time>2015-12-27T12:40:38.000Z</time>
      </trkpt>
      <trkpt lat="48.69548" lon="1.9269">
        <ele>181.19999694824</ele>
        <time>2015-12-27T12:40:39.000Z</time>
      </trkpt>
      <trkpt lat="48.69545" lon="1.92696">
        <ele>181.19999694824</ele>
        <time>2015-12-27T12:40:42.000Z</time>
      </trkpt>
      <trkpt lat="48.69544" lon="1.92699">
        <ele>181.19999694824</ele>
        <time>2015-12-27T12:40:44.000Z</time>
      </trkpt>
      <trkpt lat="48.69543" lon="1.927">
        <ele>181.39999389648</ele>
        <time>2015-12-27T12:40:45.000Z</time>
      </trkpt>
      <trkpt lat="48.69541" lon="1.92701">
        <ele>181.39999389648</ele>
        <time>2015-12-27T12:40:47.000Z</time>
      </trkpt>
      <trkpt lat="48.6954" lon="1.92704">
        <ele>181.39999389648</ele>
        <time>2015-12-27T12:40:48.000Z</time>
      </trkpt>
      <trkpt lat="48.69538" lon="1.9271">
        <ele>181.39999389648</ele>
        <time>2015-12-27T12:40:51.000Z</time>
      </trkpt>
      <trkpt lat="48.69537" lon="1.92717">
        <ele>181.39999389648</ele>
        <time>2015-12-27T12:40:55.000Z</time>
      </trkpt>
      <trkpt lat="48.69535" lon="1.9272">
        <ele>181.39999389648</ele>
        <time>2015-12-27T12:40:57.000Z</time>
      </trkpt>
      <trkpt lat="48.69533" lon="1.92726">
        <ele>181.39999389648</ele>
        <time>2015-12-27T12:41:00.000Z</time>
      </trkpt>
      <trkpt lat="48.69532" lon="1.92728">
        <ele>181.39999389648</ele>
        <time>2015-12-27T12:41:01.000Z</time>
      </trkpt>
      <trkpt lat="48.6953" lon="1.92732">
        <ele>181.39999389648</ele>
        <time>2015-12-27T12:41:03.000Z</time>
      </trkpt>
      <trkpt lat="48.69529" lon="1.92737">
        <ele>181.39999389648</ele>
        <time>2015-12-27T12:41:06.000Z</time>
      </trkpt>
      <trkpt lat="48.69526" lon="1.92746">
        <ele>181.60000610352</ele>
        <time>2015-12-27T12:41:10.000Z</time>
      </trkpt>
      <trkpt lat="48.69523" lon="1.92754">
        <ele>181.60000610352</ele>
        <time>2015-12-27T12:41:15.000Z</time>
      </trkpt>
      <trkpt lat="48.69522" lon="1.92756">
        <ele>181.60000610352</ele>
        <time>2015-12-27T12:41:17.000Z</time>
      </trkpt>
      <trkpt lat="48.69517" lon="1.9276">
        <ele>181.60000610352</ele>
        <time>2015-12-27T12:41:20.000Z</time>
      </trkpt>
      <trkpt lat="48.69514" lon="1.92765">
        <ele>181.60000610352</ele>
        <time>2015-12-27T12:41:23.000Z</time>
      </trkpt>
      <trkpt lat="48.69511" lon="1.9277">
        <ele>181.60000610352</ele>
        <time>2015-12-27T12:41:26.000Z</time>
      </trkpt>
      <trkpt lat="48.69509" lon="1.92775">
        <ele>181.60000610352</ele>
        <time>2015-12-27T12:41:29.000Z</time>
      </trkpt>
      <trkpt lat="48.69506" lon="1.9278">
        <ele>181.60000610352</ele>
        <time>2015-12-27T12:41:32.000Z</time>
      </trkpt>
      <trkpt lat="48.69503" lon="1.92786">
        <ele>181.60000610352</ele>
        <time>2015-12-27T12:41:36.000Z</time>
      </trkpt>
      <trkpt lat="48.69502" lon="1.92789">
        <ele>181.39999389648</ele>
        <time>2015-12-27T12:41:38.000Z</time>
      </trkpt>
      <trkpt lat="48.69498" lon="1.92798">
        <ele>181.39999389648</ele>
        <time>2015-12-27T12:41:43.000Z</time>
      </trkpt>
      <trkpt lat="48.69496" lon="1.92804">
        <ele>181.39999389648</ele>
        <time>2015-12-27T12:41:47.000Z</time>
      </trkpt>
      <trkpt lat="48.69494" lon="1.92806">
        <ele>181.60000610352</ele>
        <time>2015-12-27T12:41:48.000Z</time>
      </trkpt>
      <trkpt lat="48.69493" lon="1.92807">
        <ele>181.60000610352</ele>
        <time>2015-12-27T12:41:49.000Z</time>
      </trkpt>
      <trkpt lat="48.69488" lon="1.92818">
        <ele>182</ele>
        <time>2015-12-27T12:41:55.000Z</time>
      </trkpt>
      <trkpt lat="48.69482" lon="1.92826">
        <ele>182.19999694824</ele>
        <time>2015-12-27T12:42:01.000Z</time>
      </trkpt>
      <trkpt lat="48.69481" lon="1.92828">
        <ele>182.39999389648</ele>
        <time>2015-12-27T12:42:03.000Z</time>
      </trkpt>
      <trkpt lat="48.69478" lon="1.92836">
        <ele>182.60000610352</ele>
        <time>2015-12-27T12:42:08.000Z</time>
      </trkpt>
      <trkpt lat="48.69476" lon="1.92844">
        <ele>182.60000610352</ele>
        <time>2015-12-27T12:42:13.000Z</time>
      </trkpt>
      <trkpt lat="48.69474" lon="1.9285">
        <ele>182.80000305176</ele>
        <time>2015-12-27T12:42:17.000Z</time>
      </trkpt>
      <trkpt lat="48.69473" lon="1.92852">
        <ele>182.80000305176</ele>
        <time>2015-12-27T12:42:18.000Z</time>
      </trkpt>
      <trkpt lat="48.69472" lon="1.92854">
        <ele>182.80000305176</ele>
        <time>2015-12-27T12:42:19.000Z</time>
      </trkpt>
      <trkpt lat="48.69469" lon="1.9286">
        <ele>182.80000305176</ele>
        <time>2015-12-27T12:42:23.000Z</time>
      </trkpt>
      <trkpt lat="48.69466" lon="1.92866">
        <ele>182.60000610352</ele>
        <time>2015-12-27T12:42:27.000Z</time>
      </trkpt>
      <trkpt lat="48.69466" lon="1.92868">
        <ele>182.60000610352</ele>
        <time>2015-12-27T12:42:28.000Z</time>
      </trkpt>
      <trkpt lat="48.69462" lon="1.9288">
        <ele>182</ele>
        <time>2015-12-27T12:42:35.000Z</time>
      </trkpt>
      <trkpt lat="48.69461" lon="1.92882">
        <ele>182</ele>
        <time>2015-12-27T12:42:36.000Z</time>
      </trkpt>
      <trkpt lat="48.69458" lon="1.92888">
        <ele>181.60000610352</ele>
        <time>2015-12-27T12:42:40.000Z</time>
      </trkpt>
      <trkpt lat="48.69453" lon="1.92895">
        <ele>181.39999389648</ele>
        <time>2015-12-27T12:42:44.000Z</time>
      </trkpt>
      <trkpt lat="48.69452" lon="1.92897">
        <ele>181.19999694824</ele>
        <time>2015-12-27T12:42:45.000Z</time>
      </trkpt>
      <trkpt lat="48.69451" lon="1.92898">
        <ele>181.19999694824</ele>
        <time>2015-12-27T12:42:46.000Z</time>
      </trkpt>
      <trkpt lat="48.6945" lon="1.92901">
        <ele>181.19999694824</ele>
        <time>2015-12-27T12:42:48.000Z</time>
      </trkpt>
      <trkpt lat="48.69449" lon="1.92902">
        <ele>181</ele>
        <time>2015-12-27T12:42:49.000Z</time>
      </trkpt>
      <trkpt lat="48.69444" lon="1.92908">
        <ele>180.80000305176</ele>
        <time>2015-12-27T12:42:54.000Z</time>
      </trkpt>
      <trkpt lat="48.69441" lon="1.92913">
        <ele>180.80000305176</ele>
        <time>2015-12-27T12:42:59.000Z</time>
      </trkpt>
      <trkpt lat="48.6944" lon="1.92917">
        <ele>180.60000610352</ele>
        <time>2015-12-27T12:43:02.000Z</time>
      </trkpt>
      <trkpt lat="48.69439" lon="1.92919">
        <ele>180.60000610352</ele>
        <time>2015-12-27T12:43:03.000Z</time>
      </trkpt>
      <trkpt lat="48.69438" lon="1.92919">
        <ele>180.60000610352</ele>
        <time>2015-12-27T12:43:04.000Z</time>
      </trkpt>
      <trkpt lat="48.69437" lon="1.9292">
        <ele>180.60000610352</ele>
        <time>2015-12-27T12:43:05.000Z</time>
      </trkpt>
      <trkpt lat="48.69436" lon="1.9292">
        <ele>180.60000610352</ele>
        <time>2015-12-27T12:43:07.000Z</time>
      </trkpt>
      <trkpt lat="48.69436" lon="1.9292">
        <ele>180.60000610352</ele>
        <time>2015-12-27T12:43:09.000Z</time>
      </trkpt>
      <trkpt lat="48.69431" lon="1.92949">
        <ele>179.60000610352</ele>
        <time>2015-12-27T12:43:53.000Z</time>
      </trkpt>
      <trkpt lat="48.69429" lon="1.92954">
        <ele>179.39999389648</ele>
        <time>2015-12-27T12:43:56.000Z</time>
      </trkpt>
      <trkpt lat="48.69424" lon="1.92966">
        <ele>179.19999694824</ele>
        <time>2015-12-27T12:44:03.000Z</time>
      </trkpt>
      <trkpt lat="48.69424" lon="1.92967">
        <ele>179.19999694824</ele>
        <time>2015-12-27T12:44:04.000Z</time>
      </trkpt>
      <trkpt lat="48.69418" lon="1.92976">
        <ele>179</ele>
        <time>2015-12-27T12:44:10.000Z</time>
      </trkpt>
      <trkpt lat="48.69412" lon="1.92987">
        <ele>179.19999694824</ele>
        <time>2015-12-27T12:44:17.000Z</time>
      </trkpt>
      <trkpt lat="48.69405" lon="1.93002">
        <ele>179.19999694824</ele>
        <time>2015-12-27T12:44:26.000Z</time>
      </trkpt>
      <trkpt lat="48.69402" lon="1.9301">
        <ele>179.19999694824</ele>
        <time>2015-12-27T12:44:31.000Z</time>
      </trkpt>
      <trkpt lat="48.69402" lon="1.93012">
        <ele>179.19999694824</ele>
        <time>2015-12-27T12:44:32.000Z</time>
      </trkpt>
      <trkpt lat="48.69399" lon="1.93016">
        <ele>179.19999694824</ele>
        <time>2015-12-27T12:44:36.000Z</time>
      </trkpt>
      <trkpt lat="48.69398" lon="1.93019">
        <ele>179.19999694824</ele>
        <time>2015-12-27T12:44:38.000Z</time>
      </trkpt>
      <trkpt lat="48.69396" lon="1.93023">
        <ele>179.19999694824</ele>
        <time>2015-12-27T12:44:40.000Z</time>
      </trkpt>
      <trkpt lat="48.6939" lon="1.93034">
        <ele>179.19999694824</ele>
        <time>2015-12-27T12:44:48.000Z</time>
      </trkpt>
      <trkpt lat="48.69382" lon="1.9305">
        <ele>179.19999694824</ele>
        <time>2015-12-27T12:44:58.000Z</time>
      </trkpt>
      <trkpt lat="48.69379" lon="1.93055">
        <ele>179.19999694824</ele>
        <time>2015-12-27T12:45:03.000Z</time>
      </trkpt>
      <trkpt lat="48.69364" lon="1.93089">
        <ele>179.39999389648</ele>
        <time>2015-12-27T12:45:36.000Z</time>
      </trkpt>
      <trkpt lat="48.69364" lon="1.93091">
        <ele>179.39999389648</ele>
        <time>2015-12-27T12:45:37.000Z</time>
      </trkpt>
      <trkpt lat="48.69359" lon="1.93102">
        <ele>179.60000610352</ele>
        <time>2015-12-27T12:45:44.000Z</time>
      </trkpt>
      <trkpt lat="48.69358" lon="1.93107">
        <ele>179.80000305176</ele>
        <time>2015-12-27T12:45:47.000Z</time>
      </trkpt>
      <trkpt lat="48.69356" lon="1.93112">
        <ele>179.80000305176</ele>
        <time>2015-12-27T12:45:50.000Z</time>
      </trkpt>
      <trkpt lat="48.69355" lon="1.93114">
        <ele>179.80000305176</ele>
        <time>2015-12-27T12:45:52.000Z</time>
      </trkpt>
      <trkpt lat="48.69355" lon="1.93116">
        <ele>180</ele>
        <time>2015-12-27T12:45:53.000Z</time>
      </trkpt>
      <trkpt lat="48.69354" lon="1.9312">
        <ele>180</ele>
        <time>2015-12-27T12:45:55.000Z</time>
      </trkpt>
      <trkpt lat="48.69352" lon="1.93131">
        <ele>180</ele>
        <time>2015-12-27T12:46:01.000Z</time>
      </trkpt>
      <trkpt lat="48.69351" lon="1.93133">
        <ele>180</ele>
        <time>2015-12-27T12:46:02.000Z</time>
      </trkpt>
      <trkpt lat="48.69344" lon="1.93148">
        <ele>180.39999389648</ele>
        <time>2015-12-27T12:46:11.000Z</time>
      </trkpt>
      <trkpt lat="48.69337" lon="1.93163">
        <ele>180.19999694824</ele>
        <time>2015-12-27T12:46:20.000Z</time>
      </trkpt>
      <trkpt lat="48.69333" lon="1.93172">
        <ele>180</ele>
        <time>2015-12-27T12:46:27.000Z</time>
      </trkpt>
      <trkpt lat="48.69326" lon="1.93189">
        <ele>179.39999389648</ele>
        <time>2015-12-27T12:46:43.000Z</time>
      </trkpt>
      <trkpt lat="48.69323" lon="1.93195">
        <ele>179.19999694824</ele>
        <time>2015-12-27T12:46:46.000Z</time>
      </trkpt>
      <trkpt lat="48.69318" lon="1.93208">
        <ele>179</ele>
        <time>2015-12-27T12:46:54.000Z</time>
      </trkpt>
      <trkpt lat="48.69313" lon="1.9322">
        <ele>179.60000610352</ele>
        <time>2015-12-27T12:47:01.000Z</time>
      </trkpt>
      <trkpt lat="48.69305" lon="1.93239">
        <ele>180.60000610352</ele>
        <time>2015-12-27T12:47:12.000Z</time>
      </trkpt>
      <trkpt lat="48.69302" lon="1.93245">
        <ele>180.80000305176</ele>
        <time>2015-12-27T12:47:15.000Z</time>
      </trkpt>
      <trkpt lat="48.693" lon="1.93252">
        <ele>181</ele>
        <time>2015-12-27T12:47:19.000Z</time>
      </trkpt>
      <trkpt lat="48.69298" lon="1.93259">
        <ele>181.19999694824</ele>
        <time>2015-12-27T12:47:23.000Z</time>
      </trkpt>
      <trkpt lat="48.69297" lon="1.9326">
        <ele>181.19999694824</ele>
        <time>2015-12-27T12:47:24.000Z</time>
      </trkpt>
      <trkpt lat="48.69293" lon="1.93268">
        <ele>181.39999389648</ele>
        <time>2015-12-27T12:47:30.000Z</time>
      </trkpt>
      <trkpt lat="48.69289" lon="1.93281">
        <ele>181.80000305176</ele>
        <time>2015-12-27T12:47:38.000Z</time>
      </trkpt>
      <trkpt lat="48.69283" lon="1.93295">
        <ele>182</ele>
        <time>2015-12-27T12:47:46.000Z</time>
      </trkpt>
      <trkpt lat="48.69277" lon="1.93313">
        <ele>182.39999389648</ele>
        <time>2015-12-27T12:47:56.000Z</time>
      </trkpt>
      <trkpt lat="48.69271" lon="1.93327">
        <ele>182.80000305176</ele>
        <time>2015-12-27T12:48:04.000Z</time>
      </trkpt>
      <trkpt lat="48.69266" lon="1.93342">
        <ele>182.19999694824</ele>
        <time>2015-12-27T12:48:12.000Z</time>
      </trkpt>
      <trkpt lat="48.6926" lon="1.93356">
        <ele>181.80000305176</ele>
        <time>2015-12-27T12:48:20.000Z</time>
      </trkpt>
      <trkpt lat="48.69253" lon="1.93374">
        <ele>181</ele>
        <time>2015-12-27T12:48:30.000Z</time>
      </trkpt>
      <trkpt lat="48.69246" lon="1.9339">
        <ele>180.60000610352</ele>
        <time>2015-12-27T12:48:40.000Z</time>
      </trkpt>
      <trkpt lat="48.69237" lon="1.93408">
        <ele>180.39999389648</ele>
        <time>2015-12-27T12:48:51.000Z</time>
      </trkpt>
      <trkpt lat="48.69232" lon="1.93422">
        <ele>180</ele>
        <time>2015-12-27T12:48:59.000Z</time>
      </trkpt>
      <trkpt lat="48.69227" lon="1.93436">
        <ele>179.39999389648</ele>
        <time>2015-12-27T12:49:07.000Z</time>
      </trkpt>
      <trkpt lat="48.69221" lon="1.9345">
        <ele>178.39999389648</ele>
        <time>2015-12-27T12:49:15.000Z</time>
      </trkpt>
      <trkpt lat="48.69215" lon="1.93468">
        <ele>176.80000305176</ele>
        <time>2015-12-27T12:49:25.000Z</time>
      </trkpt>
      <trkpt lat="48.69207" lon="1.93487">
        <ele>175</ele>
        <time>2015-12-27T12:49:36.000Z</time>
      </trkpt>
      <trkpt lat="48.692" lon="1.93502">
        <ele>175.19999694824</ele>
        <time>2015-12-27T12:49:45.000Z</time>
      </trkpt>
      <trkpt lat="48.69194" lon="1.93516">
        <ele>175.39999389648</ele>
        <time>2015-12-27T12:49:54.000Z</time>
      </trkpt>
      <trkpt lat="48.69187" lon="1.9353">
        <ele>175.39999389648</ele>
        <time>2015-12-27T12:50:03.000Z</time>
      </trkpt>
      <trkpt lat="48.69187" lon="1.93532">
        <ele>175.39999389648</ele>
        <time>2015-12-27T12:50:04.000Z</time>
      </trkpt>
      <trkpt lat="48.69185" lon="1.93539">
        <ele>175.60000610352</ele>
        <time>2015-12-27T12:50:08.000Z</time>
      </trkpt>
      <trkpt lat="48.69184" lon="1.93547">
        <ele>175.80000305176</ele>
        <time>2015-12-27T12:50:13.000Z</time>
      </trkpt>
      <trkpt lat="48.69185" lon="1.93548">
        <ele>175.80000305176</ele>
        <time>2015-12-27T12:50:14.000Z</time>
      </trkpt>
      <trkpt lat="48.69185" lon="1.93548">
        <ele>175.80000305176</ele>
        <time>2015-12-27T12:50:15.000Z</time>
      </trkpt>
      <trkpt lat="48.69208" lon="1.9357">
        <ele>176</ele>
        <time>2015-12-27T12:50:39.000Z</time>
      </trkpt>
      <trkpt lat="48.69209" lon="1.93571">
        <ele>176</ele>
        <time>2015-12-27T12:50:40.000Z</time>
      </trkpt>
      <trkpt lat="48.69222" lon="1.93579">
        <ele>176</ele>
        <time>2015-12-27T12:50:50.000Z</time>
      </trkpt>
      <trkpt lat="48.69231" lon="1.93585">
        <ele>175.80000305176</ele>
        <time>2015-12-27T12:50:58.000Z</time>
      </trkpt>
      <trkpt lat="48.69241" lon="1.93591">
        <ele>175.80000305176</ele>
        <time>2015-12-27T12:51:06.000Z</time>
      </trkpt>
      <trkpt lat="48.69255" lon="1.936">
        <ele>175.60000610352</ele>
        <time>2015-12-27T12:51:17.000Z</time>
      </trkpt>
      <trkpt lat="48.69266" lon="1.93607">
        <ele>175.60000610352</ele>
        <time>2015-12-27T12:51:26.000Z</time>
      </trkpt>
      <trkpt lat="48.69279" lon="1.93613">
        <ele>175.60000610352</ele>
        <time>2015-12-27T12:51:36.000Z</time>
      </trkpt>
      <trkpt lat="48.6929" lon="1.9362">
        <ele>175.39999389648</ele>
        <time>2015-12-27T12:51:45.000Z</time>
      </trkpt>
      <trkpt lat="48.693" lon="1.93628">
        <ele>175.39999389648</ele>
        <time>2015-12-27T12:51:54.000Z</time>
      </trkpt>
      <trkpt lat="48.69305" lon="1.93632">
        <ele>175.39999389648</ele>
        <time>2015-12-27T12:51:58.000Z</time>
      </trkpt>
      <trkpt lat="48.69313" lon="1.93636">
        <ele>175.19999694824</ele>
        <time>2015-12-27T12:52:06.000Z</time>
      </trkpt>
      <trkpt lat="48.6932" lon="1.93639">
        <ele>175.19999694824</ele>
        <time>2015-12-27T12:52:10.000Z</time>
      </trkpt>
      <trkpt lat="48.69329" lon="1.93644">
        <ele>175.19999694824</ele>
        <time>2015-12-27T12:52:17.000Z</time>
      </trkpt>
      <trkpt lat="48.69337" lon="1.9365">
        <ele>175</ele>
        <time>2015-12-27T12:52:23.000Z</time>
      </trkpt>
      <trkpt lat="48.69338" lon="1.9365">
        <ele>175</ele>
        <time>2015-12-27T12:52:24.000Z</time>
      </trkpt>
      <trkpt lat="48.69343" lon="1.93652">
        <ele>175</ele>
        <time>2015-12-27T12:52:28.000Z</time>
      </trkpt>
      <trkpt lat="48.69352" lon="1.93657">
        <ele>175</ele>
        <time>2015-12-27T12:52:35.000Z</time>
      </trkpt>
      <trkpt lat="48.69357" lon="1.9366">
        <ele>175</ele>
        <time>2015-12-27T12:52:39.000Z</time>
      </trkpt>
      <trkpt lat="48.69358" lon="1.9366">
        <ele>175</ele>
        <time>2015-12-27T12:52:40.000Z</time>
      </trkpt>
      <trkpt lat="48.69367" lon="1.93665">
        <ele>175.19999694824</ele>
        <time>2015-12-27T12:52:46.000Z</time>
      </trkpt>
      <trkpt lat="48.69373" lon="1.93667">
        <ele>175.19999694824</ele>
        <time>2015-12-27T12:52:51.000Z</time>
      </trkpt>
      <trkpt lat="48.69384" lon="1.93672">
        <ele>175.39999389648</ele>
        <time>2015-12-27T12:53:00.000Z</time>
      </trkpt>
      <trkpt lat="48.69393" lon="1.93677">
        <ele>175.39999389648</ele>
        <time>2015-12-27T12:53:07.000Z</time>
      </trkpt>
      <trkpt lat="48.694" lon="1.9368">
        <ele>175.60000610352</ele>
        <time>2015-12-27T12:53:13.000Z</time>
      </trkpt>
      <trkpt lat="48.69409" lon="1.93686">
        <ele>175.60000610352</ele>
        <time>2015-12-27T12:53:20.000Z</time>
      </trkpt>
      <trkpt lat="48.69418" lon="1.9369">
        <ele>175.80000305176</ele>
        <time>2015-12-27T12:53:27.000Z</time>
      </trkpt>
      <trkpt lat="48.69424" lon="1.93694">
        <ele>175.80000305176</ele>
        <time>2015-12-27T12:53:32.000Z</time>
      </trkpt>
      <trkpt lat="48.69431" lon="1.93699">
        <ele>176</ele>
        <time>2015-12-27T12:53:38.000Z</time>
      </trkpt>
      <trkpt lat="48.69439" lon="1.93702">
        <ele>176</ele>
        <time>2015-12-27T12:53:44.000Z</time>
      </trkpt>
      <trkpt lat="48.69449" lon="1.93708">
        <ele>176</ele>
        <time>2015-12-27T12:53:52.000Z</time>
      </trkpt>
      <trkpt lat="48.69463" lon="1.93714">
        <ele>176</ele>
        <time>2015-12-27T12:54:02.000Z</time>
      </trkpt>
      <trkpt lat="48.6947" lon="1.93717">
        <ele>176</ele>
        <time>2015-12-27T12:54:09.000Z</time>
      </trkpt>
      <trkpt lat="48.69483" lon="1.93724">
        <ele>176</ele>
        <time>2015-12-27T12:54:18.000Z</time>
      </trkpt>
      <trkpt lat="48.69495" lon="1.93731">
        <ele>176</ele>
        <time>2015-12-27T12:54:28.000Z</time>
      </trkpt>
      <trkpt lat="48.69507" lon="1.93737">
        <ele>176</ele>
        <time>2015-12-27T12:54:38.000Z</time>
      </trkpt>
      <trkpt lat="48.69515" lon="1.93741">
        <ele>176</ele>
        <time>2015-12-27T12:54:45.000Z</time>
      </trkpt>
      <trkpt lat="48.69524" lon="1.93748">
        <ele>176</ele>
        <time>2015-12-27T12:54:53.000Z</time>
      </trkpt>
      <trkpt lat="48.69526" lon="1.93749">
        <ele>176</ele>
        <time>2015-12-27T12:54:55.000Z</time>
      </trkpt>
      <trkpt lat="48.6953" lon="1.9375">
        <ele>176.19999694824</ele>
        <time>2015-12-27T12:54:58.000Z</time>
      </trkpt>
      <trkpt lat="48.69539" lon="1.93755">
        <ele>176.19999694824</ele>
        <time>2015-12-27T12:55:06.000Z</time>
      </trkpt>
      <trkpt lat="48.69545" lon="1.93757">
        <ele>176.19999694824</ele>
        <time>2015-12-27T12:55:12.000Z</time>
      </trkpt>
      <trkpt lat="48.69553" lon="1.93761">
        <ele>176.39999389648</ele>
        <time>2015-12-27T12:55:19.000Z</time>
      </trkpt>
      <trkpt lat="48.69558" lon="1.93763">
        <ele>176.39999389648</ele>
        <time>2015-12-27T12:55:24.000Z</time>
      </trkpt>
      <trkpt lat="48.69561" lon="1.93764">
        <ele>176.39999389648</ele>
        <time>2015-12-27T12:55:26.000Z</time>
      </trkpt>
      <trkpt lat="48.69571" lon="1.93765">
        <ele>176.60000610352</ele>
        <time>2015-12-27T12:55:34.000Z</time>
      </trkpt>
      <trkpt lat="48.69573" lon="1.93765">
        <ele>176.60000610352</ele>
        <time>2015-12-27T12:55:36.000Z</time>
      </trkpt>
      <trkpt lat="48.69575" lon="1.93762">
        <ele>176.60000610352</ele>
        <time>2015-12-27T12:55:39.000Z</time>
      </trkpt>
      <trkpt lat="48.69576" lon="1.93762">
        <ele>176.60000610352</ele>
        <time>2015-12-27T12:55:40.000Z</time>
      </trkpt>
      <trkpt lat="48.69582" lon="1.93759">
        <ele>176.80000305176</ele>
        <time>2015-12-27T12:55:45.000Z</time>
      </trkpt>
      <trkpt lat="48.69587" lon="1.93757">
        <ele>176.80000305176</ele>
        <time>2015-12-27T12:55:48.000Z</time>
      </trkpt>
      <trkpt lat="48.69589" lon="1.93756">
        <ele>176.80000305176</ele>
        <time>2015-12-27T12:55:51.000Z</time>
      </trkpt>
      <trkpt lat="48.69589" lon="1.93757">
        <ele>176.80000305176</ele>
        <time>2015-12-27T12:55:52.000Z</time>
      </trkpt>
      <trkpt lat="48.69627" lon="1.93783">
        <ele>176.80000305176</ele>
        <time>2015-12-27T12:58:45.000Z</time>
      </trkpt>
      <trkpt lat="48.69632" lon="1.93777">
        <ele>176.60000610352</ele>
        <time>2015-12-27T12:58:50.000Z</time>
      </trkpt>
      <trkpt lat="48.69635" lon="1.93772">
        <ele>176.60000610352</ele>
        <time>2015-12-27T12:58:53.000Z</time>
      </trkpt>
      <trkpt lat="48.6964" lon="1.93764">
        <ele>176.60000610352</ele>
        <time>2015-12-27T12:58:59.000Z</time>
      </trkpt>
      <trkpt lat="48.69651" lon="1.93754">
        <ele>176.39999389648</ele>
        <time>2015-12-27T12:59:08.000Z</time>
      </trkpt>
      <trkpt lat="48.69659" lon="1.93746">
        <ele>176.39999389648</ele>
        <time>2015-12-27T12:59:15.000Z</time>
      </trkpt>
      <trkpt lat="48.69669" lon="1.93737">
        <ele>176.19999694824</ele>
        <time>2015-12-27T12:59:23.000Z</time>
      </trkpt>
      <trkpt lat="48.69676" lon="1.93734">
        <ele>176</ele>
        <time>2015-12-27T12:59:28.000Z</time>
      </trkpt>
      <trkpt lat="48.69677" lon="1.93735">
        <ele>176</ele>
        <time>2015-12-27T12:59:29.000Z</time>
      </trkpt>
      <trkpt lat="48.69679" lon="1.9374">
        <ele>176</ele>
        <time>2015-12-27T12:59:33.000Z</time>
      </trkpt>
      <trkpt lat="48.69684" lon="1.93745">
        <ele>176</ele>
        <time>2015-12-27T12:59:39.000Z</time>
      </trkpt>
      <trkpt lat="48.6969" lon="1.93748">
        <ele>176</ele>
        <time>2015-12-27T12:59:44.000Z</time>
      </trkpt>
      <trkpt lat="48.69691" lon="1.93749">
        <ele>176</ele>
        <time>2015-12-27T12:59:45.000Z</time>
      </trkpt>
      <trkpt lat="48.69701" lon="1.93754">
        <ele>176</ele>
        <time>2015-12-27T12:59:53.000Z</time>
      </trkpt>
      <trkpt lat="48.69715" lon="1.93761">
        <ele>176</ele>
        <time>2015-12-27T13:00:03.000Z</time>
      </trkpt>
      <trkpt lat="48.69731" lon="1.93769">
        <ele>176</ele>
        <time>2015-12-27T13:00:14.000Z</time>
      </trkpt>
      <trkpt lat="48.69742" lon="1.93775">
        <ele>176</ele>
        <time>2015-12-27T13:00:22.000Z</time>
      </trkpt>
      <trkpt lat="48.69754" lon="1.93781">
        <ele>176</ele>
        <time>2015-12-27T13:00:30.000Z</time>
      </trkpt>
      <trkpt lat="48.69765" lon="1.93788">
        <ele>176</ele>
        <time>2015-12-27T13:00:38.000Z</time>
      </trkpt>
      <trkpt lat="48.6978" lon="1.93796">
        <ele>175.80000305176</ele>
        <time>2015-12-27T13:00:48.000Z</time>
      </trkpt>
      <trkpt lat="48.69793" lon="1.93802">
        <ele>175.39999389648</ele>
        <time>2015-12-27T13:00:57.000Z</time>
      </trkpt>
      <trkpt lat="48.69804" lon="1.93808">
        <ele>175.19999694824</ele>
        <time>2015-12-27T13:01:05.000Z</time>
      </trkpt>
      <trkpt lat="48.69816" lon="1.93815">
        <ele>174.80000305176</ele>
        <time>2015-12-27T13:01:15.000Z</time>
      </trkpt>
      <trkpt lat="48.69827" lon="1.9382">
        <ele>174.60000610352</ele>
        <time>2015-12-27T13:01:22.000Z</time>
      </trkpt>
      <trkpt lat="48.69839" lon="1.93827">
        <ele>174.39999389648</ele>
        <time>2015-12-27T13:01:31.000Z</time>
      </trkpt>
      <trkpt lat="48.69843" lon="1.9383">
        <ele>174.19999694824</ele>
        <time>2015-12-27T13:01:35.000Z</time>
      </trkpt>
      <trkpt lat="48.69856" lon="1.93837">
        <ele>174</ele>
        <time>2015-12-27T13:01:44.000Z</time>
      </trkpt>
      <trkpt lat="48.69871" lon="1.93845">
        <ele>174</ele>
        <time>2015-12-27T13:01:55.000Z</time>
      </trkpt>
      <trkpt lat="48.69886" lon="1.93853">
        <ele>174</ele>
        <time>2015-12-27T13:02:06.000Z</time>
      </trkpt>
      <trkpt lat="48.69902" lon="1.93862">
        <ele>174</ele>
        <time>2015-12-27T13:02:18.000Z</time>
      </trkpt>
      <trkpt lat="48.69917" lon="1.9387">
        <ele>174</ele>
        <time>2015-12-27T13:02:29.000Z</time>
      </trkpt>
      <trkpt lat="48.69926" lon="1.93875">
        <ele>174</ele>
        <time>2015-12-27T13:02:36.000Z</time>
      </trkpt>
      <trkpt lat="48.69937" lon="1.93882">
        <ele>174</ele>
        <time>2015-12-27T13:02:44.000Z</time>
      </trkpt>
      <trkpt lat="48.6995" lon="1.93889">
        <ele>173.80000305176</ele>
        <time>2015-12-27T13:02:53.000Z</time>
      </trkpt>
      <trkpt lat="48.69966" lon="1.93898">
        <ele>173.60000610352</ele>
        <time>2015-12-27T13:03:05.000Z</time>
      </trkpt>
      <trkpt lat="48.69979" lon="1.93906">
        <ele>173.39999389648</ele>
        <time>2015-12-27T13:03:14.000Z</time>
      </trkpt>
      <trkpt lat="48.69992" lon="1.93912">
        <ele>173.39999389648</ele>
        <time>2015-12-27T13:03:23.000Z</time>
      </trkpt>
      <trkpt lat="48.70008" lon="1.93922">
        <ele>173.19999694824</ele>
        <time>2015-12-27T13:03:35.000Z</time>
      </trkpt>
      <trkpt lat="48.70019" lon="1.93931">
        <ele>173</ele>
        <time>2015-12-27T13:03:43.000Z</time>
      </trkpt>
      <trkpt lat="48.70027" lon="1.93938">
        <ele>173</ele>
        <time>2015-12-27T13:03:50.000Z</time>
      </trkpt>
      <trkpt lat="48.70039" lon="1.93947">
        <ele>172.80000305176</ele>
        <time>2015-12-27T13:03:59.000Z</time>
      </trkpt>
      <trkpt lat="48.70052" lon="1.93958">
        <ele>172.60000610352</ele>
        <time>2015-12-27T13:04:10.000Z</time>
      </trkpt>
      <trkpt lat="48.70065" lon="1.93968">
        <ele>172.39999389648</ele>
        <time>2015-12-27T13:04:20.000Z</time>
      </trkpt>
      <trkpt lat="48.70077" lon="1.93978">
        <ele>172.39999389648</ele>
        <time>2015-12-27T13:04:30.000Z</time>
      </trkpt>
      <trkpt lat="48.70091" lon="1.9399">
        <ele>172.19999694824</ele>
        <time>2015-12-27T13:04:41.000Z</time>
      </trkpt>
      <trkpt lat="48.70106" lon="1.94002">
        <ele>172</ele>
        <time>2015-12-27T13:04:52.000Z</time>
      </trkpt>
      <trkpt lat="48.70115" lon="1.9401">
        <ele>172</ele>
        <time>2015-12-27T13:04:59.000Z</time>
      </trkpt>
      <trkpt lat="48.70123" lon="1.94017">
        <ele>172</ele>
        <time>2015-12-27T13:05:07.000Z</time>
      </trkpt>
      <trkpt lat="48.70132" lon="1.94024">
        <ele>172</ele>
        <time>2015-12-27T13:05:45.000Z</time>
      </trkpt>
      <trkpt lat="48.70136" lon="1.94028">
        <ele>172</ele>
        <time>2015-12-27T13:05:48.000Z</time>
      </trkpt>
      <trkpt lat="48.7014" lon="1.94031">
        <ele>172</ele>
        <time>2015-12-27T13:05:51.000Z</time>
      </trkpt>
      <trkpt lat="48.70143" lon="1.94032">
        <ele>172</ele>
        <time>2015-12-27T13:05:54.000Z</time>
      </trkpt>
      <trkpt lat="48.70148" lon="1.94033">
        <ele>172</ele>
        <time>2015-12-27T13:05:57.000Z</time>
      </trkpt>
      <trkpt lat="48.70153" lon="1.94034">
        <ele>172</ele>
        <time>2015-12-27T13:06:00.000Z</time>
      </trkpt>
      <trkpt lat="48.70154" lon="1.94035">
        <ele>172</ele>
        <time>2015-12-27T13:06:01.000Z</time>
      </trkpt>
      <trkpt lat="48.70159" lon="1.9404">
        <ele>172</ele>
        <time>2015-12-27T13:06:05.000Z</time>
      </trkpt>
      <trkpt lat="48.70168" lon="1.9405">
        <ele>172</ele>
        <time>2015-12-27T13:06:12.000Z</time>
      </trkpt>
      <trkpt lat="48.70183" lon="1.94066">
        <ele>172</ele>
        <time>2015-12-27T13:06:23.000Z</time>
      </trkpt>
      <trkpt lat="48.70193" lon="1.94077">
        <ele>172</ele>
        <time>2015-12-27T13:06:31.000Z</time>
      </trkpt>
      <trkpt lat="48.70205" lon="1.94089">
        <ele>171.80000305176</ele>
        <time>2015-12-27T13:06:40.000Z</time>
      </trkpt>
      <trkpt lat="48.70215" lon="1.94098">
        <ele>171.60000610352</ele>
        <time>2015-12-27T13:06:47.000Z</time>
      </trkpt>
      <trkpt lat="48.70219" lon="1.94102">
        <ele>171.60000610352</ele>
        <time>2015-12-27T13:06:51.000Z</time>
      </trkpt>
      <trkpt lat="48.70222" lon="1.94103">
        <ele>171.60000610352</ele>
        <time>2015-12-27T13:06:53.000Z</time>
      </trkpt>
      <trkpt lat="48.70233" lon="1.94113">
        <ele>171.39999389648</ele>
        <time>2015-12-27T13:07:01.000Z</time>
      </trkpt>
      <trkpt lat="48.7024" lon="1.9412">
        <ele>171.39999389648</ele>
        <time>2015-12-27T13:07:07.000Z</time>
      </trkpt>
      <trkpt lat="48.70243" lon="1.94122">
        <ele>171.39999389648</ele>
        <time>2015-12-27T13:07:09.000Z</time>
      </trkpt>
      <trkpt lat="48.70253" lon="1.94131">
        <ele>171.19999694824</ele>
        <time>2015-12-27T13:07:17.000Z</time>
      </trkpt>
      <trkpt lat="48.70263" lon="1.94137">
        <ele>171</ele>
        <time>2015-12-27T13:07:25.000Z</time>
      </trkpt>
      <trkpt lat="48.70266" lon="1.9414">
        <ele>171</ele>
        <time>2015-12-27T13:07:28.000Z</time>
      </trkpt>
      <trkpt lat="48.7027" lon="1.94142">
        <ele>171</ele>
        <time>2015-12-27T13:07:31.000Z</time>
      </trkpt>
      <trkpt lat="48.70281" lon="1.94153">
        <ele>170.80000305176</ele>
        <time>2015-12-27T13:07:40.000Z</time>
      </trkpt>
      <trkpt lat="48.70286" lon="1.94161">
        <ele>170.60000610352</ele>
        <time>2015-12-27T13:07:46.000Z</time>
      </trkpt>
      <trkpt lat="48.70286" lon="1.94161">
        <ele>170.60000610352</ele>
        <time>2015-12-27T13:07:47.000Z</time>
      </trkpt>
      <trkpt lat="48.70295" lon="1.94169">
        <ele>170.19999694824</ele>
        <time>2015-12-27T13:08:00.000Z</time>
      </trkpt>
      <trkpt lat="48.70298" lon="1.94171">
        <ele>170.19999694824</ele>
        <time>2015-12-27T13:08:02.000Z</time>
      </trkpt>
      <trkpt lat="48.70308" lon="1.94177">
        <ele>169.80000305176</ele>
        <time>2015-12-27T13:08:10.000Z</time>
      </trkpt>
      <trkpt lat="48.70316" lon="1.94183">
        <ele>169.60000610352</ele>
        <time>2015-12-27T13:08:16.000Z</time>
      </trkpt>
      <trkpt lat="48.70321" lon="1.94192">
        <ele>169.39999389648</ele>
        <time>2015-12-27T13:08:22.000Z</time>
      </trkpt>
      <trkpt lat="48.70329" lon="1.94209">
        <ele>169</ele>
        <time>2015-12-27T13:08:31.000Z</time>
      </trkpt>
      <trkpt lat="48.70335" lon="1.94222">
        <ele>168.60000610352</ele>
        <time>2015-12-27T13:08:39.000Z</time>
      </trkpt>
      <trkpt lat="48.70341" lon="1.94235">
        <ele>168.39999389648</ele>
        <time>2015-12-27T13:08:46.000Z</time>
      </trkpt>
      <trkpt lat="48.70349" lon="1.94252">
        <ele>168.19999694824</ele>
        <time>2015-12-27T13:08:55.000Z</time>
      </trkpt>
      <trkpt lat="48.70358" lon="1.9427">
        <ele>168.19999694824</ele>
        <time>2015-12-27T13:09:05.000Z</time>
      </trkpt>
      <trkpt lat="48.70365" lon="1.94284">
        <ele>168.19999694824</ele>
        <time>2015-12-27T13:09:13.000Z</time>
      </trkpt>
      <trkpt lat="48.70371" lon="1.94295">
        <ele>168.19999694824</ele>
        <time>2015-12-27T13:09:20.000Z</time>
      </trkpt>
      <trkpt lat="48.70374" lon="1.943">
        <ele>168.19999694824</ele>
        <time>2015-12-27T13:09:23.000Z</time>
      </trkpt>
      <trkpt lat="48.70374" lon="1.94302">
        <ele>168.19999694824</ele>
        <time>2015-12-27T13:09:25.000Z</time>
      </trkpt>
      <trkpt lat="48.70374" lon="1.94303">
        <ele>168.19999694824</ele>
        <time>2015-12-27T13:09:26.000Z</time>
      </trkpt>
      <trkpt lat="48.70378" lon="1.94309">
        <ele>168.19999694824</ele>
        <time>2015-12-27T13:09:30.000Z</time>
      </trkpt>
      <trkpt lat="48.70385" lon="1.94319">
        <ele>168.19999694824</ele>
        <time>2015-12-27T13:09:36.000Z</time>
      </trkpt>
      <trkpt lat="48.70392" lon="1.94336">
        <ele>168</ele>
        <time>2015-12-27T13:09:45.000Z</time>
      </trkpt>
      <trkpt lat="48.70398" lon="1.94352">
        <ele>168</ele>
        <time>2015-12-27T13:09:53.000Z</time>
      </trkpt>
      <trkpt lat="48.70401" lon="1.94362">
        <ele>167.80000305176</ele>
        <time>2015-12-27T13:09:59.000Z</time>
      </trkpt>
      <trkpt lat="48.70402" lon="1.94363">
        <ele>167.80000305176</ele>
        <time>2015-12-27T13:10:00.000Z</time>
      </trkpt>
      <trkpt lat="48.70405" lon="1.94371">
        <ele>167.80000305176</ele>
        <time>2015-12-27T13:10:04.000Z</time>
      </trkpt>
      <trkpt lat="48.70409" lon="1.94379">
        <ele>167.60000610352</ele>
        <time>2015-12-27T13:10:10.000Z</time>
      </trkpt>
      <trkpt lat="48.70417" lon="1.94397">
        <ele>167.39999389648</ele>
        <time>2015-12-27T13:10:20.000Z</time>
      </trkpt>
      <trkpt lat="48.70426" lon="1.94413">
        <ele>167</ele>
        <time>2015-12-27T13:10:29.000Z</time>
      </trkpt>
      <trkpt lat="48.70429" lon="1.94419">
        <ele>167</ele>
        <time>2015-12-27T13:10:33.000Z</time>
      </trkpt>
      <trkpt lat="48.70432" lon="1.94425">
        <ele>166.80000305176</ele>
        <time>2015-12-27T13:10:36.000Z</time>
      </trkpt>
      <trkpt lat="48.70434" lon="1.94428">
        <ele>166.80000305176</ele>
        <time>2015-12-27T13:10:38.000Z</time>
      </trkpt>
      <trkpt lat="48.70436" lon="1.94433">
        <ele>166.60000610352</ele>
        <time>2015-12-27T13:10:41.000Z</time>
      </trkpt>
      <trkpt lat="48.70445" lon="1.94449">
        <ele>166.39999389648</ele>
        <time>2015-12-27T13:10:50.000Z</time>
      </trkpt>
      <trkpt lat="48.70456" lon="1.94468">
        <ele>165.80000305176</ele>
        <time>2015-12-27T13:11:01.000Z</time>
      </trkpt>
      <trkpt lat="48.70465" lon="1.94483">
        <ele>165.39999389648</ele>
        <time>2015-12-27T13:11:10.000Z</time>
      </trkpt>
      <trkpt lat="48.70475" lon="1.94496">
        <ele>165.19999694824</ele>
        <time>2015-12-27T13:11:19.000Z</time>
      </trkpt>
      <trkpt lat="48.70486" lon="1.94514">
        <ele>165</ele>
        <time>2015-12-27T13:11:30.000Z</time>
      </trkpt>
      <trkpt lat="48.70494" lon="1.94524">
        <ele>165</ele>
        <time>2015-12-27T13:11:37.000Z</time>
      </trkpt>
      <trkpt lat="48.70505" lon="1.9454">
        <ele>165</ele>
        <time>2015-12-27T13:11:47.000Z</time>
      </trkpt>
      <trkpt lat="48.70513" lon="1.94553">
        <ele>165</ele>
        <time>2015-12-27T13:11:55.000Z</time>
      </trkpt>
      <trkpt lat="48.70522" lon="1.94566">
        <ele>165</ele>
        <time>2015-12-27T13:12:03.000Z</time>
      </trkpt>
      <trkpt lat="48.70528" lon="1.94574">
        <ele>165</ele>
        <time>2015-12-27T13:12:08.000Z</time>
      </trkpt>
      <trkpt lat="48.70538" lon="1.94587">
        <ele>164.60000610352</ele>
        <time>2015-12-27T13:12:16.000Z</time>
      </trkpt>
      <trkpt lat="48.70548" lon="1.94604">
        <ele>164.39999389648</ele>
        <time>2015-12-27T13:12:26.000Z</time>
      </trkpt>
      <trkpt lat="48.70559" lon="1.94621">
        <ele>164</ele>
        <time>2015-12-27T13:12:36.000Z</time>
      </trkpt>
      <trkpt lat="48.7056" lon="1.94621">
        <ele>164</ele>
        <time>2015-12-27T13:12:38.000Z</time>
      </trkpt>
      <trkpt lat="48.70568" lon="1.94634">
        <ele>163.80000305176</ele>
        <time>2015-12-27T13:13:29.000Z</time>
      </trkpt>
      <trkpt lat="48.70569" lon="1.94636">
        <ele>163.80000305176</ele>
        <time>2015-12-27T13:13:30.000Z</time>
      </trkpt>
      <trkpt lat="48.70577" lon="1.94646">
        <ele>163.60000610352</ele>
        <time>2015-12-27T13:13:37.000Z</time>
      </trkpt>
      <trkpt lat="48.70583" lon="1.94654">
        <ele>163.39999389648</ele>
        <time>2015-12-27T13:13:43.000Z</time>
      </trkpt>
      <trkpt lat="48.70584" lon="1.94654">
        <ele>163.39999389648</ele>
        <time>2015-12-27T13:13:44.000Z</time>
      </trkpt>
      <trkpt lat="48.70584" lon="1.94654">
        <ele>163.39999389648</ele>
        <time>2015-12-27T13:13:45.000Z</time>
      </trkpt>
      <trkpt lat="48.70595" lon="1.94673">
        <ele>163.39999389648</ele>
        <time>2015-12-27T13:14:05.000Z</time>
      </trkpt>
      <trkpt lat="48.70596" lon="1.94677">
        <ele>163.39999389648</ele>
        <time>2015-12-27T13:14:07.000Z</time>
      </trkpt>
      <trkpt lat="48.70601" lon="1.94692">
        <ele>163.39999389648</ele>
        <time>2015-12-27T13:14:15.000Z</time>
      </trkpt>
      <trkpt lat="48.70607" lon="1.94705">
        <ele>163.60000610352</ele>
        <time>2015-12-27T13:14:23.000Z</time>
      </trkpt>
      <trkpt lat="48.70611" lon="1.9471">
        <ele>163.80000305176</ele>
        <time>2015-12-27T13:14:27.000Z</time>
      </trkpt>
      <trkpt lat="48.70612" lon="1.94711">
        <ele>163.80000305176</ele>
        <time>2015-12-27T13:14:28.000Z</time>
      </trkpt>
      <trkpt lat="48.70622" lon="1.94716">
        <ele>164.19999694824</ele>
        <time>2015-12-27T13:14:36.000Z</time>
      </trkpt>
      <trkpt lat="48.70623" lon="1.94717">
        <ele>164.19999694824</ele>
        <time>2015-12-27T13:14:37.000Z</time>
      </trkpt>
      <trkpt lat="48.70627" lon="1.94721">
        <ele>164.39999389648</ele>
        <time>2015-12-27T13:14:43.000Z</time>
      </trkpt>
      <trkpt lat="48.70632" lon="1.94724">
        <ele>164.39999389648</ele>
        <time>2015-12-27T13:14:48.000Z</time>
      </trkpt>
      <trkpt lat="48.70632" lon="1.94723">
        <ele>164.39999389648</ele>
        <time>2015-12-27T13:14:49.000Z</time>
      </trkpt>
      <trkpt lat="48.70629" lon="1.94717">
        <ele>164.39999389648</ele>
        <time>2015-12-27T13:15:57.000Z</time>
      </trkpt>
      <trkpt lat="48.70632" lon="1.94719">
        <ele>164.39999389648</ele>
        <time>2015-12-27T13:16:00.000Z</time>
      </trkpt>
      <trkpt lat="48.70638" lon="1.94725">
        <ele>164.60000610352</ele>
        <time>2015-12-27T13:16:06.000Z</time>
      </trkpt>
      <trkpt lat="48.7065" lon="1.94734">
        <ele>165</ele>
        <time>2015-12-27T13:16:15.000Z</time>
      </trkpt>
      <trkpt lat="48.70665" lon="1.94745">
        <ele>165.39999389648</ele>
        <time>2015-12-27T13:16:27.000Z</time>
      </trkpt>
      <trkpt lat="48.70675" lon="1.94752">
        <ele>165.39999389648</ele>
        <time>2015-12-27T13:16:35.000Z</time>
      </trkpt>
      <trkpt lat="48.70684" lon="1.94759">
        <ele>165.39999389648</ele>
        <time>2015-12-27T13:16:43.000Z</time>
      </trkpt>
      <trkpt lat="48.70697" lon="1.94769">
        <ele>166</ele>
        <time>2015-12-27T13:16:53.000Z</time>
      </trkpt>
      <trkpt lat="48.70712" lon="1.94781">
        <ele>166.60000610352</ele>
        <time>2015-12-27T13:17:05.000Z</time>
      </trkpt>
      <trkpt lat="48.70728" lon="1.94793">
        <ele>167.19999694824</ele>
        <time>2015-12-27T13:17:17.000Z</time>
      </trkpt>
      <trkpt lat="48.70738" lon="1.948">
        <ele>167.60000610352</ele>
        <time>2015-12-27T13:17:24.000Z</time>
      </trkpt>
      <trkpt lat="48.70751" lon="1.9481">
        <ele>168.19999694824</ele>
        <time>2015-12-27T13:17:34.000Z</time>
      </trkpt>
      <trkpt lat="48.70769" lon="1.94824">
        <ele>169</ele>
        <time>2015-12-27T13:17:48.000Z</time>
      </trkpt>
      <trkpt lat="48.70783" lon="1.94834">
        <ele>169.19999694824</ele>
        <time>2015-12-27T13:17:59.000Z</time>
      </trkpt>
      <trkpt lat="48.70791" lon="1.9484">
        <ele>169.19999694824</ele>
        <time>2015-12-27T13:18:05.000Z</time>
      </trkpt>
      <trkpt lat="48.70792" lon="1.94841">
        <ele>169.19999694824</ele>
        <time>2015-12-27T13:18:06.000Z</time>
      </trkpt>
      <trkpt lat="48.70801" lon="1.94849">
        <ele>169.39999389648</ele>
        <time>2015-12-27T13:18:13.000Z</time>
      </trkpt>
      <trkpt lat="48.70803" lon="1.9485">
        <ele>169.39999389648</ele>
        <time>2015-12-27T13:18:14.000Z</time>
      </trkpt>
      <trkpt lat="48.70818" lon="1.94861">
        <ele>169.60000610352</ele>
        <time>2015-12-27T13:18:26.000Z</time>
      </trkpt>
      <trkpt lat="48.70829" lon="1.9487">
        <ele>169.80000305176</ele>
        <time>2015-12-27T13:18:34.000Z</time>
      </trkpt>
      <trkpt lat="48.70846" lon="1.94882">
        <ele>170</ele>
        <time>2015-12-27T13:18:47.000Z</time>
      </trkpt>
      <trkpt lat="48.70866" lon="1.94897">
        <ele>170.39999389648</ele>
        <time>2015-12-27T13:19:02.000Z</time>
      </trkpt>
      <trkpt lat="48.70882" lon="1.94909">
        <ele>170.60000610352</ele>
        <time>2015-12-27T13:19:14.000Z</time>
      </trkpt>
      <trkpt lat="48.70897" lon="1.9492">
        <ele>170.80000305176</ele>
        <time>2015-12-27T13:19:25.000Z</time>
      </trkpt>
      <trkpt lat="48.70911" lon="1.94931">
        <ele>171</ele>
        <time>2015-12-27T13:19:36.000Z</time>
      </trkpt>
      <trkpt lat="48.70923" lon="1.9494">
        <ele>171.19999694824</ele>
        <time>2015-12-27T13:19:45.000Z</time>
      </trkpt>
      <trkpt lat="48.70938" lon="1.94951">
        <ele>171.39999389648</ele>
        <time>2015-12-27T13:19:56.000Z</time>
      </trkpt>
      <trkpt lat="48.70952" lon="1.94962">
        <ele>171.39999389648</ele>
        <time>2015-12-27T13:20:07.000Z</time>
      </trkpt>
      <trkpt lat="48.70959" lon="1.9497">
        <ele>171.19999694824</ele>
        <time>2015-12-27T13:20:13.000Z</time>
      </trkpt>
      <trkpt lat="48.70961" lon="1.94972">
        <ele>171.19999694824</ele>
        <time>2015-12-27T13:20:15.000Z</time>
      </trkpt>
      <trkpt lat="48.70965" lon="1.94976">
        <ele>171.19999694824</ele>
        <time>2015-12-27T13:20:19.000Z</time>
      </trkpt>
      <trkpt lat="48.70981" lon="1.94988">
        <ele>171</ele>
        <time>2015-12-27T13:20:31.000Z</time>
      </trkpt>
      <trkpt lat="48.70993" lon="1.94997">
        <ele>171</ele>
        <time>2015-12-27T13:20:41.000Z</time>
      </trkpt>
      <trkpt lat="48.71003" lon="1.95005">
        <ele>170.80000305176</ele>
        <time>2015-12-27T13:20:49.000Z</time>
      </trkpt>
      <trkpt lat="48.71012" lon="1.95012">
        <ele>170.80000305176</ele>
        <time>2015-12-27T13:20:56.000Z</time>
      </trkpt>
      <trkpt lat="48.71024" lon="1.9502">
        <ele>170.60000610352</ele>
        <time>2015-12-27T13:21:05.000Z</time>
      </trkpt>
      <trkpt lat="48.71034" lon="1.95028">
        <ele>170.39999389648</ele>
        <time>2015-12-27T13:21:13.000Z</time>
      </trkpt>
      <trkpt lat="48.71049" lon="1.95037">
        <ele>170</ele>
        <time>2015-12-27T13:21:23.000Z</time>
      </trkpt>
      <trkpt lat="48.71055" lon="1.95041">
        <ele>170</ele>
        <time>2015-12-27T13:21:29.000Z</time>
      </trkpt>
      <trkpt lat="48.7106" lon="1.95044">
        <ele>169.80000305176</ele>
        <time>2015-12-27T13:21:33.000Z</time>
      </trkpt>
      <trkpt lat="48.71063" lon="1.95045">
        <ele>169.80000305176</ele>
        <time>2015-12-27T13:21:38.000Z</time>
      </trkpt>
      <trkpt lat="48.71092" lon="1.95057">
        <ele>169.39999389648</ele>
        <time>2015-12-27T13:22:48.000Z</time>
      </trkpt>
      <trkpt lat="48.71103" lon="1.95063">
        <ele>169.19999694824</ele>
        <time>2015-12-27T13:22:57.000Z</time>
      </trkpt>
      <trkpt lat="48.71105" lon="1.95065">
        <ele>169.19999694824</ele>
        <time>2015-12-27T13:22:59.000Z</time>
      </trkpt>
      <trkpt lat="48.7111" lon="1.95068">
        <ele>169</ele>
        <time>2015-12-27T13:23:03.000Z</time>
      </trkpt>
      <trkpt lat="48.71116" lon="1.95071">
        <ele>169</ele>
        <time>2015-12-27T13:23:08.000Z</time>
      </trkpt>
      <trkpt lat="48.71118" lon="1.95073">
        <ele>168.80000305176</ele>
        <time>2015-12-27T13:23:10.000Z</time>
      </trkpt>
      <trkpt lat="48.71127" lon="1.95078">
        <ele>168.80000305176</ele>
        <time>2015-12-27T13:23:18.000Z</time>
      </trkpt>
      <trkpt lat="48.71136" lon="1.95084">
        <ele>168.60000610352</ele>
        <time>2015-12-27T13:23:25.000Z</time>
      </trkpt>
      <trkpt lat="48.71147" lon="1.9509">
        <ele>168.39999389648</ele>
        <time>2015-12-27T13:23:33.000Z</time>
      </trkpt>
      <trkpt lat="48.71157" lon="1.95098">
        <ele>168.39999389648</ele>
        <time>2015-12-27T13:23:41.000Z</time>
      </trkpt>
      <trkpt lat="48.71158" lon="1.95098">
        <ele>168.39999389648</ele>
        <time>2015-12-27T13:23:42.000Z</time>
      </trkpt>
      <trkpt lat="48.71162" lon="1.95102">
        <ele>168.19999694824</ele>
        <time>2015-12-27T13:23:46.000Z</time>
      </trkpt>
      <trkpt lat="48.71164" lon="1.95113">
        <ele>168.19999694824</ele>
        <time>2015-12-27T13:23:52.000Z</time>
      </trkpt>
      <trkpt lat="48.71165" lon="1.95128">
        <ele>168.19999694824</ele>
        <time>2015-12-27T13:24:00.000Z</time>
      </trkpt>
      <trkpt lat="48.71165" lon="1.9513">
        <ele>168.19999694824</ele>
        <time>2015-12-27T13:24:01.000Z</time>
      </trkpt>
      <trkpt lat="48.71166" lon="1.95142">
        <ele>168.39999389648</ele>
        <time>2015-12-27T13:24:07.000Z</time>
      </trkpt>
      <trkpt lat="48.71166" lon="1.95151">
        <ele>168.60000610352</ele>
        <time>2015-12-27T13:24:12.000Z</time>
      </trkpt>
      <trkpt lat="48.71164" lon="1.95164">
        <ele>168.80000305176</ele>
        <time>2015-12-27T13:24:18.000Z</time>
      </trkpt>
      <trkpt lat="48.71164" lon="1.95166">
        <ele>168.80000305176</ele>
        <time>2015-12-27T13:24:19.000Z</time>
      </trkpt>
      <trkpt lat="48.71163" lon="1.95175">
        <ele>168.80000305176</ele>
        <time>2015-12-27T13:24:23.000Z</time>
      </trkpt>
      <trkpt lat="48.71164" lon="1.95178">
        <ele>168.80000305176</ele>
        <time>2015-12-27T13:24:25.000Z</time>
      </trkpt>
      <trkpt lat="48.71166" lon="1.95188">
        <ele>168.80000305176</ele>
        <time>2015-12-27T13:24:30.000Z</time>
      </trkpt>
      <trkpt lat="48.71167" lon="1.95191">
        <ele>168.80000305176</ele>
        <time>2015-12-27T13:24:32.000Z</time>
      </trkpt>
      <trkpt lat="48.71171" lon="1.95205">
        <ele>168.60000610352</ele>
        <time>2015-12-27T13:24:39.000Z</time>
      </trkpt>
      <trkpt lat="48.71169" lon="1.95218">
        <ele>168.60000610352</ele>
        <time>2015-12-27T13:24:45.000Z</time>
      </trkpt>
      <trkpt lat="48.71166" lon="1.95234">
        <ele>168.60000610352</ele>
        <time>2015-12-27T13:24:52.000Z</time>
      </trkpt>
      <trkpt lat="48.71165" lon="1.95238">
        <ele>168.60000610352</ele>
        <time>2015-12-27T13:24:54.000Z</time>
      </trkpt>
      <trkpt lat="48.71164" lon="1.95246">
        <ele>168.39999389648</ele>
        <time>2015-12-27T13:24:58.000Z</time>
      </trkpt>
      <trkpt lat="48.71163" lon="1.95249">
        <ele>168.39999389648</ele>
        <time>2015-12-27T13:25:00.000Z</time>
      </trkpt>
      <trkpt lat="48.71161" lon="1.95257">
        <ele>168.39999389648</ele>
        <time>2015-12-27T13:25:05.000Z</time>
      </trkpt>
      <trkpt lat="48.71161" lon="1.95261">
        <ele>168.39999389648</ele>
        <time>2015-12-27T13:25:07.000Z</time>
      </trkpt>
      <trkpt lat="48.71159" lon="1.95276">
        <ele>168.19999694824</ele>
        <time>2015-12-27T13:25:14.000Z</time>
      </trkpt>
      <trkpt lat="48.71157" lon="1.95297">
        <ele>168</ele>
        <time>2015-12-27T13:25:23.000Z</time>
      </trkpt>
      <trkpt lat="48.71153" lon="1.95321">
        <ele>167.19999694824</ele>
        <time>2015-12-27T13:25:33.000Z</time>
      </trkpt>
      <trkpt lat="48.71148" lon="1.95337">
        <ele>166.60000610352</ele>
        <time>2015-12-27T13:25:41.000Z</time>
      </trkpt>
      <trkpt lat="48.71146" lon="1.95351">
        <ele>166</ele>
        <time>2015-12-27T13:25:48.000Z</time>
      </trkpt>
      <trkpt lat="48.71144" lon="1.9537">
        <ele>165.39999389648</ele>
        <time>2015-12-27T13:25:57.000Z</time>
      </trkpt>
      <trkpt lat="48.71142" lon="1.95387">
        <ele>164.80000305176</ele>
        <time>2015-12-27T13:26:05.000Z</time>
      </trkpt>
      <trkpt lat="48.71139" lon="1.95399">
        <ele>164.39999389648</ele>
        <time>2015-12-27T13:26:11.000Z</time>
      </trkpt>
      <trkpt lat="48.71137" lon="1.95412">
        <ele>164</ele>
        <time>2015-12-27T13:26:17.000Z</time>
      </trkpt>
      <trkpt lat="48.71134" lon="1.95429">
        <ele>164</ele>
        <time>2015-12-27T13:26:26.000Z</time>
      </trkpt>
      <trkpt lat="48.71132" lon="1.95437">
        <ele>164</ele>
        <time>2015-12-27T13:26:31.000Z</time>
      </trkpt>
      <trkpt lat="48.71128" lon="1.95458">
        <ele>164.39999389648</ele>
        <time>2015-12-27T13:26:41.000Z</time>
      </trkpt>
      <trkpt lat="48.71125" lon="1.95473">
        <ele>164.60000610352</ele>
        <time>2015-12-27T13:26:49.000Z</time>
      </trkpt>
      <trkpt lat="48.7112" lon="1.95493">
        <ele>164.80000305176</ele>
        <time>2015-12-27T13:26:58.000Z</time>
      </trkpt>
      <trkpt lat="48.71116" lon="1.95514">
        <ele>164.39999389648</ele>
        <time>2015-12-27T13:27:08.000Z</time>
      </trkpt>
      <trkpt lat="48.71112" lon="1.95529">
        <ele>164</ele>
        <time>2015-12-27T13:27:15.000Z</time>
      </trkpt>
      <trkpt lat="48.71106" lon="1.95549">
        <ele>163.60000610352</ele>
        <time>2015-12-27T13:27:25.000Z</time>
      </trkpt>
      <trkpt lat="48.711" lon="1.95572">
        <ele>163.19999694824</ele>
        <time>2015-12-27T13:27:36.000Z</time>
      </trkpt>
      <trkpt lat="48.71096" lon="1.95588">
        <ele>163</ele>
        <time>2015-12-27T13:27:44.000Z</time>
      </trkpt>
      <trkpt lat="48.7109" lon="1.9561">
        <ele>162.80000305176</ele>
        <time>2015-12-27T13:27:55.000Z</time>
      </trkpt>
      <trkpt lat="48.71086" lon="1.95623">
        <ele>162.60000610352</ele>
        <time>2015-12-27T13:28:02.000Z</time>
      </trkpt>
      <trkpt lat="48.71081" lon="1.9564">
        <ele>162.60000610352</ele>
        <time>2015-12-27T13:28:11.000Z</time>
      </trkpt>
      <trkpt lat="48.71076" lon="1.95655">
        <ele>162.60000610352</ele>
        <time>2015-12-27T13:28:20.000Z</time>
      </trkpt>
      <trkpt lat="48.71072" lon="1.95672">
        <ele>162.60000610352</ele>
        <time>2015-12-27T13:28:28.000Z</time>
      </trkpt>
      <trkpt lat="48.71068" lon="1.95686">
        <ele>162.60000610352</ele>
        <time>2015-12-27T13:28:35.000Z</time>
      </trkpt>
      <trkpt lat="48.71061" lon="1.95706">
        <ele>162.60000610352</ele>
        <time>2015-12-27T13:28:46.000Z</time>
      </trkpt>
      <trkpt lat="48.7106" lon="1.95714">
        <ele>162.60000610352</ele>
        <time>2015-12-27T13:28:51.000Z</time>
      </trkpt>
      <trkpt lat="48.7106" lon="1.95716">
        <ele>162.60000610352</ele>
        <time>2015-12-27T13:28:52.000Z</time>
      </trkpt>
      <trkpt lat="48.71054" lon="1.95733">
        <ele>162.80000305176</ele>
        <time>2015-12-27T13:29:02.000Z</time>
      </trkpt>
      <trkpt lat="48.71049" lon="1.95744">
        <ele>163</ele>
        <time>2015-12-27T13:29:09.000Z</time>
      </trkpt>
      <trkpt lat="48.71043" lon="1.9576">
        <ele>163</ele>
        <time>2015-12-27T13:29:18.000Z</time>
      </trkpt>
      <trkpt lat="48.7104" lon="1.95769">
        <ele>163</ele>
        <time>2015-12-27T13:29:24.000Z</time>
      </trkpt>
      <trkpt lat="48.71033" lon="1.95786">
        <ele>163</ele>
        <time>2015-12-27T13:29:33.000Z</time>
      </trkpt>
      <trkpt lat="48.71025" lon="1.95805">
        <ele>163</ele>
        <time>2015-12-27T13:29:43.000Z</time>
      </trkpt>
      <trkpt lat="48.71023" lon="1.95807">
        <ele>163.19999694824</ele>
        <time>2015-12-27T13:29:48.000Z</time>
      </trkpt>
      <trkpt lat="48.71016" lon="1.95824">
        <ele>163</ele>
        <time>2015-12-27T13:30:16.000Z</time>
      </trkpt>
      <trkpt lat="48.71013" lon="1.95829">
        <ele>163</ele>
        <time>2015-12-27T13:30:20.000Z</time>
      </trkpt>
      <trkpt lat="48.7101" lon="1.95832">
        <ele>163</ele>
        <time>2015-12-27T13:30:23.000Z</time>
      </trkpt>
      <trkpt lat="48.7101" lon="1.95833">
        <ele>163</ele>
        <time>2015-12-27T13:30:24.000Z</time>
      </trkpt>
      <trkpt lat="48.7101" lon="1.95835">
        <ele>163</ele>
        <time>2015-12-27T13:30:27.000Z</time>
      </trkpt>
      <trkpt lat="48.71003" lon="1.95846">
        <ele>163</ele>
        <time>2015-12-27T13:30:35.000Z</time>
      </trkpt>
      <trkpt lat="48.71" lon="1.95851">
        <ele>163</ele>
        <time>2015-12-27T13:30:38.000Z</time>
      </trkpt>
      <trkpt lat="48.70997" lon="1.95859">
        <ele>162.80000305176</ele>
        <time>2015-12-27T13:30:45.000Z</time>
      </trkpt>
      <trkpt lat="48.70992" lon="1.9587">
        <ele>162.80000305176</ele>
        <time>2015-12-27T13:30:52.000Z</time>
      </trkpt>
      <trkpt lat="48.70987" lon="1.95882">
        <ele>162.80000305176</ele>
        <time>2015-12-27T13:31:00.000Z</time>
      </trkpt>
      <trkpt lat="48.70982" lon="1.95894">
        <ele>162.60000610352</ele>
        <time>2015-12-27T13:31:07.000Z</time>
      </trkpt>
      <trkpt lat="48.70974" lon="1.95913">
        <ele>162.39999389648</ele>
        <time>2015-12-27T13:31:18.000Z</time>
      </trkpt>
      <trkpt lat="48.70968" lon="1.95929">
        <ele>162.39999389648</ele>
        <time>2015-12-27T13:31:27.000Z</time>
      </trkpt>
      <trkpt lat="48.70965" lon="1.95939">
        <ele>162.39999389648</ele>
        <time>2015-12-27T13:31:33.000Z</time>
      </trkpt>
      <trkpt lat="48.70959" lon="1.95956">
        <ele>162.80000305176</ele>
        <time>2015-12-27T13:31:42.000Z</time>
      </trkpt>
      <trkpt lat="48.70953" lon="1.95973">
        <ele>163.19999694824</ele>
        <time>2015-12-27T13:31:51.000Z</time>
      </trkpt>
      <trkpt lat="48.70947" lon="1.95994">
        <ele>163.60000610352</ele>
        <time>2015-12-27T13:32:01.000Z</time>
      </trkpt>
      <trkpt lat="48.7094" lon="1.96016">
        <ele>163.80000305176</ele>
        <time>2015-12-27T13:32:12.000Z</time>
      </trkpt>
      <trkpt lat="48.70937" lon="1.96028">
        <ele>164</ele>
        <time>2015-12-27T13:32:19.000Z</time>
      </trkpt>
      <trkpt lat="48.70933" lon="1.9604">
        <ele>164.19999694824</ele>
        <time>2015-12-27T13:32:25.000Z</time>
      </trkpt>
      <trkpt lat="48.70929" lon="1.96057">
        <ele>164.39999389648</ele>
        <time>2015-12-27T13:32:33.000Z</time>
      </trkpt>
      <trkpt lat="48.70922" lon="1.96077">
        <ele>164.60000610352</ele>
        <time>2015-12-27T13:32:43.000Z</time>
      </trkpt>
      <trkpt lat="48.70918" lon="1.96088">
        <ele>164.60000610352</ele>
        <time>2015-12-27T13:32:49.000Z</time>
      </trkpt>
      <trkpt lat="48.70914" lon="1.96102">
        <ele>164.80000305176</ele>
        <time>2015-12-27T13:32:56.000Z</time>
      </trkpt>
      <trkpt lat="48.70905" lon="1.96124">
        <ele>165.19999694824</ele>
        <time>2015-12-27T13:33:08.000Z</time>
      </trkpt>
      <trkpt lat="48.70902" lon="1.96134">
        <ele>165.19999694824</ele>
        <time>2015-12-27T13:33:14.000Z</time>
      </trkpt>
      <trkpt lat="48.709" lon="1.96151">
        <ele>165</ele>
        <time>2015-12-27T13:33:23.000Z</time>
      </trkpt>
      <trkpt lat="48.70901" lon="1.96153">
        <ele>165</ele>
        <time>2015-12-27T13:33:24.000Z</time>
      </trkpt>
      <trkpt lat="48.70906" lon="1.9616">
        <ele>164.80000305176</ele>
        <time>2015-12-27T13:33:29.000Z</time>
      </trkpt>
      <trkpt lat="48.70907" lon="1.96161">
        <ele>164.60000610352</ele>
        <time>2015-12-27T13:33:30.000Z</time>
      </trkpt>
      <trkpt lat="48.70916" lon="1.96168">
        <ele>164.39999389648</ele>
        <time>2015-12-27T13:33:38.000Z</time>
      </trkpt>
      <trkpt lat="48.70926" lon="1.96178">
        <ele>164</ele>
        <time>2015-12-27T13:33:47.000Z</time>
      </trkpt>
      <trkpt lat="48.70936" lon="1.96186">
        <ele>163.60000610352</ele>
        <time>2015-12-27T13:33:56.000Z</time>
      </trkpt>
      <trkpt lat="48.70944" lon="1.96193">
        <ele>163.19999694824</ele>
        <time>2015-12-27T13:34:03.000Z</time>
      </trkpt>
      <trkpt lat="48.70954" lon="1.96203">
        <ele>162.60000610352</ele>
        <time>2015-12-27T13:34:13.000Z</time>
      </trkpt>
      <trkpt lat="48.70968" lon="1.96214">
        <ele>161.80000305176</ele>
        <time>2015-12-27T13:34:23.000Z</time>
      </trkpt>
      <trkpt lat="48.70976" lon="1.9622">
        <ele>161.39999389648</ele>
        <time>2015-12-27T13:34:30.000Z</time>
      </trkpt>
      <trkpt lat="48.70989" lon="1.9623">
        <ele>160.60000610352</ele>
        <time>2015-12-27T13:34:39.000Z</time>
      </trkpt>
      <trkpt lat="48.71001" lon="1.9624">
        <ele>160</ele>
        <time>2015-12-27T13:34:49.000Z</time>
      </trkpt>
      <trkpt lat="48.71009" lon="1.96247">
        <ele>159.60000610352</ele>
        <time>2015-12-27T13:34:57.000Z</time>
      </trkpt>
      <trkpt lat="48.71016" lon="1.96254">
        <ele>159.39999389648</ele>
        <time>2015-12-27T13:35:05.000Z</time>
      </trkpt>
      <trkpt lat="48.71022" lon="1.96259">
        <ele>159.19999694824</ele>
        <time>2015-12-27T13:35:11.000Z</time>
      </trkpt>
      <trkpt lat="48.71032" lon="1.96268">
        <ele>159</ele>
        <time>2015-12-27T13:35:20.000Z</time>
      </trkpt>
      <trkpt lat="48.71046" lon="1.96278">
        <ele>158.80000305176</ele>
        <time>2015-12-27T13:35:30.000Z</time>
      </trkpt>
      <trkpt lat="48.71055" lon="1.96287">
        <ele>158.80000305176</ele>
        <time>2015-12-27T13:35:38.000Z</time>
      </trkpt>
      <trkpt lat="48.71063" lon="1.96294">
        <ele>158.60000610352</ele>
        <time>2015-12-27T13:35:45.000Z</time>
      </trkpt>
      <trkpt lat="48.71071" lon="1.96301">
        <ele>158.39999389648</ele>
        <time>2015-12-27T13:35:51.000Z</time>
      </trkpt>
      <trkpt lat="48.71079" lon="1.96307">
        <ele>158.39999389648</ele>
        <time>2015-12-27T13:35:57.000Z</time>
      </trkpt>
      <trkpt lat="48.71093" lon="1.96319">
        <ele>158.19999694824</ele>
        <time>2015-12-27T13:36:08.000Z</time>
      </trkpt>
      <trkpt lat="48.71101" lon="1.96324">
        <ele>158</ele>
        <time>2015-12-27T13:36:15.000Z</time>
      </trkpt>
      <trkpt lat="48.71114" lon="1.96333">
        <ele>158.19999694824</ele>
        <time>2015-12-27T13:36:24.000Z</time>
      </trkpt>
      <trkpt lat="48.71122" lon="1.96341">
        <ele>158.39999389648</ele>
        <time>2015-12-27T13:36:31.000Z</time>
      </trkpt>
      <trkpt lat="48.71133" lon="1.96349">
        <ele>158.80000305176</ele>
        <time>2015-12-27T13:36:39.000Z</time>
      </trkpt>
      <trkpt lat="48.71142" lon="1.96355">
        <ele>159</ele>
        <time>2015-12-27T13:36:44.000Z</time>
      </trkpt>
      <trkpt lat="48.7115" lon="1.96361">
        <ele>159.19999694824</ele>
        <time>2015-12-27T13:36:50.000Z</time>
      </trkpt>
      <trkpt lat="48.71157" lon="1.96367">
        <ele>159.39999389648</ele>
        <time>2015-12-27T13:36:56.000Z</time>
      </trkpt>
      <trkpt lat="48.71158" lon="1.96367">
        <ele>159.39999389648</ele>
        <time>2015-12-27T13:36:57.000Z</time>
      </trkpt>
      <trkpt lat="48.71165" lon="1.9637">
        <ele>159.60000610352</ele>
        <time>2015-12-27T13:37:02.000Z</time>
      </trkpt>
      <trkpt lat="48.71176" lon="1.96379">
        <ele>160</ele>
        <time>2015-12-27T13:37:12.000Z</time>
      </trkpt>
      <trkpt lat="48.71183" lon="1.96383">
        <ele>160.19999694824</ele>
        <time>2015-12-27T13:37:18.000Z</time>
      </trkpt>
      <trkpt lat="48.71187" lon="1.96385">
        <ele>160.19999694824</ele>
        <time>2015-12-27T13:37:22.000Z</time>
      </trkpt>
      <trkpt lat="48.71187" lon="1.96388">
        <ele>160.19999694824</ele>
        <time>2015-12-27T13:37:23.000Z</time>
      </trkpt>
      <trkpt lat="48.71192" lon="1.9639">
        <ele>159.60000610352</ele>
        <time>2015-12-27T13:37:27.000Z</time>
      </trkpt>
      <trkpt lat="48.71193" lon="1.9639">
        <ele>159.39999389648</ele>
        <time>2015-12-27T13:37:28.000Z</time>
      </trkpt>
      <trkpt lat="48.71197" lon="1.96397">
        <ele>159</ele>
        <time>2015-12-27T13:37:33.000Z</time>
      </trkpt>
      <trkpt lat="48.712" lon="1.96403">
        <ele>158.39999389648</ele>
        <time>2015-12-27T13:37:37.000Z</time>
      </trkpt>
      <trkpt lat="48.71202" lon="1.96404">
        <ele>158.19999694824</ele>
        <time>2015-12-27T13:37:39.000Z</time>
      </trkpt>
      <trkpt lat="48.71206" lon="1.96406">
        <ele>157.80000305176</ele>
        <time>2015-12-27T13:37:42.000Z</time>
      </trkpt>
      <trkpt lat="48.71208" lon="1.96406">
        <ele>157.39999389648</ele>
        <time>2015-12-27T13:37:44.000Z</time>
      </trkpt>
      <trkpt lat="48.71212" lon="1.96408">
        <ele>157</ele>
        <time>2015-12-27T13:37:47.000Z</time>
      </trkpt>
      <trkpt lat="48.71215" lon="1.96411">
        <ele>156.80000305176</ele>
        <time>2015-12-27T13:37:50.000Z</time>
      </trkpt>
      <trkpt lat="48.71219" lon="1.96414">
        <ele>156.60000610352</ele>
        <time>2015-12-27T13:37:54.000Z</time>
      </trkpt>
      <trkpt lat="48.71221" lon="1.96417">
        <ele>156.39999389648</ele>
        <time>2015-12-27T13:37:56.000Z</time>
      </trkpt>
      <trkpt lat="48.71224" lon="1.96421">
        <ele>156.39999389648</ele>
        <time>2015-12-27T13:37:59.000Z</time>
      </trkpt>
      <trkpt lat="48.71227" lon="1.96423">
        <ele>156.19999694824</ele>
        <time>2015-12-27T13:38:01.000Z</time>
      </trkpt>
      <trkpt lat="48.71229" lon="1.96427">
        <ele>156</ele>
        <time>2015-12-27T13:38:05.000Z</time>
      </trkpt>
      <trkpt lat="48.71231" lon="1.96431">
        <ele>156.19999694824</ele>
        <time>2015-12-27T13:38:07.000Z</time>
      </trkpt>
      <trkpt lat="48.71234" lon="1.96435">
        <ele>156</ele>
        <time>2015-12-27T13:38:10.000Z</time>
      </trkpt>
      <trkpt lat="48.71236" lon="1.96439">
        <ele>156</ele>
        <time>2015-12-27T13:38:13.000Z</time>
      </trkpt>
      <trkpt lat="48.71239" lon="1.96444">
        <ele>156</ele>
        <time>2015-12-27T13:38:17.000Z</time>
      </trkpt>
      <trkpt lat="48.7124" lon="1.96447">
        <ele>156</ele>
        <time>2015-12-27T13:38:19.000Z</time>
      </trkpt>
      <trkpt lat="48.7124" lon="1.96448">
        <ele>156</ele>
        <time>2015-12-27T13:38:20.000Z</time>
      </trkpt>
      <trkpt lat="48.71242" lon="1.96454">
        <ele>156.19999694824</ele>
        <time>2015-12-27T13:38:24.000Z</time>
      </trkpt>
      <trkpt lat="48.71243" lon="1.96455">
        <ele>156</ele>
        <time>2015-12-27T13:38:25.000Z</time>
      </trkpt>
      <trkpt lat="48.71244" lon="1.96455">
        <ele>156</ele>
        <time>2015-12-27T13:38:26.000Z</time>
      </trkpt>
      <trkpt lat="48.71249" lon="1.96462">
        <ele>155.80000305176</ele>
        <time>2015-12-27T13:38:32.000Z</time>
      </trkpt>
      <trkpt lat="48.71255" lon="1.96468">
        <ele>155.39999389648</ele>
        <time>2015-12-27T13:38:38.000Z</time>
      </trkpt>
      <trkpt lat="48.7126" lon="1.96473">
        <ele>155.19999694824</ele>
        <time>2015-12-27T13:38:42.000Z</time>
      </trkpt>
      <trkpt lat="48.71261" lon="1.96473">
        <ele>155.19999694824</ele>
        <time>2015-12-27T13:38:43.000Z</time>
      </trkpt>
      <trkpt lat="48.71266" lon="1.96479">
        <ele>154.80000305176</ele>
        <time>2015-12-27T13:38:48.000Z</time>
      </trkpt>
      <trkpt lat="48.71268" lon="1.9648">
        <ele>154.60000610352</ele>
        <time>2015-12-27T13:38:50.000Z</time>
      </trkpt>
      <trkpt lat="48.71271" lon="1.96483">
        <ele>154.39999389648</ele>
        <time>2015-12-27T13:38:54.000Z</time>
      </trkpt>
      <trkpt lat="48.71271" lon="1.96484">
        <ele>154.19999694824</ele>
        <time>2015-12-27T13:38:55.000Z</time>
      </trkpt>
      <trkpt lat="48.71274" lon="1.96488">
        <ele>153.60000610352</ele>
        <time>2015-12-27T13:38:59.000Z</time>
      </trkpt>
      <trkpt lat="48.71279" lon="1.96494">
        <ele>152.60000610352</ele>
        <time>2015-12-27T13:39:05.000Z</time>
      </trkpt>
      <trkpt lat="48.71285" lon="1.96504">
        <ele>151</ele>
        <time>2015-12-27T13:39:11.000Z</time>
      </trkpt>
      <trkpt lat="48.7129" lon="1.96516">
        <ele>150.19999694824</ele>
        <time>2015-12-27T13:39:17.000Z</time>
      </trkpt>
      <trkpt lat="48.71295" lon="1.96526">
        <ele>149</ele>
        <time>2015-12-27T13:39:23.000Z</time>
      </trkpt>
      <trkpt lat="48.71304" lon="1.96532">
        <ele>146.60000610352</ele>
        <time>2015-12-27T13:39:28.000Z</time>
      </trkpt>
      <trkpt lat="48.71311" lon="1.96536">
        <ele>144.60000610352</ele>
        <time>2015-12-27T13:39:32.000Z</time>
      </trkpt>
      <trkpt lat="48.71314" lon="1.96538">
        <ele>143.60000610352</ele>
        <time>2015-12-27T13:39:34.000Z</time>
      </trkpt>
      <trkpt lat="48.71324" lon="1.96544">
        <ele>140.80000305176</ele>
        <time>2015-12-27T13:39:41.000Z</time>
      </trkpt>
      <trkpt lat="48.71329" lon="1.96547">
        <ele>139.39999389648</ele>
        <time>2015-12-27T13:39:44.000Z</time>
      </trkpt>
      <trkpt lat="48.71332" lon="1.9655">
        <ele>138.60000610352</ele>
        <time>2015-12-27T13:39:46.000Z</time>
      </trkpt>
      <trkpt lat="48.71336" lon="1.96554">
        <ele>137.39999389648</ele>
        <time>2015-12-27T13:39:49.000Z</time>
      </trkpt>
      <trkpt lat="48.71339" lon="1.96556">
        <ele>136.60000610352</ele>
        <time>2015-12-27T13:39:51.000Z</time>
      </trkpt>
      <trkpt lat="48.71349" lon="1.96563">
        <ele>133.80000305176</ele>
        <time>2015-12-27T13:39:57.000Z</time>
      </trkpt>
      <trkpt lat="48.71359" lon="1.96571">
        <ele>132</ele>
        <time>2015-12-27T13:40:04.000Z</time>
      </trkpt>
      <trkpt lat="48.7137" lon="1.96583">
        <ele>130.60000610352</ele>
        <time>2015-12-27T13:40:12.000Z</time>
      </trkpt>
      <trkpt lat="48.7138" lon="1.96592">
        <ele>129.19999694824</ele>
        <time>2015-12-27T13:40:19.000Z</time>
      </trkpt>
      <trkpt lat="48.71391" lon="1.96603">
        <ele>127.59999847412</ele>
        <time>2015-12-27T13:40:27.000Z</time>
      </trkpt>
      <trkpt lat="48.71402" lon="1.96613">
        <ele>126</ele>
        <time>2015-12-27T13:40:36.000Z</time>
      </trkpt>
      <trkpt lat="48.71403" lon="1.96615">
        <ele>125.80000305176</ele>
        <time>2015-12-27T13:40:37.000Z</time>
      </trkpt>
      <trkpt lat="48.71409" lon="1.96621">
        <ele>125</ele>
        <time>2015-12-27T13:40:41.000Z</time>
      </trkpt>
      <trkpt lat="48.71417" lon="1.96631">
        <ele>123.80000305176</ele>
        <time>2015-12-27T13:40:48.000Z</time>
      </trkpt>
      <trkpt lat="48.71424" lon="1.96638">
        <ele>122.80000305176</ele>
        <time>2015-12-27T13:40:54.000Z</time>
      </trkpt>
      <trkpt lat="48.71431" lon="1.96648">
        <ele>121.80000305176</ele>
        <time>2015-12-27T13:41:01.000Z</time>
      </trkpt>
      <trkpt lat="48.71439" lon="1.96656">
        <ele>120.80000305176</ele>
        <time>2015-12-27T13:41:07.000Z</time>
      </trkpt>
      <trkpt lat="48.71449" lon="1.96667">
        <ele>120</ele>
        <time>2015-12-27T13:41:15.000Z</time>
      </trkpt>
      <trkpt lat="48.71456" lon="1.96674">
        <ele>119.40000152588</ele>
        <time>2015-12-27T13:41:21.000Z</time>
      </trkpt>
      <trkpt lat="48.71465" lon="1.96683">
        <ele>118.59999847412</ele>
        <time>2015-12-27T13:41:29.000Z</time>
      </trkpt>
      <trkpt lat="48.7147" lon="1.9669">
        <ele>118.19999694824</ele>
        <time>2015-12-27T13:41:34.000Z</time>
      </trkpt>
      <trkpt lat="48.71473" lon="1.96691">
        <ele>118</ele>
        <time>2015-12-27T13:41:36.000Z</time>
      </trkpt>
      <trkpt lat="48.71477" lon="1.96694">
        <ele>117.59999847412</ele>
        <time>2015-12-27T13:41:39.000Z</time>
      </trkpt>
      <trkpt lat="48.71482" lon="1.96699">
        <ele>117.19999694824</ele>
        <time>2015-12-27T13:41:43.000Z</time>
      </trkpt>
      <trkpt lat="48.71492" lon="1.96708">
        <ele>116.19999694824</ele>
        <time>2015-12-27T13:41:51.000Z</time>
      </trkpt>
      <trkpt lat="48.71499" lon="1.96713">
        <ele>115.59999847412</ele>
        <time>2015-12-27T13:41:57.000Z</time>
      </trkpt>
      <trkpt lat="48.71501" lon="1.96716">
        <ele>115.40000152588</ele>
        <time>2015-12-27T13:42:02.000Z</time>
      </trkpt>
      <trkpt lat="48.71501" lon="1.96724">
        <ele>115.59999847412</ele>
        <time>2015-12-27T13:42:06.000Z</time>
      </trkpt>
      <trkpt lat="48.71499" lon="1.96732">
        <ele>116.19999694824</ele>
        <time>2015-12-27T13:42:10.000Z</time>
      </trkpt>
      <trkpt lat="48.71495" lon="1.96739">
        <ele>116.59999847412</ele>
        <time>2015-12-27T13:42:14.000Z</time>
      </trkpt>
      <trkpt lat="48.71489" lon="1.96753">
        <ele>117.40000152588</ele>
        <time>2015-12-27T13:42:21.000Z</time>
      </trkpt>
      <trkpt lat="48.71484" lon="1.96766">
        <ele>117.80000305176</ele>
        <time>2015-12-27T13:42:28.000Z</time>
      </trkpt>
      <trkpt lat="48.71476" lon="1.96786">
        <ele>118.80000305176</ele>
        <time>2015-12-27T13:42:38.000Z</time>
      </trkpt>
      <trkpt lat="48.71476" lon="1.96789">
        <ele>118.80000305176</ele>
        <time>2015-12-27T13:42:40.000Z</time>
      </trkpt>
      <trkpt lat="48.71474" lon="1.96796">
        <ele>119</ele>
        <time>2015-12-27T13:42:43.000Z</time>
      </trkpt>
      <trkpt lat="48.71472" lon="1.96809">
        <ele>119.19999694824</ele>
        <time>2015-12-27T13:42:49.000Z</time>
      </trkpt>
      <trkpt lat="48.71472" lon="1.9681">
        <ele>119.19999694824</ele>
        <time>2015-12-27T13:42:50.000Z</time>
      </trkpt>
      <trkpt lat="48.71475" lon="1.96816">
        <ele>118.80000305176</ele>
        <time>2015-12-27T13:42:54.000Z</time>
      </trkpt>
      <trkpt lat="48.71476" lon="1.96817">
        <ele>118.80000305176</ele>
        <time>2015-12-27T13:42:55.000Z</time>
      </trkpt>
      <trkpt lat="48.71481" lon="1.96819">
        <ele>118.19999694824</ele>
        <time>2015-12-27T13:42:59.000Z</time>
      </trkpt>
      <trkpt lat="48.71484" lon="1.96821">
        <ele>118</ele>
        <time>2015-12-27T13:43:01.000Z</time>
      </trkpt>
      <trkpt lat="48.71495" lon="1.96828">
        <ele>116.59999847412</ele>
        <time>2015-12-27T13:43:10.000Z</time>
      </trkpt>
      <trkpt lat="48.71502" lon="1.96832">
        <ele>115.59999847412</ele>
        <time>2015-12-27T13:43:17.000Z</time>
      </trkpt>
      <trkpt lat="48.71512" lon="1.96836">
        <ele>114.40000152588</ele>
        <time>2015-12-27T13:43:25.000Z</time>
      </trkpt>
      <trkpt lat="48.71517" lon="1.9684">
        <ele>113.80000305176</ele>
        <time>2015-12-27T13:43:29.000Z</time>
      </trkpt>
      <trkpt lat="48.71527" lon="1.96844">
        <ele>112.80000305176</ele>
        <time>2015-12-27T13:43:37.000Z</time>
      </trkpt>
      <trkpt lat="48.7154" lon="1.96852">
        <ele>111.80000305176</ele>
        <time>2015-12-27T13:43:48.000Z</time>
      </trkpt>
      <trkpt lat="48.71552" lon="1.96857">
        <ele>111</ele>
        <time>2015-12-27T13:43:57.000Z</time>
      </trkpt>
      <trkpt lat="48.71562" lon="1.96862">
        <ele>110.19999694824</ele>
        <time>2015-12-27T13:44:05.000Z</time>
      </trkpt>
      <trkpt lat="48.71572" lon="1.96867">
        <ele>109.40000152588</ele>
        <time>2015-12-27T13:44:13.000Z</time>
      </trkpt>
      <trkpt lat="48.7158" lon="1.96873">
        <ele>108.59999847412</ele>
        <time>2015-12-27T13:44:19.000Z</time>
      </trkpt>
      <trkpt lat="48.71581" lon="1.96873">
        <ele>108.59999847412</ele>
        <time>2015-12-27T13:44:20.000Z</time>
      </trkpt>
      <trkpt lat="48.71586" lon="1.96874">
        <ele>108.40000152588</ele>
        <time>2015-12-27T13:44:23.000Z</time>
      </trkpt>
      <trkpt lat="48.71592" lon="1.96873">
        <ele>108</ele>
        <time>2015-12-27T13:44:27.000Z</time>
      </trkpt>
      <trkpt lat="48.71601" lon="1.96866">
        <ele>107.80000305176</ele>
        <time>2015-12-27T13:44:34.000Z</time>
      </trkpt>
      <trkpt lat="48.71609" lon="1.96855">
        <ele>107.80000305176</ele>
        <time>2015-12-27T13:44:43.000Z</time>
      </trkpt>
      <trkpt lat="48.71615" lon="1.9685">
        <ele>107.59999847412</ele>
        <time>2015-12-27T13:44:48.000Z</time>
      </trkpt>
      <trkpt lat="48.7162" lon="1.96851">
        <ele>107.40000152588</ele>
        <time>2015-12-27T13:44:52.000Z</time>
      </trkpt>
      <trkpt lat="48.71623" lon="1.9685">
        <ele>107.40000152588</ele>
        <time>2015-12-27T13:44:54.000Z</time>
      </trkpt>
      <trkpt lat="48.71626" lon="1.9685">
        <ele>107.19999694824</ele>
        <time>2015-12-27T13:44:56.000Z</time>
      </trkpt>
      <trkpt lat="48.71633" lon="1.96849">
        <ele>107</ele>
        <time>2015-12-27T13:45:01.000Z</time>
      </trkpt>
      <trkpt lat="48.71643" lon="1.96852">
        <ele>106.40000152588</ele>
        <time>2015-12-27T13:45:08.000Z</time>
      </trkpt>
      <trkpt lat="48.71655" lon="1.96855">
        <ele>105.80000305176</ele>
        <time>2015-12-27T13:45:16.000Z</time>
      </trkpt>
      <trkpt lat="48.71663" lon="1.96858">
        <ele>105.40000152588</ele>
        <time>2015-12-27T13:45:23.000Z</time>
      </trkpt>
      <trkpt lat="48.71672" lon="1.96861">
        <ele>104.80000305176</ele>
        <time>2015-12-27T13:45:30.000Z</time>
      </trkpt>
      <trkpt lat="48.71682" lon="1.96865">
        <ele>104.19999694824</ele>
        <time>2015-12-27T13:45:37.000Z</time>
      </trkpt>
      <trkpt lat="48.71691" lon="1.96868">
        <ele>104.19999694824</ele>
        <time>2015-12-27T13:45:44.000Z</time>
      </trkpt>
      <trkpt lat="48.71703" lon="1.96874">
        <ele>104.80000305176</ele>
        <time>2015-12-27T13:45:52.000Z</time>
      </trkpt>
      <trkpt lat="48.71716" lon="1.9688">
        <ele>105.40000152588</ele>
        <time>2015-12-27T13:46:01.000Z</time>
      </trkpt>
      <trkpt lat="48.71723" lon="1.96885">
        <ele>105.59999847412</ele>
        <time>2015-12-27T13:46:07.000Z</time>
      </trkpt>
      <trkpt lat="48.71729" lon="1.9689">
        <ele>106</ele>
        <time>2015-12-27T13:46:12.000Z</time>
      </trkpt>
      <trkpt lat="48.71736" lon="1.96894">
        <ele>106.19999694824</ele>
        <time>2015-12-27T13:46:17.000Z</time>
      </trkpt>
      <trkpt lat="48.71739" lon="1.96896">
        <ele>106.40000152588</ele>
        <time>2015-12-27T13:46:19.000Z</time>
      </trkpt>
      <trkpt lat="48.71742" lon="1.969">
        <ele>106.40000152588</ele>
        <time>2015-12-27T13:46:22.000Z</time>
      </trkpt>
      <trkpt lat="48.71744" lon="1.96904">
        <ele>106.59999847412</ele>
        <time>2015-12-27T13:46:24.000Z</time>
      </trkpt>
      <trkpt lat="48.71746" lon="1.96911">
        <ele>106.59999847412</ele>
        <time>2015-12-27T13:46:28.000Z</time>
      </trkpt>
      <trkpt lat="48.71748" lon="1.96924">
        <ele>106.80000305176</ele>
        <time>2015-12-27T13:46:34.000Z</time>
      </trkpt>
      <trkpt lat="48.7175" lon="1.96934">
        <ele>107</ele>
        <time>2015-12-27T13:46:40.000Z</time>
      </trkpt>
      <trkpt lat="48.71751" lon="1.96941">
        <ele>107.19999694824</ele>
        <time>2015-12-27T13:46:44.000Z</time>
      </trkpt>
      <trkpt lat="48.71752" lon="1.96944">
        <ele>107.40000152588</ele>
        <time>2015-12-27T13:46:45.000Z</time>
      </trkpt>
      <trkpt lat="48.71754" lon="1.96954">
        <ele>107.59999847412</ele>
        <time>2015-12-27T13:46:50.000Z</time>
      </trkpt>
      <trkpt lat="48.71754" lon="1.96961">
        <ele>107.59999847412</ele>
        <time>2015-12-27T13:46:53.000Z</time>
      </trkpt>
      <trkpt lat="48.71754" lon="1.96966">
        <ele>107.80000305176</ele>
        <time>2015-12-27T13:46:56.000Z</time>
      </trkpt>
      <trkpt lat="48.71753" lon="1.96982">
        <ele>107.80000305176</ele>
        <time>2015-12-27T13:47:04.000Z</time>
      </trkpt>
      <trkpt lat="48.71752" lon="1.96988">
        <ele>107.80000305176</ele>
        <time>2015-12-27T13:47:07.000Z</time>
      </trkpt>
      <trkpt lat="48.71752" lon="1.9699">
        <ele>107.59999847412</ele>
        <time>2015-12-27T13:47:09.000Z</time>
      </trkpt>
      <trkpt lat="48.71752" lon="1.96991">
        <ele>107.59999847412</ele>
        <time>2015-12-27T13:47:11.000Z</time>
      </trkpt>
      <trkpt lat="48.71807" lon="1.9709">
        <ele>121.19999694824</ele>
        <time>2015-12-27T14:00:39.000Z</time>
      </trkpt>
      <trkpt lat="48.7181" lon="1.9709">
        <ele>121.40000152588</ele>
        <time>2015-12-27T14:00:41.000Z</time>
      </trkpt>
      <trkpt lat="48.71815" lon="1.97089">
        <ele>121.80000305176</ele>
        <time>2015-12-27T14:00:46.000Z</time>
      </trkpt>
      <trkpt lat="48.71825" lon="1.97092">
        <ele>123.19999694824</ele>
        <time>2015-12-27T14:00:53.000Z</time>
      </trkpt>
      <trkpt lat="48.71832" lon="1.97094">
        <ele>124.19999694824</ele>
        <time>2015-12-27T14:00:59.000Z</time>
      </trkpt>
      <trkpt lat="48.71833" lon="1.97095">
        <ele>124.40000152588</ele>
        <time>2015-12-27T14:01:00.000Z</time>
      </trkpt>
      <trkpt lat="48.71838" lon="1.97095">
        <ele>125</ele>
        <time>2015-12-27T14:01:04.000Z</time>
      </trkpt>
      <trkpt lat="48.71845" lon="1.97097">
        <ele>126</ele>
        <time>2015-12-27T14:01:09.000Z</time>
      </trkpt>
      <trkpt lat="48.71847" lon="1.97097">
        <ele>126.19999694824</ele>
        <time>2015-12-27T14:01:10.000Z</time>
      </trkpt>
      <trkpt lat="48.71853" lon="1.97102">
        <ele>127.59999847412</ele>
        <time>2015-12-27T14:01:16.000Z</time>
      </trkpt>
      <trkpt lat="48.71856" lon="1.97105">
        <ele>128.39999389648</ele>
        <time>2015-12-27T14:01:18.000Z</time>
      </trkpt>
      <trkpt lat="48.71857" lon="1.97106">
        <ele>128.60000610352</ele>
        <time>2015-12-27T14:01:19.000Z</time>
      </trkpt>
      <trkpt lat="48.7186" lon="1.97109">
        <ele>129.39999389648</ele>
        <time>2015-12-27T14:01:22.000Z</time>
      </trkpt>
      <trkpt lat="48.71864" lon="1.97111">
        <ele>130</ele>
        <time>2015-12-27T14:01:25.000Z</time>
      </trkpt>
      <trkpt lat="48.71866" lon="1.9711">
        <ele>130</ele>
        <time>2015-12-27T14:01:27.000Z</time>
      </trkpt>
      <trkpt lat="48.71871" lon="1.97109">
        <ele>130.19999694824</ele>
        <time>2015-12-27T14:01:35.000Z</time>
      </trkpt>
      <trkpt lat="48.71875" lon="1.97104">
        <ele>129.80000305176</ele>
        <time>2015-12-27T14:01:40.000Z</time>
      </trkpt>
      <trkpt lat="48.71881" lon="1.97097">
        <ele>129.19999694824</ele>
        <time>2015-12-27T14:01:46.000Z</time>
      </trkpt>
      <trkpt lat="48.71884" lon="1.97096">
        <ele>129.39999389648</ele>
        <time>2015-12-27T14:01:48.000Z</time>
      </trkpt>
      <trkpt lat="48.71889" lon="1.97093">
        <ele>129.60000610352</ele>
        <time>2015-12-27T14:01:52.000Z</time>
      </trkpt>
      <trkpt lat="48.7189" lon="1.97093">
        <ele>129.60000610352</ele>
        <time>2015-12-27T14:01:53.000Z</time>
      </trkpt>
      <trkpt lat="48.71894" lon="1.97091">
        <ele>129.60000610352</ele>
        <time>2015-12-27T14:01:56.000Z</time>
      </trkpt>
      <trkpt lat="48.71896" lon="1.97089">
        <ele>129.60000610352</ele>
        <time>2015-12-27T14:01:58.000Z</time>
      </trkpt>
      <trkpt lat="48.71903" lon="1.97083">
        <ele>129.60000610352</ele>
        <time>2015-12-27T14:02:04.000Z</time>
      </trkpt>
      <trkpt lat="48.71904" lon="1.97082">
        <ele>129.39999389648</ele>
        <time>2015-12-27T14:02:05.000Z</time>
      </trkpt>
      <trkpt lat="48.71912" lon="1.97073">
        <ele>129.39999389648</ele>
        <time>2015-12-27T14:02:13.000Z</time>
      </trkpt>
      <trkpt lat="48.71915" lon="1.9707">
        <ele>129.60000610352</ele>
        <time>2015-12-27T14:02:16.000Z</time>
      </trkpt>
      <trkpt lat="48.71919" lon="1.97067">
        <ele>130</ele>
        <time>2015-12-27T14:02:19.000Z</time>
      </trkpt>
      <trkpt lat="48.71924" lon="1.97064">
        <ele>130.60000610352</ele>
        <time>2015-12-27T14:02:24.000Z</time>
      </trkpt>
      <trkpt lat="48.71931" lon="1.97062">
        <ele>131.80000305176</ele>
        <time>2015-12-27T14:02:29.000Z</time>
      </trkpt>
      <trkpt lat="48.71935" lon="1.97062">
        <ele>132.39999389648</ele>
        <time>2015-12-27T14:02:32.000Z</time>
      </trkpt>
      <trkpt lat="48.71935" lon="1.97063">
        <ele>132.39999389648</ele>
        <time>2015-12-27T14:02:33.000Z</time>
      </trkpt>
      <trkpt lat="48.71936" lon="1.97063">
        <ele>132.60000610352</ele>
        <time>2015-12-27T14:02:34.000Z</time>
      </trkpt>
      <trkpt lat="48.71939" lon="1.97067">
        <ele>132.80000305176</ele>
        <time>2015-12-27T14:02:38.000Z</time>
      </trkpt>
      <trkpt lat="48.71946" lon="1.97071">
        <ele>133</ele>
        <time>2015-12-27T14:02:44.000Z</time>
      </trkpt>
      <trkpt lat="48.71947" lon="1.97072">
        <ele>133</ele>
        <time>2015-12-27T14:02:45.000Z</time>
      </trkpt>
      <trkpt lat="48.71953" lon="1.97076">
        <ele>133.39999389648</ele>
        <time>2015-12-27T14:02:49.000Z</time>
      </trkpt>
      <trkpt lat="48.71954" lon="1.97078">
        <ele>133.39999389648</ele>
        <time>2015-12-27T14:02:50.000Z</time>
      </trkpt>
      <trkpt lat="48.7196" lon="1.97082">
        <ele>134.19999694824</ele>
        <time>2015-12-27T14:02:55.000Z</time>
      </trkpt>
      <trkpt lat="48.71961" lon="1.97083">
        <ele>134.19999694824</ele>
        <time>2015-12-27T14:02:56.000Z</time>
      </trkpt>
      <trkpt lat="48.71966" lon="1.97087">
        <ele>134.80000305176</ele>
        <time>2015-12-27T14:03:00.000Z</time>
      </trkpt>
      <trkpt lat="48.71974" lon="1.97093">
        <ele>135.60000610352</ele>
        <time>2015-12-27T14:03:07.000Z</time>
      </trkpt>
      <trkpt lat="48.71975" lon="1.97095">
        <ele>135.80000305176</ele>
        <time>2015-12-27T14:03:09.000Z</time>
      </trkpt>
      <trkpt lat="48.71978" lon="1.97099">
        <ele>136</ele>
        <time>2015-12-27T14:03:12.000Z</time>
      </trkpt>
      <trkpt lat="48.71983" lon="1.97105">
        <ele>136.60000610352</ele>
        <time>2015-12-27T14:03:17.000Z</time>
      </trkpt>
      <trkpt lat="48.71986" lon="1.97108">
        <ele>137</ele>
        <time>2015-12-27T14:03:19.000Z</time>
      </trkpt>
      <trkpt lat="48.71988" lon="1.97108">
        <ele>137</ele>
        <time>2015-12-27T14:03:20.000Z</time>
      </trkpt>
      <trkpt lat="48.71994" lon="1.97114">
        <ele>137.80000305176</ele>
        <time>2015-12-27T14:03:25.000Z</time>
      </trkpt>
      <trkpt lat="48.71995" lon="1.97116">
        <ele>137.80000305176</ele>
        <time>2015-12-27T14:03:26.000Z</time>
      </trkpt>
      <trkpt lat="48.71998" lon="1.97119">
        <ele>138.19999694824</ele>
        <time>2015-12-27T14:03:29.000Z</time>
      </trkpt>
      <trkpt lat="48.72007" lon="1.97123">
        <ele>139</ele>
        <time>2015-12-27T14:03:35.000Z</time>
      </trkpt>
      <trkpt lat="48.72013" lon="1.97126">
        <ele>139.60000610352</ele>
        <time>2015-12-27T14:03:40.000Z</time>
      </trkpt>
      <trkpt lat="48.72018" lon="1.9713">
        <ele>140.19999694824</ele>
        <time>2015-12-27T14:03:44.000Z</time>
      </trkpt>
      <trkpt lat="48.72019" lon="1.97131">
        <ele>140.19999694824</ele>
        <time>2015-12-27T14:03:45.000Z</time>
      </trkpt>
      <trkpt lat="48.72025" lon="1.97134">
        <ele>140.39999389648</ele>
        <time>2015-12-27T14:03:49.000Z</time>
      </trkpt>
      <trkpt lat="48.72027" lon="1.97135">
        <ele>140.19999694824</ele>
        <time>2015-12-27T14:03:51.000Z</time>
      </trkpt>
      <trkpt lat="48.7203" lon="1.9714">
        <ele>140.39999389648</ele>
        <time>2015-12-27T14:03:54.000Z</time>
      </trkpt>
      <trkpt lat="48.72031" lon="1.97142">
        <ele>140.39999389648</ele>
        <time>2015-12-27T14:03:56.000Z</time>
      </trkpt>
      <trkpt lat="48.72036" lon="1.97145">
        <ele>140.39999389648</ele>
        <time>2015-12-27T14:03:59.000Z</time>
      </trkpt>
      <trkpt lat="48.72042" lon="1.97147">
        <ele>140.19999694824</ele>
        <time>2015-12-27T14:04:03.000Z</time>
      </trkpt>
      <trkpt lat="48.72046" lon="1.97153">
        <ele>140.19999694824</ele>
        <time>2015-12-27T14:04:07.000Z</time>
      </trkpt>
      <trkpt lat="48.72048" lon="1.97157">
        <ele>140.39999389648</ele>
        <time>2015-12-27T14:04:09.000Z</time>
      </trkpt>
      <trkpt lat="48.72051" lon="1.97162">
        <ele>140.60000610352</ele>
        <time>2015-12-27T14:04:13.000Z</time>
      </trkpt>
      <trkpt lat="48.72057" lon="1.97169">
        <ele>141</ele>
        <time>2015-12-27T14:04:17.000Z</time>
      </trkpt>
      <trkpt lat="48.72058" lon="1.9717">
        <ele>141</ele>
        <time>2015-12-27T14:04:18.000Z</time>
      </trkpt>
      <trkpt lat="48.72058" lon="1.97172">
        <ele>141.19999694824</ele>
        <time>2015-12-27T14:04:19.000Z</time>
      </trkpt>
      <trkpt lat="48.72062" lon="1.97178">
        <ele>141.39999389648</ele>
        <time>2015-12-27T14:04:23.000Z</time>
      </trkpt>
      <trkpt lat="48.72063" lon="1.97181">
        <ele>141.60000610352</ele>
        <time>2015-12-27T14:04:24.000Z</time>
      </trkpt>
      <trkpt lat="48.72067" lon="1.9719">
        <ele>142.19999694824</ele>
        <time>2015-12-27T14:04:29.000Z</time>
      </trkpt>
      <trkpt lat="48.72071" lon="1.97198">
        <ele>142.60000610352</ele>
        <time>2015-12-27T14:04:34.000Z</time>
      </trkpt>
      <trkpt lat="48.72072" lon="1.972">
        <ele>142.80000305176</ele>
        <time>2015-12-27T14:04:35.000Z</time>
      </trkpt>
      <trkpt lat="48.72076" lon="1.97207">
        <ele>143.19999694824</ele>
        <time>2015-12-27T14:04:39.000Z</time>
      </trkpt>
      <trkpt lat="48.72078" lon="1.97214">
        <ele>143.60000610352</ele>
        <time>2015-12-27T14:04:42.000Z</time>
      </trkpt>
      <trkpt lat="48.72079" lon="1.97216">
        <ele>143.80000305176</ele>
        <time>2015-12-27T14:04:44.000Z</time>
      </trkpt>
      <trkpt lat="48.72081" lon="1.97223">
        <ele>144.60000610352</ele>
        <time>2015-12-27T14:04:47.000Z</time>
      </trkpt>
      <trkpt lat="48.72082" lon="1.97225">
        <ele>144.80000305176</ele>
        <time>2015-12-27T14:04:48.000Z</time>
      </trkpt>
      <trkpt lat="48.72083" lon="1.97229">
        <ele>145.60000610352</ele>
        <time>2015-12-27T14:04:50.000Z</time>
      </trkpt>
      <trkpt lat="48.72087" lon="1.97238">
        <ele>146.39999389648</ele>
        <time>2015-12-27T14:04:55.000Z</time>
      </trkpt>
      <trkpt lat="48.72088" lon="1.97247">
        <ele>147.39999389648</ele>
        <time>2015-12-27T14:05:00.000Z</time>
      </trkpt>
      <trkpt lat="48.72089" lon="1.97252">
        <ele>147.60000610352</ele>
        <time>2015-12-27T14:05:03.000Z</time>
      </trkpt>
      <trkpt lat="48.72089" lon="1.97254">
        <ele>147.80000305176</ele>
        <time>2015-12-27T14:05:04.000Z</time>
      </trkpt>
      <trkpt lat="48.72089" lon="1.97256">
        <ele>148</ele>
        <time>2015-12-27T14:05:05.000Z</time>
      </trkpt>
      <trkpt lat="48.72087" lon="1.97263">
        <ele>148.80000305176</ele>
        <time>2015-12-27T14:05:09.000Z</time>
      </trkpt>
      <trkpt lat="48.72087" lon="1.97263">
        <ele>149</ele>
        <time>2015-12-27T14:05:10.000Z</time>
      </trkpt>
      <trkpt lat="48.72086" lon="1.97264">
        <ele>149</ele>
        <time>2015-12-27T14:05:11.000Z</time>
      </trkpt>
      <trkpt lat="48.72087" lon="1.97273">
        <ele>149.60000610352</ele>
        <time>2015-12-27T14:05:16.000Z</time>
      </trkpt>
      <trkpt lat="48.72088" lon="1.97281">
        <ele>150.19999694824</ele>
        <time>2015-12-27T14:05:20.000Z</time>
      </trkpt>
      <trkpt lat="48.72089" lon="1.97283">
        <ele>150.19999694824</ele>
        <time>2015-12-27T14:05:21.000Z</time>
      </trkpt>
      <trkpt lat="48.72089" lon="1.97286">
        <ele>150.39999389648</ele>
        <time>2015-12-27T14:05:22.000Z</time>
      </trkpt>
      <trkpt lat="48.72093" lon="1.97292">
        <ele>150.60000610352</ele>
        <time>2015-12-27T14:05:26.000Z</time>
      </trkpt>
      <trkpt lat="48.721" lon="1.97302">
        <ele>150.60000610352</ele>
        <time>2015-12-27T14:05:32.000Z</time>
      </trkpt>
      <trkpt lat="48.72101" lon="1.97304">
        <ele>150.60000610352</ele>
        <time>2015-12-27T14:05:33.000Z</time>
      </trkpt>
      <trkpt lat="48.72108" lon="1.97316">
        <ele>150.80000305176</ele>
        <time>2015-12-27T14:05:41.000Z</time>
      </trkpt>
      <trkpt lat="48.72109" lon="1.97318">
        <ele>150.80000305176</ele>
        <time>2015-12-27T14:05:42.000Z</time>
      </trkpt>
      <trkpt lat="48.72111" lon="1.97322">
        <ele>150.80000305176</ele>
        <time>2015-12-27T14:05:45.000Z</time>
      </trkpt>
      <trkpt lat="48.72111" lon="1.97324">
        <ele>151</ele>
        <time>2015-12-27T14:05:46.000Z</time>
      </trkpt>
      <trkpt lat="48.72114" lon="1.97334">
        <ele>151.60000610352</ele>
        <time>2015-12-27T14:05:51.000Z</time>
      </trkpt>
      <trkpt lat="48.72115" lon="1.97336">
        <ele>151.80000305176</ele>
        <time>2015-12-27T14:05:53.000Z</time>
      </trkpt>
      <trkpt lat="48.72116" lon="1.97338">
        <ele>151.80000305176</ele>
        <time>2015-12-27T14:05:54.000Z</time>
      </trkpt>
      <trkpt lat="48.72116" lon="1.97342">
        <ele>152.19999694824</ele>
        <time>2015-12-27T14:05:56.000Z</time>
      </trkpt>
      <trkpt lat="48.72118" lon="1.97347">
        <ele>152.60000610352</ele>
        <time>2015-12-27T14:05:59.000Z</time>
      </trkpt>
      <trkpt lat="48.72119" lon="1.97353">
        <ele>153.19999694824</ele>
        <time>2015-12-27T14:06:02.000Z</time>
      </trkpt>
      <trkpt lat="48.72123" lon="1.97364">
        <ele>154</ele>
        <time>2015-12-27T14:06:08.000Z</time>
      </trkpt>
      <trkpt lat="48.72124" lon="1.97368">
        <ele>154.19999694824</ele>
        <time>2015-12-27T14:06:10.000Z</time>
      </trkpt>
      <trkpt lat="48.72126" lon="1.97372">
        <ele>154.60000610352</ele>
        <time>2015-12-27T14:06:13.000Z</time>
      </trkpt>
      <trkpt lat="48.72127" lon="1.97378">
        <ele>155.19999694824</ele>
        <time>2015-12-27T14:06:16.000Z</time>
      </trkpt>
      <trkpt lat="48.72127" lon="1.97384">
        <ele>155.80000305176</ele>
        <time>2015-12-27T14:06:19.000Z</time>
      </trkpt>
      <trkpt lat="48.72128" lon="1.97398">
        <ele>157.39999389648</ele>
        <time>2015-12-27T14:06:26.000Z</time>
      </trkpt>
      <trkpt lat="48.72129" lon="1.97412">
        <ele>159.19999694824</ele>
        <time>2015-12-27T14:06:32.000Z</time>
      </trkpt>
      <trkpt lat="48.72129" lon="1.97424">
        <ele>161.19999694824</ele>
        <time>2015-12-27T14:06:37.000Z</time>
      </trkpt>
      <trkpt lat="48.7213" lon="1.97428">
        <ele>162</ele>
        <time>2015-12-27T14:06:40.000Z</time>
      </trkpt>
      <trkpt lat="48.72129" lon="1.9743">
        <ele>162.19999694824</ele>
        <time>2015-12-27T14:06:41.000Z</time>
      </trkpt>
      <trkpt lat="48.72131" lon="1.97442">
        <ele>163.39999389648</ele>
        <time>2015-12-27T14:06:47.000Z</time>
      </trkpt>
      <trkpt lat="48.72131" lon="1.97453">
        <ele>164.19999694824</ele>
        <time>2015-12-27T14:06:54.000Z</time>
      </trkpt>
      <trkpt lat="48.72133" lon="1.97463">
        <ele>165</ele>
        <time>2015-12-27T14:07:01.000Z</time>
      </trkpt>
      <trkpt lat="48.72134" lon="1.97472">
        <ele>165.60000610352</ele>
        <time>2015-12-27T14:07:06.000Z</time>
      </trkpt>
      <trkpt lat="48.72134" lon="1.97474">
        <ele>165.60000610352</ele>
        <time>2015-12-27T14:07:07.000Z</time>
      </trkpt>
      <trkpt lat="48.72135" lon="1.97483">
        <ele>166.19999694824</ele>
        <time>2015-12-27T14:07:11.000Z</time>
      </trkpt>
      <trkpt lat="48.72136" lon="1.97486">
        <ele>166.39999389648</ele>
        <time>2015-12-27T14:07:12.000Z</time>
      </trkpt>
      <trkpt lat="48.72137" lon="1.97493">
        <ele>167</ele>
        <time>2015-12-27T14:07:16.000Z</time>
      </trkpt>
      <trkpt lat="48.72138" lon="1.97497">
        <ele>167.19999694824</ele>
        <time>2015-12-27T14:07:18.000Z</time>
      </trkpt>
      <trkpt lat="48.72141" lon="1.97509">
        <ele>167.80000305176</ele>
        <time>2015-12-27T14:07:24.000Z</time>
      </trkpt>
      <trkpt lat="48.72144" lon="1.97517">
        <ele>168.39999389648</ele>
        <time>2015-12-27T14:07:28.000Z</time>
      </trkpt>
      <trkpt lat="48.72145" lon="1.9752">
        <ele>168.60000610352</ele>
        <time>2015-12-27T14:07:29.000Z</time>
      </trkpt>
      <trkpt lat="48.72146" lon="1.97524">
        <ele>168.80000305176</ele>
        <time>2015-12-27T14:07:31.000Z</time>
      </trkpt>
      <trkpt lat="48.72149" lon="1.97531">
        <ele>169.19999694824</ele>
        <time>2015-12-27T14:07:35.000Z</time>
      </trkpt>
      <trkpt lat="48.72152" lon="1.97536">
        <ele>169.60000610352</ele>
        <time>2015-12-27T14:07:38.000Z</time>
      </trkpt>
      <trkpt lat="48.72153" lon="1.9754">
        <ele>169.80000305176</ele>
        <time>2015-12-27T14:07:40.000Z</time>
      </trkpt>
      <trkpt lat="48.72155" lon="1.97543">
        <ele>169.80000305176</ele>
        <time>2015-12-27T14:07:42.000Z</time>
      </trkpt>
      <trkpt lat="48.72157" lon="1.97549">
        <ele>170.19999694824</ele>
        <time>2015-12-27T14:07:45.000Z</time>
      </trkpt>
      <trkpt lat="48.72159" lon="1.97552">
        <ele>170.19999694824</ele>
        <time>2015-12-27T14:07:47.000Z</time>
      </trkpt>
      <trkpt lat="48.7216" lon="1.97555">
        <ele>170.39999389648</ele>
        <time>2015-12-27T14:07:49.000Z</time>
      </trkpt>
      <trkpt lat="48.72162" lon="1.97558">
        <ele>170.39999389648</ele>
        <time>2015-12-27T14:07:51.000Z</time>
      </trkpt>
      <trkpt lat="48.72163" lon="1.9756">
        <ele>170.60000610352</ele>
        <time>2015-12-27T14:07:52.000Z</time>
      </trkpt>
      <trkpt lat="48.72167" lon="1.97569">
        <ele>171</ele>
        <time>2015-12-27T14:07:57.000Z</time>
      </trkpt>
      <trkpt lat="48.72172" lon="1.97577">
        <ele>171.19999694824</ele>
        <time>2015-12-27T14:08:03.000Z</time>
      </trkpt>
      <trkpt lat="48.72175" lon="1.97583">
        <ele>171</ele>
        <time>2015-12-27T14:08:07.000Z</time>
      </trkpt>
      <trkpt lat="48.72178" lon="1.97588">
        <ele>171</ele>
        <time>2015-12-27T14:08:10.000Z</time>
      </trkpt>
      <trkpt lat="48.7218" lon="1.97593">
        <ele>170.80000305176</ele>
        <time>2015-12-27T14:08:13.000Z</time>
      </trkpt>
      <trkpt lat="48.72181" lon="1.97596">
        <ele>170.80000305176</ele>
        <time>2015-12-27T14:08:15.000Z</time>
      </trkpt>
      <trkpt lat="48.72186" lon="1.97606">
        <ele>170.60000610352</ele>
        <time>2015-12-27T14:08:21.000Z</time>
      </trkpt>
      <trkpt lat="48.72189" lon="1.97611">
        <ele>170.60000610352</ele>
        <time>2015-12-27T14:08:24.000Z</time>
      </trkpt>
      <trkpt lat="48.72192" lon="1.97616">
        <ele>170.39999389648</ele>
        <time>2015-12-27T14:08:27.000Z</time>
      </trkpt>
      <trkpt lat="48.72197" lon="1.97626">
        <ele>170.19999694824</ele>
        <time>2015-12-27T14:08:33.000Z</time>
      </trkpt>
      <trkpt lat="48.72204" lon="1.97637">
        <ele>169.80000305176</ele>
        <time>2015-12-27T14:08:39.000Z</time>
      </trkpt>
      <trkpt lat="48.72205" lon="1.9764">
        <ele>169.80000305176</ele>
        <time>2015-12-27T14:08:41.000Z</time>
      </trkpt>
      <trkpt lat="48.72207" lon="1.97642">
        <ele>169.80000305176</ele>
        <time>2015-12-27T14:08:42.000Z</time>
      </trkpt>
      <trkpt lat="48.72207" lon="1.97647">
        <ele>169.60000610352</ele>
        <time>2015-12-27T14:08:44.000Z</time>
      </trkpt>
      <trkpt lat="48.72212" lon="1.97653">
        <ele>169.39999389648</ele>
        <time>2015-12-27T14:08:48.000Z</time>
      </trkpt>
      <trkpt lat="48.72217" lon="1.97663">
        <ele>169.39999389648</ele>
        <time>2015-12-27T14:08:54.000Z</time>
      </trkpt>
      <trkpt lat="48.72218" lon="1.97672">
        <ele>169.60000610352</ele>
        <time>2015-12-27T14:08:58.000Z</time>
      </trkpt>
      <trkpt lat="48.72219" lon="1.97683">
        <ele>169.80000305176</ele>
        <time>2015-12-27T14:09:03.000Z</time>
      </trkpt>
      <trkpt lat="48.72222" lon="1.97699">
        <ele>170.19999694824</ele>
        <time>2015-12-27T14:09:10.000Z</time>
      </trkpt>
      <trkpt lat="48.72225" lon="1.97705">
        <ele>170.19999694824</ele>
        <time>2015-12-27T14:09:13.000Z</time>
      </trkpt>
      <trkpt lat="48.72226" lon="1.97709">
        <ele>170.19999694824</ele>
        <time>2015-12-27T14:09:15.000Z</time>
      </trkpt>
      <trkpt lat="48.72229" lon="1.97721">
        <ele>170.60000610352</ele>
        <time>2015-12-27T14:09:21.000Z</time>
      </trkpt>
      <trkpt lat="48.72229" lon="1.97724">
        <ele>170.60000610352</ele>
        <time>2015-12-27T14:09:22.000Z</time>
      </trkpt>
      <trkpt lat="48.7223" lon="1.97726">
        <ele>170.60000610352</ele>
        <time>2015-12-27T14:09:23.000Z</time>
      </trkpt>
      <trkpt lat="48.72231" lon="1.97731">
        <ele>170.60000610352</ele>
        <time>2015-12-27T14:09:26.000Z</time>
      </trkpt>
      <trkpt lat="48.72234" lon="1.97742">
        <ele>171</ele>
        <time>2015-12-27T14:09:31.000Z</time>
      </trkpt>
      <trkpt lat="48.72236" lon="1.97752">
        <ele>171</ele>
        <time>2015-12-27T14:09:36.000Z</time>
      </trkpt>
      <trkpt lat="48.72239" lon="1.97762">
        <ele>171.19999694824</ele>
        <time>2015-12-27T14:09:41.000Z</time>
      </trkpt>
      <trkpt lat="48.72242" lon="1.9777">
        <ele>171.39999389648</ele>
        <time>2015-12-27T14:09:46.000Z</time>
      </trkpt>
      <trkpt lat="48.72243" lon="1.97771">
        <ele>171.39999389648</ele>
        <time>2015-12-27T14:09:47.000Z</time>
      </trkpt>
      <trkpt lat="48.72243" lon="1.97772">
        <ele>171.39999389648</ele>
        <time>2015-12-27T14:09:49.000Z</time>
      </trkpt>
      <trkpt lat="48.72248" lon="1.97782">
        <ele>171.60000610352</ele>
        <time>2015-12-27T14:09:55.000Z</time>
      </trkpt>
      <trkpt lat="48.72249" lon="1.97784">
        <ele>171.60000610352</ele>
        <time>2015-12-27T14:09:56.000Z</time>
      </trkpt>
      <trkpt lat="48.72253" lon="1.97794">
        <ele>171.60000610352</ele>
        <time>2015-12-27T14:10:03.000Z</time>
      </trkpt>
      <trkpt lat="48.72254" lon="1.97798">
        <ele>171.80000305176</ele>
        <time>2015-12-27T14:10:05.000Z</time>
      </trkpt>
      <trkpt lat="48.72257" lon="1.97805">
        <ele>171.80000305176</ele>
        <time>2015-12-27T14:10:08.000Z</time>
      </trkpt>
      <trkpt lat="48.72262" lon="1.97814">
        <ele>172</ele>
        <time>2015-12-27T14:10:13.000Z</time>
      </trkpt>
      <trkpt lat="48.72266" lon="1.9782">
        <ele>172</ele>
        <time>2015-12-27T14:10:16.000Z</time>
      </trkpt>
      <trkpt lat="48.72268" lon="1.97827">
        <ele>172</ele>
        <time>2015-12-27T14:10:19.000Z</time>
      </trkpt>
      <trkpt lat="48.72273" lon="1.97841">
        <ele>172.19999694824</ele>
        <time>2015-12-27T14:10:26.000Z</time>
      </trkpt>
      <trkpt lat="48.72276" lon="1.97848">
        <ele>172</ele>
        <time>2015-12-27T14:10:30.000Z</time>
      </trkpt>
      <trkpt lat="48.72277" lon="1.97852">
        <ele>172.19999694824</ele>
        <time>2015-12-27T14:10:32.000Z</time>
      </trkpt>
      <trkpt lat="48.72279" lon="1.97862">
        <ele>172.19999694824</ele>
        <time>2015-12-27T14:10:37.000Z</time>
      </trkpt>
      <trkpt lat="48.7228" lon="1.97866">
        <ele>172.19999694824</ele>
        <time>2015-12-27T14:10:39.000Z</time>
      </trkpt>
      <trkpt lat="48.72284" lon="1.97876">
        <ele>172.19999694824</ele>
        <time>2015-12-27T14:10:44.000Z</time>
      </trkpt>
      <trkpt lat="48.72291" lon="1.97884">
        <ele>172</ele>
        <time>2015-12-27T14:10:50.000Z</time>
      </trkpt>
      <trkpt lat="48.72292" lon="1.97885">
        <ele>172</ele>
        <time>2015-12-27T14:10:51.000Z</time>
      </trkpt>
      <trkpt lat="48.72296" lon="1.9789">
        <ele>171.80000305176</ele>
        <time>2015-12-27T14:10:55.000Z</time>
      </trkpt>
      <trkpt lat="48.72297" lon="1.97891">
        <ele>171.80000305176</ele>
        <time>2015-12-27T14:10:56.000Z</time>
      </trkpt>
      <trkpt lat="48.72304" lon="1.97894">
        <ele>171.60000610352</ele>
        <time>2015-12-27T14:11:01.000Z</time>
      </trkpt>
      <trkpt lat="48.72311" lon="1.979">
        <ele>171.39999389648</ele>
        <time>2015-12-27T14:11:07.000Z</time>
      </trkpt>
      <trkpt lat="48.72318" lon="1.97909">
        <ele>171.19999694824</ele>
        <time>2015-12-27T14:11:13.000Z</time>
      </trkpt>
      <trkpt lat="48.72319" lon="1.97911">
        <ele>171.19999694824</ele>
        <time>2015-12-27T14:11:14.000Z</time>
      </trkpt>
      <trkpt lat="48.7232" lon="1.97915">
        <ele>171.39999389648</ele>
        <time>2015-12-27T14:11:16.000Z</time>
      </trkpt>
      <trkpt lat="48.72322" lon="1.97926">
        <ele>171.39999389648</ele>
        <time>2015-12-27T14:11:21.000Z</time>
      </trkpt>
      <trkpt lat="48.72325" lon="1.97936">
        <ele>171.39999389648</ele>
        <time>2015-12-27T14:11:26.000Z</time>
      </trkpt>
      <trkpt lat="48.72325" lon="1.97938">
        <ele>171.39999389648</ele>
        <time>2015-12-27T14:11:27.000Z</time>
      </trkpt>
      <trkpt lat="48.72325" lon="1.9794">
        <ele>171.39999389648</ele>
        <time>2015-12-27T14:11:28.000Z</time>
      </trkpt>
      <trkpt lat="48.72328" lon="1.97952">
        <ele>171.39999389648</ele>
        <time>2015-12-27T14:11:34.000Z</time>
      </trkpt>
      <trkpt lat="48.72328" lon="1.97953">
        <ele>171.39999389648</ele>
        <time>2015-12-27T14:11:35.000Z</time>
      </trkpt>
      <trkpt lat="48.72329" lon="1.97961">
        <ele>171.60000610352</ele>
        <time>2015-12-27T14:11:39.000Z</time>
      </trkpt>
      <trkpt lat="48.72329" lon="1.97962">
        <ele>171.60000610352</ele>
        <time>2015-12-27T14:11:40.000Z</time>
      </trkpt>
      <trkpt lat="48.7233" lon="1.97971">
        <ele>171.60000610352</ele>
        <time>2015-12-27T14:11:45.000Z</time>
      </trkpt>
      <trkpt lat="48.72333" lon="1.97984">
        <ele>171.60000610352</ele>
        <time>2015-12-27T14:11:52.000Z</time>
      </trkpt>
      <trkpt lat="48.72334" lon="1.9799">
        <ele>171.39999389648</ele>
        <time>2015-12-27T14:11:55.000Z</time>
      </trkpt>
      <trkpt lat="48.72334" lon="1.97993">
        <ele>171.60000610352</ele>
        <time>2015-12-27T14:11:57.000Z</time>
      </trkpt>
      <trkpt lat="48.72337" lon="1.98">
        <ele>171.60000610352</ele>
        <time>2015-12-27T14:12:01.000Z</time>
      </trkpt>
      <trkpt lat="48.72338" lon="1.98004">
        <ele>171.60000610352</ele>
        <time>2015-12-27T14:12:03.000Z</time>
      </trkpt>
      <trkpt lat="48.72342" lon="1.98019">
        <ele>172</ele>
        <time>2015-12-27T14:12:10.000Z</time>
      </trkpt>
      <trkpt lat="48.72342" lon="1.9802">
        <ele>172</ele>
        <time>2015-12-27T14:12:11.000Z</time>
      </trkpt>
      <trkpt lat="48.72344" lon="1.98026">
        <ele>172</ele>
        <time>2015-12-27T14:12:14.000Z</time>
      </trkpt>
      <trkpt lat="48.72345" lon="1.98032">
        <ele>172.19999694824</ele>
        <time>2015-12-27T14:12:17.000Z</time>
      </trkpt>
      <trkpt lat="48.72347" lon="1.98043">
        <ele>172.39999389648</ele>
        <time>2015-12-27T14:12:22.000Z</time>
      </trkpt>
      <trkpt lat="48.72347" lon="1.98044">
        <ele>172.39999389648</ele>
        <time>2015-12-27T14:12:23.000Z</time>
      </trkpt>
      <trkpt lat="48.72349" lon="1.9805">
        <ele>172.60000610352</ele>
        <time>2015-12-27T14:12:26.000Z</time>
      </trkpt>
      <trkpt lat="48.7235" lon="1.98056">
        <ele>172.60000610352</ele>
        <time>2015-12-27T14:12:29.000Z</time>
      </trkpt>
      <trkpt lat="48.72353" lon="1.98066">
        <ele>172.80000305176</ele>
        <time>2015-12-27T14:12:34.000Z</time>
      </trkpt>
      <trkpt lat="48.72354" lon="1.98068">
        <ele>172.80000305176</ele>
        <time>2015-12-27T14:12:35.000Z</time>
      </trkpt>
      <trkpt lat="48.72358" lon="1.98077">
        <ele>172.60000610352</ele>
        <time>2015-12-27T14:12:40.000Z</time>
      </trkpt>
      <trkpt lat="48.72363" lon="1.98087">
        <ele>172.19999694824</ele>
        <time>2015-12-27T14:12:45.000Z</time>
      </trkpt>
      <trkpt lat="48.72365" lon="1.9809">
        <ele>172</ele>
        <time>2015-12-27T14:12:47.000Z</time>
      </trkpt>
      <trkpt lat="48.72369" lon="1.98098">
        <ele>171.60000610352</ele>
        <time>2015-12-27T14:12:52.000Z</time>
      </trkpt>
      <trkpt lat="48.72375" lon="1.98108">
        <ele>171</ele>
        <time>2015-12-27T14:12:59.000Z</time>
      </trkpt>
      <trkpt lat="48.72378" lon="1.98113">
        <ele>170.80000305176</ele>
        <time>2015-12-27T14:13:02.000Z</time>
      </trkpt>
      <trkpt lat="48.7238" lon="1.98118">
        <ele>170.60000610352</ele>
        <time>2015-12-27T14:13:05.000Z</time>
      </trkpt>
      <trkpt lat="48.72387" lon="1.9813">
        <ele>170</ele>
        <time>2015-12-27T14:13:12.000Z</time>
      </trkpt>
      <trkpt lat="48.72393" lon="1.98142">
        <ele>169.39999389648</ele>
        <time>2015-12-27T14:13:19.000Z</time>
      </trkpt>
      <trkpt lat="48.72397" lon="1.98149">
        <ele>169</ele>
        <time>2015-12-27T14:13:23.000Z</time>
      </trkpt>
      <trkpt lat="48.72399" lon="1.98152">
        <ele>168.80000305176</ele>
        <time>2015-12-27T14:13:25.000Z</time>
      </trkpt>
      <trkpt lat="48.72408" lon="1.98162">
        <ele>168</ele>
        <time>2015-12-27T14:13:32.000Z</time>
      </trkpt>
      <trkpt lat="48.72414" lon="1.98173">
        <ele>167.19999694824</ele>
        <time>2015-12-27T14:13:38.000Z</time>
      </trkpt>
      <trkpt lat="48.72416" lon="1.98177">
        <ele>166.80000305176</ele>
        <time>2015-12-27T14:13:41.000Z</time>
      </trkpt>
      <trkpt lat="48.72419" lon="1.98181">
        <ele>166.39999389648</ele>
        <time>2015-12-27T14:13:44.000Z</time>
      </trkpt>
      <trkpt lat="48.72427" lon="1.98194">
        <ele>165.39999389648</ele>
        <time>2015-12-27T14:13:51.000Z</time>
      </trkpt>
      <trkpt lat="48.72434" lon="1.98211">
        <ele>164.19999694824</ele>
        <time>2015-12-27T14:14:00.000Z</time>
      </trkpt>
      <trkpt lat="48.72436" lon="1.98216">
        <ele>164</ele>
        <time>2015-12-27T14:14:03.000Z</time>
      </trkpt>
      <trkpt lat="48.72438" lon="1.98222">
        <ele>163.80000305176</ele>
        <time>2015-12-27T14:14:06.000Z</time>
      </trkpt>
      <trkpt lat="48.7244" lon="1.98231">
        <ele>163.39999389648</ele>
        <time>2015-12-27T14:14:12.000Z</time>
      </trkpt>
      <trkpt lat="48.72441" lon="1.98231">
        <ele>163.39999389648</ele>
        <time>2015-12-27T14:14:13.000Z</time>
      </trkpt>
      <trkpt lat="48.72445" lon="1.98248">
        <ele>162.80000305176</ele>
        <time>2015-12-27T14:14:34.000Z</time>
      </trkpt>
      <trkpt lat="48.72447" lon="1.98254">
        <ele>162.60000610352</ele>
        <time>2015-12-27T14:14:37.000Z</time>
      </trkpt>
      <trkpt lat="48.7245" lon="1.98268">
        <ele>162.19999694824</ele>
        <time>2015-12-27T14:14:44.000Z</time>
      </trkpt>
      <trkpt lat="48.72451" lon="1.98271">
        <ele>162</ele>
        <time>2015-12-27T14:14:46.000Z</time>
      </trkpt>
      <trkpt lat="48.72452" lon="1.98278">
        <ele>161.80000305176</ele>
        <time>2015-12-27T14:14:49.000Z</time>
      </trkpt>
      <trkpt lat="48.72455" lon="1.98292">
        <ele>161.39999389648</ele>
        <time>2015-12-27T14:14:56.000Z</time>
      </trkpt>
      <trkpt lat="48.72459" lon="1.98311">
        <ele>160.80000305176</ele>
        <time>2015-12-27T14:15:04.000Z</time>
      </trkpt>
      <trkpt lat="48.72467" lon="1.98329">
        <ele>160.19999694824</ele>
        <time>2015-12-27T14:15:13.000Z</time>
      </trkpt>
      <trkpt lat="48.72469" lon="1.98338">
        <ele>160</ele>
        <time>2015-12-27T14:15:19.000Z</time>
      </trkpt>
      <trkpt lat="48.72475" lon="1.9835">
        <ele>159.80000305176</ele>
        <time>2015-12-27T14:15:26.000Z</time>
      </trkpt>
      <trkpt lat="48.72478" lon="1.9836">
        <ele>159.60000610352</ele>
        <time>2015-12-27T14:15:31.000Z</time>
      </trkpt>
      <trkpt lat="48.72479" lon="1.98364">
        <ele>159.60000610352</ele>
        <time>2015-12-27T14:15:33.000Z</time>
      </trkpt>
      <trkpt lat="48.72484" lon="1.98384">
        <ele>159.39999389648</ele>
        <time>2015-12-27T14:15:43.000Z</time>
      </trkpt>
      <trkpt lat="48.72486" lon="1.98392">
        <ele>159.39999389648</ele>
        <time>2015-12-27T14:15:47.000Z</time>
      </trkpt>
      <trkpt lat="48.72487" lon="1.98396">
        <ele>159.39999389648</ele>
        <time>2015-12-27T14:15:49.000Z</time>
      </trkpt>
      <trkpt lat="48.72489" lon="1.98408">
        <ele>159.39999389648</ele>
        <time>2015-12-27T14:15:55.000Z</time>
      </trkpt>
      <trkpt lat="48.72492" lon="1.98422">
        <ele>159.80000305176</ele>
        <time>2015-12-27T14:16:02.000Z</time>
      </trkpt>
      <trkpt lat="48.72493" lon="1.98424">
        <ele>160</ele>
        <time>2015-12-27T14:16:03.000Z</time>
      </trkpt>
      <trkpt lat="48.72496" lon="1.98437">
        <ele>160.39999389648</ele>
        <time>2015-12-27T14:16:10.000Z</time>
      </trkpt>
      <trkpt lat="48.72499" lon="1.9845">
        <ele>160.80000305176</ele>
        <time>2015-12-27T14:16:17.000Z</time>
      </trkpt>
      <trkpt lat="48.725" lon="1.98461">
        <ele>161.19999694824</ele>
        <time>2015-12-27T14:16:22.000Z</time>
      </trkpt>
      <trkpt lat="48.72503" lon="1.98474">
        <ele>161.60000610352</ele>
        <time>2015-12-27T14:16:29.000Z</time>
      </trkpt>
      <trkpt lat="48.72507" lon="1.98491">
        <ele>161.80000305176</ele>
        <time>2015-12-27T14:16:37.000Z</time>
      </trkpt>
      <trkpt lat="48.72507" lon="1.98494">
        <ele>161.80000305176</ele>
        <time>2015-12-27T14:16:39.000Z</time>
      </trkpt>
      <trkpt lat="48.72508" lon="1.98503">
        <ele>161.80000305176</ele>
        <time>2015-12-27T14:16:43.000Z</time>
      </trkpt>
      <trkpt lat="48.72511" lon="1.98524">
        <ele>161.80000305176</ele>
        <time>2015-12-27T14:16:53.000Z</time>
      </trkpt>
      <trkpt lat="48.72513" lon="1.98534">
        <ele>162</ele>
        <time>2015-12-27T14:16:58.000Z</time>
      </trkpt>
      <trkpt lat="48.72513" lon="1.9854">
        <ele>162</ele>
        <time>2015-12-27T14:17:01.000Z</time>
      </trkpt>
      <trkpt lat="48.72514" lon="1.98557">
        <ele>162</ele>
        <time>2015-12-27T14:17:09.000Z</time>
      </trkpt>
      <trkpt lat="48.72514" lon="1.98558">
        <ele>162</ele>
        <time>2015-12-27T14:17:10.000Z</time>
      </trkpt>
      <trkpt lat="48.72513" lon="1.98575">
        <ele>162</ele>
        <time>2015-12-27T14:17:18.000Z</time>
      </trkpt>
      <trkpt lat="48.72512" lon="1.98592">
        <ele>161.60000610352</ele>
        <time>2015-12-27T14:17:27.000Z</time>
      </trkpt>
      <trkpt lat="48.72511" lon="1.98607">
        <ele>161.60000610352</ele>
        <time>2015-12-27T14:17:34.000Z</time>
      </trkpt>
      <trkpt lat="48.7251" lon="1.98624">
        <ele>161.19999694824</ele>
        <time>2015-12-27T14:17:42.000Z</time>
      </trkpt>
      <trkpt lat="48.72509" lon="1.98635">
        <ele>161.19999694824</ele>
        <time>2015-12-27T14:17:48.000Z</time>
      </trkpt>
      <trkpt lat="48.72508" lon="1.98648">
        <ele>161</ele>
        <time>2015-12-27T14:17:55.000Z</time>
      </trkpt>
      <trkpt lat="48.72508" lon="1.9865">
        <ele>161</ele>
        <time>2015-12-27T14:17:56.000Z</time>
      </trkpt>
      <trkpt lat="48.72507" lon="1.98656">
        <ele>161</ele>
        <time>2015-12-27T14:18:00.000Z</time>
      </trkpt>
      <trkpt lat="48.72507" lon="1.9866">
        <ele>161</ele>
        <time>2015-12-27T14:18:03.000Z</time>
      </trkpt>
      <trkpt lat="48.72506" lon="1.98664">
        <ele>161</ele>
        <time>2015-12-27T14:18:05.000Z</time>
      </trkpt>
      <trkpt lat="48.72505" lon="1.9867">
        <ele>161.19999694824</ele>
        <time>2015-12-27T14:18:08.000Z</time>
      </trkpt>
      <trkpt lat="48.72505" lon="1.98678">
        <ele>161.19999694824</ele>
        <time>2015-12-27T14:18:12.000Z</time>
      </trkpt>
      <trkpt lat="48.72505" lon="1.98692">
        <ele>161.39999389648</ele>
        <time>2015-12-27T14:18:19.000Z</time>
      </trkpt>
      <trkpt lat="48.72503" lon="1.98703">
        <ele>161.60000610352</ele>
        <time>2015-12-27T14:18:24.000Z</time>
      </trkpt>
      <trkpt lat="48.72503" lon="1.98704">
        <ele>161.60000610352</ele>
        <time>2015-12-27T14:18:25.000Z</time>
      </trkpt>
      <trkpt lat="48.725" lon="1.98719">
        <ele>161.80000305176</ele>
        <time>2015-12-27T14:18:32.000Z</time>
      </trkpt>
      <trkpt lat="48.72499" lon="1.98722">
        <ele>161.80000305176</ele>
        <time>2015-12-27T14:18:34.000Z</time>
      </trkpt>
      <trkpt lat="48.72498" lon="1.98727">
        <ele>161.80000305176</ele>
        <time>2015-12-27T14:18:37.000Z</time>
      </trkpt>
      <trkpt lat="48.72498" lon="1.98735">
        <ele>162</ele>
        <time>2015-12-27T14:18:41.000Z</time>
      </trkpt>
      <trkpt lat="48.72496" lon="1.98748">
        <ele>162</ele>
        <time>2015-12-27T14:18:47.000Z</time>
      </trkpt>
      <trkpt lat="48.72493" lon="1.98765">
        <ele>162.19999694824</ele>
        <time>2015-12-27T14:18:55.000Z</time>
      </trkpt>
      <trkpt lat="48.72493" lon="1.98776">
        <ele>162.39999389648</ele>
        <time>2015-12-27T14:19:00.000Z</time>
      </trkpt>
      <trkpt lat="48.72491" lon="1.9878">
        <ele>162.39999389648</ele>
        <time>2015-12-27T14:19:03.000Z</time>
      </trkpt>
      <trkpt lat="48.72488" lon="1.98783">
        <ele>162.39999389648</ele>
        <time>2015-12-27T14:19:06.000Z</time>
      </trkpt>
      <trkpt lat="48.72484" lon="1.98792">
        <ele>162.60000610352</ele>
        <time>2015-12-27T14:19:11.000Z</time>
      </trkpt>
      <trkpt lat="48.72484" lon="1.98795">
        <ele>162.60000610352</ele>
        <time>2015-12-27T14:19:12.000Z</time>
      </trkpt>
      <trkpt lat="48.72482" lon="1.98803">
        <ele>162.80000305176</ele>
        <time>2015-12-27T14:19:16.000Z</time>
      </trkpt>
      <trkpt lat="48.7248" lon="1.98806">
        <ele>162.80000305176</ele>
        <time>2015-12-27T14:19:18.000Z</time>
      </trkpt>
      <trkpt lat="48.72475" lon="1.9882">
        <ele>163</ele>
        <time>2015-12-27T14:19:26.000Z</time>
      </trkpt>
      <trkpt lat="48.72468" lon="1.98834">
        <ele>163.19999694824</ele>
        <time>2015-12-27T14:19:34.000Z</time>
      </trkpt>
      <trkpt lat="48.72461" lon="1.98849">
        <ele>163.19999694824</ele>
        <time>2015-12-27T14:19:43.000Z</time>
      </trkpt>
      <trkpt lat="48.72458" lon="1.98856">
        <ele>163.19999694824</ele>
        <time>2015-12-27T14:19:47.000Z</time>
      </trkpt>
      <trkpt lat="48.72457" lon="1.98858">
        <ele>163.19999694824</ele>
        <time>2015-12-27T14:19:48.000Z</time>
      </trkpt>
      <trkpt lat="48.72449" lon="1.98876">
        <ele>163.19999694824</ele>
        <time>2015-12-27T14:19:57.000Z</time>
      </trkpt>
      <trkpt lat="48.72446" lon="1.98884">
        <ele>163.19999694824</ele>
        <time>2015-12-27T14:20:03.000Z</time>
      </trkpt>
      <trkpt lat="48.72445" lon="1.98885">
        <ele>163</ele>
        <time>2015-12-27T14:20:04.000Z</time>
      </trkpt>
      <trkpt lat="48.72443" lon="1.9889">
        <ele>163</ele>
        <time>2015-12-27T14:20:08.000Z</time>
      </trkpt>
      <trkpt lat="48.72441" lon="1.98897">
        <ele>163</ele>
        <time>2015-12-27T14:20:12.000Z</time>
      </trkpt>
      <trkpt lat="48.7244" lon="1.98898">
        <ele>163</ele>
        <time>2015-12-27T14:20:13.000Z</time>
      </trkpt>
      <trkpt lat="48.72436" lon="1.98911">
        <ele>163</ele>
        <time>2015-12-27T14:20:20.000Z</time>
      </trkpt>
      <trkpt lat="48.72433" lon="1.98921">
        <ele>163.19999694824</ele>
        <time>2015-12-27T14:20:26.000Z</time>
      </trkpt>
      <trkpt lat="48.72427" lon="1.98939">
        <ele>163.39999389648</ele>
        <time>2015-12-27T14:20:35.000Z</time>
      </trkpt>
      <trkpt lat="48.72423" lon="1.98951">
        <ele>163.60000610352</ele>
        <time>2015-12-27T14:20:42.000Z</time>
      </trkpt>
      <trkpt lat="48.72419" lon="1.98962">
        <ele>163.60000610352</ele>
        <time>2015-12-27T14:20:49.000Z</time>
      </trkpt>
      <trkpt lat="48.72417" lon="1.98969">
        <ele>163.80000305176</ele>
        <time>2015-12-27T14:20:53.000Z</time>
      </trkpt>
      <trkpt lat="48.72415" lon="1.98975">
        <ele>163.80000305176</ele>
        <time>2015-12-27T14:20:56.000Z</time>
      </trkpt>
      <trkpt lat="48.72413" lon="1.98979">
        <ele>163.80000305176</ele>
        <time>2015-12-27T14:20:58.000Z</time>
      </trkpt>
      <trkpt lat="48.7241" lon="1.9899">
        <ele>163.60000610352</ele>
        <time>2015-12-27T14:21:04.000Z</time>
      </trkpt>
      <trkpt lat="48.72406" lon="1.99001">
        <ele>163.60000610352</ele>
        <time>2015-12-27T14:21:10.000Z</time>
      </trkpt>
      <trkpt lat="48.72399" lon="1.99021">
        <ele>163.60000610352</ele>
        <time>2015-12-27T14:21:20.000Z</time>
      </trkpt>
      <trkpt lat="48.72394" lon="1.99037">
        <ele>163.60000610352</ele>
        <time>2015-12-27T14:21:28.000Z</time>
      </trkpt>
      <trkpt lat="48.72389" lon="1.99049">
        <ele>163.60000610352</ele>
        <time>2015-12-27T14:21:36.000Z</time>
      </trkpt>
      <trkpt lat="48.72385" lon="1.99062">
        <ele>163.80000305176</ele>
        <time>2015-12-27T14:21:44.000Z</time>
      </trkpt>
      <trkpt lat="48.72383" lon="1.99068">
        <ele>164</ele>
        <time>2015-12-27T14:21:47.000Z</time>
      </trkpt>
      <trkpt lat="48.72377" lon="1.99084">
        <ele>163.80000305176</ele>
        <time>2015-12-27T14:21:55.000Z</time>
      </trkpt>
      <trkpt lat="48.72373" lon="1.99097">
        <ele>163.80000305176</ele>
        <time>2015-12-27T14:22:01.000Z</time>
      </trkpt>
      <trkpt lat="48.7237" lon="1.99105">
        <ele>163.60000610352</ele>
        <time>2015-12-27T14:22:06.000Z</time>
      </trkpt>
      <trkpt lat="48.72364" lon="1.99121">
        <ele>163.39999389648</ele>
        <time>2015-12-27T14:22:14.000Z</time>
      </trkpt>
      <trkpt lat="48.72359" lon="1.99137">
        <ele>163.19999694824</ele>
        <time>2015-12-27T14:22:22.000Z</time>
      </trkpt>
      <trkpt lat="48.72352" lon="1.99155">
        <ele>163</ele>
        <time>2015-12-27T14:22:31.000Z</time>
      </trkpt>
      <trkpt lat="48.72346" lon="1.99172">
        <ele>163</ele>
        <time>2015-12-27T14:22:40.000Z</time>
      </trkpt>
      <trkpt lat="48.72345" lon="1.99176">
        <ele>162.80000305176</ele>
        <time>2015-12-27T14:22:42.000Z</time>
      </trkpt>
      <trkpt lat="48.72342" lon="1.99184">
        <ele>162.80000305176</ele>
        <time>2015-12-27T14:22:46.000Z</time>
      </trkpt>
      <trkpt lat="48.72338" lon="1.99203">
        <ele>162.60000610352</ele>
        <time>2015-12-27T14:22:55.000Z</time>
      </trkpt>
      <trkpt lat="48.72333" lon="1.99218">
        <ele>162.60000610352</ele>
        <time>2015-12-27T14:23:02.000Z</time>
      </trkpt>
      <trkpt lat="48.72331" lon="1.99223">
        <ele>162.39999389648</ele>
        <time>2015-12-27T14:23:05.000Z</time>
      </trkpt>
      <trkpt lat="48.72329" lon="1.9923">
        <ele>162.19999694824</ele>
        <time>2015-12-27T14:23:08.000Z</time>
      </trkpt>
      <trkpt lat="48.72323" lon="1.99243">
        <ele>162</ele>
        <time>2015-12-27T14:23:12.000Z</time>
      </trkpt>
      <trkpt lat="48.72318" lon="1.99255">
        <ele>162.19999694824</ele>
        <time>2015-12-27T14:23:17.000Z</time>
      </trkpt>
      <trkpt lat="48.72316" lon="1.99261">
        <ele>162.19999694824</ele>
        <time>2015-12-27T14:23:20.000Z</time>
      </trkpt>
      <trkpt lat="48.72315" lon="1.99264">
        <ele>162.19999694824</ele>
        <time>2015-12-27T14:23:22.000Z</time>
      </trkpt>
      <trkpt lat="48.72313" lon="1.99271">
        <ele>162.39999389648</ele>
        <time>2015-12-27T14:23:25.000Z</time>
      </trkpt>
      <trkpt lat="48.7231" lon="1.99278">
        <ele>162.39999389648</ele>
        <time>2015-12-27T14:23:29.000Z</time>
      </trkpt>
      <trkpt lat="48.72304" lon="1.99291">
        <ele>162.80000305176</ele>
        <time>2015-12-27T14:23:36.000Z</time>
      </trkpt>
      <trkpt lat="48.72297" lon="1.99306">
        <ele>163.19999694824</ele>
        <time>2015-12-27T14:23:44.000Z</time>
      </trkpt>
      <trkpt lat="48.72291" lon="1.99319">
        <ele>163.60000610352</ele>
        <time>2015-12-27T14:23:51.000Z</time>
      </trkpt>
      <trkpt lat="48.7229" lon="1.99321">
        <ele>163.60000610352</ele>
        <time>2015-12-27T14:23:52.000Z</time>
      </trkpt>
      <trkpt lat="48.72279" lon="1.99343">
        <ele>163.80000305176</ele>
        <time>2015-12-27T14:24:04.000Z</time>
      </trkpt>
      <trkpt lat="48.72273" lon="1.99358">
        <ele>164</ele>
        <time>2015-12-27T14:24:11.000Z</time>
      </trkpt>
      <trkpt lat="48.72265" lon="1.99374">
        <ele>164</ele>
        <time>2015-12-27T14:24:19.000Z</time>
      </trkpt>
      <trkpt lat="48.72264" lon="1.99377">
        <ele>164</ele>
        <time>2015-12-27T14:24:21.000Z</time>
      </trkpt>
      <trkpt lat="48.72262" lon="1.99384">
        <ele>164</ele>
        <time>2015-12-27T14:24:24.000Z</time>
      </trkpt>
      <trkpt lat="48.72256" lon="1.99399">
        <ele>164</ele>
        <time>2015-12-27T14:24:32.000Z</time>
      </trkpt>
      <trkpt lat="48.72252" lon="1.99411">
        <ele>164</ele>
        <time>2015-12-27T14:24:39.000Z</time>
      </trkpt>
      <trkpt lat="48.72252" lon="1.99412">
        <ele>164</ele>
        <time>2015-12-27T14:24:40.000Z</time>
      </trkpt>
      <trkpt lat="48.72256" lon="1.99418">
        <ele>164</ele>
        <time>2015-12-27T14:24:44.000Z</time>
      </trkpt>
      <trkpt lat="48.72266" lon="1.99429">
        <ele>164</ele>
        <time>2015-12-27T14:24:54.000Z</time>
      </trkpt>
      <trkpt lat="48.72278" lon="1.99435">
        <ele>164</ele>
        <time>2015-12-27T14:25:03.000Z</time>
      </trkpt>
      <trkpt lat="48.72288" lon="1.99441">
        <ele>163.80000305176</ele>
        <time>2015-12-27T14:25:11.000Z</time>
      </trkpt>
      <trkpt lat="48.72303" lon="1.99447">
        <ele>163.60000610352</ele>
        <time>2015-12-27T14:25:22.000Z</time>
      </trkpt>
      <trkpt lat="48.72313" lon="1.99451">
        <ele>163.39999389648</ele>
        <time>2015-12-27T14:25:30.000Z</time>
      </trkpt>
      <trkpt lat="48.72319" lon="1.99453">
        <ele>163.39999389648</ele>
        <time>2015-12-27T14:25:37.000Z</time>
      </trkpt>
      <trkpt lat="48.7233" lon="1.99458">
        <ele>163.19999694824</ele>
        <time>2015-12-27T14:25:46.000Z</time>
      </trkpt>
      <trkpt lat="48.72343" lon="1.99461">
        <ele>162.80000305176</ele>
        <time>2015-12-27T14:25:55.000Z</time>
      </trkpt>
      <trkpt lat="48.72355" lon="1.99463">
        <ele>162.60000610352</ele>
        <time>2015-12-27T14:26:06.000Z</time>
      </trkpt>
      <trkpt lat="48.72363" lon="1.99465">
        <ele>162.39999389648</ele>
        <time>2015-12-27T14:26:12.000Z</time>
      </trkpt>
      <trkpt lat="48.72374" lon="1.99466">
        <ele>162</ele>
        <time>2015-12-27T14:26:20.000Z</time>
      </trkpt>
      <trkpt lat="48.72385" lon="1.99468">
        <ele>161.60000610352</ele>
        <time>2015-12-27T14:26:28.000Z</time>
      </trkpt>
      <trkpt lat="48.72393" lon="1.9947">
        <ele>161.39999389648</ele>
        <time>2015-12-27T14:26:35.000Z</time>
      </trkpt>
      <trkpt lat="48.72404" lon="1.99472">
        <ele>161</ele>
        <time>2015-12-27T14:26:43.000Z</time>
      </trkpt>
      <trkpt lat="48.72417" lon="1.99474">
        <ele>160.60000610352</ele>
        <time>2015-12-27T14:26:52.000Z</time>
      </trkpt>
      <trkpt lat="48.72419" lon="1.99474">
        <ele>160.39999389648</ele>
        <time>2015-12-27T14:26:54.000Z</time>
      </trkpt>
      <trkpt lat="48.72419" lon="1.99474">
        <ele>160.39999389648</ele>
        <time>2015-12-27T14:26:55.000Z</time>
      </trkpt>
      <trkpt lat="48.72442" lon="1.9948">
        <ele>160.19999694824</ele>
        <time>2015-12-27T14:27:36.000Z</time>
      </trkpt>
      <trkpt lat="48.72453" lon="1.99491">
        <ele>160</ele>
        <time>2015-12-27T14:27:45.000Z</time>
      </trkpt>
      <trkpt lat="48.72457" lon="1.99506">
        <ele>160.19999694824</ele>
        <time>2015-12-27T14:27:53.000Z</time>
      </trkpt>
      <trkpt lat="48.72456" lon="1.99525">
        <ele>160.60000610352</ele>
        <time>2015-12-27T14:28:03.000Z</time>
      </trkpt>
      <trkpt lat="48.72456" lon="1.99527">
        <ele>160.60000610352</ele>
        <time>2015-12-27T14:28:06.000Z</time>
      </trkpt>
      <trkpt lat="48.72456" lon="1.99537">
        <ele>160.80000305176</ele>
        <time>2015-12-27T14:28:14.000Z</time>
      </trkpt>
      <trkpt lat="48.72456" lon="1.9954">
        <ele>161</ele>
        <time>2015-12-27T14:28:15.000Z</time>
      </trkpt>
      <trkpt lat="48.7246" lon="1.99559">
        <ele>161.39999389648</ele>
        <time>2015-12-27T14:28:25.000Z</time>
      </trkpt>
      <trkpt lat="48.72468" lon="1.99564">
        <ele>161.39999389648</ele>
        <time>2015-12-27T14:28:32.000Z</time>
      </trkpt>
      <trkpt lat="48.72468" lon="1.99564">
        <ele>161.39999389648</ele>
        <time>2015-12-27T14:28:33.000Z</time>
      </trkpt>
      <trkpt lat="48.72478" lon="1.99564">
        <ele>161.19999694824</ele>
        <time>2015-12-27T14:28:47.000Z</time>
      </trkpt>
      <trkpt lat="48.72481" lon="1.99566">
        <ele>161.19999694824</ele>
        <time>2015-12-27T14:28:50.000Z</time>
      </trkpt>
      <trkpt lat="48.72482" lon="1.99567">
        <ele>161.19999694824</ele>
        <time>2015-12-27T14:28:51.000Z</time>
      </trkpt>
      <trkpt lat="48.72482" lon="1.99567">
        <ele>161.19999694824</ele>
        <time>2015-12-27T14:28:52.000Z</time>
      </trkpt>
      <trkpt lat="48.72499" lon="1.99571">
        <ele>161.19999694824</ele>
        <time>2015-12-27T14:29:21.000Z</time>
      </trkpt>
      <trkpt lat="48.72501" lon="1.99571">
        <ele>161.19999694824</ele>
        <time>2015-12-27T14:29:22.000Z</time>
      </trkpt>
      <trkpt lat="48.72503" lon="1.99572">
        <ele>161.19999694824</ele>
        <time>2015-12-27T14:29:25.000Z</time>
      </trkpt>
      <trkpt lat="48.72519" lon="1.99575">
        <ele>161</ele>
        <time>2015-12-27T14:29:39.000Z</time>
      </trkpt>
      <trkpt lat="48.7253" lon="1.99577">
        <ele>161.19999694824</ele>
        <time>2015-12-27T14:29:47.000Z</time>
      </trkpt>
      <trkpt lat="48.72535" lon="1.99578">
        <ele>161.39999389648</ele>
        <time>2015-12-27T14:29:51.000Z</time>
      </trkpt>
      <trkpt lat="48.72542" lon="1.9958">
        <ele>161.39999389648</ele>
        <time>2015-12-27T14:29:58.000Z</time>
      </trkpt>
      <trkpt lat="48.72546" lon="1.99581">
        <ele>161.60000610352</ele>
        <time>2015-12-27T14:30:03.000Z</time>
      </trkpt>
      <trkpt lat="48.72562" lon="1.99585">
        <ele>161.80000305176</ele>
        <time>2015-12-27T14:30:21.000Z</time>
      </trkpt>
      <trkpt lat="48.72566" lon="1.99588">
        <ele>162</ele>
        <time>2015-12-27T14:30:24.000Z</time>
      </trkpt>
      <trkpt lat="48.72574" lon="1.99595">
        <ele>162</ele>
        <time>2015-12-27T14:30:31.000Z</time>
      </trkpt>
      <trkpt lat="48.72575" lon="1.99597">
        <ele>162</ele>
        <time>2015-12-27T14:30:33.000Z</time>
      </trkpt>
      <trkpt lat="48.72575" lon="1.99602">
        <ele>162</ele>
        <time>2015-12-27T14:30:36.000Z</time>
      </trkpt>
      <trkpt lat="48.72574" lon="1.99612">
        <ele>161.80000305176</ele>
        <time>2015-12-27T14:30:42.000Z</time>
      </trkpt>
      <trkpt lat="48.72574" lon="1.99614">
        <ele>161.80000305176</ele>
        <time>2015-12-27T14:30:43.000Z</time>
      </trkpt>
      <trkpt lat="48.72571" lon="1.9963">
        <ele>161.60000610352</ele>
        <time>2015-12-27T14:30:51.000Z</time>
      </trkpt>
      <trkpt lat="48.72568" lon="1.99648">
        <ele>161.60000610352</ele>
        <time>2015-12-27T14:31:00.000Z</time>
      </trkpt>
      <trkpt lat="48.72569" lon="1.99659">
        <ele>161.60000610352</ele>
        <time>2015-12-27T14:31:06.000Z</time>
      </trkpt>
      <trkpt lat="48.72575" lon="1.99669">
        <ele>161.60000610352</ele>
        <time>2015-12-27T14:31:13.000Z</time>
      </trkpt>
      <trkpt lat="48.7258" lon="1.99676">
        <ele>161.80000305176</ele>
        <time>2015-12-27T14:31:19.000Z</time>
      </trkpt>
      <trkpt lat="48.72587" lon="1.99681">
        <ele>161.80000305176</ele>
        <time>2015-12-27T14:31:26.000Z</time>
      </trkpt>
      <trkpt lat="48.72587" lon="1.99681">
        <ele>161.80000305176</ele>
        <time>2015-12-27T14:31:27.000Z</time>
      </trkpt>
      <trkpt lat="48.72602" lon="1.99693">
        <ele>162</ele>
        <time>2015-12-27T14:31:43.000Z</time>
      </trkpt>
      <trkpt lat="48.72605" lon="1.99694">
        <ele>162</ele>
        <time>2015-12-27T14:31:45.000Z</time>
      </trkpt>
      <trkpt lat="48.72614" lon="1.99701">
        <ele>162.19999694824</ele>
        <time>2015-12-27T14:31:53.000Z</time>
      </trkpt>
      <trkpt lat="48.7262" lon="1.99705">
        <ele>162.19999694824</ele>
        <time>2015-12-27T14:31:58.000Z</time>
      </trkpt>
      <trkpt lat="48.72622" lon="1.99707">
        <ele>162.19999694824</ele>
        <time>2015-12-27T14:32:00.000Z</time>
      </trkpt>
      <trkpt lat="48.72624" lon="1.99708">
        <ele>162.19999694824</ele>
        <time>2015-12-27T14:32:02.000Z</time>
      </trkpt>
      <trkpt lat="48.72628" lon="1.99711">
        <ele>162.19999694824</ele>
        <time>2015-12-27T14:32:05.000Z</time>
      </trkpt>
      <trkpt lat="48.72631" lon="1.99712">
        <ele>162.39999389648</ele>
        <time>2015-12-27T14:32:07.000Z</time>
      </trkpt>
      <trkpt lat="48.72638" lon="1.99717">
        <ele>162.39999389648</ele>
        <time>2015-12-27T14:32:13.000Z</time>
      </trkpt>
      <trkpt lat="48.72651" lon="1.99726">
        <ele>162.60000610352</ele>
        <time>2015-12-27T14:32:24.000Z</time>
      </trkpt>
      <trkpt lat="48.72661" lon="1.99731">
        <ele>162.60000610352</ele>
        <time>2015-12-27T14:32:32.000Z</time>
      </trkpt>
      <trkpt lat="48.72665" lon="1.99736">
        <ele>162.80000305176</ele>
        <time>2015-12-27T14:32:38.000Z</time>
      </trkpt>
      <trkpt lat="48.72686" lon="1.99761">
        <ele>163.19999694824</ele>
        <time>2015-12-27T14:33:14.000Z</time>
      </trkpt>
      <trkpt lat="48.72693" lon="1.99766">
        <ele>163.60000610352</ele>
        <time>2015-12-27T14:33:21.000Z</time>
      </trkpt>
      <trkpt lat="48.72694" lon="1.99768">
        <ele>163.60000610352</ele>
        <time>2015-12-27T14:33:23.000Z</time>
      </trkpt>
      <trkpt lat="48.72697" lon="1.99773">
        <ele>163.80000305176</ele>
        <time>2015-12-27T14:33:27.000Z</time>
      </trkpt>
      <trkpt lat="48.72697" lon="1.99776">
        <ele>163.80000305176</ele>
        <time>2015-12-27T14:33:31.000Z</time>
      </trkpt>
      <trkpt lat="48.72717" lon="1.998">
        <ele>164.80000305176</ele>
        <time>2015-12-27T14:34:04.000Z</time>
      </trkpt>
      <trkpt lat="48.72728" lon="1.99812">
        <ele>165.39999389648</ele>
        <time>2015-12-27T14:34:15.000Z</time>
      </trkpt>
      <trkpt lat="48.72737" lon="1.99814">
        <ele>165.60000610352</ele>
        <time>2015-12-27T14:34:22.000Z</time>
      </trkpt>
      <trkpt lat="48.72745" lon="1.99817">
        <ele>166</ele>
        <time>2015-12-27T14:34:28.000Z</time>
      </trkpt>
      <trkpt lat="48.72745" lon="1.99818">
        <ele>166</ele>
        <time>2015-12-27T14:34:30.000Z</time>
      </trkpt>
      <trkpt lat="48.72745" lon="1.99819">
        <ele>166</ele>
        <time>2015-12-27T14:34:31.000Z</time>
      </trkpt>
      <trkpt lat="48.72777" lon="1.99844">
        <ele>167</ele>
        <time>2015-12-27T14:38:53.000Z</time>
      </trkpt>
      <trkpt lat="48.7278" lon="1.99846">
        <ele>167</ele>
        <time>2015-12-27T14:38:56.000Z</time>
      </trkpt>
      <trkpt lat="48.72784" lon="1.99849">
        <ele>167</ele>
        <time>2015-12-27T14:39:00.000Z</time>
      </trkpt>
      <trkpt lat="48.72787" lon="1.99852">
        <ele>167</ele>
        <time>2015-12-27T14:39:03.000Z</time>
      </trkpt>
      <trkpt lat="48.72798" lon="1.99859">
        <ele>167</ele>
        <time>2015-12-27T14:39:13.000Z</time>
      </trkpt>
      <trkpt lat="48.72811" lon="1.99862">
        <ele>167</ele>
        <time>2015-12-27T14:39:24.000Z</time>
      </trkpt>
      <trkpt lat="48.7282" lon="1.99864">
        <ele>166.80000305176</ele>
        <time>2015-12-27T14:39:31.000Z</time>
      </trkpt>
      <trkpt lat="48.72828" lon="1.99866">
        <ele>166.80000305176</ele>
        <time>2015-12-27T14:39:38.000Z</time>
      </trkpt>
      <trkpt lat="48.72838" lon="1.9987">
        <ele>166.80000305176</ele>
        <time>2015-12-27T14:39:46.000Z</time>
      </trkpt>
      <trkpt lat="48.72849" lon="1.99874">
        <ele>166.60000610352</ele>
        <time>2015-12-27T14:39:54.000Z</time>
      </trkpt>
      <trkpt lat="48.72853" lon="1.99875">
        <ele>166.60000610352</ele>
        <time>2015-12-27T14:39:58.000Z</time>
      </trkpt>
      <trkpt lat="48.72856" lon="1.99877">
        <ele>166.60000610352</ele>
        <time>2015-12-27T14:40:00.000Z</time>
      </trkpt>
      <trkpt lat="48.72865" lon="1.9988">
        <ele>166.60000610352</ele>
        <time>2015-12-27T14:40:07.000Z</time>
      </trkpt>
      <trkpt lat="48.72878" lon="1.99887">
        <ele>166.80000305176</ele>
        <time>2015-12-27T14:40:17.000Z</time>
      </trkpt>
      <trkpt lat="48.72883" lon="1.9989">
        <ele>166.80000305176</ele>
        <time>2015-12-27T14:40:22.000Z</time>
      </trkpt>
      <trkpt lat="48.72886" lon="1.99893">
        <ele>166.80000305176</ele>
        <time>2015-12-27T14:40:25.000Z</time>
      </trkpt>
      <trkpt lat="48.72888" lon="1.99896">
        <ele>166.80000305176</ele>
        <time>2015-12-27T14:40:29.000Z</time>
      </trkpt>
      <trkpt lat="48.72888" lon="1.99902">
        <ele>167</ele>
        <time>2015-12-27T14:40:33.000Z</time>
      </trkpt>
      <trkpt lat="48.72886" lon="1.99916">
        <ele>167</ele>
        <time>2015-12-27T14:40:41.000Z</time>
      </trkpt>
      <trkpt lat="48.72883" lon="1.99936">
        <ele>166.60000610352</ele>
        <time>2015-12-27T14:40:52.000Z</time>
      </trkpt>
      <trkpt lat="48.72881" lon="1.99954">
        <ele>166.80000305176</ele>
        <time>2015-12-27T14:41:01.000Z</time>
      </trkpt>
      <trkpt lat="48.72878" lon="1.99972">
        <ele>167.19999694824</ele>
        <time>2015-12-27T14:41:11.000Z</time>
      </trkpt>
      <trkpt lat="48.72874" lon="1.99989">
        <ele>167.39999389648</ele>
        <time>2015-12-27T14:41:20.000Z</time>
      </trkpt>
      <trkpt lat="48.72871" lon="2.00001">
        <ele>167.39999389648</ele>
        <time>2015-12-27T14:41:27.000Z</time>
      </trkpt>
      <trkpt lat="48.72869" lon="2.00012">
        <ele>167.19999694824</ele>
        <time>2015-12-27T14:41:33.000Z</time>
      </trkpt>
      <trkpt lat="48.72866" lon="2.00027">
        <ele>167.19999694824</ele>
        <time>2015-12-27T14:41:41.000Z</time>
      </trkpt>
      <trkpt lat="48.72863" lon="2.00039">
        <ele>167</ele>
        <time>2015-12-27T14:41:48.000Z</time>
      </trkpt>
      <trkpt lat="48.72861" lon="2.00054">
        <ele>167</ele>
        <time>2015-12-27T14:41:56.000Z</time>
      </trkpt>
      <trkpt lat="48.72857" lon="2.00066">
        <ele>167</ele>
        <time>2015-12-27T14:42:03.000Z</time>
      </trkpt>
      <trkpt lat="48.72851" lon="2.0008">
        <ele>167</ele>
        <time>2015-12-27T14:42:11.000Z</time>
      </trkpt>
      <trkpt lat="48.72846" lon="2.0009">
        <ele>167</ele>
        <time>2015-12-27T14:42:18.000Z</time>
      </trkpt>
      <trkpt lat="48.7284" lon="2.00104">
        <ele>167</ele>
        <time>2015-12-27T14:42:27.000Z</time>
      </trkpt>
      <trkpt lat="48.7284" lon="2.00109">
        <ele>167</ele>
        <time>2015-12-27T14:42:32.000Z</time>
      </trkpt>
      <trkpt lat="48.72849" lon="2.00132">
        <ele>166.39999389648</ele>
        <time>2015-12-27T14:43:13.000Z</time>
      </trkpt>
      <trkpt lat="48.72859" lon="2.00156">
        <ele>166</ele>
        <time>2015-12-27T14:43:27.000Z</time>
      </trkpt>
      <trkpt lat="48.72863" lon="2.00169">
        <ele>166</ele>
        <time>2015-12-27T14:43:35.000Z</time>
      </trkpt>
      <trkpt lat="48.72867" lon="2.00188">
        <ele>166</ele>
        <time>2015-12-27T14:43:45.000Z</time>
      </trkpt>
      <trkpt lat="48.72872" lon="2.00208">
        <ele>166.19999694824</ele>
        <time>2015-12-27T14:43:56.000Z</time>
      </trkpt>
      <trkpt lat="48.72877" lon="2.00227">
        <ele>166.19999694824</ele>
        <time>2015-12-27T14:44:06.000Z</time>
      </trkpt>
      <trkpt lat="48.72882" lon="2.00249">
        <ele>166.19999694824</ele>
        <time>2015-12-27T14:44:18.000Z</time>
      </trkpt>
      <trkpt lat="48.72886" lon="2.0027">
        <ele>165.60000610352</ele>
        <time>2015-12-27T14:44:29.000Z</time>
      </trkpt>
      <trkpt lat="48.72886" lon="2.00272">
        <ele>165.39999389648</ele>
        <time>2015-12-27T14:44:30.000Z</time>
      </trkpt>
      <trkpt lat="48.72891" lon="2.00298">
        <ele>164.80000305176</ele>
        <time>2015-12-27T14:44:43.000Z</time>
      </trkpt>
      <trkpt lat="48.72893" lon="2.00306">
        <ele>164.60000610352</ele>
        <time>2015-12-27T14:44:50.000Z</time>
      </trkpt>
      <trkpt lat="48.72894" lon="2.00312">
        <ele>164.39999389648</ele>
        <time>2015-12-27T14:44:56.000Z</time>
      </trkpt>
      <trkpt lat="48.72897" lon="2.00342">
        <ele>164</ele>
        <time>2015-12-27T14:45:48.000Z</time>
      </trkpt>
      <trkpt lat="48.72898" lon="2.00345">
        <ele>164</ele>
        <time>2015-12-27T14:45:52.000Z</time>
      </trkpt>
      <trkpt lat="48.72905" lon="2.00366">
        <ele>163.80000305176</ele>
        <time>2015-12-27T14:47:28.000Z</time>
      </trkpt>
      <trkpt lat="48.72909" lon="2.00379">
        <ele>163.60000610352</ele>
        <time>2015-12-27T14:47:34.000Z</time>
      </trkpt>
      <trkpt lat="48.72914" lon="2.00397">
        <ele>163.60000610352</ele>
        <time>2015-12-27T14:47:44.000Z</time>
      </trkpt>
      <trkpt lat="48.7292" lon="2.00417">
        <ele>163.39999389648</ele>
        <time>2015-12-27T14:47:54.000Z</time>
      </trkpt>
      <trkpt lat="48.72921" lon="2.00423">
        <ele>163.39999389648</ele>
        <time>2015-12-27T14:47:57.000Z</time>
      </trkpt>
      <trkpt lat="48.72922" lon="2.00427">
        <ele>163.39999389648</ele>
        <time>2015-12-27T14:47:59.000Z</time>
      </trkpt>
      <trkpt lat="48.72924" lon="2.00433">
        <ele>163.39999389648</ele>
        <time>2015-12-27T14:48:02.000Z</time>
      </trkpt>
      <trkpt lat="48.72926" lon="2.00443">
        <ele>163.19999694824</ele>
        <time>2015-12-27T14:48:06.000Z</time>
      </trkpt>
      <trkpt lat="48.72929" lon="2.00452">
        <ele>163.19999694824</ele>
        <time>2015-12-27T14:48:12.000Z</time>
      </trkpt>
      <trkpt lat="48.72933" lon="2.00467">
        <ele>163.19999694824</ele>
        <time>2015-12-27T14:48:19.000Z</time>
      </trkpt>
      <trkpt lat="48.72938" lon="2.00483">
        <ele>163</ele>
        <time>2015-12-27T14:48:27.000Z</time>
      </trkpt>
      <trkpt lat="48.72942" lon="2.005">
        <ele>162.80000305176</ele>
        <time>2015-12-27T14:48:35.000Z</time>
      </trkpt>
      <trkpt lat="48.72945" lon="2.00512">
        <ele>162.80000305176</ele>
        <time>2015-12-27T14:48:43.000Z</time>
      </trkpt>
      <trkpt lat="48.72946" lon="2.00513">
        <ele>162.60000610352</ele>
        <time>2015-12-27T14:48:44.000Z</time>
      </trkpt>
      <trkpt lat="48.7295" lon="2.00533">
        <ele>162.60000610352</ele>
        <time>2015-12-27T14:48:55.000Z</time>
      </trkpt>
      <trkpt lat="48.72952" lon="2.0054">
        <ele>162.39999389648</ele>
        <time>2015-12-27T14:48:58.000Z</time>
      </trkpt>
      <trkpt lat="48.72956" lon="2.00548">
        <ele>162.39999389648</ele>
        <time>2015-12-27T14:49:03.000Z</time>
      </trkpt>
      <trkpt lat="48.72958" lon="2.00556">
        <ele>162.19999694824</ele>
        <time>2015-12-27T14:49:07.000Z</time>
      </trkpt>
      <trkpt lat="48.72961" lon="2.00571">
        <ele>162.19999694824</ele>
        <time>2015-12-27T14:49:14.000Z</time>
      </trkpt>
      <trkpt lat="48.72964" lon="2.00587">
        <ele>162.19999694824</ele>
        <time>2015-12-27T14:49:22.000Z</time>
      </trkpt>
      <trkpt lat="48.72968" lon="2.00606">
        <ele>162.19999694824</ele>
        <time>2015-12-27T14:49:31.000Z</time>
      </trkpt>
      <trkpt lat="48.72972" lon="2.00627">
        <ele>162.39999389648</ele>
        <time>2015-12-27T14:49:41.000Z</time>
      </trkpt>
      <trkpt lat="48.72977" lon="2.00646">
        <ele>162.39999389648</ele>
        <time>2015-12-27T14:49:50.000Z</time>
      </trkpt>
      <trkpt lat="48.72981" lon="2.00671">
        <ele>162.39999389648</ele>
        <time>2015-12-27T14:50:01.000Z</time>
      </trkpt>
      <trkpt lat="48.72984" lon="2.00696">
        <ele>162.39999389648</ele>
        <time>2015-12-27T14:50:12.000Z</time>
      </trkpt>
      <trkpt lat="48.72986" lon="2.00715">
        <ele>162.19999694824</ele>
        <time>2015-12-27T14:50:20.000Z</time>
      </trkpt>
      <trkpt lat="48.72988" lon="2.00734">
        <ele>161.80000305176</ele>
        <time>2015-12-27T14:50:28.000Z</time>
      </trkpt>
      <trkpt lat="48.72989" lon="2.0076">
        <ele>161.80000305176</ele>
        <time>2015-12-27T14:50:39.000Z</time>
      </trkpt>
      <trkpt lat="48.7299" lon="2.00765">
        <ele>161.80000305176</ele>
        <time>2015-12-27T14:50:41.000Z</time>
      </trkpt>
      <trkpt lat="48.72991" lon="2.00771">
        <ele>161.80000305176</ele>
        <time>2015-12-27T14:50:44.000Z</time>
      </trkpt>
      <trkpt lat="48.72991" lon="2.00774">
        <ele>161.80000305176</ele>
        <time>2015-12-27T14:50:45.000Z</time>
      </trkpt>
      <trkpt lat="48.72992" lon="2.00795">
        <ele>161.60000610352</ele>
        <time>2015-12-27T14:50:54.000Z</time>
      </trkpt>
      <trkpt lat="48.72994" lon="2.00812">
        <ele>161.80000305176</ele>
        <time>2015-12-27T14:51:01.000Z</time>
      </trkpt>
      <trkpt lat="48.72995" lon="2.00833">
        <ele>162</ele>
        <time>2015-12-27T14:51:10.000Z</time>
      </trkpt>
      <trkpt lat="48.72996" lon="2.00855">
        <ele>162.19999694824</ele>
        <time>2015-12-27T14:51:20.000Z</time>
      </trkpt>
      <trkpt lat="48.72998" lon="2.00883">
        <ele>162.39999389648</ele>
        <time>2015-12-27T14:51:32.000Z</time>
      </trkpt>
      <trkpt lat="48.72999" lon="2.00906">
        <ele>162.19999694824</ele>
        <time>2015-12-27T14:51:42.000Z</time>
      </trkpt>
      <trkpt lat="48.72999" lon="2.00922">
        <ele>162.60000610352</ele>
        <time>2015-12-27T14:51:50.000Z</time>
      </trkpt>
      <trkpt lat="48.72999" lon="2.00935">
        <ele>162.80000305176</ele>
        <time>2015-12-27T14:51:57.000Z</time>
      </trkpt>
      <trkpt lat="48.73" lon="2.00948">
        <ele>163.19999694824</ele>
        <time>2015-12-27T14:52:03.000Z</time>
      </trkpt>
      <trkpt lat="48.73001" lon="2.00958">
        <ele>163.39999389648</ele>
        <time>2015-12-27T14:52:10.000Z</time>
      </trkpt>
      <trkpt lat="48.73004" lon="2.00989">
        <ele>163.39999389648</ele>
        <time>2015-12-27T14:52:36.000Z</time>
      </trkpt>
      <trkpt lat="48.73004" lon="2.00993">
        <ele>163.39999389648</ele>
        <time>2015-12-27T14:52:38.000Z</time>
      </trkpt>
      <trkpt lat="48.73004" lon="2.00995">
        <ele>163.39999389648</ele>
        <time>2015-12-27T14:52:39.000Z</time>
      </trkpt>
      <trkpt lat="48.73004" lon="2.01007">
        <ele>163.19999694824</ele>
        <time>2015-12-27T14:52:44.000Z</time>
      </trkpt>
      <trkpt lat="48.73005" lon="2.01011">
        <ele>163.19999694824</ele>
        <time>2015-12-27T14:52:46.000Z</time>
      </trkpt>
      <trkpt lat="48.73006" lon="2.01016">
        <ele>163.19999694824</ele>
        <time>2015-12-27T14:52:48.000Z</time>
      </trkpt>
      <trkpt lat="48.73007" lon="2.01022">
        <ele>163.19999694824</ele>
        <time>2015-12-27T14:52:51.000Z</time>
      </trkpt>
      <trkpt lat="48.73009" lon="2.01042">
        <ele>163</ele>
        <time>2015-12-27T14:53:00.000Z</time>
      </trkpt>
      <trkpt lat="48.73011" lon="2.01055">
        <ele>162.80000305176</ele>
        <time>2015-12-27T14:53:06.000Z</time>
      </trkpt>
      <trkpt lat="48.73014" lon="2.01069">
        <ele>162.80000305176</ele>
        <time>2015-12-27T14:53:13.000Z</time>
      </trkpt>
      <trkpt lat="48.73017" lon="2.01082">
        <ele>162.80000305176</ele>
        <time>2015-12-27T14:53:19.000Z</time>
      </trkpt>
      <trkpt lat="48.7302" lon="2.01091">
        <ele>162.80000305176</ele>
        <time>2015-12-27T14:53:24.000Z</time>
      </trkpt>
      <trkpt lat="48.73021" lon="2.01095">
        <ele>162.80000305176</ele>
        <time>2015-12-27T14:53:28.000Z</time>
      </trkpt>
      <trkpt lat="48.73022" lon="2.01096">
        <ele>162.80000305176</ele>
        <time>2015-12-27T14:53:29.000Z</time>
      </trkpt>
      <trkpt lat="48.73024" lon="2.01099">
        <ele>163</ele>
        <time>2015-12-27T14:53:31.000Z</time>
      </trkpt>
      <trkpt lat="48.73024" lon="2.01099">
        <ele>163</ele>
        <time>2015-12-27T14:53:33.000Z</time>
      </trkpt>
      <trkpt lat="48.73026" lon="2.01112">
        <ele>163</ele>
        <time>2015-12-27T14:53:48.000Z</time>
      </trkpt>
      <trkpt lat="48.73026" lon="2.01119">
        <ele>162.80000305176</ele>
        <time>2015-12-27T14:53:51.000Z</time>
      </trkpt>
      <trkpt lat="48.73026" lon="2.01136">
        <ele>162.80000305176</ele>
        <time>2015-12-27T14:53:58.000Z</time>
      </trkpt>
      <trkpt lat="48.73027" lon="2.01147">
        <ele>162.60000610352</ele>
        <time>2015-12-27T14:54:03.000Z</time>
      </trkpt>
      <trkpt lat="48.73027" lon="2.01149">
        <ele>162.60000610352</ele>
        <time>2015-12-27T14:54:04.000Z</time>
      </trkpt>
      <trkpt lat="48.73027" lon="2.01154">
        <ele>162.60000610352</ele>
        <time>2015-12-27T14:54:06.000Z</time>
      </trkpt>
      <trkpt lat="48.73026" lon="2.01164">
        <ele>162.19999694824</ele>
        <time>2015-12-27T14:54:10.000Z</time>
      </trkpt>
      <trkpt lat="48.73023" lon="2.01182">
        <ele>163</ele>
        <time>2015-12-27T14:54:18.000Z</time>
      </trkpt>
      <trkpt lat="48.7302" lon="2.01197">
        <ele>163.80000305176</ele>
        <time>2015-12-27T14:54:25.000Z</time>
      </trkpt>
      <trkpt lat="48.73019" lon="2.01208">
        <ele>164.39999389648</ele>
        <time>2015-12-27T14:54:31.000Z</time>
      </trkpt>
      <trkpt lat="48.73023" lon="2.01216">
        <ele>164.60000610352</ele>
        <time>2015-12-27T14:54:35.000Z</time>
      </trkpt>
      <trkpt lat="48.73024" lon="2.0122">
        <ele>164.80000305176</ele>
        <time>2015-12-27T14:54:37.000Z</time>
      </trkpt>
      <trkpt lat="48.73027" lon="2.01224">
        <ele>165</ele>
        <time>2015-12-27T14:54:39.000Z</time>
      </trkpt>
      <trkpt lat="48.73028" lon="2.0123">
        <ele>165.19999694824</ele>
        <time>2015-12-27T14:54:42.000Z</time>
      </trkpt>
      <trkpt lat="48.73029" lon="2.01234">
        <ele>165.39999389648</ele>
        <time>2015-12-27T14:54:44.000Z</time>
      </trkpt>
      <trkpt lat="48.73033" lon="2.01242">
        <ele>165.80000305176</ele>
        <time>2015-12-27T14:54:48.000Z</time>
      </trkpt>
      <trkpt lat="48.73037" lon="2.0125">
        <ele>165.19999694824</ele>
        <time>2015-12-27T14:54:52.000Z</time>
      </trkpt>
      <trkpt lat="48.73037" lon="2.01251">
        <ele>165.19999694824</ele>
        <time>2015-12-27T14:54:53.000Z</time>
      </trkpt>
      <trkpt lat="48.7304" lon="2.0126">
        <ele>164.60000610352</ele>
        <time>2015-12-27T14:54:58.000Z</time>
      </trkpt>
      <trkpt lat="48.7304" lon="2.01263">
        <ele>164.60000610352</ele>
        <time>2015-12-27T14:54:59.000Z</time>
      </trkpt>
      <trkpt lat="48.73046" lon="2.01273">
        <ele>164.39999389648</ele>
        <time>2015-12-27T14:55:05.000Z</time>
      </trkpt>
      <trkpt lat="48.73049" lon="2.01276">
        <ele>164</ele>
        <time>2015-12-27T14:55:09.000Z</time>
      </trkpt>
      <trkpt lat="48.73058" lon="2.0129">
        <ele>163.60000610352</ele>
        <time>2015-12-27T14:55:21.000Z</time>
      </trkpt>
      <trkpt lat="48.73058" lon="2.01292">
        <ele>163.60000610352</ele>
        <time>2015-12-27T14:55:22.000Z</time>
      </trkpt>
      <trkpt lat="48.73061" lon="2.01301">
        <ele>163.60000610352</ele>
        <time>2015-12-27T14:55:26.000Z</time>
      </trkpt>
      <trkpt lat="48.73067" lon="2.01316">
        <ele>163.19999694824</ele>
        <time>2015-12-27T14:55:34.000Z</time>
      </trkpt>
      <trkpt lat="48.73073" lon="2.01329">
        <ele>163</ele>
        <time>2015-12-27T14:55:41.000Z</time>
      </trkpt>
      <trkpt lat="48.73074" lon="2.01336">
        <ele>163</ele>
        <time>2015-12-27T14:55:44.000Z</time>
      </trkpt>
      <trkpt lat="48.73077" lon="2.01342">
        <ele>162.80000305176</ele>
        <time>2015-12-27T14:55:47.000Z</time>
      </trkpt>
      <trkpt lat="48.73081" lon="2.01356">
        <ele>162.60000610352</ele>
        <time>2015-12-27T14:55:54.000Z</time>
      </trkpt>
      <trkpt lat="48.73083" lon="2.01366">
        <ele>162.39999389648</ele>
        <time>2015-12-27T14:55:59.000Z</time>
      </trkpt>
      <trkpt lat="48.73084" lon="2.01368">
        <ele>162.39999389648</ele>
        <time>2015-12-27T14:56:00.000Z</time>
      </trkpt>
      <trkpt lat="48.73087" lon="2.01377">
        <ele>162.19999694824</ele>
        <time>2015-12-27T14:56:05.000Z</time>
      </trkpt>
      <trkpt lat="48.73089" lon="2.0138">
        <ele>162</ele>
        <time>2015-12-27T14:56:07.000Z</time>
      </trkpt>
      <trkpt lat="48.73092" lon="2.01386">
        <ele>161.80000305176</ele>
        <time>2015-12-27T14:56:11.000Z</time>
      </trkpt>
      <trkpt lat="48.73095" lon="2.01393">
        <ele>161.80000305176</ele>
        <time>2015-12-27T14:56:15.000Z</time>
      </trkpt>
      <trkpt lat="48.73095" lon="2.01397">
        <ele>161.60000610352</ele>
        <time>2015-12-27T14:56:17.000Z</time>
      </trkpt>
      <trkpt lat="48.73098" lon="2.01408">
        <ele>161.39999389648</ele>
        <time>2015-12-27T14:56:23.000Z</time>
      </trkpt>
      <trkpt lat="48.73101" lon="2.01414">
        <ele>161</ele>
        <time>2015-12-27T14:56:27.000Z</time>
      </trkpt>
      <trkpt lat="48.73102" lon="2.01418">
        <ele>161</ele>
        <time>2015-12-27T14:56:29.000Z</time>
      </trkpt>
      <trkpt lat="48.73104" lon="2.01429">
        <ele>160.39999389648</ele>
        <time>2015-12-27T14:56:35.000Z</time>
      </trkpt>
      <trkpt lat="48.73109" lon="2.01444">
        <ele>159.60000610352</ele>
        <time>2015-12-27T14:56:42.000Z</time>
      </trkpt>
      <trkpt lat="48.73111" lon="2.01451">
        <ele>159.19999694824</ele>
        <time>2015-12-27T14:56:46.000Z</time>
      </trkpt>
      <trkpt lat="48.73112" lon="2.01455">
        <ele>159</ele>
        <time>2015-12-27T14:56:48.000Z</time>
      </trkpt>
      <trkpt lat="48.73113" lon="2.01459">
        <ele>158.80000305176</ele>
        <time>2015-12-27T14:56:50.000Z</time>
      </trkpt>
      <trkpt lat="48.73116" lon="2.01465">
        <ele>158.39999389648</ele>
        <time>2015-12-27T14:56:53.000Z</time>
      </trkpt>
      <trkpt lat="48.73117" lon="2.01467">
        <ele>158.19999694824</ele>
        <time>2015-12-27T14:56:54.000Z</time>
      </trkpt>
      <trkpt lat="48.7312" lon="2.01477">
        <ele>157.60000610352</ele>
        <time>2015-12-27T14:56:59.000Z</time>
      </trkpt>
      <trkpt lat="48.73123" lon="2.01485">
        <ele>157</ele>
        <time>2015-12-27T14:57:04.000Z</time>
      </trkpt>
      <trkpt lat="48.73124" lon="2.01487">
        <ele>157</ele>
        <time>2015-12-27T14:57:05.000Z</time>
      </trkpt>
      <trkpt lat="48.73127" lon="2.01497">
        <ele>155.80000305176</ele>
        <time>2015-12-27T14:57:11.000Z</time>
      </trkpt>
      <trkpt lat="48.73131" lon="2.01503">
        <ele>154.60000610352</ele>
        <time>2015-12-27T14:57:15.000Z</time>
      </trkpt>
      <trkpt lat="48.73138" lon="2.01515">
        <ele>152.60000610352</ele>
        <time>2015-12-27T14:57:21.000Z</time>
      </trkpt>
      <trkpt lat="48.7314" lon="2.01519">
        <ele>151.80000305176</ele>
        <time>2015-12-27T14:57:25.000Z</time>
      </trkpt>
      <trkpt lat="48.7314" lon="2.01522">
        <ele>151.39999389648</ele>
        <time>2015-12-27T14:57:26.000Z</time>
      </trkpt>
      <trkpt lat="48.73142" lon="2.01522">
        <ele>151.19999694824</ele>
        <time>2015-12-27T14:57:27.000Z</time>
      </trkpt>
      <trkpt lat="48.73143" lon="2.01527">
        <ele>150.60000610352</ele>
        <time>2015-12-27T14:57:30.000Z</time>
      </trkpt>
      <trkpt lat="48.73146" lon="2.01537">
        <ele>149</ele>
        <time>2015-12-27T14:57:35.000Z</time>
      </trkpt>
      <trkpt lat="48.73147" lon="2.01544">
        <ele>148</ele>
        <time>2015-12-27T14:57:40.000Z</time>
      </trkpt>
      <trkpt lat="48.73151" lon="2.01551">
        <ele>146.80000305176</ele>
        <time>2015-12-27T14:57:45.000Z</time>
      </trkpt>
      <trkpt lat="48.73157" lon="2.01563">
        <ele>144.80000305176</ele>
        <time>2015-12-27T14:57:52.000Z</time>
      </trkpt>
      <trkpt lat="48.73162" lon="2.01574">
        <ele>143</ele>
        <time>2015-12-27T14:57:59.000Z</time>
      </trkpt>
      <trkpt lat="48.73163" lon="2.01577">
        <ele>142.39999389648</ele>
        <time>2015-12-27T14:58:02.000Z</time>
      </trkpt>
      <trkpt lat="48.73164" lon="2.01582">
        <ele>141.80000305176</ele>
        <time>2015-12-27T14:58:05.000Z</time>
      </trkpt>
      <trkpt lat="48.73165" lon="2.01584">
        <ele>141.80000305176</ele>
        <time>2015-12-27T14:58:06.000Z</time>
      </trkpt>
      <trkpt lat="48.73169" lon="2.01595">
        <ele>140.39999389648</ele>
        <time>2015-12-27T14:58:12.000Z</time>
      </trkpt>
      <trkpt lat="48.73171" lon="2.01606">
        <ele>139.19999694824</ele>
        <time>2015-12-27T14:58:18.000Z</time>
      </trkpt>
      <trkpt lat="48.73175" lon="2.01617">
        <ele>137.80000305176</ele>
        <time>2015-12-27T14:58:24.000Z</time>
      </trkpt>
      <trkpt lat="48.73183" lon="2.0163">
        <ele>135.80000305176</ele>
        <time>2015-12-27T14:58:32.000Z</time>
      </trkpt>
      <trkpt lat="48.73189" lon="2.01645">
        <ele>133.80000305176</ele>
        <time>2015-12-27T14:58:40.000Z</time>
      </trkpt>
      <trkpt lat="48.73192" lon="2.01654">
        <ele>132.80000305176</ele>
        <time>2015-12-27T14:58:44.000Z</time>
      </trkpt>
      <trkpt lat="48.73193" lon="2.01655">
        <ele>132.39999389648</ele>
        <time>2015-12-27T14:58:45.000Z</time>
      </trkpt>
      <trkpt lat="48.73196" lon="2.01674">
        <ele>131.39999389648</ele>
        <time>2015-12-27T14:58:54.000Z</time>
      </trkpt>
      <trkpt lat="48.73199" lon="2.01687">
        <ele>130.80000305176</ele>
        <time>2015-12-27T14:59:01.000Z</time>
      </trkpt>
      <trkpt lat="48.73202" lon="2.0171">
        <ele>129.80000305176</ele>
        <time>2015-12-27T14:59:11.000Z</time>
      </trkpt>
      <trkpt lat="48.73204" lon="2.01731">
        <ele>129</ele>
        <time>2015-12-27T14:59:20.000Z</time>
      </trkpt>
      <trkpt lat="48.73207" lon="2.01749">
        <ele>128.39999389648</ele>
        <time>2015-12-27T14:59:28.000Z</time>
      </trkpt>
      <trkpt lat="48.7321" lon="2.01767">
        <ele>128</ele>
        <time>2015-12-27T14:59:36.000Z</time>
      </trkpt>
      <trkpt lat="48.73217" lon="2.01782">
        <ele>126.80000305176</ele>
        <time>2015-12-27T14:59:44.000Z</time>
      </trkpt>
      <trkpt lat="48.73218" lon="2.01784">
        <ele>126.59999847412</ele>
        <time>2015-12-27T14:59:45.000Z</time>
      </trkpt>
      <trkpt lat="48.73223" lon="2.01792">
        <ele>125.80000305176</ele>
        <time>2015-12-27T14:59:50.000Z</time>
      </trkpt>
      <trkpt lat="48.73225" lon="2.01793">
        <ele>125.80000305176</ele>
        <time>2015-12-27T14:59:51.000Z</time>
      </trkpt>
      <trkpt lat="48.73229" lon="2.01797">
        <ele>125.19999694824</ele>
        <time>2015-12-27T14:59:54.000Z</time>
      </trkpt>
      <trkpt lat="48.73231" lon="2.01801">
        <ele>124.80000305176</ele>
        <time>2015-12-27T14:59:57.000Z</time>
      </trkpt>
      <trkpt lat="48.73241" lon="2.01811">
        <ele>123.59999847412</ele>
        <time>2015-12-27T15:00:05.000Z</time>
      </trkpt>
      <trkpt lat="48.7325" lon="2.0182">
        <ele>122.40000152588</ele>
        <time>2015-12-27T15:00:13.000Z</time>
      </trkpt>
      <trkpt lat="48.73251" lon="2.01821">
        <ele>122.19999694824</ele>
        <time>2015-12-27T15:00:14.000Z</time>
      </trkpt>
      <trkpt lat="48.73254" lon="2.01826">
        <ele>121.80000305176</ele>
        <time>2015-12-27T15:00:17.000Z</time>
      </trkpt>
      <trkpt lat="48.73265" lon="2.01842">
        <ele>120.19999694824</ele>
        <time>2015-12-27T15:00:27.000Z</time>
      </trkpt>
      <trkpt lat="48.73273" lon="2.01855">
        <ele>119</ele>
        <time>2015-12-27T15:00:35.000Z</time>
      </trkpt>
      <trkpt lat="48.73278" lon="2.01866">
        <ele>118.40000152588</ele>
        <time>2015-12-27T15:00:41.000Z</time>
      </trkpt>
      <trkpt lat="48.73284" lon="2.01876">
        <ele>117.59999847412</ele>
        <time>2015-12-27T15:00:47.000Z</time>
      </trkpt>
      <trkpt lat="48.73286" lon="2.01881">
        <ele>117.40000152588</ele>
        <time>2015-12-27T15:00:50.000Z</time>
      </trkpt>
      <trkpt lat="48.73289" lon="2.01888">
        <ele>117</ele>
        <time>2015-12-27T15:00:54.000Z</time>
      </trkpt>
      <trkpt lat="48.7329" lon="2.0189">
        <ele>116.80000305176</ele>
        <time>2015-12-27T15:00:55.000Z</time>
      </trkpt>
      <trkpt lat="48.73299" lon="2.01905">
        <ele>115.80000305176</ele>
        <time>2015-12-27T15:01:05.000Z</time>
      </trkpt>
      <trkpt lat="48.73304" lon="2.01918">
        <ele>115</ele>
        <time>2015-12-27T15:01:12.000Z</time>
      </trkpt>
      <trkpt lat="48.73311" lon="2.0193">
        <ele>114.40000152588</ele>
        <time>2015-12-27T15:01:19.000Z</time>
      </trkpt>
      <trkpt lat="48.73319" lon="2.01943">
        <ele>113.40000152588</ele>
        <time>2015-12-27T15:01:27.000Z</time>
      </trkpt>
      <trkpt lat="48.73323" lon="2.0195">
        <ele>113</ele>
        <time>2015-12-27T15:01:31.000Z</time>
      </trkpt>
      <trkpt lat="48.73326" lon="2.01966">
        <ele>112.59999847412</ele>
        <time>2015-12-27T15:01:40.000Z</time>
      </trkpt>
      <trkpt lat="48.73326" lon="2.01968">
        <ele>112.59999847412</ele>
        <time>2015-12-27T15:01:41.000Z</time>
      </trkpt>
      <trkpt lat="48.73327" lon="2.01978">
        <ele>112.40000152588</ele>
        <time>2015-12-27T15:01:46.000Z</time>
      </trkpt>
      <trkpt lat="48.73328" lon="2.01981">
        <ele>112.19999694824</ele>
        <time>2015-12-27T15:01:48.000Z</time>
      </trkpt>
      <trkpt lat="48.73328" lon="2.01988">
        <ele>112.19999694824</ele>
        <time>2015-12-27T15:01:51.000Z</time>
      </trkpt>
      <trkpt lat="48.73329" lon="2.01994">
        <ele>112</ele>
        <time>2015-12-27T15:01:54.000Z</time>
      </trkpt>
      <trkpt lat="48.7333" lon="2.01999">
        <ele>111.80000305176</ele>
        <time>2015-12-27T15:01:57.000Z</time>
      </trkpt>
      <trkpt lat="48.73329" lon="2.0201">
        <ele>111.59999847412</ele>
        <time>2015-12-27T15:02:01.000Z</time>
      </trkpt>
      <trkpt lat="48.73331" lon="2.02016">
        <ele>111.40000152588</ele>
        <time>2015-12-27T15:02:04.000Z</time>
      </trkpt>
      <trkpt lat="48.73331" lon="2.02027">
        <ele>111</ele>
        <time>2015-12-27T15:02:09.000Z</time>
      </trkpt>
      <trkpt lat="48.73332" lon="2.02029">
        <ele>111</ele>
        <time>2015-12-27T15:02:10.000Z</time>
      </trkpt>
      <trkpt lat="48.73334" lon="2.02039">
        <ele>110.59999847412</ele>
        <time>2015-12-27T15:02:15.000Z</time>
      </trkpt>
      <trkpt lat="48.73338" lon="2.02057">
        <ele>109.80000305176</ele>
        <time>2015-12-27T15:02:23.000Z</time>
      </trkpt>
      <trkpt lat="48.7334" lon="2.0207">
        <ele>109</ele>
        <time>2015-12-27T15:02:29.000Z</time>
      </trkpt>
      <trkpt lat="48.73343" lon="2.02082">
        <ele>108.40000152588</ele>
        <time>2015-12-27T15:02:35.000Z</time>
      </trkpt>
      <trkpt lat="48.73345" lon="2.021">
        <ele>107.59999847412</ele>
        <time>2015-12-27T15:02:44.000Z</time>
      </trkpt>
      <trkpt lat="48.73346" lon="2.02107">
        <ele>107.40000152588</ele>
        <time>2015-12-27T15:02:47.000Z</time>
      </trkpt>
      <trkpt lat="48.73347" lon="2.02111">
        <ele>107.19999694824</ele>
        <time>2015-12-27T15:02:49.000Z</time>
      </trkpt>
      <trkpt lat="48.73347" lon="2.02123">
        <ele>106.59999847412</ele>
        <time>2015-12-27T15:02:55.000Z</time>
      </trkpt>
      <trkpt lat="48.73347" lon="2.02125">
        <ele>106.59999847412</ele>
        <time>2015-12-27T15:02:56.000Z</time>
      </trkpt>
      <trkpt lat="48.73348" lon="2.02137">
        <ele>106.19999694824</ele>
        <time>2015-12-27T15:03:02.000Z</time>
      </trkpt>
      <trkpt lat="48.73348" lon="2.02139">
        <ele>106</ele>
        <time>2015-12-27T15:03:03.000Z</time>
      </trkpt>
      <trkpt lat="48.73348" lon="2.02148">
        <ele>105.80000305176</ele>
        <time>2015-12-27T15:03:08.000Z</time>
      </trkpt>
      <trkpt lat="48.73349" lon="2.02161">
        <ele>105.19999694824</ele>
        <time>2015-12-27T15:03:14.000Z</time>
      </trkpt>
      <trkpt lat="48.7335" lon="2.02164">
        <ele>105</ele>
        <time>2015-12-27T15:03:16.000Z</time>
      </trkpt>
      <trkpt lat="48.73351" lon="2.02171">
        <ele>104.80000305176</ele>
        <time>2015-12-27T15:03:19.000Z</time>
      </trkpt>
      <trkpt lat="48.73353" lon="2.02175">
        <ele>104.40000152588</ele>
        <time>2015-12-27T15:03:21.000Z</time>
      </trkpt>
      <trkpt lat="48.73356" lon="2.0218">
        <ele>104.19999694824</ele>
        <time>2015-12-27T15:03:24.000Z</time>
      </trkpt>
      <trkpt lat="48.73364" lon="2.02194">
        <ele>103.80000305176</ele>
        <time>2015-12-27T15:03:32.000Z</time>
      </trkpt>
      <trkpt lat="48.73373" lon="2.02209">
        <ele>103.19999694824</ele>
        <time>2015-12-27T15:03:42.000Z</time>
      </trkpt>
      <trkpt lat="48.73384" lon="2.02218">
        <ele>102.80000305176</ele>
        <time>2015-12-27T15:03:51.000Z</time>
      </trkpt>
      <trkpt lat="48.73395" lon="2.02228">
        <ele>102.59999847412</ele>
        <time>2015-12-27T15:04:00.000Z</time>
      </trkpt>
      <trkpt lat="48.73403" lon="2.02236">
        <ele>102.19999694824</ele>
        <time>2015-12-27T15:04:08.000Z</time>
      </trkpt>
      <trkpt lat="48.73412" lon="2.02249">
        <ele>102.40000152588</ele>
        <time>2015-12-27T15:04:16.000Z</time>
      </trkpt>
      <trkpt lat="48.73421" lon="2.02261">
        <ele>103.19999694824</ele>
        <time>2015-12-27T15:04:24.000Z</time>
      </trkpt>
      <trkpt lat="48.73432" lon="2.02273">
        <ele>103.80000305176</ele>
        <time>2015-12-27T15:04:33.000Z</time>
      </trkpt>
      <trkpt lat="48.7344" lon="2.02284">
        <ele>104.59999847412</ele>
        <time>2015-12-27T15:04:40.000Z</time>
      </trkpt>
      <trkpt lat="48.73449" lon="2.0229">
        <ele>105.40000152588</ele>
        <time>2015-12-27T15:04:48.000Z</time>
      </trkpt>
      <trkpt lat="48.73456" lon="2.02292">
        <ele>105.80000305176</ele>
        <time>2015-12-27T15:04:55.000Z</time>
      </trkpt>
      <trkpt lat="48.73447" lon="2.02297">
        <ele>105.80000305176</ele>
        <time>2015-12-27T15:05:03.000Z</time>
      </trkpt>
      <trkpt lat="48.73443" lon="2.02304">
        <ele>106</ele>
        <time>2015-12-27T15:05:05.000Z</time>
      </trkpt>
      <trkpt lat="48.73438" lon="2.02314">
        <ele>106.40000152588</ele>
        <time>2015-12-27T15:05:11.000Z</time>
      </trkpt>
      <trkpt lat="48.73433" lon="2.02324">
        <ele>106.80000305176</ele>
        <time>2015-12-27T15:05:18.000Z</time>
      </trkpt>
      <trkpt lat="48.73427" lon="2.02336">
        <ele>108.40000152588</ele>
        <time>2015-12-27T15:05:26.000Z</time>
      </trkpt>
      <trkpt lat="48.73424" lon="2.0234">
        <ele>109</ele>
        <time>2015-12-27T15:05:29.000Z</time>
      </trkpt>
      <trkpt lat="48.73423" lon="2.02343">
        <ele>109.40000152588</ele>
        <time>2015-12-27T15:05:31.000Z</time>
      </trkpt>
      <trkpt lat="48.73421" lon="2.02345">
        <ele>109.80000305176</ele>
        <time>2015-12-27T15:05:33.000Z</time>
      </trkpt>
      <trkpt lat="48.7342" lon="2.02347">
        <ele>110</ele>
        <time>2015-12-27T15:05:36.000Z</time>
      </trkpt>
      <trkpt lat="48.73411" lon="2.02363">
        <ele>112.40000152588</ele>
        <time>2015-12-27T15:05:56.000Z</time>
      </trkpt>
      <trkpt lat="48.73411" lon="2.02364">
        <ele>112.59999847412</ele>
        <time>2015-12-27T15:05:57.000Z</time>
      </trkpt>
      <trkpt lat="48.73409" lon="2.0237">
        <ele>113.40000152588</ele>
        <time>2015-12-27T15:06:01.000Z</time>
      </trkpt>
      <trkpt lat="48.73404" lon="2.02375">
        <ele>114</ele>
        <time>2015-12-27T15:06:06.000Z</time>
      </trkpt>
      <trkpt lat="48.73398" lon="2.0238">
        <ele>113.80000305176</ele>
        <time>2015-12-27T15:06:12.000Z</time>
      </trkpt>
      <trkpt lat="48.73392" lon="2.02387">
        <ele>113.40000152588</ele>
        <time>2015-12-27T15:06:18.000Z</time>
      </trkpt>
      <trkpt lat="48.73384" lon="2.02395">
        <ele>113</ele>
        <time>2015-12-27T15:06:24.000Z</time>
      </trkpt>
      <trkpt lat="48.73374" lon="2.02402">
        <ele>112.19999694824</ele>
        <time>2015-12-27T15:06:31.000Z</time>
      </trkpt>
      <trkpt lat="48.73364" lon="2.02408">
        <ele>111.19999694824</ele>
        <time>2015-12-27T15:06:39.000Z</time>
      </trkpt>
      <trkpt lat="48.73351" lon="2.02415">
        <ele>110.80000305176</ele>
        <time>2015-12-27T15:06:47.000Z</time>
      </trkpt>
      <trkpt lat="48.73339" lon="2.02424">
        <ele>111.59999847412</ele>
        <time>2015-12-27T15:06:56.000Z</time>
      </trkpt>
      <trkpt lat="48.73331" lon="2.02432">
        <ele>112.19999694824</ele>
        <time>2015-12-27T15:07:03.000Z</time>
      </trkpt>
      <trkpt lat="48.73325" lon="2.02438">
        <ele>112.80000305176</ele>
        <time>2015-12-27T15:07:09.000Z</time>
      </trkpt>
      <trkpt lat="48.73323" lon="2.02439">
        <ele>113</ele>
        <time>2015-12-27T15:07:10.000Z</time>
      </trkpt>
      <trkpt lat="48.7332" lon="2.02443">
        <ele>113.19999694824</ele>
        <time>2015-12-27T15:07:13.000Z</time>
      </trkpt>
      <trkpt lat="48.73317" lon="2.02445">
        <ele>113.40000152588</ele>
        <time>2015-12-27T15:07:15.000Z</time>
      </trkpt>
      <trkpt lat="48.73317" lon="2.02445">
        <ele>113.40000152588</ele>
        <time>2015-12-27T15:07:16.000Z</time>
      </trkpt>
      <trkpt lat="48.73313" lon="2.02447">
        <ele>113.40000152588</ele>
        <time>2015-12-27T15:07:19.000Z</time>
      </trkpt>
      <trkpt lat="48.73304" lon="2.02452">
        <ele>112.80000305176</ele>
        <time>2015-12-27T15:07:25.000Z</time>
      </trkpt>
      <trkpt lat="48.73297" lon="2.0246">
        <ele>112.19999694824</ele>
        <time>2015-12-27T15:07:32.000Z</time>
      </trkpt>
      <trkpt lat="48.73297" lon="2.02461">
        <ele>112.19999694824</ele>
        <time>2015-12-27T15:07:34.000Z</time>
      </trkpt>
      <trkpt lat="48.73279" lon="2.02472">
        <ele>110</ele>
        <time>2015-12-27T15:07:56.000Z</time>
      </trkpt>
      <trkpt lat="48.73275" lon="2.02474">
        <ele>109.40000152588</ele>
        <time>2015-12-27T15:08:00.000Z</time>
      </trkpt>
      <trkpt lat="48.7327" lon="2.02477">
        <ele>109</ele>
        <time>2015-12-27T15:08:05.000Z</time>
      </trkpt>
      <trkpt lat="48.73266" lon="2.02481">
        <ele>109</ele>
        <time>2015-12-27T15:08:09.000Z</time>
      </trkpt>
      <trkpt lat="48.73263" lon="2.02483">
        <ele>109.19999694824</ele>
        <time>2015-12-27T15:08:11.000Z</time>
      </trkpt>
      <trkpt lat="48.73258" lon="2.02488">
        <ele>108.80000305176</ele>
        <time>2015-12-27T15:08:16.000Z</time>
      </trkpt>
      <trkpt lat="48.73253" lon="2.02495">
        <ele>108.80000305176</ele>
        <time>2015-12-27T15:08:21.000Z</time>
      </trkpt>
      <trkpt lat="48.73247" lon="2.02502">
        <ele>109.40000152588</ele>
        <time>2015-12-27T15:08:27.000Z</time>
      </trkpt>
      <trkpt lat="48.73243" lon="2.02506">
        <ele>109.59999847412</ele>
        <time>2015-12-27T15:08:33.000Z</time>
      </trkpt>
      <trkpt lat="48.73232" lon="2.02521">
        <ele>111</ele>
        <time>2015-12-27T15:08:46.000Z</time>
      </trkpt>
      <trkpt lat="48.73228" lon="2.02525">
        <ele>111.40000152588</ele>
        <time>2015-12-27T15:08:49.000Z</time>
      </trkpt>
      <trkpt lat="48.73221" lon="2.02532">
        <ele>111.19999694824</ele>
        <time>2015-12-27T15:08:55.000Z</time>
      </trkpt>
      <trkpt lat="48.73213" lon="2.02541">
        <ele>110</ele>
        <time>2015-12-27T15:09:02.000Z</time>
      </trkpt>
      <trkpt lat="48.73205" lon="2.0255">
        <ele>108.59999847412</ele>
        <time>2015-12-27T15:09:09.000Z</time>
      </trkpt>
      <trkpt lat="48.732" lon="2.02556">
        <ele>107.80000305176</ele>
        <time>2015-12-27T15:09:13.000Z</time>
      </trkpt>
      <trkpt lat="48.73197" lon="2.02559">
        <ele>107.40000152588</ele>
        <time>2015-12-27T15:09:15.000Z</time>
      </trkpt>
      <trkpt lat="48.73195" lon="2.02561">
        <ele>107</ele>
        <time>2015-12-27T15:09:17.000Z</time>
      </trkpt>
      <trkpt lat="48.73191" lon="2.02568">
        <ele>106.59999847412</ele>
        <time>2015-12-27T15:09:22.000Z</time>
      </trkpt>
      <trkpt lat="48.73183" lon="2.02579">
        <ele>106.19999694824</ele>
        <time>2015-12-27T15:09:30.000Z</time>
      </trkpt>
      <trkpt lat="48.73177" lon="2.02586">
        <ele>106.59999847412</ele>
        <time>2015-12-27T15:09:36.000Z</time>
      </trkpt>
      <trkpt lat="48.73172" lon="2.02589">
        <ele>106.80000305176</ele>
        <time>2015-12-27T15:09:41.000Z</time>
      </trkpt>
      <trkpt lat="48.73166" lon="2.02597">
        <ele>107.40000152588</ele>
        <time>2015-12-27T15:09:46.000Z</time>
      </trkpt>
      <trkpt lat="48.7316" lon="2.02604">
        <ele>107.80000305176</ele>
        <time>2015-12-27T15:09:51.000Z</time>
      </trkpt>
      <trkpt lat="48.73152" lon="2.02615">
        <ele>108.59999847412</ele>
        <time>2015-12-27T15:09:59.000Z</time>
      </trkpt>
      <trkpt lat="48.73148" lon="2.02619">
        <ele>108.80000305176</ele>
        <time>2015-12-27T15:10:05.000Z</time>
      </trkpt>
      <trkpt lat="48.73147" lon="2.0262">
        <ele>108.80000305176</ele>
        <time>2015-12-27T15:10:06.000Z</time>
      </trkpt>
      <trkpt lat="48.73144" lon="2.02624">
        <ele>108.59999847412</ele>
        <time>2015-12-27T15:10:09.000Z</time>
      </trkpt>
      <trkpt lat="48.73141" lon="2.02628">
        <ele>108.40000152588</ele>
        <time>2015-12-27T15:10:12.000Z</time>
      </trkpt>
      <trkpt lat="48.73137" lon="2.02633">
        <ele>108</ele>
        <time>2015-12-27T15:10:15.000Z</time>
      </trkpt>
      <trkpt lat="48.73129" lon="2.02642">
        <ele>107.40000152588</ele>
        <time>2015-12-27T15:10:21.000Z</time>
      </trkpt>
      <trkpt lat="48.73122" lon="2.02648">
        <ele>106.80000305176</ele>
        <time>2015-12-27T15:10:26.000Z</time>
      </trkpt>
      <trkpt lat="48.7311" lon="2.02659">
        <ele>105.80000305176</ele>
        <time>2015-12-27T15:10:36.000Z</time>
      </trkpt>
      <trkpt lat="48.73103" lon="2.02667">
        <ele>106.40000152588</ele>
        <time>2015-12-27T15:10:42.000Z</time>
      </trkpt>
      <trkpt lat="48.73092" lon="2.02681">
        <ele>107.80000305176</ele>
        <time>2015-12-27T15:10:51.000Z</time>
      </trkpt>
      <trkpt lat="48.73083" lon="2.0269">
        <ele>108.80000305176</ele>
        <time>2015-12-27T15:10:58.000Z</time>
      </trkpt>
      <trkpt lat="48.73078" lon="2.02695">
        <ele>109.19999694824</ele>
        <time>2015-12-27T15:11:03.000Z</time>
      </trkpt>
      <trkpt lat="48.73069" lon="2.02702">
        <ele>109.80000305176</ele>
        <time>2015-12-27T15:11:10.000Z</time>
      </trkpt>
      <trkpt lat="48.73059" lon="2.02717">
        <ele>109.19999694824</ele>
        <time>2015-12-27T15:11:19.000Z</time>
      </trkpt>
      <trkpt lat="48.73056" lon="2.02726">
        <ele>109</ele>
        <time>2015-12-27T15:11:25.000Z</time>
      </trkpt>
      <trkpt lat="48.73051" lon="2.02737">
        <ele>108.59999847412</ele>
        <time>2015-12-27T15:11:30.000Z</time>
      </trkpt>
      <trkpt lat="48.7305" lon="2.02739">
        <ele>108.59999847412</ele>
        <time>2015-12-27T15:11:31.000Z</time>
      </trkpt>
      <trkpt lat="48.73044" lon="2.02749">
        <ele>108.19999694824</ele>
        <time>2015-12-27T15:11:38.000Z</time>
      </trkpt>
      <trkpt lat="48.73039" lon="2.0276">
        <ele>108.59999847412</ele>
        <time>2015-12-27T15:11:44.000Z</time>
      </trkpt>
      <trkpt lat="48.73033" lon="2.02768">
        <ele>108.19999694824</ele>
        <time>2015-12-27T15:11:51.000Z</time>
      </trkpt>
      <trkpt lat="48.73025" lon="2.02773">
        <ele>107.40000152588</ele>
        <time>2015-12-27T15:11:57.000Z</time>
      </trkpt>
      <trkpt lat="48.73017" lon="2.02779">
        <ele>106.80000305176</ele>
        <time>2015-12-27T15:12:04.000Z</time>
      </trkpt>
      <trkpt lat="48.73011" lon="2.02782">
        <ele>107</ele>
        <time>2015-12-27T15:12:10.000Z</time>
      </trkpt>
      <trkpt lat="48.73004" lon="2.02788">
        <ele>107.40000152588</ele>
        <time>2015-12-27T15:12:15.000Z</time>
      </trkpt>
      <trkpt lat="48.72996" lon="2.02795">
        <ele>107.80000305176</ele>
        <time>2015-12-27T15:12:21.000Z</time>
      </trkpt>
      <trkpt lat="48.72987" lon="2.02805">
        <ele>107.40000152588</ele>
        <time>2015-12-27T15:12:28.000Z</time>
      </trkpt>
      <trkpt lat="48.72977" lon="2.02815">
        <ele>106.19999694824</ele>
        <time>2015-12-27T15:12:36.000Z</time>
      </trkpt>
      <trkpt lat="48.72973" lon="2.02818">
        <ele>105.59999847412</ele>
        <time>2015-12-27T15:12:42.000Z</time>
      </trkpt>
      <trkpt lat="48.72939" lon="2.02837">
        <ele>101.59999847412</ele>
        <time>2015-12-27T15:15:21.000Z</time>
      </trkpt>
      <trkpt lat="48.72937" lon="2.02843">
        <ele>101.59999847412</ele>
        <time>2015-12-27T15:15:24.000Z</time>
      </trkpt>
      <trkpt lat="48.72933" lon="2.02857">
        <ele>102.19999694824</ele>
        <time>2015-12-27T15:15:31.000Z</time>
      </trkpt>
      <trkpt lat="48.72929" lon="2.02873">
        <ele>102.80000305176</ele>
        <time>2015-12-27T15:15:39.000Z</time>
      </trkpt>
      <trkpt lat="48.72928" lon="2.02887">
        <ele>103.19999694824</ele>
        <time>2015-12-27T15:15:46.000Z</time>
      </trkpt>
      <trkpt lat="48.72931" lon="2.02907">
        <ele>103.80000305176</ele>
        <time>2015-12-27T15:15:55.000Z</time>
      </trkpt>
      <trkpt lat="48.72929" lon="2.02912">
        <ele>103.59999847412</ele>
        <time>2015-12-27T15:15:57.000Z</time>
      </trkpt>
      <trkpt lat="48.72931" lon="2.02917">
        <ele>103.59999847412</ele>
        <time>2015-12-27T15:15:59.000Z</time>
      </trkpt>
      <trkpt lat="48.72931" lon="2.02924">
        <ele>103.59999847412</ele>
        <time>2015-12-27T15:16:02.000Z</time>
      </trkpt>
      <trkpt lat="48.72933" lon="2.02934">
        <ele>103.59999847412</ele>
        <time>2015-12-27T15:16:07.000Z</time>
      </trkpt>
      <trkpt lat="48.72933" lon="2.02937">
        <ele>103.59999847412</ele>
        <time>2015-12-27T15:16:09.000Z</time>
      </trkpt>
      <trkpt lat="48.72935" lon="2.02943">
        <ele>103.40000152588</ele>
        <time>2015-12-27T15:16:13.000Z</time>
      </trkpt>
      <trkpt lat="48.72934" lon="2.02949">
        <ele>103.40000152588</ele>
        <time>2015-12-27T15:16:17.000Z</time>
      </trkpt>
      <trkpt lat="48.72933" lon="2.02959">
        <ele>103.19999694824</ele>
        <time>2015-12-27T15:16:22.000Z</time>
      </trkpt>
      <trkpt lat="48.72933" lon="2.02961">
        <ele>103.19999694824</ele>
        <time>2015-12-27T15:16:23.000Z</time>
      </trkpt>
      <trkpt lat="48.72933" lon="2.02973">
        <ele>103</ele>
        <time>2015-12-27T15:16:28.000Z</time>
      </trkpt>
      <trkpt lat="48.72934" lon="2.02982">
        <ele>103</ele>
        <time>2015-12-27T15:16:32.000Z</time>
      </trkpt>
      <trkpt lat="48.72934" lon="2.02987">
        <ele>103</ele>
        <time>2015-12-27T15:16:35.000Z</time>
      </trkpt>
      <trkpt lat="48.72933" lon="2.02999">
        <ele>103</ele>
        <time>2015-12-27T15:16:40.000Z</time>
      </trkpt>
      <trkpt lat="48.72932" lon="2.03003">
        <ele>103</ele>
        <time>2015-12-27T15:16:43.000Z</time>
      </trkpt>
      <trkpt lat="48.72932" lon="2.03006">
        <ele>103</ele>
        <time>2015-12-27T15:16:45.000Z</time>
      </trkpt>
      <trkpt lat="48.72931" lon="2.03017">
        <ele>103</ele>
        <time>2015-12-27T15:16:50.000Z</time>
      </trkpt>
      <trkpt lat="48.72931" lon="2.03019">
        <ele>103</ele>
        <time>2015-12-27T15:16:51.000Z</time>
      </trkpt>
      <trkpt lat="48.72929" lon="2.0303">
        <ele>103</ele>
        <time>2015-12-27T15:16:56.000Z</time>
      </trkpt>
      <trkpt lat="48.72928" lon="2.03033">
        <ele>102.80000305176</ele>
        <time>2015-12-27T15:16:57.000Z</time>
      </trkpt>
      <trkpt lat="48.72927" lon="2.03043">
        <ele>102.80000305176</ele>
        <time>2015-12-27T15:17:02.000Z</time>
      </trkpt>
      <trkpt lat="48.72926" lon="2.03052">
        <ele>102.80000305176</ele>
        <time>2015-12-27T15:17:06.000Z</time>
      </trkpt>
      <trkpt lat="48.72925" lon="2.03058">
        <ele>102.80000305176</ele>
        <time>2015-12-27T15:17:09.000Z</time>
      </trkpt>
      <trkpt lat="48.72925" lon="2.03063">
        <ele>102.80000305176</ele>
        <time>2015-12-27T15:17:11.000Z</time>
      </trkpt>
      <trkpt lat="48.72924" lon="2.03071">
        <ele>102.59999847412</ele>
        <time>2015-12-27T15:17:15.000Z</time>
      </trkpt>
      <trkpt lat="48.72923" lon="2.03083">
        <ele>102.59999847412</ele>
        <time>2015-12-27T15:17:21.000Z</time>
      </trkpt>
      <trkpt lat="48.72921" lon="2.03095">
        <ele>102.59999847412</ele>
        <time>2015-12-27T15:17:27.000Z</time>
      </trkpt>
      <trkpt lat="48.72921" lon="2.031">
        <ele>102.80000305176</ele>
        <time>2015-12-27T15:17:30.000Z</time>
      </trkpt>
      <trkpt lat="48.72921" lon="2.03104">
        <ele>102.80000305176</ele>
        <time>2015-12-27T15:17:32.000Z</time>
      </trkpt>
      <trkpt lat="48.72921" lon="2.03108">
        <ele>102.80000305176</ele>
        <time>2015-12-27T15:17:34.000Z</time>
      </trkpt>
      <trkpt lat="48.7292" lon="2.03111">
        <ele>102.80000305176</ele>
        <time>2015-12-27T15:17:36.000Z</time>
      </trkpt>
      <trkpt lat="48.7292" lon="2.03113">
        <ele>102.80000305176</ele>
        <time>2015-12-27T15:17:37.000Z</time>
      </trkpt>
      <trkpt lat="48.72919" lon="2.03129">
        <ele>103</ele>
        <time>2015-12-27T15:17:44.000Z</time>
      </trkpt>
      <trkpt lat="48.7292" lon="2.03138">
        <ele>103.19999694824</ele>
        <time>2015-12-27T15:17:48.000Z</time>
      </trkpt>
      <trkpt lat="48.7292" lon="2.0314">
        <ele>103.19999694824</ele>
        <time>2015-12-27T15:17:49.000Z</time>
      </trkpt>
      <trkpt lat="48.72921" lon="2.03141">
        <ele>103.19999694824</ele>
        <time>2015-12-27T15:17:50.000Z</time>
      </trkpt>
      <trkpt lat="48.7292" lon="2.0315">
        <ele>103</ele>
        <time>2015-12-27T15:17:53.000Z</time>
      </trkpt>
      <trkpt lat="48.72921" lon="2.03157">
        <ele>103</ele>
        <time>2015-12-27T15:17:56.000Z</time>
      </trkpt>
      <trkpt lat="48.72921" lon="2.03158">
        <ele>103</ele>
        <time>2015-12-27T15:17:57.000Z</time>
      </trkpt>
      <trkpt lat="48.72922" lon="2.0316">
        <ele>103</ele>
        <time>2015-12-27T15:17:58.000Z</time>
      </trkpt>
      <trkpt lat="48.72923" lon="2.0317">
        <ele>103</ele>
        <time>2015-12-27T15:18:02.000Z</time>
      </trkpt>
      <trkpt lat="48.72923" lon="2.03174">
        <ele>103</ele>
        <time>2015-12-27T15:18:04.000Z</time>
      </trkpt>
      <trkpt lat="48.72923" lon="2.03181">
        <ele>102.80000305176</ele>
        <time>2015-12-27T15:18:07.000Z</time>
      </trkpt>
      <trkpt lat="48.72922" lon="2.03192">
        <ele>102.80000305176</ele>
        <time>2015-12-27T15:18:12.000Z</time>
      </trkpt>
      <trkpt lat="48.72925" lon="2.03201">
        <ele>102.80000305176</ele>
        <time>2015-12-27T15:18:17.000Z</time>
      </trkpt>
      <trkpt lat="48.72927" lon="2.03215">
        <ele>102.59999847412</ele>
        <time>2015-12-27T15:18:23.000Z</time>
      </trkpt>
      <trkpt lat="48.72927" lon="2.03217">
        <ele>102.59999847412</ele>
        <time>2015-12-27T15:18:24.000Z</time>
      </trkpt>
      <trkpt lat="48.72929" lon="2.03228">
        <ele>102.59999847412</ele>
        <time>2015-12-27T15:18:29.000Z</time>
      </trkpt>
      <trkpt lat="48.7293" lon="2.0323">
        <ele>102.80000305176</ele>
        <time>2015-12-27T15:18:30.000Z</time>
      </trkpt>
      <trkpt lat="48.7293" lon="2.03239">
        <ele>102.59999847412</ele>
        <time>2015-12-27T15:18:34.000Z</time>
      </trkpt>
      <trkpt lat="48.72932" lon="2.03249">
        <ele>102.80000305176</ele>
        <time>2015-12-27T15:18:39.000Z</time>
      </trkpt>
      <trkpt lat="48.72935" lon="2.03256">
        <ele>103</ele>
        <time>2015-12-27T15:18:43.000Z</time>
      </trkpt>
      <trkpt lat="48.72939" lon="2.03266">
        <ele>103.19999694824</ele>
        <time>2015-12-27T15:18:48.000Z</time>
      </trkpt>
      <trkpt lat="48.72944" lon="2.03276">
        <ele>103.80000305176</ele>
        <time>2015-12-27T15:18:53.000Z</time>
      </trkpt>
      <trkpt lat="48.72948" lon="2.03283">
        <ele>104.19999694824</ele>
        <time>2015-12-27T15:18:57.000Z</time>
      </trkpt>
      <trkpt lat="48.72951" lon="2.03288">
        <ele>104.59999847412</ele>
        <time>2015-12-27T15:19:00.000Z</time>
      </trkpt>
      <trkpt lat="48.72955" lon="2.03298">
        <ele>105.19999694824</ele>
        <time>2015-12-27T15:19:06.000Z</time>
      </trkpt>
      <trkpt lat="48.72956" lon="2.03301">
        <ele>105.19999694824</ele>
        <time>2015-12-27T15:19:07.000Z</time>
      </trkpt>
      <trkpt lat="48.72959" lon="2.03311">
        <ele>105.59999847412</ele>
        <time>2015-12-27T15:19:12.000Z</time>
      </trkpt>
      <trkpt lat="48.72961" lon="2.03323">
        <ele>105.80000305176</ele>
        <time>2015-12-27T15:19:18.000Z</time>
      </trkpt>
      <trkpt lat="48.72961" lon="2.0333">
        <ele>106</ele>
        <time>2015-12-27T15:19:23.000Z</time>
      </trkpt>
      <trkpt lat="48.7296" lon="2.0334">
        <ele>106.19999694824</ele>
        <time>2015-12-27T15:19:28.000Z</time>
      </trkpt>
      <trkpt lat="48.72956" lon="2.0336">
        <ele>105.80000305176</ele>
        <time>2015-12-27T15:19:36.000Z</time>
      </trkpt>
      <trkpt lat="48.72954" lon="2.0337">
        <ele>105.80000305176</ele>
        <time>2015-12-27T15:19:40.000Z</time>
      </trkpt>
      <trkpt lat="48.72954" lon="2.03375">
        <ele>105.80000305176</ele>
        <time>2015-12-27T15:19:42.000Z</time>
      </trkpt>
      <trkpt lat="48.7295" lon="2.03385">
        <ele>105.40000152588</ele>
        <time>2015-12-27T15:19:46.000Z</time>
      </trkpt>
      <trkpt lat="48.72949" lon="2.0339">
        <ele>105.40000152588</ele>
        <time>2015-12-27T15:19:48.000Z</time>
      </trkpt>
      <trkpt lat="48.72945" lon="2.03405">
        <ele>105</ele>
        <time>2015-12-27T15:19:55.000Z</time>
      </trkpt>
      <trkpt lat="48.72944" lon="2.03409">
        <ele>104.80000305176</ele>
        <time>2015-12-27T15:19:57.000Z</time>
      </trkpt>
      <trkpt lat="48.72943" lon="2.03414">
        <ele>105</ele>
        <time>2015-12-27T15:20:00.000Z</time>
      </trkpt>
      <trkpt lat="48.72942" lon="2.03418">
        <ele>105</ele>
        <time>2015-12-27T15:20:02.000Z</time>
      </trkpt>
      <trkpt lat="48.7294" lon="2.03427">
        <ele>104.80000305176</ele>
        <time>2015-12-27T15:20:06.000Z</time>
      </trkpt>
      <trkpt lat="48.7294" lon="2.03434">
        <ele>104.80000305176</ele>
        <time>2015-12-27T15:20:10.000Z</time>
      </trkpt>
      <trkpt lat="48.7294" lon="2.03436">
        <ele>104.80000305176</ele>
        <time>2015-12-27T15:20:11.000Z</time>
      </trkpt>
      <trkpt lat="48.72938" lon="2.03447">
        <ele>104.59999847412</ele>
        <time>2015-12-27T15:20:16.000Z</time>
      </trkpt>
      <trkpt lat="48.72938" lon="2.0345">
        <ele>104.59999847412</ele>
        <time>2015-12-27T15:20:18.000Z</time>
      </trkpt>
      <trkpt lat="48.72937" lon="2.03454">
        <ele>104.59999847412</ele>
        <time>2015-12-27T15:20:20.000Z</time>
      </trkpt>
      <trkpt lat="48.72937" lon="2.03455">
        <ele>104.59999847412</ele>
        <time>2015-12-27T15:20:21.000Z</time>
      </trkpt>
      <trkpt lat="48.72935" lon="2.03466">
        <ele>104.59999847412</ele>
        <time>2015-12-27T15:20:25.000Z</time>
      </trkpt>
      <trkpt lat="48.72933" lon="2.03472">
        <ele>104.40000152588</ele>
        <time>2015-12-27T15:20:29.000Z</time>
      </trkpt>
      <trkpt lat="48.72931" lon="2.03486">
        <ele>104.40000152588</ele>
        <time>2015-12-27T15:20:35.000Z</time>
      </trkpt>
      <trkpt lat="48.72928" lon="2.035">
        <ele>104</ele>
        <time>2015-12-27T15:20:41.000Z</time>
      </trkpt>
      <trkpt lat="48.72925" lon="2.03509">
        <ele>103.59999847412</ele>
        <time>2015-12-27T15:20:45.000Z</time>
      </trkpt>
      <trkpt lat="48.72925" lon="2.03512">
        <ele>103.40000152588</ele>
        <time>2015-12-27T15:20:46.000Z</time>
      </trkpt>
      <trkpt lat="48.72925" lon="2.03516">
        <ele>103.40000152588</ele>
        <time>2015-12-27T15:20:48.000Z</time>
      </trkpt>
      <trkpt lat="48.72924" lon="2.03521">
        <ele>103.19999694824</ele>
        <time>2015-12-27T15:20:50.000Z</time>
      </trkpt>
      <trkpt lat="48.72923" lon="2.03531">
        <ele>103</ele>
        <time>2015-12-27T15:20:54.000Z</time>
      </trkpt>
      <trkpt lat="48.72921" lon="2.03543">
        <ele>102.40000152588</ele>
        <time>2015-12-27T15:20:59.000Z</time>
      </trkpt>
      <trkpt lat="48.72921" lon="2.03546">
        <ele>102.40000152588</ele>
        <time>2015-12-27T15:21:00.000Z</time>
      </trkpt>
      <trkpt lat="48.72919" lon="2.0356">
        <ele>101.80000305176</ele>
        <time>2015-12-27T15:21:06.000Z</time>
      </trkpt>
      <trkpt lat="48.7292" lon="2.03565">
        <ele>101.80000305176</ele>
        <time>2015-12-27T15:21:09.000Z</time>
      </trkpt>
      <trkpt lat="48.72923" lon="2.0357">
        <ele>101.80000305176</ele>
        <time>2015-12-27T15:21:11.000Z</time>
      </trkpt>
      <trkpt lat="48.7293" lon="2.03578">
        <ele>102.19999694824</ele>
        <time>2015-12-27T15:21:17.000Z</time>
      </trkpt>
      <trkpt lat="48.72935" lon="2.03588">
        <ele>102.59999847412</ele>
        <time>2015-12-27T15:21:23.000Z</time>
      </trkpt>
      <trkpt lat="48.72939" lon="2.03597">
        <ele>103.19999694824</ele>
        <time>2015-12-27T15:21:28.000Z</time>
      </trkpt>
      <trkpt lat="48.72943" lon="2.03605">
        <ele>104</ele>
        <time>2015-12-27T15:21:32.000Z</time>
      </trkpt>
      <trkpt lat="48.72945" lon="2.03607">
        <ele>104.40000152588</ele>
        <time>2015-12-27T15:21:34.000Z</time>
      </trkpt>
      <trkpt lat="48.72948" lon="2.03612">
        <ele>105</ele>
        <time>2015-12-27T15:21:37.000Z</time>
      </trkpt>
      <trkpt lat="48.7295" lon="2.03618">
        <ele>105.40000152588</ele>
        <time>2015-12-27T15:21:40.000Z</time>
      </trkpt>
      <trkpt lat="48.72951" lon="2.03619">
        <ele>105.59999847412</ele>
        <time>2015-12-27T15:21:41.000Z</time>
      </trkpt>
      <trkpt lat="48.72953" lon="2.03626">
        <ele>106</ele>
        <time>2015-12-27T15:21:45.000Z</time>
      </trkpt>
      <trkpt lat="48.72955" lon="2.03638">
        <ele>106.40000152588</ele>
        <time>2015-12-27T15:21:51.000Z</time>
      </trkpt>
      <trkpt lat="48.72955" lon="2.03646">
        <ele>106.40000152588</ele>
        <time>2015-12-27T15:21:55.000Z</time>
      </trkpt>
      <trkpt lat="48.72955" lon="2.03648">
        <ele>106.19999694824</ele>
        <time>2015-12-27T15:21:56.000Z</time>
      </trkpt>
      <trkpt lat="48.72955" lon="2.03654">
        <ele>106.19999694824</ele>
        <time>2015-12-27T15:21:59.000Z</time>
      </trkpt>
      <trkpt lat="48.72956" lon="2.03656">
        <ele>106.40000152588</ele>
        <time>2015-12-27T15:22:01.000Z</time>
      </trkpt>
      <trkpt lat="48.72955" lon="2.0366">
        <ele>106.19999694824</ele>
        <time>2015-12-27T15:22:03.000Z</time>
      </trkpt>
      <trkpt lat="48.72953" lon="2.03669">
        <ele>105.80000305176</ele>
        <time>2015-12-27T15:22:07.000Z</time>
      </trkpt>
      <trkpt lat="48.72952" lon="2.03673">
        <ele>105.80000305176</ele>
        <time>2015-12-27T15:22:09.000Z</time>
      </trkpt>
      <trkpt lat="48.72949" lon="2.03687">
        <ele>104.80000305176</ele>
        <time>2015-12-27T15:22:15.000Z</time>
      </trkpt>
      <trkpt lat="48.72947" lon="2.03698">
        <ele>104.19999694824</ele>
        <time>2015-12-27T15:22:20.000Z</time>
      </trkpt>
      <trkpt lat="48.72947" lon="2.0371">
        <ele>104</ele>
        <time>2015-12-27T15:22:26.000Z</time>
      </trkpt>
      <trkpt lat="48.72947" lon="2.03715">
        <ele>103.80000305176</ele>
        <time>2015-12-27T15:22:28.000Z</time>
      </trkpt>
      <trkpt lat="48.72945" lon="2.03723">
        <ele>103.19999694824</ele>
        <time>2015-12-27T15:22:31.000Z</time>
      </trkpt>
      <trkpt lat="48.72945" lon="2.03732">
        <ele>103.19999694824</ele>
        <time>2015-12-27T15:22:35.000Z</time>
      </trkpt>
      <trkpt lat="48.72943" lon="2.03751">
        <ele>102.59999847412</ele>
        <time>2015-12-27T15:22:43.000Z</time>
      </trkpt>
      <trkpt lat="48.72941" lon="2.03765">
        <ele>102.19999694824</ele>
        <time>2015-12-27T15:22:49.000Z</time>
      </trkpt>
      <trkpt lat="48.72942" lon="2.03768">
        <ele>102.40000152588</ele>
        <time>2015-12-27T15:22:50.000Z</time>
      </trkpt>
      <trkpt lat="48.72942" lon="2.03774">
        <ele>102.59999847412</ele>
        <time>2015-12-27T15:22:53.000Z</time>
      </trkpt>
      <trkpt lat="48.72943" lon="2.03786">
        <ele>102.80000305176</ele>
        <time>2015-12-27T15:22:58.000Z</time>
      </trkpt>
      <trkpt lat="48.72941" lon="2.03793">
        <ele>102.59999847412</ele>
        <time>2015-12-27T15:23:01.000Z</time>
      </trkpt>
      <trkpt lat="48.72941" lon="2.03796">
        <ele>102.59999847412</ele>
        <time>2015-12-27T15:23:02.000Z</time>
      </trkpt>
      <trkpt lat="48.72941" lon="2.03805">
        <ele>102.80000305176</ele>
        <time>2015-12-27T15:23:06.000Z</time>
      </trkpt>
      <trkpt lat="48.72941" lon="2.03807">
        <ele>102.59999847412</ele>
        <time>2015-12-27T15:23:07.000Z</time>
      </trkpt>
      <trkpt lat="48.72939" lon="2.0382">
        <ele>102.40000152588</ele>
        <time>2015-12-27T15:23:13.000Z</time>
      </trkpt>
      <trkpt lat="48.72938" lon="2.03831">
        <ele>102.40000152588</ele>
        <time>2015-12-27T15:23:18.000Z</time>
      </trkpt>
      <trkpt lat="48.72937" lon="2.0384">
        <ele>102.59999847412</ele>
        <time>2015-12-27T15:23:22.000Z</time>
      </trkpt>
      <trkpt lat="48.72933" lon="2.03858">
        <ele>102.80000305176</ele>
        <time>2015-12-27T15:23:29.000Z</time>
      </trkpt>
      <trkpt lat="48.72929" lon="2.0387">
        <ele>102.80000305176</ele>
        <time>2015-12-27T15:23:35.000Z</time>
      </trkpt>
      <trkpt lat="48.72925" lon="2.03882">
        <ele>102.80000305176</ele>
        <time>2015-12-27T15:23:41.000Z</time>
      </trkpt>
      <trkpt lat="48.72917" lon="2.03901">
        <ele>102.80000305176</ele>
        <time>2015-12-27T15:23:49.000Z</time>
      </trkpt>
      <trkpt lat="48.72911" lon="2.03914">
        <ele>102.80000305176</ele>
        <time>2015-12-27T15:23:55.000Z</time>
      </trkpt>
      <trkpt lat="48.7291" lon="2.03918">
        <ele>103</ele>
        <time>2015-12-27T15:23:57.000Z</time>
      </trkpt>
      <trkpt lat="48.72907" lon="2.03925">
        <ele>103</ele>
        <time>2015-12-27T15:24:00.000Z</time>
      </trkpt>
      <trkpt lat="48.72902" lon="2.03935">
        <ele>103.19999694824</ele>
        <time>2015-12-27T15:24:05.000Z</time>
      </trkpt>
      <trkpt lat="48.72896" lon="2.0395">
        <ele>103.40000152588</ele>
        <time>2015-12-27T15:24:12.000Z</time>
      </trkpt>
      <trkpt lat="48.72888" lon="2.03968">
        <ele>102</ele>
        <time>2015-12-27T15:24:21.000Z</time>
      </trkpt>
      <trkpt lat="48.72886" lon="2.0397">
        <ele>101.80000305176</ele>
        <time>2015-12-27T15:24:22.000Z</time>
      </trkpt>
      <trkpt lat="48.72884" lon="2.03977">
        <ele>101.19999694824</ele>
        <time>2015-12-27T15:24:26.000Z</time>
      </trkpt>
      <trkpt lat="48.72882" lon="2.03991">
        <ele>100.59999847412</ele>
        <time>2015-12-27T15:24:33.000Z</time>
      </trkpt>
      <trkpt lat="48.72879" lon="2.04007">
        <ele>100.40000152588</ele>
        <time>2015-12-27T15:24:40.000Z</time>
      </trkpt>
      <trkpt lat="48.72878" lon="2.04008">
        <ele>100.19999694824</ele>
        <time>2015-12-27T15:24:41.000Z</time>
      </trkpt>
      <trkpt lat="48.72878" lon="2.04016">
        <ele>100.40000152588</ele>
        <time>2015-12-27T15:24:45.000Z</time>
      </trkpt>
      <trkpt lat="48.72878" lon="2.04019">
        <ele>100.40000152588</ele>
        <time>2015-12-27T15:24:46.000Z</time>
      </trkpt>
      <trkpt lat="48.72877" lon="2.04031">
        <ele>100</ele>
        <time>2015-12-27T15:24:51.000Z</time>
      </trkpt>
      <trkpt lat="48.72877" lon="2.04038">
        <ele>99.800003051758</ele>
        <time>2015-12-27T15:24:54.000Z</time>
      </trkpt>
      <trkpt lat="48.72878" lon="2.04043">
        <ele>100</ele>
        <time>2015-12-27T15:24:56.000Z</time>
      </trkpt>
      <trkpt lat="48.72879" lon="2.04053">
        <ele>100</ele>
        <time>2015-12-27T15:25:00.000Z</time>
      </trkpt>
      <trkpt lat="48.7288" lon="2.0406">
        <ele>100.19999694824</ele>
        <time>2015-12-27T15:25:03.000Z</time>
      </trkpt>
      <trkpt lat="48.72881" lon="2.04067">
        <ele>100.40000152588</ele>
        <time>2015-12-27T15:25:06.000Z</time>
      </trkpt>
      <trkpt lat="48.72882" lon="2.04072">
        <ele>100.59999847412</ele>
        <time>2015-12-27T15:25:08.000Z</time>
      </trkpt>
      <trkpt lat="48.72884" lon="2.04079">
        <ele>100.80000305176</ele>
        <time>2015-12-27T15:25:11.000Z</time>
      </trkpt>
      <trkpt lat="48.72885" lon="2.04086">
        <ele>101.19999694824</ele>
        <time>2015-12-27T15:25:14.000Z</time>
      </trkpt>
      <trkpt lat="48.72887" lon="2.04101">
        <ele>101.80000305176</ele>
        <time>2015-12-27T15:25:20.000Z</time>
      </trkpt>
      <trkpt lat="48.72889" lon="2.04118">
        <ele>102.19999694824</ele>
        <time>2015-12-27T15:25:27.000Z</time>
      </trkpt>
      <trkpt lat="48.72889" lon="2.04135">
        <ele>102.40000152588</ele>
        <time>2015-12-27T15:25:34.000Z</time>
      </trkpt>
      <trkpt lat="48.72891" lon="2.04158">
        <ele>103.19999694824</ele>
        <time>2015-12-27T15:25:43.000Z</time>
      </trkpt>
      <trkpt lat="48.72893" lon="2.04181">
        <ele>105.19999694824</ele>
        <time>2015-12-27T15:25:52.000Z</time>
      </trkpt>
      <trkpt lat="48.72891" lon="2.04199">
        <ele>106.40000152588</ele>
        <time>2015-12-27T15:26:00.000Z</time>
      </trkpt>
      <trkpt lat="48.72888" lon="2.04206">
        <ele>106.40000152588</ele>
        <time>2015-12-27T15:26:03.000Z</time>
      </trkpt>
      <trkpt lat="48.72887" lon="2.04212">
        <ele>106.59999847412</ele>
        <time>2015-12-27T15:26:05.000Z</time>
      </trkpt>
      <trkpt lat="48.72887" lon="2.0423">
        <ele>107.80000305176</ele>
        <time>2015-12-27T15:26:11.000Z</time>
      </trkpt>
      <trkpt lat="48.72888" lon="2.04243">
        <ele>108.80000305176</ele>
        <time>2015-12-27T15:26:17.000Z</time>
      </trkpt>
      <trkpt lat="48.72887" lon="2.04244">
        <ele>109</ele>
        <time>2015-12-27T15:26:18.000Z</time>
      </trkpt>
      <trkpt lat="48.72887" lon="2.04259">
        <ele>110.80000305176</ele>
        <time>2015-12-27T15:26:25.000Z</time>
      </trkpt>
      <trkpt lat="48.72887" lon="2.04262">
        <ele>111</ele>
        <time>2015-12-27T15:26:26.000Z</time>
      </trkpt>
      <trkpt lat="48.72885" lon="2.04269">
        <ele>111.59999847412</ele>
        <time>2015-12-27T15:26:28.000Z</time>
      </trkpt>
      <trkpt lat="48.72887" lon="2.04281">
        <ele>113</ele>
        <time>2015-12-27T15:26:33.000Z</time>
      </trkpt>
      <trkpt lat="48.72886" lon="2.04282">
        <ele>113</ele>
        <time>2015-12-27T15:26:34.000Z</time>
      </trkpt>
      <trkpt lat="48.72886" lon="2.04291">
        <ele>113.40000152588</ele>
        <time>2015-12-27T15:26:38.000Z</time>
      </trkpt>
      <trkpt lat="48.72885" lon="2.04293">
        <ele>113.19999694824</ele>
        <time>2015-12-27T15:26:39.000Z</time>
      </trkpt>
      <trkpt lat="48.72885" lon="2.04298">
        <ele>113.59999847412</ele>
        <time>2015-12-27T15:26:42.000Z</time>
      </trkpt>
      <trkpt lat="48.72885" lon="2.04308">
        <ele>114</ele>
        <time>2015-12-27T15:26:47.000Z</time>
      </trkpt>
      <trkpt lat="48.72884" lon="2.04311">
        <ele>114.19999694824</ele>
        <time>2015-12-27T15:26:49.000Z</time>
      </trkpt>
      <trkpt lat="48.72884" lon="2.04316">
        <ele>114.40000152588</ele>
        <time>2015-12-27T15:26:52.000Z</time>
      </trkpt>
      <trkpt lat="48.72879" lon="2.04328">
        <ele>114</ele>
        <time>2015-12-27T15:26:57.000Z</time>
      </trkpt>
      <trkpt lat="48.72879" lon="2.04339">
        <ele>114.80000305176</ele>
        <time>2015-12-27T15:27:02.000Z</time>
      </trkpt>
      <trkpt lat="48.72879" lon="2.0434">
        <ele>115</ele>
        <time>2015-12-27T15:27:03.000Z</time>
      </trkpt>
      <trkpt lat="48.72878" lon="2.04345">
        <ele>115</ele>
        <time>2015-12-27T15:27:05.000Z</time>
      </trkpt>
      <trkpt lat="48.72878" lon="2.04348">
        <ele>115.19999694824</ele>
        <time>2015-12-27T15:27:07.000Z</time>
      </trkpt>
      <trkpt lat="48.72875" lon="2.04358">
        <ele>115.40000152588</ele>
        <time>2015-12-27T15:27:13.000Z</time>
      </trkpt>
      <trkpt lat="48.72874" lon="2.04365">
        <ele>115.59999847412</ele>
        <time>2015-12-27T15:27:17.000Z</time>
      </trkpt>
      <trkpt lat="48.72873" lon="2.0437">
        <ele>115.80000305176</ele>
        <time>2015-12-27T15:27:19.000Z</time>
      </trkpt>
      <trkpt lat="48.72871" lon="2.04377">
        <ele>115.80000305176</ele>
        <time>2015-12-27T15:27:23.000Z</time>
      </trkpt>
      <trkpt lat="48.7287" lon="2.0438">
        <ele>116</ele>
        <time>2015-12-27T15:27:25.000Z</time>
      </trkpt>
      <trkpt lat="48.72868" lon="2.04391">
        <ele>116.40000152588</ele>
        <time>2015-12-27T15:27:29.000Z</time>
      </trkpt>
      <trkpt lat="48.72868" lon="2.04392">
        <ele>116.40000152588</ele>
        <time>2015-12-27T15:27:30.000Z</time>
      </trkpt>
      <trkpt lat="48.72863" lon="2.04403">
        <ele>116</ele>
        <time>2015-12-27T15:27:34.000Z</time>
      </trkpt>
      <trkpt lat="48.72864" lon="2.04406">
        <ele>116.40000152588</ele>
        <time>2015-12-27T15:27:35.000Z</time>
      </trkpt>
      <trkpt lat="48.72863" lon="2.04414">
        <ele>117.19999694824</ele>
        <time>2015-12-27T15:27:38.000Z</time>
      </trkpt>
      <trkpt lat="48.72862" lon="2.0442">
        <ele>117.19999694824</ele>
        <time>2015-12-27T15:27:40.000Z</time>
      </trkpt>
      <trkpt lat="48.72861" lon="2.04427">
        <ele>117.19999694824</ele>
        <time>2015-12-27T15:27:43.000Z</time>
      </trkpt>
      <trkpt lat="48.72859" lon="2.04439">
        <ele>117.19999694824</ele>
        <time>2015-12-27T15:27:47.000Z</time>
      </trkpt>
      <trkpt lat="48.72858" lon="2.0445">
        <ele>117.40000152588</ele>
        <time>2015-12-27T15:27:51.000Z</time>
      </trkpt>
      <trkpt lat="48.72858" lon="2.04457">
        <ele>117.59999847412</ele>
        <time>2015-12-27T15:27:54.000Z</time>
      </trkpt>
      <trkpt lat="48.72858" lon="2.04467">
        <ele>118.19999694824</ele>
        <time>2015-12-27T15:27:58.000Z</time>
      </trkpt>
      <trkpt lat="48.72858" lon="2.04469">
        <ele>118.19999694824</ele>
        <time>2015-12-27T15:27:59.000Z</time>
      </trkpt>
      <trkpt lat="48.72858" lon="2.04483">
        <ele>119</ele>
        <time>2015-12-27T15:28:05.000Z</time>
      </trkpt>
      <trkpt lat="48.72858" lon="2.04486">
        <ele>119</ele>
        <time>2015-12-27T15:28:06.000Z</time>
      </trkpt>
      <trkpt lat="48.72859" lon="2.04502">
        <ele>120</ele>
        <time>2015-12-27T15:28:13.000Z</time>
      </trkpt>
      <trkpt lat="48.72859" lon="2.04507">
        <ele>120.40000152588</ele>
        <time>2015-12-27T15:28:16.000Z</time>
      </trkpt>
      <trkpt lat="48.7286" lon="2.04508">
        <ele>120.80000305176</ele>
        <time>2015-12-27T15:28:18.000Z</time>
      </trkpt>
      <trkpt lat="48.72863" lon="2.04506">
        <ele>121.80000305176</ele>
        <time>2015-12-27T15:28:23.000Z</time>
      </trkpt>
      <trkpt lat="48.72864" lon="2.04505">
        <ele>121.80000305176</ele>
        <time>2015-12-27T15:28:24.000Z</time>
      </trkpt>
      <trkpt lat="48.72866" lon="2.04493">
        <ele>122.19999694824</ele>
        <time>2015-12-27T15:28:31.000Z</time>
      </trkpt>
      <trkpt lat="48.72871" lon="2.04483">
        <ele>123.19999694824</ele>
        <time>2015-12-27T15:28:38.000Z</time>
      </trkpt>
      <trkpt lat="48.72875" lon="2.04473">
        <ele>124</ele>
        <time>2015-12-27T15:28:44.000Z</time>
      </trkpt>
      <trkpt lat="48.7288" lon="2.04459">
        <ele>125.19999694824</ele>
        <time>2015-12-27T15:28:52.000Z</time>
      </trkpt>
      <trkpt lat="48.72884" lon="2.04451">
        <ele>126</ele>
        <time>2015-12-27T15:28:57.000Z</time>
      </trkpt>
      <trkpt lat="48.72885" lon="2.04447">
        <ele>126.40000152588</ele>
        <time>2015-12-27T15:28:59.000Z</time>
      </trkpt>
      <trkpt lat="48.72892" lon="2.04433">
        <ele>126.80000305176</ele>
        <time>2015-12-27T15:29:05.000Z</time>
      </trkpt>
      <trkpt lat="48.72897" lon="2.04421">
        <ele>126.80000305176</ele>
        <time>2015-12-27T15:29:10.000Z</time>
      </trkpt>
      <trkpt lat="48.72903" lon="2.04407">
        <ele>126.80000305176</ele>
        <time>2015-12-27T15:29:17.000Z</time>
      </trkpt>
      <trkpt lat="48.7291" lon="2.04396">
        <ele>127.59999847412</ele>
        <time>2015-12-27T15:29:24.000Z</time>
      </trkpt>
      <trkpt lat="48.72917" lon="2.04385">
        <ele>128.60000610352</ele>
        <time>2015-12-27T15:29:31.000Z</time>
      </trkpt>
      <trkpt lat="48.72925" lon="2.04372">
        <ele>129.80000305176</ele>
        <time>2015-12-27T15:29:39.000Z</time>
      </trkpt>
      <trkpt lat="48.72935" lon="2.04357">
        <ele>131</ele>
        <time>2015-12-27T15:29:45.000Z</time>
      </trkpt>
      <trkpt lat="48.7294" lon="2.04346">
        <ele>131.60000610352</ele>
        <time>2015-12-27T15:29:50.000Z</time>
      </trkpt>
      <trkpt lat="48.72946" lon="2.04335">
        <ele>132.39999389648</ele>
        <time>2015-12-27T15:29:56.000Z</time>
      </trkpt>
      <trkpt lat="48.72948" lon="2.04327">
        <ele>132.39999389648</ele>
        <time>2015-12-27T15:30:00.000Z</time>
      </trkpt>
      <trkpt lat="48.72949" lon="2.04321">
        <ele>132.39999389648</ele>
        <time>2015-12-27T15:30:03.000Z</time>
      </trkpt>
      <trkpt lat="48.72955" lon="2.04307">
        <ele>132.39999389648</ele>
        <time>2015-12-27T15:30:10.000Z</time>
      </trkpt>
      <trkpt lat="48.72958" lon="2.04294">
        <ele>131.80000305176</ele>
        <time>2015-12-27T15:30:17.000Z</time>
      </trkpt>
      <trkpt lat="48.72963" lon="2.04283">
        <ele>132.19999694824</ele>
        <time>2015-12-27T15:30:23.000Z</time>
      </trkpt>
      <trkpt lat="48.72968" lon="2.04268">
        <ele>132.19999694824</ele>
        <time>2015-12-27T15:30:31.000Z</time>
      </trkpt>
      <trkpt lat="48.72973" lon="2.04254">
        <ele>132.39999389648</ele>
        <time>2015-12-27T15:30:39.000Z</time>
      </trkpt>
      <trkpt lat="48.72978" lon="2.04244">
        <ele>132.80000305176</ele>
        <time>2015-12-27T15:30:45.000Z</time>
      </trkpt>
      <trkpt lat="48.7298" lon="2.04242">
        <ele>133.19999694824</ele>
        <time>2015-12-27T15:30:46.000Z</time>
      </trkpt>
      <trkpt lat="48.72983" lon="2.04234">
        <ele>133.60000610352</ele>
        <time>2015-12-27T15:30:50.000Z</time>
      </trkpt>
      <trkpt lat="48.72989" lon="2.04221">
        <ele>134.39999389648</ele>
        <time>2015-12-27T15:30:57.000Z</time>
      </trkpt>
      <trkpt lat="48.72992" lon="2.04213">
        <ele>134.80000305176</ele>
        <time>2015-12-27T15:31:01.000Z</time>
      </trkpt>
      <trkpt lat="48.72993" lon="2.04212">
        <ele>135</ele>
        <time>2015-12-27T15:31:02.000Z</time>
      </trkpt>
      <trkpt lat="48.73" lon="2.04201">
        <ele>136.19999694824</ele>
        <time>2015-12-27T15:31:09.000Z</time>
      </trkpt>
      <trkpt lat="48.73005" lon="2.04182">
        <ele>136.19999694824</ele>
        <time>2015-12-27T15:31:17.000Z</time>
      </trkpt>
      <trkpt lat="48.7301" lon="2.04168">
        <ele>136.39999389648</ele>
        <time>2015-12-27T15:31:24.000Z</time>
      </trkpt>
      <trkpt lat="48.73016" lon="2.04149">
        <ele>137.39999389648</ele>
        <time>2015-12-27T15:31:33.000Z</time>
      </trkpt>
      <trkpt lat="48.73019" lon="2.04136">
        <ele>138</ele>
        <time>2015-12-27T15:31:39.000Z</time>
      </trkpt>
      <trkpt lat="48.73022" lon="2.04124">
        <ele>138.39999389648</ele>
        <time>2015-12-27T15:31:45.000Z</time>
      </trkpt>
      <trkpt lat="48.73025" lon="2.0411">
        <ele>139</ele>
        <time>2015-12-27T15:31:51.000Z</time>
      </trkpt>
      <trkpt lat="48.73026" lon="2.04106">
        <ele>139.19999694824</ele>
        <time>2015-12-27T15:31:53.000Z</time>
      </trkpt>
      <trkpt lat="48.73027" lon="2.04086">
        <ele>139.19999694824</ele>
        <time>2015-12-27T15:32:01.000Z</time>
      </trkpt>
      <trkpt lat="48.73028" lon="2.04069">
        <ele>138.39999389648</ele>
        <time>2015-12-27T15:32:08.000Z</time>
      </trkpt>
      <trkpt lat="48.7303" lon="2.04051">
        <ele>137.60000610352</ele>
        <time>2015-12-27T15:32:16.000Z</time>
      </trkpt>
      <trkpt lat="48.73031" lon="2.04039">
        <ele>137.19999694824</ele>
        <time>2015-12-27T15:32:21.000Z</time>
      </trkpt>
      <trkpt lat="48.73033" lon="2.04032">
        <ele>137.19999694824</ele>
        <time>2015-12-27T15:32:24.000Z</time>
      </trkpt>
      <trkpt lat="48.73039" lon="2.04014">
        <ele>137.39999389648</ele>
        <time>2015-12-27T15:32:33.000Z</time>
      </trkpt>
      <trkpt lat="48.73045" lon="2.04001">
        <ele>138.39999389648</ele>
        <time>2015-12-27T15:32:40.000Z</time>
      </trkpt>
      <trkpt lat="48.73052" lon="2.03987">
        <ele>139.80000305176</ele>
        <time>2015-12-27T15:32:48.000Z</time>
      </trkpt>
      <trkpt lat="48.73062" lon="2.03968">
        <ele>141.80000305176</ele>
        <time>2015-12-27T15:32:59.000Z</time>
      </trkpt>
      <trkpt lat="48.73068" lon="2.03953">
        <ele>143</ele>
        <time>2015-12-27T15:33:07.000Z</time>
      </trkpt>
      <trkpt lat="48.73073" lon="2.03933">
        <ele>144.19999694824</ele>
        <time>2015-12-27T15:33:15.000Z</time>
      </trkpt>
      <trkpt lat="48.73076" lon="2.03909">
        <ele>145.19999694824</ele>
        <time>2015-12-27T15:33:25.000Z</time>
      </trkpt>
      <trkpt lat="48.7308" lon="2.03897">
        <ele>145.80000305176</ele>
        <time>2015-12-27T15:33:31.000Z</time>
      </trkpt>
      <trkpt lat="48.7308" lon="2.03896">
        <ele>145.80000305176</ele>
        <time>2015-12-27T15:33:32.000Z</time>
      </trkpt>
      <trkpt lat="48.73081" lon="2.03893">
        <ele>145.80000305176</ele>
        <time>2015-12-27T15:33:33.000Z</time>
      </trkpt>
      <trkpt lat="48.73085" lon="2.03884">
        <ele>146.60000610352</ele>
        <time>2015-12-27T15:33:38.000Z</time>
      </trkpt>
      <trkpt lat="48.73088" lon="2.03876">
        <ele>147.39999389648</ele>
        <time>2015-12-27T15:33:43.000Z</time>
      </trkpt>
      <trkpt lat="48.73089" lon="2.03872">
        <ele>147.80000305176</ele>
        <time>2015-12-27T15:33:45.000Z</time>
      </trkpt>
      <trkpt lat="48.73098" lon="2.03853">
        <ele>150</ele>
        <time>2015-12-27T15:33:55.000Z</time>
      </trkpt>
      <trkpt lat="48.73107" lon="2.03839">
        <ele>151.60000610352</ele>
        <time>2015-12-27T15:34:03.000Z</time>
      </trkpt>
      <trkpt lat="48.73114" lon="2.03832">
        <ele>152</ele>
        <time>2015-12-27T15:34:09.000Z</time>
      </trkpt>
      <trkpt lat="48.73114" lon="2.03832">
        <ele>152.19999694824</ele>
        <time>2015-12-27T15:34:10.000Z</time>
      </trkpt>
      <trkpt lat="48.73114" lon="2.03833">
        <ele>152.19999694824</ele>
        <time>2015-12-27T15:34:11.000Z</time>
      </trkpt>
      <trkpt lat="48.73119" lon="2.03855">
        <ele>153.19999694824</ele>
        <time>2015-12-27T15:34:25.000Z</time>
      </trkpt>
      <trkpt lat="48.73121" lon="2.03861">
        <ele>153.60000610352</ele>
        <time>2015-12-27T15:34:28.000Z</time>
      </trkpt>
      <trkpt lat="48.73122" lon="2.03863">
        <ele>153.60000610352</ele>
        <time>2015-12-27T15:34:29.000Z</time>
      </trkpt>
      <trkpt lat="48.73124" lon="2.03868">
        <ele>154</ele>
        <time>2015-12-27T15:34:32.000Z</time>
      </trkpt>
      <trkpt lat="48.73125" lon="2.03872">
        <ele>154.19999694824</ele>
        <time>2015-12-27T15:34:34.000Z</time>
      </trkpt>
      <trkpt lat="48.73128" lon="2.0388">
        <ele>154.60000610352</ele>
        <time>2015-12-27T15:34:38.000Z</time>
      </trkpt>
      <trkpt lat="48.73132" lon="2.03897">
        <ele>155.60000610352</ele>
        <time>2015-12-27T15:34:46.000Z</time>
      </trkpt>
      <trkpt lat="48.73133" lon="2.03912">
        <ele>156.19999694824</ele>
        <time>2015-12-27T15:34:53.000Z</time>
      </trkpt>
      <trkpt lat="48.73134" lon="2.03927">
        <ele>156.39999389648</ele>
        <time>2015-12-27T15:35:00.000Z</time>
      </trkpt>
      <trkpt lat="48.73132" lon="2.03937">
        <ele>156.39999389648</ele>
        <time>2015-12-27T15:35:04.000Z</time>
      </trkpt>
      <trkpt lat="48.73132" lon="2.03941">
        <ele>156.39999389648</ele>
        <time>2015-12-27T15:35:06.000Z</time>
      </trkpt>
      <trkpt lat="48.73132" lon="2.0395">
        <ele>156.39999389648</ele>
        <time>2015-12-27T15:35:10.000Z</time>
      </trkpt>
      <trkpt lat="48.73131" lon="2.03968">
        <ele>156.60000610352</ele>
        <time>2015-12-27T15:35:18.000Z</time>
      </trkpt>
      <trkpt lat="48.7313" lon="2.03985">
        <ele>156.80000305176</ele>
        <time>2015-12-27T15:35:26.000Z</time>
      </trkpt>
      <trkpt lat="48.73131" lon="2.04001">
        <ele>157</ele>
        <time>2015-12-27T15:35:34.000Z</time>
      </trkpt>
      <trkpt lat="48.73132" lon="2.04014">
        <ele>157.19999694824</ele>
        <time>2015-12-27T15:35:40.000Z</time>
      </trkpt>
      <trkpt lat="48.73134" lon="2.04021">
        <ele>157.60000610352</ele>
        <time>2015-12-27T15:35:44.000Z</time>
      </trkpt>
      <trkpt lat="48.73134" lon="2.04026">
        <ele>157.60000610352</ele>
        <time>2015-12-27T15:35:46.000Z</time>
      </trkpt>
      <trkpt lat="48.73136" lon="2.0404">
        <ele>158.39999389648</ele>
        <time>2015-12-27T15:35:53.000Z</time>
      </trkpt>
      <trkpt lat="48.7314" lon="2.04053">
        <ele>159.19999694824</ele>
        <time>2015-12-27T15:36:00.000Z</time>
      </trkpt>
      <trkpt lat="48.7314" lon="2.04055">
        <ele>159.39999389648</ele>
        <time>2015-12-27T15:36:01.000Z</time>
      </trkpt>
      <trkpt lat="48.73145" lon="2.04071">
        <ele>160.19999694824</ele>
        <time>2015-12-27T15:36:09.000Z</time>
      </trkpt>
      <trkpt lat="48.73148" lon="2.04084">
        <ele>160.60000610352</ele>
        <time>2015-12-27T15:36:15.000Z</time>
      </trkpt>
      <trkpt lat="48.73149" lon="2.04086">
        <ele>160.80000305176</ele>
        <time>2015-12-27T15:36:16.000Z</time>
      </trkpt>
      <trkpt lat="48.7315" lon="2.0409">
        <ele>160.80000305176</ele>
        <time>2015-12-27T15:36:18.000Z</time>
      </trkpt>
      <trkpt lat="48.73152" lon="2.04096">
        <ele>161</ele>
        <time>2015-12-27T15:36:21.000Z</time>
      </trkpt>
      <trkpt lat="48.73152" lon="2.04098">
        <ele>161</ele>
        <time>2015-12-27T15:36:22.000Z</time>
      </trkpt>
      <trkpt lat="48.73154" lon="2.04111">
        <ele>161.19999694824</ele>
        <time>2015-12-27T15:36:28.000Z</time>
      </trkpt>
      <trkpt lat="48.73154" lon="2.04113">
        <ele>161.19999694824</ele>
        <time>2015-12-27T15:36:29.000Z</time>
      </trkpt>
      <trkpt lat="48.73156" lon="2.04115">
        <ele>161.39999389648</ele>
        <time>2015-12-27T15:36:33.000Z</time>
      </trkpt>
      <trkpt lat="48.73156" lon="2.04124">
        <ele>161.39999389648</ele>
        <time>2015-12-27T15:36:41.000Z</time>
      </trkpt>
      <trkpt lat="48.73161" lon="2.04142">
        <ele>162.19999694824</ele>
        <time>2015-12-27T15:36:49.000Z</time>
      </trkpt>
      <trkpt lat="48.73162" lon="2.04146">
        <ele>162.60000610352</ele>
        <time>2015-12-27T15:36:51.000Z</time>
      </trkpt>
      <trkpt lat="48.73165" lon="2.04152">
        <ele>162.80000305176</ele>
        <time>2015-12-27T15:36:54.000Z</time>
      </trkpt>
      <trkpt lat="48.73165" lon="2.04154">
        <ele>163</ele>
        <time>2015-12-27T15:36:55.000Z</time>
      </trkpt>
      <trkpt lat="48.7317" lon="2.04166">
        <ele>163.19999694824</ele>
        <time>2015-12-27T15:37:02.000Z</time>
      </trkpt>
      <trkpt lat="48.7317" lon="2.04168">
        <ele>163.39999389648</ele>
        <time>2015-12-27T15:37:03.000Z</time>
      </trkpt>
      <trkpt lat="48.73171" lon="2.04174">
        <ele>163.39999389648</ele>
        <time>2015-12-27T15:37:07.000Z</time>
      </trkpt>
      <trkpt lat="48.73173" lon="2.04174">
        <ele>163.39999389648</ele>
        <time>2015-12-27T15:37:08.000Z</time>
      </trkpt>
      <trkpt lat="48.73175" lon="2.0418">
        <ele>163.39999389648</ele>
        <time>2015-12-27T15:37:12.000Z</time>
      </trkpt>
      <trkpt lat="48.73176" lon="2.04186">
        <ele>163.39999389648</ele>
        <time>2015-12-27T15:37:18.000Z</time>
      </trkpt>
      <trkpt lat="48.73177" lon="2.04188">
        <ele>163.39999389648</ele>
        <time>2015-12-27T15:37:23.000Z</time>
      </trkpt>
      <trkpt lat="48.73175" lon="2.04214">
        <ele>163.80000305176</ele>
        <time>2015-12-27T15:38:19.000Z</time>
      </trkpt>
      <trkpt lat="48.73177" lon="2.0422">
        <ele>163.80000305176</ele>
        <time>2015-12-27T15:38:22.000Z</time>
      </trkpt>
      <trkpt lat="48.73178" lon="2.04222">
        <ele>163.80000305176</ele>
        <time>2015-12-27T15:38:23.000Z</time>
      </trkpt>
      <trkpt lat="48.73179" lon="2.04227">
        <ele>164</ele>
        <time>2015-12-27T15:38:27.000Z</time>
      </trkpt>
      <trkpt lat="48.73179" lon="2.04227">
        <ele>164</ele>
        <time>2015-12-27T15:38:28.000Z</time>
      </trkpt>
      <trkpt lat="48.73184" lon="2.04235">
        <ele>164</ele>
        <time>2015-12-27T15:38:35.000Z</time>
      </trkpt>
      <trkpt lat="48.73185" lon="2.04238">
        <ele>164</ele>
        <time>2015-12-27T15:38:37.000Z</time>
      </trkpt>
      <trkpt lat="48.73192" lon="2.0425">
        <ele>163.80000305176</ele>
        <time>2015-12-27T15:38:45.000Z</time>
      </trkpt>
      <trkpt lat="48.73196" lon="2.04261">
        <ele>164</ele>
        <time>2015-12-27T15:38:51.000Z</time>
      </trkpt>
      <trkpt lat="48.73197" lon="2.04264">
        <ele>164</ele>
        <time>2015-12-27T15:38:53.000Z</time>
      </trkpt>
      <trkpt lat="48.73198" lon="2.04265">
        <ele>164</ele>
        <time>2015-12-27T15:38:54.000Z</time>
      </trkpt>
      <trkpt lat="48.73201" lon="2.04272">
        <ele>163.80000305176</ele>
        <time>2015-12-27T15:38:58.000Z</time>
      </trkpt>
      <trkpt lat="48.73202" lon="2.04275">
        <ele>164</ele>
        <time>2015-12-27T15:39:00.000Z</time>
      </trkpt>
      <trkpt lat="48.73203" lon="2.04281">
        <ele>164</ele>
        <time>2015-12-27T15:39:03.000Z</time>
      </trkpt>
      <trkpt lat="48.73204" lon="2.04283">
        <ele>164</ele>
        <time>2015-12-27T15:39:04.000Z</time>
      </trkpt>
      <trkpt lat="48.73205" lon="2.04289">
        <ele>164.19999694824</ele>
        <time>2015-12-27T15:39:07.000Z</time>
      </trkpt>
      <trkpt lat="48.73206" lon="2.04293">
        <ele>164.19999694824</ele>
        <time>2015-12-27T15:39:09.000Z</time>
      </trkpt>
      <trkpt lat="48.73207" lon="2.04302">
        <ele>164.39999389648</ele>
        <time>2015-12-27T15:39:13.000Z</time>
      </trkpt>
      <trkpt lat="48.73209" lon="2.04306">
        <ele>164.39999389648</ele>
        <time>2015-12-27T15:39:15.000Z</time>
      </trkpt>
      <trkpt lat="48.73214" lon="2.04317">
        <ele>164.39999389648</ele>
        <time>2015-12-27T15:39:21.000Z</time>
      </trkpt>
      <trkpt lat="48.73214" lon="2.04319">
        <ele>164.60000610352</ele>
        <time>2015-12-27T15:39:22.000Z</time>
      </trkpt>
      <trkpt lat="48.73215" lon="2.04321">
        <ele>164.39999389648</ele>
        <time>2015-12-27T15:39:24.000Z</time>
      </trkpt>
      <trkpt lat="48.73217" lon="2.04327">
        <ele>164.39999389648</ele>
        <time>2015-12-27T15:39:27.000Z</time>
      </trkpt>
      <trkpt lat="48.73221" lon="2.04336">
        <ele>164.19999694824</ele>
        <time>2015-12-27T15:39:31.000Z</time>
      </trkpt>
      <trkpt lat="48.73223" lon="2.0434">
        <ele>164.19999694824</ele>
        <time>2015-12-27T15:39:33.000Z</time>
      </trkpt>
      <trkpt lat="48.73225" lon="2.04345">
        <ele>164</ele>
        <time>2015-12-27T15:39:36.000Z</time>
      </trkpt>
      <trkpt lat="48.73227" lon="2.04349">
        <ele>164</ele>
        <time>2015-12-27T15:39:38.000Z</time>
      </trkpt>
      <trkpt lat="48.73228" lon="2.04351">
        <ele>163.80000305176</ele>
        <time>2015-12-27T15:39:39.000Z</time>
      </trkpt>
      <trkpt lat="48.73229" lon="2.04354">
        <ele>163.80000305176</ele>
        <time>2015-12-27T15:39:41.000Z</time>
      </trkpt>
      <trkpt lat="48.7323" lon="2.04356">
        <ele>163.80000305176</ele>
        <time>2015-12-27T15:39:43.000Z</time>
      </trkpt>
      <trkpt lat="48.73231" lon="2.0436">
        <ele>163.80000305176</ele>
        <time>2015-12-27T15:39:45.000Z</time>
      </trkpt>
      <trkpt lat="48.73232" lon="2.04364">
        <ele>163.80000305176</ele>
        <time>2015-12-27T15:39:47.000Z</time>
      </trkpt>
      <trkpt lat="48.73232" lon="2.04365">
        <ele>163.80000305176</ele>
        <time>2015-12-27T15:39:48.000Z</time>
      </trkpt>
      <trkpt lat="48.73234" lon="2.04369">
        <ele>163.60000610352</ele>
        <time>2015-12-27T15:39:51.000Z</time>
      </trkpt>
      <trkpt lat="48.7324" lon="2.04379">
        <ele>163.19999694824</ele>
        <time>2015-12-27T15:39:58.000Z</time>
      </trkpt>
      <trkpt lat="48.7324" lon="2.04381">
        <ele>163.19999694824</ele>
        <time>2015-12-27T15:39:59.000Z</time>
      </trkpt>
      <trkpt lat="48.73243" lon="2.04388">
        <ele>163</ele>
        <time>2015-12-27T15:40:03.000Z</time>
      </trkpt>
      <trkpt lat="48.7325" lon="2.04402">
        <ele>162.39999389648</ele>
        <time>2015-12-27T15:40:10.000Z</time>
      </trkpt>
      <trkpt lat="48.73255" lon="2.04412">
        <ele>162</ele>
        <time>2015-12-27T15:40:16.000Z</time>
      </trkpt>
      <trkpt lat="48.73259" lon="2.04427">
        <ele>162.19999694824</ele>
        <time>2015-12-27T15:40:24.000Z</time>
      </trkpt>
      <trkpt lat="48.73263" lon="2.04434">
        <ele>162</ele>
        <time>2015-12-27T15:40:29.000Z</time>
      </trkpt>
      <trkpt lat="48.73263" lon="2.04436">
        <ele>162</ele>
        <time>2015-12-27T15:40:30.000Z</time>
      </trkpt>
      <trkpt lat="48.73267" lon="2.04449">
        <ele>162.19999694824</ele>
        <time>2015-12-27T15:40:37.000Z</time>
      </trkpt>
      <trkpt lat="48.7327" lon="2.04461">
        <ele>162.19999694824</ele>
        <time>2015-12-27T15:40:44.000Z</time>
      </trkpt>
      <trkpt lat="48.73274" lon="2.04471">
        <ele>162.60000610352</ele>
        <time>2015-12-27T15:40:50.000Z</time>
      </trkpt>
      <trkpt lat="48.73278" lon="2.04483">
        <ele>162.80000305176</ele>
        <time>2015-12-27T15:40:56.000Z</time>
      </trkpt>
      <trkpt lat="48.73284" lon="2.04496">
        <ele>163.39999389648</ele>
        <time>2015-12-27T15:41:04.000Z</time>
      </trkpt>
      <trkpt lat="48.73289" lon="2.04501">
        <ele>163.80000305176</ele>
        <time>2015-12-27T15:41:08.000Z</time>
      </trkpt>
      <trkpt lat="48.73293" lon="2.045">
        <ele>163.80000305176</ele>
        <time>2015-12-27T15:41:11.000Z</time>
      </trkpt>
      <trkpt lat="48.733" lon="2.04495">
        <ele>163.60000610352</ele>
        <time>2015-12-27T15:41:18.000Z</time>
      </trkpt>
      <trkpt lat="48.73307" lon="2.04491">
        <ele>163.39999389648</ele>
        <time>2015-12-27T15:41:25.000Z</time>
      </trkpt>
      <trkpt lat="48.73314" lon="2.04492">
        <ele>163.60000610352</ele>
        <time>2015-12-27T15:41:32.000Z</time>
      </trkpt>
      <trkpt lat="48.73318" lon="2.04493">
        <ele>163.60000610352</ele>
        <time>2015-12-27T15:41:35.000Z</time>
      </trkpt>
      <trkpt lat="48.7332" lon="2.04492">
        <ele>163.60000610352</ele>
        <time>2015-12-27T15:41:38.000Z</time>
      </trkpt>
      <trkpt lat="48.73329" lon="2.0452">
        <ele>165.60000610352</ele>
        <time>2015-12-27T15:42:00.000Z</time>
      </trkpt>
      <trkpt lat="48.73332" lon="2.04525">
        <ele>166</ele>
        <time>2015-12-27T15:42:03.000Z</time>
      </trkpt>
      <trkpt lat="48.73334" lon="2.0453">
        <ele>166.39999389648</ele>
        <time>2015-12-27T15:42:06.000Z</time>
      </trkpt>
      <trkpt lat="48.73335" lon="2.04532">
        <ele>166.60000610352</ele>
        <time>2015-12-27T15:42:07.000Z</time>
      </trkpt>
      <trkpt lat="48.73339" lon="2.0454">
        <ele>167.19999694824</ele>
        <time>2015-12-27T15:42:13.000Z</time>
      </trkpt>
      <trkpt lat="48.73341" lon="2.04544">
        <ele>167.60000610352</ele>
        <time>2015-12-27T15:42:15.000Z</time>
      </trkpt>
      <trkpt lat="48.73345" lon="2.04551">
        <ele>168</ele>
        <time>2015-12-27T15:42:19.000Z</time>
      </trkpt>
      <trkpt lat="48.73349" lon="2.04558">
        <ele>168.60000610352</ele>
        <time>2015-12-27T15:42:24.000Z</time>
      </trkpt>
      <trkpt lat="48.7335" lon="2.04561">
        <ele>168.80000305176</ele>
        <time>2015-12-27T15:42:26.000Z</time>
      </trkpt>
      <trkpt lat="48.73356" lon="2.04572">
        <ele>169.80000305176</ele>
        <time>2015-12-27T15:42:33.000Z</time>
      </trkpt>
      <trkpt lat="48.73357" lon="2.04575">
        <ele>170</ele>
        <time>2015-12-27T15:42:35.000Z</time>
      </trkpt>
      <trkpt lat="48.73358" lon="2.04581">
        <ele>170.19999694824</ele>
        <time>2015-12-27T15:42:38.000Z</time>
      </trkpt>
      <trkpt lat="48.7336" lon="2.04589">
        <ele>170.60000610352</ele>
        <time>2015-12-27T15:42:42.000Z</time>
      </trkpt>
      <trkpt lat="48.73362" lon="2.04593">
        <ele>170.80000305176</ele>
        <time>2015-12-27T15:42:44.000Z</time>
      </trkpt>
      <trkpt lat="48.73365" lon="2.04605">
        <ele>171.19999694824</ele>
        <time>2015-12-27T15:42:50.000Z</time>
      </trkpt>
      <trkpt lat="48.73365" lon="2.04608">
        <ele>171.39999389648</ele>
        <time>2015-12-27T15:42:52.000Z</time>
      </trkpt>
      <trkpt lat="48.73365" lon="2.04614">
        <ele>171.60000610352</ele>
        <time>2015-12-27T15:42:55.000Z</time>
      </trkpt>
      <trkpt lat="48.73366" lon="2.04619">
        <ele>171.80000305176</ele>
        <time>2015-12-27T15:42:58.000Z</time>
      </trkpt>
      <trkpt lat="48.73366" lon="2.04626">
        <ele>172</ele>
        <time>2015-12-27T15:43:01.000Z</time>
      </trkpt>
      <trkpt lat="48.73367" lon="2.04631">
        <ele>172.19999694824</ele>
        <time>2015-12-27T15:43:03.000Z</time>
      </trkpt>
      <trkpt lat="48.73367" lon="2.04638">
        <ele>172.39999389648</ele>
        <time>2015-12-27T15:43:07.000Z</time>
      </trkpt>
      <trkpt lat="48.7337" lon="2.04651">
        <ele>173</ele>
        <time>2015-12-27T15:43:13.000Z</time>
      </trkpt>
      <trkpt lat="48.73372" lon="2.04663">
        <ele>173</ele>
        <time>2015-12-27T15:43:19.000Z</time>
      </trkpt>
      <trkpt lat="48.73372" lon="2.04668">
        <ele>173</ele>
        <time>2015-12-27T15:43:21.000Z</time>
      </trkpt>
      <trkpt lat="48.73374" lon="2.04674">
        <ele>172.80000305176</ele>
        <time>2015-12-27T15:43:24.000Z</time>
      </trkpt>
      <trkpt lat="48.73374" lon="2.04682">
        <ele>172.39999389648</ele>
        <time>2015-12-27T15:43:28.000Z</time>
      </trkpt>
      <trkpt lat="48.73376" lon="2.04688">
        <ele>172.19999694824</ele>
        <time>2015-12-27T15:43:31.000Z</time>
      </trkpt>
      <trkpt lat="48.73375" lon="2.04695">
        <ele>172</ele>
        <time>2015-12-27T15:43:34.000Z</time>
      </trkpt>
      <trkpt lat="48.73376" lon="2.04701">
        <ele>171.80000305176</ele>
        <time>2015-12-27T15:43:37.000Z</time>
      </trkpt>
      <trkpt lat="48.73376" lon="2.04707">
        <ele>171.60000610352</ele>
        <time>2015-12-27T15:43:40.000Z</time>
      </trkpt>
      <trkpt lat="48.73376" lon="2.04714">
        <ele>171.19999694824</ele>
        <time>2015-12-27T15:43:43.000Z</time>
      </trkpt>
      <trkpt lat="48.73377" lon="2.04723">
        <ele>171</ele>
        <time>2015-12-27T15:43:47.000Z</time>
      </trkpt>
      <trkpt lat="48.73377" lon="2.04735">
        <ele>170.60000610352</ele>
        <time>2015-12-27T15:43:52.000Z</time>
      </trkpt>
      <trkpt lat="48.73377" lon="2.04735">
        <ele>170.60000610352</ele>
        <time>2015-12-27T15:43:53.000Z</time>
      </trkpt>
      <trkpt lat="48.73378" lon="2.04736">
        <ele>170.60000610352</ele>
        <time>2015-12-27T15:43:55.000Z</time>
      </trkpt>
      <trkpt lat="48.73386" lon="2.04825">
        <ele>172.39999389648</ele>
        <time>2015-12-27T15:45:58.000Z</time>
      </trkpt>
      <trkpt lat="48.73386" lon="2.04829">
        <ele>172.39999389648</ele>
        <time>2015-12-27T15:46:00.000Z</time>
      </trkpt>
      <trkpt lat="48.73385" lon="2.04841">
        <ele>172.39999389648</ele>
        <time>2015-12-27T15:46:06.000Z</time>
      </trkpt>
      <trkpt lat="48.73385" lon="2.04843">
        <ele>172.39999389648</ele>
        <time>2015-12-27T15:46:07.000Z</time>
      </trkpt>
      <trkpt lat="48.73385" lon="2.04847">
        <ele>172.39999389648</ele>
        <time>2015-12-27T15:46:10.000Z</time>
      </trkpt>
      <trkpt lat="48.73385" lon="2.04852">
        <ele>172.39999389648</ele>
        <time>2015-12-27T15:46:13.000Z</time>
      </trkpt>
      <trkpt lat="48.73386" lon="2.04862">
        <ele>172.39999389648</ele>
        <time>2015-12-27T15:46:17.000Z</time>
      </trkpt>
      <trkpt lat="48.73385" lon="2.04864">
        <ele>172.60000610352</ele>
        <time>2015-12-27T15:46:18.000Z</time>
      </trkpt>
      <trkpt lat="48.73385" lon="2.04877">
        <ele>172.80000305176</ele>
        <time>2015-12-27T15:46:25.000Z</time>
      </trkpt>
      <trkpt lat="48.73386" lon="2.04884">
        <ele>173</ele>
        <time>2015-12-27T15:46:29.000Z</time>
      </trkpt>
      <trkpt lat="48.73387" lon="2.04885">
        <ele>173</ele>
        <time>2015-12-27T15:46:30.000Z</time>
      </trkpt>
      <trkpt lat="48.73386" lon="2.04886">
        <ele>173</ele>
        <time>2015-12-27T15:46:31.000Z</time>
      </trkpt>
      <trkpt lat="48.73386" lon="2.0489">
        <ele>173.19999694824</ele>
        <time>2015-12-27T15:46:33.000Z</time>
      </trkpt>
      <trkpt lat="48.73387" lon="2.04894">
        <ele>173.19999694824</ele>
        <time>2015-12-27T15:46:35.000Z</time>
      </trkpt>
      <trkpt lat="48.73388" lon="2.04897">
        <ele>173.19999694824</ele>
        <time>2015-12-27T15:46:38.000Z</time>
      </trkpt>
      <trkpt lat="48.73388" lon="2.04899">
        <ele>173.39999389648</ele>
        <time>2015-12-27T15:46:39.000Z</time>
      </trkpt>
      <trkpt lat="48.73388" lon="2.049">
        <ele>173.39999389648</ele>
        <time>2015-12-27T15:46:40.000Z</time>
      </trkpt>
      <trkpt lat="48.7339" lon="2.04908">
        <ele>173.60000610352</ele>
        <time>2015-12-27T15:46:44.000Z</time>
      </trkpt>
      <trkpt lat="48.73391" lon="2.0491">
        <ele>173.60000610352</ele>
        <time>2015-12-27T15:46:45.000Z</time>
      </trkpt>
      <trkpt lat="48.73392" lon="2.04912">
        <ele>173.60000610352</ele>
        <time>2015-12-27T15:46:46.000Z</time>
      </trkpt>
      <trkpt lat="48.73393" lon="2.04917">
        <ele>173.80000305176</ele>
        <time>2015-12-27T15:46:49.000Z</time>
      </trkpt>
      <trkpt lat="48.73395" lon="2.04923">
        <ele>174</ele>
        <time>2015-12-27T15:46:54.000Z</time>
      </trkpt>
      <trkpt lat="48.73396" lon="2.04924">
        <ele>174</ele>
        <time>2015-12-27T15:46:55.000Z</time>
      </trkpt>
      <trkpt lat="48.73396" lon="2.04925">
        <ele>174</ele>
        <time>2015-12-27T15:46:56.000Z</time>
      </trkpt>
      <trkpt lat="48.73399" lon="2.04931">
        <ele>174.19999694824</ele>
        <time>2015-12-27T15:47:00.000Z</time>
      </trkpt>
      <trkpt lat="48.73399" lon="2.04933">
        <ele>174.39999389648</ele>
        <time>2015-12-27T15:47:01.000Z</time>
      </trkpt>
      <trkpt lat="48.73401" lon="2.04937">
        <ele>174.39999389648</ele>
        <time>2015-12-27T15:47:04.000Z</time>
      </trkpt>
      <trkpt lat="48.73402" lon="2.04938">
        <ele>174.39999389648</ele>
        <time>2015-12-27T15:47:06.000Z</time>
      </trkpt>
      <trkpt lat="48.73403" lon="2.04943">
        <ele>174.60000610352</ele>
        <time>2015-12-27T15:47:09.000Z</time>
      </trkpt>
      <trkpt lat="48.73404" lon="2.0495">
        <ele>174.80000305176</ele>
        <time>2015-12-27T15:47:13.000Z</time>
      </trkpt>
      <trkpt lat="48.73406" lon="2.04953">
        <ele>175</ele>
        <time>2015-12-27T15:47:15.000Z</time>
      </trkpt>
      <trkpt lat="48.73408" lon="2.04956">
        <ele>175</ele>
        <time>2015-12-27T15:47:18.000Z</time>
      </trkpt>
      <trkpt lat="48.73411" lon="2.04961">
        <ele>175.19999694824</ele>
        <time>2015-12-27T15:47:22.000Z</time>
      </trkpt>
      <trkpt lat="48.73415" lon="2.04967">
        <ele>175.39999389648</ele>
        <time>2015-12-27T15:47:28.000Z</time>
      </trkpt>
      <trkpt lat="48.73416" lon="2.04969">
        <ele>175.39999389648</ele>
        <time>2015-12-27T15:47:30.000Z</time>
      </trkpt>
      <trkpt lat="48.7342" lon="2.04972">
        <ele>175.39999389648</ele>
        <time>2015-12-27T15:47:34.000Z</time>
      </trkpt>
      <trkpt lat="48.73422" lon="2.04974">
        <ele>175.60000610352</ele>
        <time>2015-12-27T15:47:36.000Z</time>
      </trkpt>
      <trkpt lat="48.73424" lon="2.04977">
        <ele>175.60000610352</ele>
        <time>2015-12-27T15:47:38.000Z</time>
      </trkpt>
      <trkpt lat="48.73428" lon="2.04985">
        <ele>175.80000305176</ele>
        <time>2015-12-27T15:47:43.000Z</time>
      </trkpt>
      <trkpt lat="48.73429" lon="2.04987">
        <ele>175.80000305176</ele>
        <time>2015-12-27T15:47:44.000Z</time>
      </trkpt>
      <trkpt lat="48.73433" lon="2.04994">
        <ele>176</ele>
        <time>2015-12-27T15:47:48.000Z</time>
      </trkpt>
      <trkpt lat="48.73434" lon="2.04995">
        <ele>176</ele>
        <time>2015-12-27T15:47:50.000Z</time>
      </trkpt>
      <trkpt lat="48.73439" lon="2.05003">
        <ele>176</ele>
        <time>2015-12-27T15:47:54.000Z</time>
      </trkpt>
      <trkpt lat="48.73441" lon="2.05004">
        <ele>175.80000305176</ele>
        <time>2015-12-27T15:47:55.000Z</time>
      </trkpt>
      <trkpt lat="48.73444" lon="2.05006">
        <ele>175.60000610352</ele>
        <time>2015-12-27T15:47:58.000Z</time>
      </trkpt>
      <trkpt lat="48.73445" lon="2.05007">
        <ele>175.39999389648</ele>
        <time>2015-12-27T15:48:00.000Z</time>
      </trkpt>
      <trkpt lat="48.73448" lon="2.05012">
        <ele>175.19999694824</ele>
        <time>2015-12-27T15:48:04.000Z</time>
      </trkpt>
      <trkpt lat="48.73449" lon="2.05014">
        <ele>175</ele>
        <time>2015-12-27T15:48:06.000Z</time>
      </trkpt>
      <trkpt lat="48.7345" lon="2.05016">
        <ele>175</ele>
        <time>2015-12-27T15:48:08.000Z</time>
      </trkpt>
      <trkpt lat="48.73454" lon="2.0502">
        <ele>174.80000305176</ele>
        <time>2015-12-27T15:48:11.000Z</time>
      </trkpt>
      <trkpt lat="48.73455" lon="2.05022">
        <ele>174.60000610352</ele>
        <time>2015-12-27T15:48:13.000Z</time>
      </trkpt>
      <trkpt lat="48.73459" lon="2.05026">
        <ele>174.39999389648</ele>
        <time>2015-12-27T15:48:16.000Z</time>
      </trkpt>
      <trkpt lat="48.73465" lon="2.05031">
        <ele>173.80000305176</ele>
        <time>2015-12-27T15:48:21.000Z</time>
      </trkpt>
      <trkpt lat="48.73471" lon="2.05038">
        <ele>173.39999389648</ele>
        <time>2015-12-27T15:48:26.000Z</time>
      </trkpt>
      <trkpt lat="48.73474" lon="2.05041">
        <ele>173</ele>
        <time>2015-12-27T15:48:29.000Z</time>
      </trkpt>
      <trkpt lat="48.73477" lon="2.05045">
        <ele>172.80000305176</ele>
        <time>2015-12-27T15:48:32.000Z</time>
      </trkpt>
      <trkpt lat="48.73483" lon="2.0505">
        <ele>172.19999694824</ele>
        <time>2015-12-27T15:48:37.000Z</time>
      </trkpt>
      <trkpt lat="48.73492" lon="2.0506">
        <ele>171.60000610352</ele>
        <time>2015-12-27T15:48:45.000Z</time>
      </trkpt>
      <trkpt lat="48.73501" lon="2.0507">
        <ele>170.80000305176</ele>
        <time>2015-12-27T15:48:54.000Z</time>
      </trkpt>
      <trkpt lat="48.73505" lon="2.05077">
        <ele>170.39999389648</ele>
        <time>2015-12-27T15:49:01.000Z</time>
      </trkpt>
      <trkpt lat="48.73517" lon="2.05098">
        <ele>169</ele>
        <time>2015-12-27T15:49:38.000Z</time>
      </trkpt>
      <trkpt lat="48.7352" lon="2.05102">
        <ele>168.80000305176</ele>
        <time>2015-12-27T15:49:41.000Z</time>
      </trkpt>
      <trkpt lat="48.73531" lon="2.05112">
        <ele>168.19999694824</ele>
        <time>2015-12-27T15:49:50.000Z</time>
      </trkpt>
      <trkpt lat="48.7354" lon="2.05123">
        <ele>167.80000305176</ele>
        <time>2015-12-27T15:49:59.000Z</time>
      </trkpt>
      <trkpt lat="48.7354" lon="2.05123">
        <ele>167.80000305176</ele>
        <time>2015-12-27T15:50:01.000Z</time>
      </trkpt>
      <trkpt lat="48.73607" lon="2.0521">
        <ele>165.60000610352</ele>
        <time>2015-12-27T15:52:51.000Z</time>
      </trkpt>
      <trkpt lat="48.73608" lon="2.05211">
        <ele>165.60000610352</ele>
        <time>2015-12-27T15:52:52.000Z</time>
      </trkpt>
      <trkpt lat="48.73617" lon="2.0522">
        <ele>165.39999389648</ele>
        <time>2015-12-27T15:53:00.000Z</time>
      </trkpt>
      <trkpt lat="48.73623" lon="2.05227">
        <ele>165.39999389648</ele>
        <time>2015-12-27T15:53:07.000Z</time>
      </trkpt>
      <trkpt lat="48.73623" lon="2.05227">
        <ele>165.39999389648</ele>
        <time>2015-12-27T15:53:08.000Z</time>
      </trkpt>
      <trkpt lat="48.73768" lon="2.05402">
        <ele>164</ele>
        <time>2015-12-27T15:56:43.000Z</time>
      </trkpt>
      <trkpt lat="48.73771" lon="2.05405">
        <ele>164</ele>
        <time>2015-12-27T15:56:46.000Z</time>
      </trkpt>
      <trkpt lat="48.73776" lon="2.0541">
        <ele>164</ele>
        <time>2015-12-27T15:56:52.000Z</time>
      </trkpt>
      <trkpt lat="48.73776" lon="2.05411">
        <ele>164</ele>
        <time>2015-12-27T15:56:53.000Z</time>
      </trkpt>
      <trkpt lat="48.7378" lon="2.05415">
        <ele>163.80000305176</ele>
        <time>2015-12-27T15:56:57.000Z</time>
      </trkpt>
      <trkpt lat="48.73781" lon="2.05416">
        <ele>163.80000305176</ele>
        <time>2015-12-27T15:56:58.000Z</time>
      </trkpt>
      <trkpt lat="48.73787" lon="2.05421">
        <ele>163.80000305176</ele>
        <time>2015-12-27T15:57:04.000Z</time>
      </trkpt>
      <trkpt lat="48.7379" lon="2.05425">
        <ele>163.80000305176</ele>
        <time>2015-12-27T15:57:08.000Z</time>
      </trkpt>
      <trkpt lat="48.73791" lon="2.05426">
        <ele>163.80000305176</ele>
        <time>2015-12-27T15:57:09.000Z</time>
      </trkpt>
      <trkpt lat="48.73796" lon="2.0543">
        <ele>163.80000305176</ele>
        <time>2015-12-27T15:57:14.000Z</time>
      </trkpt>
      <trkpt lat="48.73801" lon="2.05437">
        <ele>163.60000610352</ele>
        <time>2015-12-27T15:57:21.000Z</time>
      </trkpt>
      <trkpt lat="48.73804" lon="2.05441">
        <ele>163.60000610352</ele>
        <time>2015-12-27T15:57:25.000Z</time>
      </trkpt>
      <trkpt lat="48.73804" lon="2.05441">
        <ele>163.60000610352</ele>
        <time>2015-12-27T15:57:26.000Z</time>
      </trkpt>
      <trkpt lat="48.73879" lon="2.05538">
        <ele>163.60000610352</ele>
        <time>2015-12-27T15:59:20.000Z</time>
      </trkpt>
      <trkpt lat="48.73887" lon="2.05548">
        <ele>163.60000610352</ele>
        <time>2015-12-27T15:59:28.000Z</time>
      </trkpt>
      <trkpt lat="48.73896" lon="2.05558">
        <ele>163.80000305176</ele>
        <time>2015-12-27T15:59:37.000Z</time>
      </trkpt>
      <trkpt lat="48.73902" lon="2.05562">
        <ele>163.80000305176</ele>
        <time>2015-12-27T15:59:44.000Z</time>
      </trkpt>
      <trkpt lat="48.7393" lon="2.05598">
        <ele>163.80000305176</ele>
        <time>2015-12-27T16:00:45.000Z</time>
      </trkpt>
      <trkpt lat="48.73938" lon="2.05605">
        <ele>163.60000610352</ele>
        <time>2015-12-27T16:00:53.000Z</time>
      </trkpt>
      <trkpt lat="48.73949" lon="2.05614">
        <ele>163.39999389648</ele>
        <time>2015-12-27T16:01:03.000Z</time>
      </trkpt>
      <trkpt lat="48.73958" lon="2.05622">
        <ele>163.19999694824</ele>
        <time>2015-12-27T16:01:11.000Z</time>
      </trkpt>
      <trkpt lat="48.73969" lon="2.05629">
        <ele>163</ele>
        <time>2015-12-27T16:01:21.000Z</time>
      </trkpt>
      <trkpt lat="48.73981" lon="2.05637">
        <ele>162.80000305176</ele>
        <time>2015-12-27T16:01:31.000Z</time>
      </trkpt>
      <trkpt lat="48.73982" lon="2.05637">
        <ele>162.80000305176</ele>
        <time>2015-12-27T16:01:34.000Z</time>
      </trkpt>
      <trkpt lat="48.73993" lon="2.05647">
        <ele>162.39999389648</ele>
        <time>2015-12-27T16:01:48.000Z</time>
      </trkpt>
      <trkpt lat="48.73994" lon="2.05648">
        <ele>162.39999389648</ele>
        <time>2015-12-27T16:01:49.000Z</time>
      </trkpt>
      <trkpt lat="48.74008" lon="2.05656">
        <ele>162.19999694824</ele>
        <time>2015-12-27T16:02:00.000Z</time>
      </trkpt>
      <trkpt lat="48.74019" lon="2.05661">
        <ele>162</ele>
        <time>2015-12-27T16:02:09.000Z</time>
      </trkpt>
      <trkpt lat="48.74027" lon="2.05661">
        <ele>162</ele>
        <time>2015-12-27T16:02:16.000Z</time>
      </trkpt>
      <trkpt lat="48.74035" lon="2.05666">
        <ele>162</ele>
        <time>2015-12-27T16:02:23.000Z</time>
      </trkpt>
      <trkpt lat="48.74043" lon="2.05669">
        <ele>161.80000305176</ele>
        <time>2015-12-27T16:02:29.000Z</time>
      </trkpt>
      <trkpt lat="48.74053" lon="2.05677">
        <ele>161.80000305176</ele>
        <time>2015-12-27T16:02:38.000Z</time>
      </trkpt>
      <trkpt lat="48.74064" lon="2.05686">
        <ele>161.60000610352</ele>
        <time>2015-12-27T16:02:48.000Z</time>
      </trkpt>
      <trkpt lat="48.74073" lon="2.05693">
        <ele>161.60000610352</ele>
        <time>2015-12-27T16:02:56.000Z</time>
      </trkpt>
      <trkpt lat="48.74079" lon="2.05698">
        <ele>161.60000610352</ele>
        <time>2015-12-27T16:03:01.000Z</time>
      </trkpt>
      <trkpt lat="48.74081" lon="2.057">
        <ele>161.60000610352</ele>
        <time>2015-12-27T16:03:03.000Z</time>
      </trkpt>
      <trkpt lat="48.74093" lon="2.0571">
        <ele>161.39999389648</ele>
        <time>2015-12-27T16:03:14.000Z</time>
      </trkpt>
      <trkpt lat="48.74092" lon="2.05711">
        <ele>161.39999389648</ele>
        <time>2015-12-27T16:03:15.000Z</time>
      </trkpt>
      <trkpt lat="48.74094" lon="2.05712">
        <ele>161.39999389648</ele>
        <time>2015-12-27T16:03:18.000Z</time>
      </trkpt>
      <trkpt lat="48.74096" lon="2.05713">
        <ele>161.39999389648</ele>
        <time>2015-12-27T16:03:21.000Z</time>
      </trkpt>
      <trkpt lat="48.741" lon="2.05717">
        <ele>161.39999389648</ele>
        <time>2015-12-27T16:03:25.000Z</time>
      </trkpt>
      <trkpt lat="48.74109" lon="2.05726">
        <ele>161.19999694824</ele>
        <time>2015-12-27T16:03:34.000Z</time>
      </trkpt>
      <trkpt lat="48.7412" lon="2.05738">
        <ele>160.80000305176</ele>
        <time>2015-12-27T16:03:45.000Z</time>
      </trkpt>
      <trkpt lat="48.74129" lon="2.05748">
        <ele>160.60000610352</ele>
        <time>2015-12-27T16:03:54.000Z</time>
      </trkpt>
      <trkpt lat="48.74136" lon="2.05755">
        <ele>160.60000610352</ele>
        <time>2015-12-27T16:04:02.000Z</time>
      </trkpt>
      <trkpt lat="48.74137" lon="2.05755">
        <ele>160.60000610352</ele>
        <time>2015-12-27T16:04:03.000Z</time>
      </trkpt>
      <trkpt lat="48.74137" lon="2.05755">
        <ele>160.60000610352</ele>
        <time>2015-12-27T16:04:04.000Z</time>
      </trkpt>
      <trkpt lat="48.74152" lon="2.05767">
        <ele>160.39999389648</ele>
        <time>2015-12-27T16:04:50.000Z</time>
      </trkpt>
      <trkpt lat="48.74154" lon="2.0577">
        <ele>160.39999389648</ele>
        <time>2015-12-27T16:04:51.000Z</time>
      </trkpt>
      <trkpt lat="48.74156" lon="2.05773">
        <ele>160.39999389648</ele>
        <time>2015-12-27T16:04:53.000Z</time>
      </trkpt>
      <trkpt lat="48.74157" lon="2.05775">
        <ele>160.39999389648</ele>
        <time>2015-12-27T16:04:54.000Z</time>
      </trkpt>
      <trkpt lat="48.74158" lon="2.05776">
        <ele>160.39999389648</ele>
        <time>2015-12-27T16:04:56.000Z</time>
      </trkpt>
      <trkpt lat="48.74159" lon="2.05778">
        <ele>160.39999389648</ele>
        <time>2015-12-27T16:04:58.000Z</time>
      </trkpt>
      <trkpt lat="48.74161" lon="2.05781">
        <ele>160.39999389648</ele>
        <time>2015-12-27T16:05:00.000Z</time>
      </trkpt>
      <trkpt lat="48.74166" lon="2.05787">
        <ele>160.19999694824</ele>
        <time>2015-12-27T16:05:05.000Z</time>
      </trkpt>
      <trkpt lat="48.74171" lon="2.05794">
        <ele>160.19999694824</ele>
        <time>2015-12-27T16:05:11.000Z</time>
      </trkpt>
      <trkpt lat="48.74173" lon="2.05796">
        <ele>160.19999694824</ele>
        <time>2015-12-27T16:05:13.000Z</time>
      </trkpt>
      <trkpt lat="48.74176" lon="2.058">
        <ele>160.19999694824</ele>
        <time>2015-12-27T16:05:16.000Z</time>
      </trkpt>
      <trkpt lat="48.74182" lon="2.0581">
        <ele>160</ele>
        <time>2015-12-27T16:05:23.000Z</time>
      </trkpt>
      <trkpt lat="48.74187" lon="2.05818">
        <ele>160</ele>
        <time>2015-12-27T16:05:29.000Z</time>
      </trkpt>
      <trkpt lat="48.7419" lon="2.05823">
        <ele>159.80000305176</ele>
        <time>2015-12-27T16:05:34.000Z</time>
      </trkpt>
      <trkpt lat="48.74195" lon="2.05831">
        <ele>159.80000305176</ele>
        <time>2015-12-27T16:05:40.000Z</time>
      </trkpt>
      <trkpt lat="48.74198" lon="2.05834">
        <ele>159.60000610352</ele>
        <time>2015-12-27T16:05:44.000Z</time>
      </trkpt>
      <trkpt lat="48.74199" lon="2.05836">
        <ele>159.60000610352</ele>
        <time>2015-12-27T16:05:47.000Z</time>
      </trkpt>
      <trkpt lat="48.74233" lon="2.05885">
        <ele>158</ele>
        <time>2015-12-27T16:06:44.000Z</time>
      </trkpt>
      <trkpt lat="48.74234" lon="2.05886">
        <ele>158</ele>
        <time>2015-12-27T16:06:45.000Z</time>
      </trkpt>
      <trkpt lat="48.74238" lon="2.05893">
        <ele>157.80000305176</ele>
        <time>2015-12-27T16:06:50.000Z</time>
      </trkpt>
      <trkpt lat="48.74244" lon="2.05896">
        <ele>157.60000610352</ele>
        <time>2015-12-27T16:06:55.000Z</time>
      </trkpt>
      <trkpt lat="48.74244" lon="2.05896">
        <ele>157.60000610352</ele>
        <time>2015-12-27T16:06:56.000Z</time>
      </trkpt>
      <trkpt lat="48.74247" lon="2.059">
        <ele>157.60000610352</ele>
        <time>2015-12-27T16:07:00.000Z</time>
      </trkpt>
      <trkpt lat="48.74251" lon="2.05906">
        <ele>157.39999389648</ele>
        <time>2015-12-27T16:07:05.000Z</time>
      </trkpt>
      <trkpt lat="48.74261" lon="2.05915">
        <ele>157.19999694824</ele>
        <time>2015-12-27T16:07:13.000Z</time>
      </trkpt>
      <trkpt lat="48.74269" lon="2.05922">
        <ele>157</ele>
        <time>2015-12-27T16:07:20.000Z</time>
      </trkpt>
      <trkpt lat="48.74275" lon="2.05928">
        <ele>157</ele>
        <time>2015-12-27T16:07:24.000Z</time>
      </trkpt>
      <trkpt lat="48.74276" lon="2.0593">
        <ele>157</ele>
        <time>2015-12-27T16:07:26.000Z</time>
      </trkpt>
      <trkpt lat="48.74283" lon="2.05937">
        <ele>156.80000305176</ele>
        <time>2015-12-27T16:07:31.000Z</time>
      </trkpt>
      <trkpt lat="48.74284" lon="2.05938">
        <ele>156.80000305176</ele>
        <time>2015-12-27T16:07:32.000Z</time>
      </trkpt>
      <trkpt lat="48.7429" lon="2.05945">
        <ele>156.80000305176</ele>
        <time>2015-12-27T16:07:38.000Z</time>
      </trkpt>
      <trkpt lat="48.74295" lon="2.05953">
        <ele>156.80000305176</ele>
        <time>2015-12-27T16:07:43.000Z</time>
      </trkpt>
      <trkpt lat="48.74304" lon="2.05962">
        <ele>156.60000610352</ele>
        <time>2015-12-27T16:07:50.000Z</time>
      </trkpt>
      <trkpt lat="48.74308" lon="2.05968">
        <ele>156.60000610352</ele>
        <time>2015-12-27T16:07:54.000Z</time>
      </trkpt>
      <trkpt lat="48.74309" lon="2.0597">
        <ele>156.60000610352</ele>
        <time>2015-12-27T16:07:56.000Z</time>
      </trkpt>
      <trkpt lat="48.74314" lon="2.05978">
        <ele>156.39999389648</ele>
        <time>2015-12-27T16:08:01.000Z</time>
      </trkpt>
      <trkpt lat="48.74316" lon="2.0598">
        <ele>156.39999389648</ele>
        <time>2015-12-27T16:08:03.000Z</time>
      </trkpt>
      <trkpt lat="48.74319" lon="2.05984">
        <ele>156.39999389648</ele>
        <time>2015-12-27T16:08:06.000Z</time>
      </trkpt>
      <trkpt lat="48.7432" lon="2.05988">
        <ele>156.39999389648</ele>
        <time>2015-12-27T16:08:08.000Z</time>
      </trkpt>
      <trkpt lat="48.74321" lon="2.0599">
        <ele>156.39999389648</ele>
        <time>2015-12-27T16:08:09.000Z</time>
      </trkpt>
      <trkpt lat="48.74323" lon="2.05994">
        <ele>156.39999389648</ele>
        <time>2015-12-27T16:08:12.000Z</time>
      </trkpt>
      <trkpt lat="48.74325" lon="2.05998">
        <ele>156.39999389648</ele>
        <time>2015-12-27T16:08:15.000Z</time>
      </trkpt>
      <trkpt lat="48.74327" lon="2.06002">
        <ele>156.39999389648</ele>
        <time>2015-12-27T16:08:17.000Z</time>
      </trkpt>
      <trkpt lat="48.74334" lon="2.06013">
        <ele>156.39999389648</ele>
        <time>2015-12-27T16:08:25.000Z</time>
      </trkpt>
      <trkpt lat="48.74341" lon="2.06021">
        <ele>156.39999389648</ele>
        <time>2015-12-27T16:08:32.000Z</time>
      </trkpt>
      <trkpt lat="48.74343" lon="2.06024">
        <ele>156.60000610352</ele>
        <time>2015-12-27T16:08:34.000Z</time>
      </trkpt>
      <trkpt lat="48.74344" lon="2.06028">
        <ele>156.60000610352</ele>
        <time>2015-12-27T16:08:37.000Z</time>
      </trkpt>
      <trkpt lat="48.74345" lon="2.0603">
        <ele>156.60000610352</ele>
        <time>2015-12-27T16:08:38.000Z</time>
      </trkpt>
      <trkpt lat="48.74351" lon="2.0604">
        <ele>156.60000610352</ele>
        <time>2015-12-27T16:08:45.000Z</time>
      </trkpt>
      <trkpt lat="48.74352" lon="2.06042">
        <ele>156.60000610352</ele>
        <time>2015-12-27T16:08:47.000Z</time>
      </trkpt>
      <trkpt lat="48.74353" lon="2.06047">
        <ele>156.60000610352</ele>
        <time>2015-12-27T16:08:50.000Z</time>
      </trkpt>
      <trkpt lat="48.74356" lon="2.06053">
        <ele>156.60000610352</ele>
        <time>2015-12-27T16:08:55.000Z</time>
      </trkpt>
      <trkpt lat="48.7436" lon="2.06058">
        <ele>156.60000610352</ele>
        <time>2015-12-27T16:08:59.000Z</time>
      </trkpt>
      <trkpt lat="48.74362" lon="2.06061">
        <ele>156.39999389648</ele>
        <time>2015-12-27T16:09:01.000Z</time>
      </trkpt>
      <trkpt lat="48.74364" lon="2.06062">
        <ele>156.39999389648</ele>
        <time>2015-12-27T16:09:03.000Z</time>
      </trkpt>
      <trkpt lat="48.74366" lon="2.06064">
        <ele>156.19999694824</ele>
        <time>2015-12-27T16:09:05.000Z</time>
      </trkpt>
      <trkpt lat="48.74371" lon="2.06065">
        <ele>156</ele>
        <time>2015-12-27T16:09:10.000Z</time>
      </trkpt>
      <trkpt lat="48.74373" lon="2.06065">
        <ele>156</ele>
        <time>2015-12-27T16:09:11.000Z</time>
      </trkpt>
      <trkpt lat="48.74378" lon="2.06068">
        <ele>155.80000305176</ele>
        <time>2015-12-27T16:09:17.000Z</time>
      </trkpt>
      <trkpt lat="48.74379" lon="2.06069">
        <ele>155.80000305176</ele>
        <time>2015-12-27T16:09:18.000Z</time>
      </trkpt>
      <trkpt lat="48.74381" lon="2.06073">
        <ele>155.60000610352</ele>
        <time>2015-12-27T16:09:21.000Z</time>
      </trkpt>
      <trkpt lat="48.74382" lon="2.06084">
        <ele>155.60000610352</ele>
        <time>2015-12-27T16:09:27.000Z</time>
      </trkpt>
      <trkpt lat="48.74382" lon="2.06086">
        <ele>155.60000610352</ele>
        <time>2015-12-27T16:09:28.000Z</time>
      </trkpt>
      <trkpt lat="48.74382" lon="2.06088">
        <ele>155.60000610352</ele>
        <time>2015-12-27T16:09:29.000Z</time>
      </trkpt>
      <trkpt lat="48.74383" lon="2.06093">
        <ele>155.39999389648</ele>
        <time>2015-12-27T16:09:32.000Z</time>
      </trkpt>
      <trkpt lat="48.74383" lon="2.06095">
        <ele>155.39999389648</ele>
        <time>2015-12-27T16:09:33.000Z</time>
      </trkpt>
      <trkpt lat="48.74384" lon="2.06109">
        <ele>155</ele>
        <time>2015-12-27T16:09:40.000Z</time>
      </trkpt>
      <trkpt lat="48.74385" lon="2.06121">
        <ele>154.60000610352</ele>
        <time>2015-12-27T16:09:46.000Z</time>
      </trkpt>
      <trkpt lat="48.74384" lon="2.06123">
        <ele>154.60000610352</ele>
        <time>2015-12-27T16:09:47.000Z</time>
      </trkpt>
      <trkpt lat="48.74383" lon="2.06133">
        <ele>154.19999694824</ele>
        <time>2015-12-27T16:09:52.000Z</time>
      </trkpt>
      <trkpt lat="48.74386" lon="2.06148">
        <ele>153.60000610352</ele>
        <time>2015-12-27T16:10:00.000Z</time>
      </trkpt>
      <trkpt lat="48.74387" lon="2.06159">
        <ele>153.19999694824</ele>
        <time>2015-12-27T16:10:06.000Z</time>
      </trkpt>
      <trkpt lat="48.74387" lon="2.06164">
        <ele>153.19999694824</ele>
        <time>2015-12-27T16:10:09.000Z</time>
      </trkpt>
      <trkpt lat="48.74387" lon="2.06166">
        <ele>153</ele>
        <time>2015-12-27T16:10:11.000Z</time>
      </trkpt>
      <trkpt lat="48.74385" lon="2.06168">
        <ele>153</ele>
        <time>2015-12-27T16:10:12.000Z</time>
      </trkpt>
      <trkpt lat="48.74383" lon="2.06171">
        <ele>153</ele>
        <time>2015-12-27T16:10:15.000Z</time>
      </trkpt>
      <trkpt lat="48.74382" lon="2.06177">
        <ele>153</ele>
        <time>2015-12-27T16:10:20.000Z</time>
      </trkpt>
      <trkpt lat="48.7438" lon="2.06184">
        <ele>152.80000305176</ele>
        <time>2015-12-27T16:10:25.000Z</time>
      </trkpt>
      <trkpt lat="48.7438" lon="2.06184">
        <ele>152.80000305176</ele>
        <time>2015-12-27T16:10:26.000Z</time>
      </trkpt>
      <trkpt lat="48.74366" lon="2.06203">
        <ele>152.60000610352</ele>
        <time>2015-12-27T16:10:46.000Z</time>
      </trkpt>
      <trkpt lat="48.74363" lon="2.06208">
        <ele>152.60000610352</ele>
        <time>2015-12-27T16:10:50.000Z</time>
      </trkpt>
      <trkpt lat="48.74359" lon="2.06221">
        <ele>152.39999389648</ele>
        <time>2015-12-27T16:10:57.000Z</time>
      </trkpt>
      <trkpt lat="48.74358" lon="2.06225">
        <ele>152.39999389648</ele>
        <time>2015-12-27T16:10:59.000Z</time>
      </trkpt>
      <trkpt lat="48.7436" lon="2.06229">
        <ele>152.19999694824</ele>
        <time>2015-12-27T16:11:02.000Z</time>
      </trkpt>
      <trkpt lat="48.74357" lon="2.06237">
        <ele>152</ele>
        <time>2015-12-27T16:11:07.000Z</time>
      </trkpt>
      <trkpt lat="48.74356" lon="2.06245">
        <ele>151.80000305176</ele>
        <time>2015-12-27T16:11:11.000Z</time>
      </trkpt>
      <trkpt lat="48.74354" lon="2.06247">
        <ele>152</ele>
        <time>2015-12-27T16:11:12.000Z</time>
      </trkpt>
      <trkpt lat="48.74351" lon="2.06251">
        <ele>151.80000305176</ele>
        <time>2015-12-27T16:11:16.000Z</time>
      </trkpt>
      <trkpt lat="48.7435" lon="2.06253">
        <ele>151.80000305176</ele>
        <time>2015-12-27T16:11:17.000Z</time>
      </trkpt>
      <trkpt lat="48.74348" lon="2.06256">
        <ele>151.80000305176</ele>
        <time>2015-12-27T16:11:20.000Z</time>
      </trkpt>
      <trkpt lat="48.74346" lon="2.06259">
        <ele>151.80000305176</ele>
        <time>2015-12-27T16:11:22.000Z</time>
      </trkpt>
      <trkpt lat="48.74343" lon="2.06262">
        <ele>151.80000305176</ele>
        <time>2015-12-27T16:11:25.000Z</time>
      </trkpt>
      <trkpt lat="48.74341" lon="2.06262">
        <ele>151.80000305176</ele>
        <time>2015-12-27T16:11:27.000Z</time>
      </trkpt>
      <trkpt lat="48.7434" lon="2.06264">
        <ele>151.80000305176</ele>
        <time>2015-12-27T16:11:30.000Z</time>
      </trkpt>
    </trkseg>
  </trk>
</gpx>